Wetterdaten: Samstag, 23.12.2017
Datum Zeit Temp. A. Pool Temp. Feuchte A. Luftdruck Regen Wind Richtung Richtung Sonnenschein ET UV Solar Taupunkt Windchill Windben Empfang
23.12.2017 00:00 5,3 C 3,9 C 95 % 1033,3 hPa 0,0 l/m 4,8 km/h (1 Bft) SW 225 0 min 0,000 mm 0,0 UV-I 0 W/m 4,6 C 5,3 C 6,4 km/h (2 Bft) 100,00 %
23.12.2017 00:01 5,3 C 3,9 C 95 % 1033,4 hPa 0,0 l/m 6,4 km/h (2 Bft) S-SW 202 0 min 0,000 mm 0,0 UV-I 0 W/m 4,6 C 5,3 C 6,4 km/h (2 Bft) 95,65 %
23.12.2017 00:02 5,3 C 3,9 C 95 % 1033,3 hPa 0,0 l/m 4,8 km/h (1 Bft) S-SW 202 0 min 0,000 mm 0,0 UV-I 0 W/m 4,6 C 5,3 C 6,4 km/h (2 Bft) 95,65 %
23.12.2017 00:03 5,3 C 3,9 C 95 % 1033,4 hPa 0,0 l/m 4,8 km/h (1 Bft) SW 225 0 min 0,000 mm 0,0 UV-I 0 W/m 4,6 C 5,3 C 4,8 km/h (1 Bft) 100,00 %
23.12.2017 00:04 5,3 C 3,9 C 95 % 1033,4 hPa 0,0 l/m 6,4 km/h (2 Bft) SW 225 0 min 0,000 mm 0,0 UV-I 0 W/m 4,6 C 5,3 C 6,4 km/h (2 Bft) 100,00 %
23.12.2017 00:05 5,3 C 3,9 C 95 % 1033,4 hPa 0,0 l/m 6,4 km/h (2 Bft) S-SW 202 0 min 0,000 mm 0,0 UV-I 0 W/m 4,6 C 5,3 C 8,0 km/h (2 Bft) 95,65 %
23.12.2017 00:06 5,3 C 3,9 C 95 % 1033,4 hPa 0,0 l/m 6,4 km/h (2 Bft) S-SW 202 0 min 0,000 mm 0,0 UV-I 0 W/m 4,6 C 5,3 C 8,0 km/h (2 Bft) 100,00 %
23.12.2017 00:07 5,3 C 3,9 C 95 % 1033,4 hPa 0,0 l/m 4,8 km/h (1 Bft) SW 225 0 min 0,000 mm 0,0 UV-I 0 W/m 4,6 C 5,3 C 8,0 km/h (2 Bft) 100,00 %
23.12.2017 00:08 5,3 C 3,9 C 95 % 1033,4 hPa 0,0 l/m 4,8 km/h (1 Bft) SW 225 0 min 0,000 mm 0,0 UV-I 0 W/m 4,6 C 5,3 C 6,4 km/h (2 Bft) 95,65 %
23.12.2017 00:09 5,3 C 3,9 C 95 % 1033,5 hPa 0,0 l/m 6,4 km/h (2 Bft) S-SW 202 0 min 0,000 mm 0,0 UV-I 0 W/m 4,6 C 5,3 C 9,7 km/h (2 Bft) 95,65 %
23.12.2017 00:10 5,2 C 3,9 C 95 % 1033,4 hPa 0,0 l/m 6,4 km/h (2 Bft) S-SW 202 0 min 0,000 mm 0,0 UV-I 0 W/m 4,5 C 5,2 C 9,7 km/h (2 Bft) 100,00 %
23.12.2017 00:11 5,3 C 3,9 C 95 % 1033,4 hPa 0,0 l/m 6,4 km/h (2 Bft) SW 225 0 min 0,000 mm 0,0 UV-I 0 W/m 4,6 C 5,3 C 8,0 km/h (2 Bft) 100,00 %
23.12.2017 00:12 5,2 C 3,9 C 95 % 1033,5 hPa 0,0 l/m 4,8 km/h (1 Bft) SW 225 0 min 0,000 mm 0,0 UV-I 0 W/m 4,5 C 5,2 C 6,4 km/h (2 Bft) 95,65 %
23.12.2017 00:13 5,2 C 3,9 C 95 % 1033,5 hPa 0,0 l/m 6,4 km/h (2 Bft) SW 225 0 min 0,000 mm 0,0 UV-I 0 W/m 4,5 C 5,2 C 9,7 km/h (2 Bft) 100,00 %
23.12.2017 00:14 5,2 C 3,9 C 95 % 1033,5 hPa 0,0 l/m 6,4 km/h (2 Bft) W-SW 247 0 min 0,000 mm 0,0 UV-I 0 W/m 4,5 C 5,2 C 8,0 km/h (2 Bft) 95,65 %
23.12.2017 00:15 5,2 C 3,9 C 95 % 1033,5 hPa 0,0 l/m 6,4 km/h (2 Bft) S-SW 202 0 min 0,000 mm 0,0 UV-I 0 W/m 4,5 C 5,2 C 9,7 km/h (2 Bft) 100,00 %
23.12.2017 00:16 5,2 C 3,9 C 95 % 1033,5 hPa 0,0 l/m 8,0 km/h (2 Bft) W-SW 247 0 min 0,000 mm 0,0 UV-I 0 W/m 4,5 C 3,8 C 11,3 km/h (2 Bft) 100,00 %
23.12.2017 00:17 5,2 C 3,9 C 95 % 1033,5 hPa 0,0 l/m 6,4 km/h (2 Bft) W-SW 247 0 min 0,000 mm 0,0 UV-I 0 W/m 4,5 C 5,2 C 9,7 km/h (2 Bft) 100,00 %
23.12.2017 00:18 5,2 C 3,9 C 95 % 1033,5 hPa 0,0 l/m 6,4 km/h (2 Bft) SW 225 0 min 0,000 mm 0,0 UV-I 0 W/m 4,5 C 5,2 C 9,7 km/h (2 Bft) 100,00 %
23.12.2017 00:19 5,2 C 3,9 C 95 % 1033,5 hPa 0,0 l/m 4,8 km/h (1 Bft) W-SW 247 0 min 0,000 mm 0,0 UV-I 0 W/m 4,5 C 5,2 C 6,4 km/h (2 Bft) 95,65 %
23.12.2017 00:20 5,2 C 3,9 C 95 % 1033,5 hPa 0,0 l/m 4,8 km/h (1 Bft) SW 225 0 min 0,000 mm 0,0 UV-I 0 W/m 4,5 C 5,2 C 8,0 km/h (2 Bft) 100,00 %
23.12.2017 00:21 5,2 C 3,9 C 95 % 1033,5 hPa 0,0 l/m 6,4 km/h (2 Bft) SW 225 0 min 0,000 mm 0,0 UV-I 0 W/m 4,5 C 5,2 C 8,0 km/h (2 Bft) 95,65 %
23.12.2017 00:22 5,2 C 3,9 C 95 % 1033,5 hPa 0,0 l/m 4,8 km/h (1 Bft) SW 225 0 min 0,000 mm 0,0 UV-I 0 W/m 4,5 C 5,2 C 8,0 km/h (2 Bft) 100,00 %
23.12.2017 00:23 5,2 C 3,9 C 95 % 1033,5 hPa 0,0 l/m 4,8 km/h (1 Bft) SW 225 0 min 0,000 mm 0,0 UV-I 0 W/m 4,5 C 5,2 C 6,4 km/h (2 Bft) 100,00 %
23.12.2017 00:24 5,2 C 3,9 C 95 % 1033,5 hPa 0,0 l/m 4,8 km/h (1 Bft) W-SW 247 0 min 0,000 mm 0,0 UV-I 0 W/m 4,5 C 5,2 C 6,4 km/h (2 Bft) 100,00 %
23.12.2017 00:25 5,2 C 3,9 C 95 % 1033,5 hPa 0,0 l/m 4,8 km/h (1 Bft) SW 225 0 min 0,000 mm 0,0 UV-I 0 W/m 4,5 C 5,2 C 6,4 km/h (2 Bft) 100,00 %
23.12.2017 00:26 5,2 C 3,9 C 95 % 1033,5 hPa 0,0 l/m 4,8 km/h (1 Bft) W-SW 247 0 min 0,000 mm 0,0 UV-I 0 W/m 4,5 C 5,2 C 6,4 km/h (2 Bft) 95,65 %
23.12.2017 00:27 5,2 C 3,9 C 95 % 1033,5 hPa 0,0 l/m 6,4 km/h (2 Bft) SW 225 0 min 0,000 mm 0,0 UV-I 0 W/m 4,5 C 5,2 C 9,7 km/h (2 Bft) 100,00 %
23.12.2017 00:28 5,2 C 3,9 C 95 % 1033,5 hPa 0,0 l/m 4,8 km/h (1 Bft) W-SW 247 0 min 0,000 mm 0,0 UV-I 0 W/m 4,5 C 5,2 C 8,0 km/h (2 Bft) 91,30 %
23.12.2017 00:29 5,2 C 3,9 C 95 % 1033,5 hPa 0,0 l/m 4,8 km/h (1 Bft) W-SW 247 0 min 0,000 mm 0,0 UV-I 0 W/m 4,5 C 5,2 C 6,4 km/h (2 Bft) 95,65 %
23.12.2017 00:30 5,2 C 3,9 C 95 % 1033,5 hPa 0,0 l/m 4,8 km/h (1 Bft) W-SW 247 0 min 0,000 mm 0,0 UV-I 0 W/m 4,5 C 5,2 C 6,4 km/h (2 Bft) 100,00 %
23.12.2017 00:31 5,1 C 3,9 C 95 % 1033,5 hPa 0,0 l/m 4,8 km/h (1 Bft) W-SW 247 0 min 0,000 mm 0,0 UV-I 0 W/m 4,4 C 5,1 C 8,0 km/h (2 Bft) 91,30 %
23.12.2017 00:32 5,1 C 3,9 C 95 % 1033,5 hPa 0,0 l/m 4,8 km/h (1 Bft) W-SW 247 0 min 0,000 mm 0,0 UV-I 0 W/m 4,4 C 5,1 C 6,4 km/h (2 Bft) 100,00 %
23.12.2017 00:33 5,1 C 3,9 C 95 % 1033,5 hPa 0,0 l/m 4,8 km/h (1 Bft) W-SW 247 0 min 0,000 mm 0,0 UV-I 0 W/m 4,4 C 5,1 C 6,4 km/h (2 Bft) 86,96 %
23.12.2017 00:34 5,1 C 3,9 C 95 % 1033,4 hPa 0,0 l/m 4,8 km/h (1 Bft) W-SW 247 0 min 0,000 mm 0,0 UV-I 0 W/m 4,4 C 5,1 C 8,0 km/h (2 Bft) 100,00 %
23.12.2017 00:35 5,1 C 3,9 C 95 % 1033,4 hPa 0,0 l/m 8,0 km/h (2 Bft) W-SW 247 0 min 0,000 mm 0,0 UV-I 0 W/m 4,4 C 3,7 C 9,7 km/h (2 Bft) 91,30 %
23.12.2017 00:36 5,1 C 3,9 C 95 % 1033,4 hPa 0,0 l/m 6,4 km/h (2 Bft) W-SW 247 0 min 0,000 mm 0,0 UV-I 0 W/m 4,4 C 5,1 C 9,7 km/h (2 Bft) 100,00 %
23.12.2017 00:37 5,1 C 3,9 C 95 % 1033,4 hPa 0,0 l/m 6,4 km/h (2 Bft) SW 225 0 min 0,000 mm 0,0 UV-I 0 W/m 4,4 C 5,1 C 9,7 km/h (2 Bft) 86,96 %
23.12.2017 00:38 5,1 C 3,9 C 95 % 1033,4 hPa 0,0 l/m 6,4 km/h (2 Bft) SW 225 0 min 0,000 mm 0,0 UV-I 0 W/m 4,4 C 5,1 C 8,0 km/h (2 Bft) 100,00 %
23.12.2017 00:39 5,1 C 3,9 C 95 % 1033,4 hPa 0,0 l/m 6,4 km/h (2 Bft) W-SW 247 0 min 0,000 mm 0,0 UV-I 0 W/m 4,4 C 5,1 C 8,0 km/h (2 Bft) 91,30 %
23.12.2017 00:40 5,1 C 3,9 C 95 % 1033,4 hPa 0,0 l/m 3,2 km/h (1 Bft) W-SW 247 0 min 0,000 mm 0,0 UV-I 0 W/m 4,4 C 5,1 C 6,4 km/h (2 Bft) 91,30 %
23.12.2017 00:41 5,1 C 3,9 C 95 % 1033,3 hPa 0,0 l/m 6,4 km/h (2 Bft) W-SW 247 0 min 0,000 mm 0,0 UV-I 0 W/m 4,4 C 5,1 C 9,7 km/h (2 Bft) 95,65 %
23.12.2017 00:42 5,2 C 3,9 C 95 % 1033,4 hPa 0,0 l/m 9,7 km/h (2 Bft) W-SW 247 0 min 0,000 mm 0,0 UV-I 0 W/m 4,5 C 2,5 C 12,9 km/h (3 Bft) 95,65 %
23.12.2017 00:43 5,2 C 3,9 C 95 % 1033,4 hPa 0,0 l/m 9,7 km/h (2 Bft) W-SW 247 0 min 0,000 mm 0,0 UV-I 0 W/m 4,5 C 2,5 C 12,9 km/h (3 Bft) 95,65 %
23.12.2017 00:44 5,2 C 3,9 C 95 % 1033,4 hPa 0,0 l/m 6,4 km/h (2 Bft) W-SW 247 0 min 0,000 mm 0,0 UV-I 0 W/m 4,5 C 5,2 C 11,3 km/h (2 Bft) 91,30 %
23.12.2017 00:45 5,2 C 3,9 C 95 % 1033,4 hPa 0,0 l/m 6,4 km/h (2 Bft) W-SW 247 0 min 0,000 mm 0,0 UV-I 0 W/m 4,5 C 5,2 C 8,0 km/h (2 Bft) 95,65 %
23.12.2017 00:46 5,2 C 3,9 C 95 % 1033,4 hPa 0,0 l/m 6,4 km/h (2 Bft) W-SW 247 0 min 0,000 mm 0,0 UV-I 0 W/m 4,5 C 5,2 C 9,7 km/h (2 Bft) 91,30 %
23.12.2017 00:47 5,2 C 3,9 C 95 % 1033,4 hPa 0,0 l/m 6,4 km/h (2 Bft) W-SW 247 0 min 0,000 mm 0,0 UV-I 0 W/m 4,5 C 5,2 C 9,7 km/h (2 Bft) 95,65 %
23.12.2017 00:48 5,2 C 3,9 C 95 % 1033,4 hPa 0,0 l/m 6,4 km/h (2 Bft) W-SW 247 0 min 0,000 mm 0,0 UV-I 0 W/m 4,5 C 5,2 C 11,3 km/h (2 Bft) 91,30 %
23.12.2017 00:49 5,2 C 3,9 C 95 % 1033,4 hPa 0,0 l/m 8,0 km/h (2 Bft) W-SW 247 0 min 0,000 mm 0,0 UV-I 0 W/m 4,5 C 3,8 C 12,9 km/h (3 Bft) 95,65 %
23.12.2017 00:50 5,2 C 3,9 C 95 % 1033,4 hPa 0,0 l/m 6,4 km/h (2 Bft) W-SW 247 0 min 0,000 mm 0,0 UV-I 0 W/m 4,5 C 5,2 C 8,0 km/h (2 Bft) 95,65 %
23.12.2017 00:51 5,2 C 3,9 C 95 % 1033,4 hPa 0,0 l/m 4,8 km/h (1 Bft) W-SW 247 0 min 0,000 mm 0,0 UV-I 0 W/m 4,5 C 5,2 C 8,0 km/h (2 Bft) 91,30 %
23.12.2017 00:52 5,1 C 3,9 C 95 % 1033,3 hPa 0,0 l/m 6,4 km/h (2 Bft) W-SW 247 0 min 0,000 mm 0,0 UV-I 0 W/m 4,4 C 5,1 C 11,3 km/h (2 Bft) 100,00 %
23.12.2017 00:53 5,2 C 3,9 C 95 % 1033,3 hPa 0,0 l/m 8,0 km/h (2 Bft) W-SW 247 0 min 0,000 mm 0,0 UV-I 0 W/m 4,5 C 3,8 C 11,3 km/h (2 Bft) 95,65 %
23.12.2017 00:54 5,2 C 3,9 C 95 % 1033,3 hPa 0,0 l/m 6,4 km/h (2 Bft) W-SW 247 0 min 0,000 mm 0,0 UV-I 0 W/m 4,5 C 5,2 C 9,7 km/h (2 Bft) 91,30 %
23.12.2017 00:55 5,2 C 3,9 C 95 % 1033,3 hPa 0,0 l/m 6,4 km/h (2 Bft) W-SW 247 0 min 0,000 mm 0,0 UV-I 0 W/m 4,5 C 5,2 C 11,3 km/h (2 Bft) 95,65 %
23.12.2017 00:56 5,2 C 3,9 C 95 % 1033,3 hPa 0,0 l/m 9,7 km/h (2 Bft) W-SW 247 0 min 0,000 mm 0,0 UV-I 0 W/m 4,5 C 2,5 C 12,9 km/h (3 Bft) 95,65 %
23.12.2017 00:57 5,2 C 3,9 C 95 % 1033,4 hPa 0,0 l/m 8,0 km/h (2 Bft) W-SW 247 0 min 0,000 mm 0,0 UV-I 0 W/m 4,5 C 3,8 C 11,3 km/h (2 Bft) 100,00 %
23.12.2017 00:58 5,2 C 3,9 C 95 % 1033,4 hPa 0,0 l/m 6,4 km/h (2 Bft) W 270 0 min 0,000 mm 0,0 UV-I 0 W/m 4,5 C 5,2 C 9,7 km/h (2 Bft) 95,65 %
23.12.2017 00:59 5,2 C 3,9 C 95 % 1033,3 hPa 0,0 l/m 4,8 km/h (1 Bft) W 270 0 min 0,000 mm 0,0 UV-I 0 W/m 4,5 C 5,2 C 8,0 km/h (2 Bft) 100,00 %
23.12.2017 01:00 5,2 C 3,9 C 95 % 1033,3 hPa 0,0 l/m 8,0 km/h (2 Bft) W-SW 247 0 min 0,000 mm 0,0 UV-I 0 W/m 4,5 C 3,8 C 11,3 km/h (2 Bft) 95,65 %
23.12.2017 01:01 5,2 C 3,9 C 95 % 1033,3 hPa 0,0 l/m 4,8 km/h (1 Bft) W-SW 247 0 min 0,000 mm 0,0 UV-I 0 W/m 4,5 C 5,2 C 9,7 km/h (2 Bft) 95,65 %
23.12.2017 01:02 5,2 C 3,9 C 95 % 1033,3 hPa 0,0 l/m 4,8 km/h (1 Bft) W-SW 247 0 min 0,000 mm 0,0 UV-I 0 W/m 4,5 C 5,2 C 6,4 km/h (2 Bft) 95,65 %
23.12.2017 01:03 5,2 C 3,9 C 95 % 1033,4 hPa 0,0 l/m 6,4 km/h (2 Bft) W-SW 247 0 min 0,000 mm 0,0 UV-I 0 W/m 4,5 C 5,2 C 8,0 km/h (2 Bft) 100,00 %
23.12.2017 01:04 5,2 C 3,9 C 95 % 1033,4 hPa 0,0 l/m 8,0 km/h (2 Bft) W-SW 247 0 min 0,000 mm 0,0 UV-I 0 W/m 4,5 C 3,8 C 12,9 km/h (3 Bft) 95,65 %
23.12.2017 01:05 5,2 C 3,9 C 95 % 1033,4 hPa 0,0 l/m 8,0 km/h (2 Bft) W-SW 247 0 min 0,000 mm 0,0 UV-I 0 W/m 4,5 C 3,8 C 9,7 km/h (2 Bft) 95,65 %
23.12.2017 01:06 5,2 C 3,9 C 95 % 1033,4 hPa 0,0 l/m 6,4 km/h (2 Bft) W 270 0 min 0,000 mm 0,0 UV-I 0 W/m 4,5 C 5,2 C 6,4 km/h (2 Bft) 100,00 %
23.12.2017 01:07 5,2 C 3,9 C 95 % 1033,5 hPa 0,0 l/m 6,4 km/h (2 Bft) W-SW 247 0 min 0,000 mm 0,0 UV-I 0 W/m 4,5 C 5,2 C 8,0 km/h (2 Bft) 95,65 %
23.12.2017 01:08 5,2 C 3,9 C 95 % 1033,4 hPa 0,0 l/m 8,0 km/h (2 Bft) SW 225 0 min 0,000 mm 0,0 UV-I 0 W/m 4,5 C 3,8 C 9,7 km/h (2 Bft) 91,30 %
23.12.2017 01:09 5,2 C 3,9 C 95 % 1033,5 hPa 0,0 l/m 6,4 km/h (2 Bft) W-SW 247 0 min 0,000 mm 0,0 UV-I 0 W/m 4,5 C 5,2 C 9,7 km/h (2 Bft) 100,00 %
23.12.2017 01:10 5,2 C 3,9 C 95 % 1033,4 hPa 0,0 l/m 4,8 km/h (1 Bft) W-SW 247 0 min 0,000 mm 0,0 UV-I 0 W/m 4,5 C 5,2 C 6,4 km/h (2 Bft) 100,00 %
23.12.2017 01:11 5,2 C 3,9 C 95 % 1033,5 hPa 0,0 l/m 9,7 km/h (2 Bft) W-SW 247 0 min 0,000 mm 0,0 UV-I 0 W/m 4,5 C 2,5 C 14,5 km/h (3 Bft) 100,00 %
23.12.2017 01:12 5,2 C 3,9 C 95 % 1033,5 hPa 0,0 l/m 6,4 km/h (2 Bft) W-SW 247 0 min 0,000 mm 0,0 UV-I 0 W/m 4,5 C 5,2 C 9,7 km/h (2 Bft) 100,00 %
23.12.2017 01:13 5,2 C 3,9 C 95 % 1033,5 hPa 0,0 l/m 6,4 km/h (2 Bft) W-SW 247 0 min 0,000 mm 0,0 UV-I 0 W/m 4,5 C 5,2 C 14,5 km/h (3 Bft) 95,65 %
23.12.2017 01:14 5,2 C 3,9 C 95 % 1033,5 hPa 0,0 l/m 9,7 km/h (2 Bft) W-SW 247 0 min 0,000 mm 0,0 UV-I 0 W/m 4,5 C 2,5 C 12,9 km/h (3 Bft) 100,00 %
23.12.2017 01:15 5,2 C 3,9 C 95 % 1033,5 hPa 0,0 l/m 8,0 km/h (2 Bft) W-SW 247 0 min 0,000 mm 0,0 UV-I 0 W/m 4,5 C 3,8 C 12,9 km/h (3 Bft) 100,00 %
23.12.2017 01:16 5,2 C 3,9 C 95 % 1033,5 hPa 0,0 l/m 8,0 km/h (2 Bft) W-SW 247 0 min 0,000 mm 0,0 UV-I 0 W/m 4,5 C 3,8 C 12,9 km/h (3 Bft) 91,30 %
23.12.2017 01:17 5,2 C 3,9 C 95 % 1033,4 hPa 0,0 l/m 8,0 km/h (2 Bft) W-SW 247 0 min 0,000 mm 0,0 UV-I 0 W/m 4,5 C 3,8 C 11,3 km/h (2 Bft) 100,00 %
23.12.2017 01:18 5,2 C 3,9 C 95 % 1033,5 hPa 0,0 l/m 6,4 km/h (2 Bft) W-SW 247 0 min 0,000 mm 0,0 UV-I 0 W/m 4,5 C 5,2 C 9,7 km/h (2 Bft) 100,00 %
23.12.2017 01:19 5,2 C 3,9 C 95 % 1033,4 hPa 0,0 l/m 6,4 km/h (2 Bft) W-SW 247 0 min 0,000 mm 0,0 UV-I 0 W/m 4,5 C 5,2 C 8,0 km/h (2 Bft) 100,00 %
23.12.2017 01:20 5,2 C 3,9 C 95 % 1033,4 hPa 0,0 l/m 6,4 km/h (2 Bft) W-SW 247 0 min 0,000 mm 0,0 UV-I 0 W/m 4,5 C 5,2 C 8,0 km/h (2 Bft) 100,00 %
23.12.2017 01:21 5,2 C 3,9 C 95 % 1033,4 hPa 0,0 l/m 6,4 km/h (2 Bft) W-SW 247 0 min 0,000 mm 0,0 UV-I 0 W/m 4,5 C 5,2 C 9,7 km/h (2 Bft) 100,00 %
23.12.2017 01:22 5,1 C 3,9 C 95 % 1033,4 hPa 0,0 l/m 6,4 km/h (2 Bft) SW 225 0 min 0,000 mm 0,0 UV-I 0 W/m 4,4 C 5,1 C 9,7 km/h (2 Bft) 100,00 %
23.12.2017 01:23 5,1 C 3,9 C 95 % 1033,3 hPa 0,0 l/m 6,4 km/h (2 Bft) W-SW 247 0 min 0,000 mm 0,0 UV-I 0 W/m 4,4 C 5,1 C 11,3 km/h (2 Bft) 95,65 %
23.12.2017 01:24 5,1 C 3,9 C 95 % 1033,4 hPa 0,0 l/m 8,0 km/h (2 Bft) W-SW 247 0 min 0,000 mm 0,0 UV-I 0 W/m 4,4 C 3,7 C 11,3 km/h (2 Bft) 95,65 %
23.12.2017 01:25 5,1 C 3,9 C 95 % 1033,3 hPa 0,0 l/m 8,0 km/h (2 Bft) W-SW 247 0 min 0,000 mm 0,0 UV-I 0 W/m 4,4 C 3,7 C 12,9 km/h (3 Bft) 100,00 %
23.12.2017 01:26 5,1 C 3,9 C 95 % 1033,3 hPa 0,0 l/m 6,4 km/h (2 Bft) W-SW 247 0 min 0,000 mm 0,0 UV-I 0 W/m 4,4 C 5,1 C 9,7 km/h (2 Bft) 100,00 %
23.12.2017 01:27 5,1 C 3,9 C 95 % 1033,3 hPa 0,0 l/m 6,4 km/h (2 Bft) SW 225 0 min 0,000 mm 0,0 UV-I 0 W/m 4,4 C 5,1 C 9,7 km/h (2 Bft) 100,00 %
23.12.2017 01:28 5,1 C 3,9 C 95 % 1033,2 hPa 0,0 l/m 8,0 km/h (2 Bft) SW 225 0 min 0,000 mm 0,0 UV-I 0 W/m 4,4 C 3,7 C 11,3 km/h (2 Bft) 100,00 %
23.12.2017 01:29 5,1 C 3,9 C 95 % 1033,2 hPa 0,0 l/m 8,0 km/h (2 Bft) SW 225 0 min 0,000 mm 0,0 UV-I 0 W/m 4,4 C 3,7 C 11,3 km/h (2 Bft) 95,65 %
23.12.2017 01:30 5,1 C 3,9 C 95 % 1033,2 hPa 0,0 l/m 8,0 km/h (2 Bft) SW 225 0 min 0,000 mm 0,0 UV-I 0 W/m 4,4 C 3,7 C 12,9 km/h (3 Bft) 100,00 %
23.12.2017 01:31 5,1 C 3,9 C 95 % 1033,3 hPa 0,0 l/m 9,7 km/h (2 Bft) SW 225 0 min 0,000 mm 0,0 UV-I 0 W/m 4,4 C 2,4 C 12,9 km/h (3 Bft) 95,65 %
23.12.2017 01:32 5,1 C 3,9 C 95 % 1033,2 hPa 0,0 l/m 6,4 km/h (2 Bft) SW 225 0 min 0,000 mm 0,0 UV-I 0 W/m 4,4 C 5,1 C 8,0 km/h (2 Bft) 100,00 %
23.12.2017 01:33 5,1 C 3,9 C 95 % 1033,2 hPa 0,0 l/m 6,4 km/h (2 Bft) SW 225 0 min 0,000 mm 0,0 UV-I 0 W/m 4,4 C 5,1 C 8,0 km/h (2 Bft) 100,00 %
23.12.2017 01:34 5,1 C 3,9 C 95 % 1033,2 hPa 0,0 l/m 6,4 km/h (2 Bft) SW 225 0 min 0,000 mm 0,0 UV-I 0 W/m 4,4 C 5,1 C 9,7 km/h (2 Bft) 95,65 %
23.12.2017 01:35 5,1 C 3,9 C 95 % 1033,2 hPa 0,0 l/m 8,0 km/h (2 Bft) W-SW 247 0 min 0,000 mm 0,0 UV-I 0 W/m 4,4 C 3,7 C 11,3 km/h (2 Bft) 100,00 %
23.12.2017 01:36 5,1 C 3,9 C 95 % 1033,2 hPa 0,0 l/m 6,4 km/h (2 Bft) W-SW 247 0 min 0,000 mm 0,0 UV-I 0 W/m 4,4 C 5,1 C 8,0 km/h (2 Bft) 100,00 %
23.12.2017 01:37 5,1 C 3,9 C 95 % 1033,2 hPa 0,0 l/m 6,4 km/h (2 Bft) SW 225 0 min 0,000 mm 0,0 UV-I 0 W/m 4,4 C 5,1 C 9,7 km/h (2 Bft) 91,30 %
23.12.2017 01:38 5,1 C 3,9 C 95 % 1033,3 hPa 0,0 l/m 6,4 km/h (2 Bft) W-SW 247 0 min 0,000 mm 0,0 UV-I 0 W/m 4,4 C 5,1 C 9,7 km/h (2 Bft) 100,00 %
23.12.2017 01:39 5,1 C 3,9 C 95 % 1033,3 hPa 0,0 l/m 6,4 km/h (2 Bft) W-SW 247 0 min 0,000 mm 0,0 UV-I 0 W/m 4,4 C 5,1 C 8,0 km/h (2 Bft) 100,00 %
23.12.2017 01:40 5,1 C 3,9 C 95 % 1033,3 hPa 0,0 l/m 6,4 km/h (2 Bft) W-SW 247 0 min 0,000 mm 0,0 UV-I 0 W/m 4,4 C 5,1 C 9,7 km/h (2 Bft) 100,00 %
23.12.2017 01:41 5,1 C 3,9 C 95 % 1033,3 hPa 0,0 l/m 6,4 km/h (2 Bft) W 270 0 min 0,000 mm 0,0 UV-I 0 W/m 4,4 C 5,1 C 11,3 km/h (2 Bft) 100,00 %
23.12.2017 01:42 5,1 C 3,9 C 95 % 1033,3 hPa 0,0 l/m 4,8 km/h (1 Bft) W 270 0 min 0,000 mm 0,0 UV-I 0 W/m 4,4 C 5,1 C 4,8 km/h (1 Bft) 100,00 %
23.12.2017 01:43 5,1 C 3,9 C 95 % 1033,3 hPa 0,0 l/m 4,8 km/h (1 Bft) W-SW 247 0 min 0,000 mm 0,0 UV-I 0 W/m 4,4 C 5,1 C 4,8 km/h (1 Bft) 95,65 %
23.12.2017 01:44 5,1 C 3,9 C 95 % 1033,3 hPa 0,0 l/m 4,8 km/h (1 Bft) W-SW 247 0 min 0,000 mm 0,0 UV-I 0 W/m 4,4 C 5,1 C 8,0 km/h (2 Bft) 91,30 %
23.12.2017 01:45 5,0 C 3,9 C 95 % 1033,4 hPa 0,0 l/m 6,4 km/h (2 Bft) W-SW 247 0 min 0,000 mm 0,0 UV-I 0 W/m 4,3 C 5,0 C 8,0 km/h (2 Bft) 100,00 %
23.12.2017 01:46 5,1 C 3,9 C 95 % 1033,4 hPa 0,0 l/m 4,8 km/h (1 Bft) W 270 0 min 0,000 mm 0,0 UV-I 0 W/m 4,4 C 5,1 C 8,0 km/h (2 Bft) 100,00 %
23.12.2017 01:47 5,1 C 3,9 C 95 % 1033,4 hPa 0,0 l/m 6,4 km/h (2 Bft) W-SW 247 0 min 0,000 mm 0,0 UV-I 0 W/m 4,4 C 5,1 C 9,7 km/h (2 Bft) 95,65 %
23.12.2017 01:48 5,1 C 3,9 C 95 % 1033,4 hPa 0,0 l/m 6,4 km/h (2 Bft) SW 225 0 min 0,000 mm 0,0 UV-I 0 W/m 4,4 C 5,1 C 8,0 km/h (2 Bft) 95,65 %
23.12.2017 01:49 5,1 C 3,9 C 95 % 1033,5 hPa 0,0 l/m 6,4 km/h (2 Bft) SW 225 0 min 0,000 mm 0,0 UV-I 0 W/m 4,4 C 5,1 C 9,7 km/h (2 Bft) 100,00 %
23.12.2017 01:50 5,1 C 3,9 C 95 % 1033,4 hPa 0,0 l/m 6,4 km/h (2 Bft) W-SW 247 0 min 0,000 mm 0,0 UV-I 0 W/m 4,4 C 5,1 C 8,0 km/h (2 Bft) 100,00 %
23.12.2017 01:51 5,1 C 3,9 C 95 % 1033,5 hPa 0,0 l/m 6,4 km/h (2 Bft) SW 225 0 min 0,000 mm 0,0 UV-I 0 W/m 4,4 C 5,1 C 8,0 km/h (2 Bft) 95,65 %
23.12.2017 01:52 5,1 C 3,9 C 95 % 1033,5 hPa 0,0 l/m 6,4 km/h (2 Bft) W-SW 247 0 min 0,000 mm 0,0 UV-I 0 W/m 4,4 C 5,1 C 9,7 km/h (2 Bft) 95,65 %
23.12.2017 01:53 5,1 C 3,9 C 95 % 1033,5 hPa 0,0 l/m 6,4 km/h (2 Bft) W-SW 247 0 min 0,000 mm 0,0 UV-I 0 W/m 4,4 C 5,1 C 8,0 km/h (2 Bft) 100,00 %
23.12.2017 01:54 5,0 C 3,9 C 95 % 1033,4 hPa 0,0 l/m 6,4 km/h (2 Bft) SW 225 0 min 0,000 mm 0,0 UV-I 0 W/m 4,3 C 5,0 C 6,4 km/h (2 Bft) 95,65 %
23.12.2017 01:55 5,1 C 3,9 C 95 % 1033,4 hPa 0,0 l/m 6,4 km/h (2 Bft) W-SW 247 0 min 0,000 mm 0,0 UV-I 0 W/m 4,4 C 5,1 C 9,7 km/h (2 Bft) 100,00 %
23.12.2017 01:56 5,0 C 3,9 C 95 % 1033,4 hPa 0,0 l/m 9,7 km/h (2 Bft) W-SW 247 0 min 0,000 mm 0,0 UV-I 0 W/m 4,3 C 2,3 C 12,9 km/h (3 Bft) 95,65 %
23.12.2017 01:57 5,1 C 3,9 C 95 % 1033,4 hPa 0,0 l/m 8,0 km/h (2 Bft) SW 225 0 min 0,000 mm 0,0 UV-I 0 W/m 4,4 C 3,7 C 11,3 km/h (2 Bft) 100,00 %
23.12.2017 01:58 5,0 C 3,9 C 95 % 1033,4 hPa 0,0 l/m 8,0 km/h (2 Bft) SW 225 0 min 0,000 mm 0,0 UV-I 0 W/m 4,3 C 3,6 C 9,7 km/h (2 Bft) 91,30 %
23.12.2017 01:59 5,0 C 3,9 C 95 % 1033,4 hPa 0,0 l/m 9,7 km/h (2 Bft) SW 225 0 min 0,000 mm 0,0 UV-I 0 W/m 4,3 C 2,3 C 11,3 km/h (2 Bft) 100,00 %
23.12.2017 02:00 5,0 C 3,9 C 95 % 1033,4 hPa 0,0 l/m 9,7 km/h (2 Bft) SW 225 0 min 0,000 mm 0,0 UV-I 0 W/m 4,3 C 2,3 C 12,9 km/h (3 Bft) 95,65 %
23.12.2017 02:01 5,0 C 3,9 C 95 % 1033,4 hPa 0,0 l/m 9,7 km/h (2 Bft) SW 225 0 min 0,000 mm 0,0 UV-I 0 W/m 4,3 C 2,3 C 14,5 km/h (3 Bft) 100,00 %
23.12.2017 02:02 5,0 C 3,9 C 95 % 1033,4 hPa 0,0 l/m 6,4 km/h (2 Bft) W-SW 247 0 min 0,000 mm 0,0 UV-I 0 W/m 4,3 C 5,0 C 8,0 km/h (2 Bft) 95,65 %
23.12.2017 02:03 5,0 C 3,9 C 95 % 1033,4 hPa 0,0 l/m 6,4 km/h (2 Bft) W-SW 247 0 min 0,000 mm 0,0 UV-I 0 W/m 4,3 C 5,0 C 8,0 km/h (2 Bft) 100,00 %
23.12.2017 02:04 5,0 C 3,9 C 95 % 1033,4 hPa 0,0 l/m 8,0 km/h (2 Bft) SW 225 0 min 0,000 mm 0,0 UV-I 0 W/m 4,3 C 3,6 C 12,9 km/h (3 Bft) 95,65 %
23.12.2017 02:05 5,0 C 3,9 C 95 % 1033,4 hPa 0,0 l/m 8,0 km/h (2 Bft) SW 225 0 min 0,000 mm 0,0 UV-I 0 W/m 4,3 C 3,6 C 11,3 km/h (2 Bft) 91,30 %
23.12.2017 02:06 5,0 C 3,9 C 95 % 1033,4 hPa 0,0 l/m 9,7 km/h (2 Bft) SW 225 0 min 0,000 mm 0,0 UV-I 0 W/m 4,3 C 2,3 C 12,9 km/h (3 Bft) 100,00 %
23.12.2017 02:07 5,0 C 3,9 C 95 % 1033,3 hPa 0,0 l/m 9,7 km/h (2 Bft) W-SW 247 0 min 0,000 mm 0,0 UV-I 0 W/m 4,3 C 2,3 C 12,9 km/h (3 Bft) 95,65 %
23.12.2017 02:08 4,9 C 3,9 C 95 % 1033,3 hPa 0,0 l/m 9,7 km/h (2 Bft) SW 225 0 min 0,000 mm 0,0 UV-I 0 W/m 4,2 C 2,2 C 12,9 km/h (3 Bft) 100,00 %
23.12.2017 02:09 4,9 C 3,9 C 95 % 1033,3 hPa 0,0 l/m 9,7 km/h (2 Bft) SW 225 0 min 0,000 mm 0,0 UV-I 0 W/m 4,2 C 2,2 C 11,3 km/h (2 Bft) 95,65 %
23.12.2017 02:10 4,9 C 3,9 C 95 % 1033,2 hPa 0,0 l/m 9,7 km/h (2 Bft) SW 225 0 min 0,000 mm 0,0 UV-I 0 W/m 4,2 C 2,2 C 12,9 km/h (3 Bft) 100,00 %
23.12.2017 02:11 4,9 C 3,9 C 95 % 1033,2 hPa 0,0 l/m 9,7 km/h (2 Bft) SW 225 0 min 0,000 mm 0,0 UV-I 0 W/m 4,2 C 2,2 C 11,3 km/h (2 Bft) 91,30 %
23.12.2017 02:12 4,9 C 3,9 C 95 % 1033,1 hPa 0,0 l/m 8,0 km/h (2 Bft) W-SW 247 0 min 0,000 mm 0,0 UV-I 0 W/m 4,2 C 3,5 C 12,9 km/h (3 Bft) 95,65 %
23.12.2017 02:13 4,9 C 3,9 C 95 % 1033,1 hPa 0,0 l/m 9,7 km/h (2 Bft) SW 225 0 min 0,000 mm 0,0 UV-I 0 W/m 4,2 C 2,2 C 14,5 km/h (3 Bft) 95,65 %
23.12.2017 02:14 4,9 C 3,9 C 95 % 1033,2 hPa 0,0 l/m 8,0 km/h (2 Bft) SW 225 0 min 0,000 mm 0,0 UV-I 0 W/m 4,2 C 3,5 C 9,7 km/h (2 Bft) 100,00 %
23.12.2017 02:15 4,9 C 3,9 C 95 % 1033,2 hPa 0,0 l/m 8,0 km/h (2 Bft) W-SW 247 0 min 0,000 mm 0,0 UV-I 0 W/m 4,2 C 3,5 C 11,3 km/h (2 Bft) 100,00 %
23.12.2017 02:16 4,9 C 3,9 C 95 % 1033,2 hPa 0,0 l/m 9,7 km/h (2 Bft) W-SW 247 0 min 0,000 mm 0,0 UV-I 0 W/m 4,2 C 2,2 C 12,9 km/h (3 Bft) 100,00 %
23.12.2017 02:17 4,9 C 3,9 C 95 % 1033,2 hPa 0,0 l/m 6,4 km/h (2 Bft) SW 225 0 min 0,000 mm 0,0 UV-I 0 W/m 4,2 C 4,9 C 8,0 km/h (2 Bft) 100,00 %
23.12.2017 02:18 4,9 C 3,9 C 95 % 1033,2 hPa 0,0 l/m 8,0 km/h (2 Bft) SW 225 0 min 0,000 mm 0,0 UV-I 0 W/m 4,2 C 3,5 C 11,3 km/h (2 Bft) 100,00 %
23.12.2017 02:19 4,9 C 3,9 C 95 % 1033,2 hPa 0,0 l/m 8,0 km/h (2 Bft) SW 225 0 min 0,000 mm 0,0 UV-I 0 W/m 4,2 C 3,5 C 11,3 km/h (2 Bft) 95,65 %
23.12.2017 02:20 4,9 C 3,9 C 95 % 1033,2 hPa 0,0 l/m 9,7 km/h (2 Bft) SW 225 0 min 0,000 mm 0,0 UV-I 0 W/m 4,2 C 2,2 C 14,5 km/h (3 Bft) 100,00 %
23.12.2017 02:21 4,9 C 3,9 C 95 % 1033,2 hPa 0,0 l/m 8,0 km/h (2 Bft) SW 225 0 min 0,000 mm 0,0 UV-I 0 W/m 4,2 C 3,5 C 12,9 km/h (3 Bft) 100,00 %
23.12.2017 02:22 4,9 C 3,9 C 95 % 1033,2 hPa 0,0 l/m 9,7 km/h (2 Bft) SW 225 0 min 0,000 mm 0,0 UV-I 0 W/m 4,2 C 2,2 C 12,9 km/h (3 Bft) 100,00 %
23.12.2017 02:23 4,9 C 3,9 C 95 % 1033,3 hPa 0,0 l/m 6,4 km/h (2 Bft) SW 225 0 min 0,000 mm 0,0 UV-I 0 W/m 4,2 C 4,9 C 9,7 km/h (2 Bft) 100,00 %
23.12.2017 02:24 4,9 C 3,9 C 95 % 1033,3 hPa 0,0 l/m 8,0 km/h (2 Bft) SW 225 0 min 0,000 mm 0,0 UV-I 0 W/m 4,2 C 3,5 C 11,3 km/h (2 Bft) 100,00 %
23.12.2017 02:25 4,9 C 3,9 C 95 % 1033,3 hPa 0,0 l/m 6,4 km/h (2 Bft) SW 225 0 min 0,000 mm 0,0 UV-I 0 W/m 4,2 C 4,9 C 9,7 km/h (2 Bft) 100,00 %
23.12.2017 02:26 4,9 C 3,9 C 95 % 1033,3 hPa 0,0 l/m 8,0 km/h (2 Bft) SW 225 0 min 0,000 mm 0,0 UV-I 0 W/m 4,2 C 3,5 C 12,9 km/h (3 Bft) 95,65 %
23.12.2017 02:27 4,9 C 3,9 C 95 % 1033,3 hPa 0,0 l/m 8,0 km/h (2 Bft) SW 225 0 min 0,000 mm 0,0 UV-I 0 W/m 4,2 C 3,5 C 11,3 km/h (2 Bft) 100,00 %
23.12.2017 02:28 4,9 C 3,9 C 95 % 1033,3 hPa 0,0 l/m 8,0 km/h (2 Bft) SW 225 0 min 0,000 mm 0,0 UV-I 0 W/m 4,2 C 3,5 C 11,3 km/h (2 Bft) 100,00 %
23.12.2017 02:29 4,9 C 3,9 C 95 % 1033,3 hPa 0,0 l/m 8,0 km/h (2 Bft) SW 225 0 min 0,000 mm 0,0 UV-I 0 W/m 4,2 C 3,5 C 8,0 km/h (2 Bft) 100,00 %
23.12.2017 02:30 4,9 C 3,9 C 95 % 1033,3 hPa 0,0 l/m 8,0 km/h (2 Bft) SW 225 0 min 0,000 mm 0,0 UV-I 0 W/m 4,2 C 3,5 C 11,3 km/h (2 Bft) 100,00 %
23.12.2017 02:31 4,9 C 3,9 C 95 % 1033,3 hPa 0,0 l/m 6,4 km/h (2 Bft) W-SW 247 0 min 0,000 mm 0,0 UV-I 0 W/m 4,2 C 4,9 C 8,0 km/h (2 Bft) 100,00 %
23.12.2017 02:32 4,9 C 3,9 C 95 % 1033,2 hPa 0,0 l/m 8,0 km/h (2 Bft) SW 225 0 min 0,000 mm 0,0 UV-I 0 W/m 4,2 C 3,5 C 12,9 km/h (3 Bft) 100,00 %
23.12.2017 02:33 4,9 C 3,9 C 95 % 1033,2 hPa 0,0 l/m 8,0 km/h (2 Bft) SW 225 0 min 0,000 mm 0,0 UV-I 0 W/m 4,2 C 3,5 C 9,7 km/h (2 Bft) 91,30 %
23.12.2017 02:34 4,9 C 3,9 C 94 % 1033,3 hPa 0,0 l/m 8,0 km/h (2 Bft) SW 225 0 min 0,000 mm 0,0 UV-I 0 W/m 4,0 C 3,5 C 9,7 km/h (2 Bft) 100,00 %
23.12.2017 02:35 4,9 C 3,9 C 94 % 1033,3 hPa 0,0 l/m 8,0 km/h (2 Bft) W-SW 247 0 min 0,000 mm 0,0 UV-I 0 W/m 4,0 C 3,5 C 14,5 km/h (3 Bft) 91,30 %
23.12.2017 02:36 4,9 C 3,9 C 94 % 1033,2 hPa 0,0 l/m 6,4 km/h (2 Bft) W-SW 247 0 min 0,000 mm 0,0 UV-I 0 W/m 4,0 C 4,9 C 9,7 km/h (2 Bft) 100,00 %
23.12.2017 02:37 4,9 C 3,9 C 94 % 1033,3 hPa 0,0 l/m 6,4 km/h (2 Bft) W-SW 247 0 min 0,000 mm 0,0 UV-I 0 W/m 4,0 C 4,9 C 9,7 km/h (2 Bft) 100,00 %
23.12.2017 02:38 4,9 C 3,9 C 94 % 1033,3 hPa 0,0 l/m 4,8 km/h (1 Bft) W-SW 247 0 min 0,000 mm 0,0 UV-I 0 W/m 4,0 C 4,9 C 6,4 km/h (2 Bft) 100,00 %
23.12.2017 02:39 4,9 C 3,9 C 94 % 1033,3 hPa 0,0 l/m 6,4 km/h (2 Bft) W 270 0 min 0,000 mm 0,0 UV-I 0 W/m 4,0 C 4,9 C 9,7 km/h (2 Bft) 95,65 %
23.12.2017 02:40 4,9 C 3,9 C 94 % 1033,3 hPa 0,0 l/m 6,4 km/h (2 Bft) W-SW 247 0 min 0,000 mm 0,0 UV-I 0 W/m 4,0 C 4,9 C 11,3 km/h (2 Bft) 91,30 %
23.12.2017 02:41 4,9 C 3,9 C 94 % 1033,3 hPa 0,0 l/m 6,4 km/h (2 Bft) W-SW 247 0 min 0,000 mm 0,0 UV-I 0 W/m 4,0 C 4,9 C 11,3 km/h (2 Bft) 100,00 %
23.12.2017 02:42 4,9 C 3,9 C 94 % 1033,3 hPa 0,0 l/m 6,4 km/h (2 Bft) W-SW 247 0 min 0,000 mm 0,0 UV-I 0 W/m 4,0 C 4,9 C 8,0 km/h (2 Bft) 91,30 %
23.12.2017 02:43 4,9 C 3,9 C 94 % 1033,3 hPa 0,0 l/m 6,4 km/h (2 Bft) W-SW 247 0 min 0,000 mm 0,0 UV-I 0 W/m 4,0 C 4,9 C 9,7 km/h (2 Bft) 95,65 %
23.12.2017 02:44 4,9 C 3,9 C 94 % 1033,3 hPa 0,0 l/m 6,4 km/h (2 Bft) W-SW 247 0 min 0,000 mm 0,0 UV-I 0 W/m 4,0 C 4,9 C 9,7 km/h (2 Bft) 95,65 %
23.12.2017 02:45 4,9 C 3,9 C 94 % 1033,3 hPa 0,0 l/m 6,4 km/h (2 Bft) W-SW 247 0 min 0,000 mm 0,0 UV-I 0 W/m 4,0 C 4,9 C 11,3 km/h (2 Bft) 100,00 %
23.12.2017 02:46 4,9 C 3,9 C 94 % 1033,3 hPa 0,0 l/m 8,0 km/h (2 Bft) W-SW 247 0 min 0,000 mm 0,0 UV-I 0 W/m 4,0 C 3,5 C 11,3 km/h (2 Bft) 95,65 %
23.12.2017 02:47 4,9 C 3,9 C 94 % 1033,2 hPa 0,0 l/m 6,4 km/h (2 Bft) W-SW 247 0 min 0,000 mm 0,0 UV-I 0 W/m 4,0 C 4,9 C 9,7 km/h (2 Bft) 95,65 %
23.12.2017 02:48 4,9 C 3,9 C 94 % 1033,2 hPa 0,0 l/m 8,0 km/h (2 Bft) W-SW 247 0 min 0,000 mm 0,0 UV-I 0 W/m 4,0 C 3,5 C 11,3 km/h (2 Bft) 95,65 %
23.12.2017 02:49 4,9 C 3,9 C 94 % 1033,2 hPa 0,0 l/m 9,7 km/h (2 Bft) SW 225 0 min 0,000 mm 0,0 UV-I 0 W/m 4,0 C 2,2 C 12,9 km/h (3 Bft) 95,65 %
23.12.2017 02:50 4,9 C 3,9 C 94 % 1033,1 hPa 0,0 l/m 8,0 km/h (2 Bft) SW 225 0 min 0,000 mm 0,0 UV-I 0 W/m 4,0 C 3,5 C 9,7 km/h (2 Bft) 100,00 %
23.12.2017 02:51 4,9 C 3,9 C 94 % 1033,0 hPa 0,0 l/m 8,0 km/h (2 Bft) SW 225 0 min 0,000 mm 0,0 UV-I 0 W/m 4,0 C 3,5 C 9,7 km/h (2 Bft) 95,65 %
23.12.2017 02:52 4,9 C 3,9 C 94 % 1033,0 hPa 0,0 l/m 6,4 km/h (2 Bft) W-SW 247 0 min 0,000 mm 0,0 UV-I 0 W/m 4,0 C 4,9 C 9,7 km/h (2 Bft) 100,00 %
23.12.2017 02:53 4,9 C 3,9 C 94 % 1033,1 hPa 0,0 l/m 6,4 km/h (2 Bft) SW 225 0 min 0,000 mm 0,0 UV-I 0 W/m 4,0 C 4,9 C 11,3 km/h (2 Bft) 91,30 %
23.12.2017 02:54 4,9 C 3,9 C 94 % 1033,0 hPa 0,0 l/m 8,0 km/h (2 Bft) SW 225 0 min 0,000 mm 0,0 UV-I 0 W/m 4,0 C 3,5 C 11,3 km/h (2 Bft) 95,65 %
23.12.2017 02:55 4,9 C 3,9 C 94 % 1033,1 hPa 0,0 l/m 8,0 km/h (2 Bft) SW 225 0 min 0,000 mm 0,0 UV-I 0 W/m 4,0 C 3,5 C 11,3 km/h (2 Bft) 95,65 %
23.12.2017 02:56 4,9 C 3,9 C 94 % 1033,2 hPa 0,0 l/m 9,7 km/h (2 Bft) SW 225 0 min 0,000 mm 0,0 UV-I 0 W/m 4,0 C 2,2 C 11,3 km/h (2 Bft) 100,00 %
23.12.2017 02:57 4,9 C 3,9 C 94 % 1033,2 hPa 0,0 l/m 11,3 km/h (2 Bft) SW 225 0 min 0,000 mm 0,0 UV-I 0 W/m 4,0 C 1,1 C 14,5 km/h (3 Bft) 95,65 %
23.12.2017 02:58 4,9 C 3,9 C 94 % 1033,2 hPa 0,0 l/m 9,7 km/h (2 Bft) SW 225 0 min 0,000 mm 0,0 UV-I 0 W/m 4,0 C 2,2 C 14,5 km/h (3 Bft) 95,65 %
23.12.2017 02:59 4,9 C 3,9 C 94 % 1033,2 hPa 0,0 l/m 11,3 km/h (2 Bft) SW 225 0 min 0,000 mm 0,0 UV-I 0 W/m 4,0 C 1,1 C 14,5 km/h (3 Bft) 100,00 %
23.12.2017 03:00 4,9 C 3,9 C 94 % 1033,2 hPa 0,0 l/m 9,7 km/h (2 Bft) SW 225 0 min 0,000 mm 0,0 UV-I 0 W/m 4,0 C 2,2 C 16,1 km/h (3 Bft) 95,65 %
23.12.2017 03:01 4,9 C 3,9 C 94 % 1033,2 hPa 0,0 l/m 6,4 km/h (2 Bft) SW 225 0 min 0,000 mm 0,0 UV-I 0 W/m 4,0 C 4,9 C 16,1 km/h (3 Bft) 86,96 %
23.12.2017 03:02 4,9 C 3,9 C 94 % 1033,2 hPa 0,0 l/m 6,4 km/h (2 Bft) SW 225 0 min 0,000 mm 0,0 UV-I 0 W/m 4,0 C 4,9 C 6,4 km/h (2 Bft) 91,30 %
23.12.2017 03:03 4,9 C 3,9 C 94 % 1033,2 hPa 0,0 l/m 9,7 km/h (2 Bft) SW 225 0 min 0,000 mm 0,0 UV-I 0 W/m 4,0 C 2,2 C 12,9 km/h (3 Bft) 100,00 %
23.12.2017 03:04 4,9 C 3,9 C 94 % 1033,1 hPa 0,0 l/m 8,0 km/h (2 Bft) SW 225 0 min 0,000 mm 0,0 UV-I 0 W/m 4,0 C 3,5 C 12,9 km/h (3 Bft) 95,65 %
23.12.2017 03:05 4,9 C 3,9 C 94 % 1033,1 hPa 0,0 l/m 9,7 km/h (2 Bft) SW 225 0 min 0,000 mm 0,0 UV-I 0 W/m 4,0 C 2,2 C 11,3 km/h (2 Bft) 100,00 %
23.12.2017 03:06 4,9 C 3,9 C 94 % 1033,0 hPa 0,0 l/m 8,0 km/h (2 Bft) SW 225 0 min 0,000 mm 0,0 UV-I 0 W/m 4,0 C 3,5 C 9,7 km/h (2 Bft) 91,30 %
23.12.2017 03:07 4,9 C 3,9 C 94 % 1033,1 hPa 0,0 l/m 8,0 km/h (2 Bft) SW 225 0 min 0,000 mm 0,0 UV-I 0 W/m 4,0 C 3,5 C 12,9 km/h (3 Bft) 95,65 %
23.12.2017 03:08 4,9 C 3,9 C 94 % 1033,1 hPa 0,0 l/m 9,7 km/h (2 Bft) W-SW 247 0 min 0,000 mm 0,0 UV-I 0 W/m 4,0 C 2,2 C 12,9 km/h (3 Bft) 95,65 %
23.12.2017 03:09 4,9 C 3,9 C 94 % 1033,2 hPa 0,0 l/m 9,7 km/h (2 Bft) W-SW 247 0 min 0,000 mm 0,0 UV-I 0 W/m 4,0 C 2,2 C 14,5 km/h (3 Bft) 91,30 %
23.12.2017 03:10 4,9 C 3,9 C 94 % 1033,2 hPa 0,0 l/m 11,3 km/h (2 Bft) W-SW 247 0 min 0,000 mm 0,0 UV-I 0 W/m 4,0 C 1,1 C 16,1 km/h (3 Bft) 100,00 %
23.12.2017 03:11 4,9 C 3,9 C 94 % 1033,2 hPa 0,0 l/m 12,9 km/h (3 Bft) W-SW 247 0 min 0,000 mm 0,0 UV-I 0 W/m 4,0 C 0,1 C 16,1 km/h (3 Bft) 95,65 %
23.12.2017 03:12 4,9 C 3,9 C 94 % 1033,1 hPa 0,0 l/m 11,3 km/h (2 Bft) W-SW 247 0 min 0,000 mm 0,0 UV-I 0 W/m 4,0 C 1,1 C 16,1 km/h (3 Bft) 100,00 %
23.12.2017 03:13 4,9 C 3,9 C 94 % 1033,1 hPa 0,0 l/m 16,1 km/h (3 Bft) W 270 0 min 0,000 mm 0,0 UV-I 0 W/m 4,0 C -1,6 C 22,5 km/h (4 Bft) 95,65 %
23.12.2017 03:14 5,0 C 3,9 C 94 % 1033,1 hPa 0,0 l/m 11,3 km/h (2 Bft) W-SW 247 0 min 0,000 mm 0,0 UV-I 0 W/m 4,1 C 1,2 C 22,5 km/h (4 Bft) 100,00 %
23.12.2017 03:15 4,9 C 3,9 C 94 % 1033,1 hPa 0,0 l/m 11,3 km/h (2 Bft) W 270 0 min 0,000 mm 0,0 UV-I 0 W/m 4,0 C 1,1 C 14,5 km/h (3 Bft) 91,30 %
23.12.2017 03:16 5,0 C 3,9 C 94 % 1033,1 hPa 0,0 l/m 9,7 km/h (2 Bft) W-SW 247 0 min 0,000 mm 0,0 UV-I 0 W/m 4,1 C 2,3 C 14,5 km/h (3 Bft) 100,00 %
23.12.2017 03:17 5,0 C 3,9 C 94 % 1033,0 hPa 0,0 l/m 9,7 km/h (2 Bft) W-SW 247 0 min 0,000 mm 0,0 UV-I 0 W/m 4,1 C 2,3 C 16,1 km/h (3 Bft) 95,65 %
23.12.2017 03:18 5,0 C 3,9 C 94 % 1033,0 hPa 0,0 l/m 11,3 km/h (2 Bft) W 270 0 min 0,000 mm 0,0 UV-I 0 W/m 4,1 C 1,2 C 12,9 km/h (3 Bft) 100,00 %
23.12.2017 03:19 5,0 C 3,9 C 94 % 1032,9 hPa 0,0 l/m 9,7 km/h (2 Bft) W-SW 247 0 min 0,000 mm 0,0 UV-I 0 W/m 4,1 C 2,3 C 12,9 km/h (3 Bft) 95,65 %
23.12.2017 03:20 5,0 C 3,9 C 94 % 1032,9 hPa 0,0 l/m 11,3 km/h (2 Bft) W-SW 247 0 min 0,000 mm 0,0 UV-I 0 W/m 4,1 C 1,2 C 14,5 km/h (3 Bft) 100,00 %
23.12.2017 03:21 5,0 C 3,9 C 93 % 1032,9 hPa 0,0 l/m 14,5 km/h (3 Bft) W-SW 247 0 min 0,000 mm 0,0 UV-I 0 W/m 4,0 C -0,7 C 17,7 km/h (3 Bft) 95,65 %
23.12.2017 03:22 5,1 C 3,9 C 93 % 1032,8 hPa 0,0 l/m 11,3 km/h (2 Bft) W 270 0 min 0,000 mm 0,0 UV-I 0 W/m 4,1 C 1,3 C 16,1 km/h (3 Bft) 95,65 %
23.12.2017 03:23 5,1 C 3,9 C 93 % 1032,8 hPa 0,0 l/m 11,3 km/h (2 Bft) W-SW 247 0 min 0,000 mm 0,0 UV-I 0 W/m 4,1 C 1,3 C 16,1 km/h (3 Bft) 95,65 %
23.12.2017 03:24 5,1 C 3,9 C 93 % 1032,8 hPa 0,0 l/m 11,3 km/h (2 Bft) W-SW 247 0 min 0,000 mm 0,0 UV-I 0 W/m 4,1 C 1,3 C 14,5 km/h (3 Bft) 95,65 %
23.12.2017 03:25 5,1 C 3,9 C 93 % 1032,8 hPa 0,0 l/m 12,9 km/h (3 Bft) W-SW 247 0 min 0,000 mm 0,0 UV-I 0 W/m 4,1 C 0,3 C 17,7 km/h (3 Bft) 100,00 %
23.12.2017 03:26 5,1 C 3,9 C 93 % 1032,8 hPa 0,0 l/m 14,5 km/h (3 Bft) W-SW 247 0 min 0,000 mm 0,0 UV-I 0 W/m 4,1 C -0,5 C 20,9 km/h (4 Bft) 95,65 %
23.12.2017 03:27 5,1 C 3,9 C 93 % 1032,8 hPa 0,0 l/m 16,1 km/h (3 Bft) W 270 0 min 0,000 mm 0,0 UV-I 0 W/m 4,1 C -1,3 C 20,9 km/h (4 Bft) 100,00 %
23.12.2017 03:28 5,2 C 3,9 C 93 % 1032,7 hPa 0,0 l/m 17,7 km/h (3 Bft) W 270 0 min 0,000 mm 0,0 UV-I 0 W/m 4,2 C -2,0 C 25,7 km/h (4 Bft) 95,65 %
23.12.2017 03:29 5,2 C 3,9 C 92 % 1032,7 hPa 0,0 l/m 17,7 km/h (3 Bft) W-SW 247 0 min 0,000 mm 0,0 UV-I 0 W/m 4,0 C -2,0 C 24,1 km/h (4 Bft) 95,65 %
23.12.2017 03:30 5,3 C 3,9 C 92 % 1032,7 hPa 0,0 l/m 14,5 km/h (3 Bft) W-SW 247 0 min 0,000 mm 0,0 UV-I 0 W/m 4,1 C -0,3 C 25,7 km/h (4 Bft) 95,65 %
23.12.2017 03:31 5,3 C 3,9 C 92 % 1032,7 hPa 0,0 l/m 12,9 km/h (3 Bft) W-SW 247 0 min 0,000 mm 0,0 UV-I 0 W/m 4,1 C 0,6 C 17,7 km/h (3 Bft) 100,00 %
23.12.2017 03:32 5,3 C 3,9 C 92 % 1032,7 hPa 0,0 l/m 12,9 km/h (3 Bft) W 270 0 min 0,000 mm 0,0 UV-I 0 W/m 4,1 C 0,6 C 17,7 km/h (3 Bft) 95,65 %
23.12.2017 03:33 5,3 C 3,9 C 91 % 1032,7 hPa 0,0 l/m 11,3 km/h (2 Bft) W-SW 247 0 min 0,000 mm 0,0 UV-I 0 W/m 4,0 C 1,5 C 16,1 km/h (3 Bft) 95,65 %
23.12.2017 03:34 5,3 C 3,9 C 91 % 1032,7 hPa 0,0 l/m 14,5 km/h (3 Bft) W-SW 247 0 min 0,000 mm 0,0 UV-I 0 W/m 4,0 C -0,3 C 19,3 km/h (3 Bft) 91,30 %
23.12.2017 03:35 5,3 C 3,9 C 91 % 1032,7 hPa 0,0 l/m 12,9 km/h (3 Bft) W-SW 247 0 min 0,000 mm 0,0 UV-I 0 W/m 4,0 C 0,6 C 16,1 km/h (3 Bft) 100,00 %
23.12.2017 03:36 5,3 C 3,9 C 91 % 1032,7 hPa 0,0 l/m 17,7 km/h (3 Bft) W-SW 247 0 min 0,000 mm 0,0 UV-I 0 W/m 4,0 C -1,8 C 25,7 km/h (4 Bft) 82,61 %
23.12.2017 03:37 5,3 C 3,9 C 91 % 1032,7 hPa 0,0 l/m 11,3 km/h (2 Bft) W-SW 247 0 min 0,000 mm 0,0 UV-I 0 W/m 4,0 C 1,5 C 27,4 km/h (4 Bft) 100,00 %
23.12.2017 03:38 5,3 C 3,9 C 91 % 1032,7 hPa 0,0 l/m 11,3 km/h (2 Bft) W-SW 247 0 min 0,000 mm 0,0 UV-I 0 W/m 4,0 C 1,5 C 14,5 km/h (3 Bft) 95,65 %
23.12.2017 03:39 5,3 C 3,9 C 91 % 1032,7 hPa 0,0 l/m 16,1 km/h (3 Bft) W 270 0 min 0,000 mm 0,0 UV-I 0 W/m 4,0 C -1,1 C 22,5 km/h (4 Bft) 100,00 %
23.12.2017 03:40 5,3 C 3,9 C 91 % 1032,6 hPa 0,0 l/m 17,7 km/h (3 Bft) W-SW 247 0 min 0,000 mm 0,0 UV-I 0 W/m 4,0 C -1,8 C 20,9 km/h (4 Bft) 95,65 %
23.12.2017 03:41 5,4 C 3,9 C 91 % 1032,7 hPa 0,0 l/m 17,7 km/h (3 Bft) W 270 0 min 0,000 mm 0,0 UV-I 0 W/m 4,1 C -1,7 C 22,5 km/h (4 Bft) 100,00 %
23.12.2017 03:42 5,4 C 3,9 C 91 % 1032,6 hPa 0,0 l/m 16,1 km/h (3 Bft) W-SW 247 0 min 0,000 mm 0,0 UV-I 0 W/m 4,1 C -1,0 C 20,9 km/h (4 Bft) 100,00 %
23.12.2017 03:43 5,4 C 3,9 C 90 % 1032,6 hPa 0,0 l/m 12,9 km/h (3 Bft) W-SW 247 0 min 0,000 mm 0,0 UV-I 0 W/m 3,9 C 0,7 C 16,1 km/h (3 Bft) 95,65 %
23.12.2017 03:44 5,4 C 3,9 C 90 % 1032,6 hPa 0,0 l/m 12,9 km/h (3 Bft) W 270 0 min 0,000 mm 0,0 UV-I 0 W/m 3,9 C 0,7 C 16,1 km/h (3 Bft) 100,00 %
23.12.2017 03:45 5,4 C 3,9 C 90 % 1032,6 hPa 0,0 l/m 12,9 km/h (3 Bft) W-SW 247 0 min 0,000 mm 0,0 UV-I 0 W/m 3,9 C 0,7 C 19,3 km/h (3 Bft) 100,00 %
23.12.2017 03:46 5,4 C 3,9 C 90 % 1032,6 hPa 0,0 l/m 12,9 km/h (3 Bft) W 270 0 min 0,000 mm 0,0 UV-I 0 W/m 3,9 C 0,7 C 17,7 km/h (3 Bft) 100,00 %
23.12.2017 03:47 5,4 C 3,9 C 90 % 1032,5 hPa 0,0 l/m 11,3 km/h (2 Bft) W 270 0 min 0,000 mm 0,0 UV-I 0 W/m 3,9 C 1,7 C 19,3 km/h (3 Bft) 100,00 %
23.12.2017 03:48 5,4 C 3,9 C 90 % 1032,5 hPa 0,0 l/m 14,5 km/h (3 Bft) W 270 0 min 0,000 mm 0,0 UV-I 0 W/m 3,9 C -0,2 C 22,5 km/h (4 Bft) 100,00 %
23.12.2017 03:49 5,4 C 3,9 C 90 % 1032,5 hPa 0,0 l/m 12,9 km/h (3 Bft) W 270 0 min 0,000 mm 0,0 UV-I 0 W/m 3,9 C 0,7 C 20,9 km/h (4 Bft) 100,00 %
23.12.2017 03:50 5,4 C 3,9 C 90 % 1032,5 hPa 0,0 l/m 16,1 km/h (3 Bft) W-SW 247 0 min 0,000 mm 0,0 UV-I 0 W/m 3,9 C -1,0 C 20,9 km/h (4 Bft) 95,65 %
23.12.2017 03:51 5,4 C 3,9 C 90 % 1032,5 hPa 0,0 l/m 17,7 km/h (3 Bft) W 270 0 min 0,000 mm 0,0 UV-I 0 W/m 3,9 C -1,7 C 32,2 km/h (5 Bft) 100,00 %
23.12.2017 03:52 5,4 C 3,9 C 90 % 1032,4 hPa 0,0 l/m 12,9 km/h (3 Bft) W-SW 247 0 min 0,000 mm 0,0 UV-I 0 W/m 3,9 C 0,7 C 22,5 km/h (4 Bft) 95,65 %
23.12.2017 03:53 5,4 C 3,9 C 90 % 1032,5 hPa 0,0 l/m 14,5 km/h (3 Bft) W 270 0 min 0,000 mm 0,0 UV-I 0 W/m 3,9 C -0,2 C 25,7 km/h (4 Bft) 95,65 %
23.12.2017 03:54 5,4 C 3,9 C 90 % 1032,5 hPa 0,0 l/m 16,1 km/h (3 Bft) W-SW 247 0 min 0,000 mm 0,0 UV-I 0 W/m 3,9 C -1,0 C 32,2 km/h (5 Bft) 100,00 %
23.12.2017 03:55 5,4 C 3,9 C 90 % 1032,5 hPa 0,0 l/m 12,9 km/h (3 Bft) W 270 0 min 0,000 mm 0,0 UV-I 0 W/m 3,9 C 0,7 C 19,3 km/h (3 Bft) 100,00 %
23.12.2017 03:56 5,4 C 3,9 C 90 % 1032,4 hPa 0,0 l/m 14,5 km/h (3 Bft) W-SW 247 0 min 0,000 mm 0,0 UV-I 0 W/m 3,9 C -0,2 C 19,3 km/h (3 Bft) 100,00 %
23.12.2017 03:57 5,4 C 3,9 C 90 % 1032,4 hPa 0,0 l/m 12,9 km/h (3 Bft) W-SW 247 0 min 0,000 mm 0,0 UV-I 0 W/m 3,9 C 0,7 C 19,3 km/h (3 Bft) 95,65 %
23.12.2017 03:58 5,4 C 3,9 C 90 % 1032,4 hPa 0,0 l/m 9,7 km/h (2 Bft) W-SW 247 0 min 0,000 mm 0,0 UV-I 0 W/m 3,9 C 2,7 C 16,1 km/h (3 Bft) 100,00 %
23.12.2017 03:59 5,3 C 3,9 C 90 % 1032,3 hPa 0,0 l/m 12,9 km/h (3 Bft) W-SW 247 0 min 0,000 mm 0,0 UV-I 0 W/m 3,8 C 0,6 C 19,3 km/h (3 Bft) 95,65 %
23.12.2017 04:00 5,3 C 3,9 C 90 % 1032,3 hPa 0,0 l/m 12,9 km/h (3 Bft) W 270 0 min 0,000 mm 0,0 UV-I 0 W/m 3,8 C 0,6 C 17,7 km/h (3 Bft) 100,00 %
23.12.2017 04:01 5,3 C 3,9 C 90 % 1032,2 hPa 0,0 l/m 14,5 km/h (3 Bft) W-SW 247 0 min 0,000 mm 0,0 UV-I 0 W/m 3,8 C -0,3 C 20,9 km/h (4 Bft) 100,00 %
23.12.2017 04:02 5,3 C 3,9 C 90 % 1032,3 hPa 0,0 l/m 14,5 km/h (3 Bft) W-SW 247 0 min 0,000 mm 0,0 UV-I 0 W/m 3,8 C -0,3 C 20,9 km/h (4 Bft) 100,00 %
23.12.2017 04:03 5,3 C 3,9 C 91 % 1032,3 hPa 0,0 l/m 16,1 km/h (3 Bft) W-SW 247 0 min 0,000 mm 0,0 UV-I 0 W/m 4,0 C -1,1 C 22,5 km/h (4 Bft) 95,65 %
23.12.2017 04:04 5,3 C 3,9 C 91 % 1032,2 hPa 0,0 l/m 17,7 km/h (3 Bft) W-SW 247 0 min 0,000 mm 0,0 UV-I 0 W/m 4,0 C -1,8 C 22,5 km/h (4 Bft) 95,65 %
23.12.2017 04:05 5,3 C 3,9 C 91 % 1032,2 hPa 0,0 l/m 16,1 km/h (3 Bft) W-SW 247 0 min 0,000 mm 0,0 UV-I 0 W/m 4,0 C -1,1 C 20,9 km/h (4 Bft) 100,00 %
23.12.2017 04:06 5,3 C 3,9 C 91 % 1032,3 hPa 0,0 l/m 16,1 km/h (3 Bft) W-SW 247 0 min 0,000 mm 0,0 UV-I 0 W/m 4,0 C -1,1 C 20,9 km/h (4 Bft) 100,00 %
23.12.2017 04:07 5,3 C 3,9 C 91 % 1032,2 hPa 0,0 l/m 17,7 km/h (3 Bft) W-SW 247 0 min 0,000 mm 0,0 UV-I 0 W/m 4,0 C -1,8 C 24,1 km/h (4 Bft) 100,00 %
23.12.2017 04:08 5,3 C 3,9 C 91 % 1032,2 hPa 0,0 l/m 12,9 km/h (3 Bft) W-SW 247 0 min 0,000 mm 0,0 UV-I 0 W/m 4,0 C 0,6 C 19,3 km/h (3 Bft) 100,00 %
23.12.2017 04:09 5,3 C 3,9 C 91 % 1032,3 hPa 0,0 l/m 14,5 km/h (3 Bft) W-SW 247 0 min 0,000 mm 0,0 UV-I 0 W/m 4,0 C -0,3 C 19,3 km/h (3 Bft) 100,00 %
23.12.2017 04:10 5,3 C 3,9 C 91 % 1032,3 hPa 0,0 l/m 14,5 km/h (3 Bft) W-SW 247 0 min 0,000 mm 0,0 UV-I 0 W/m 4,0 C -0,3 C 19,3 km/h (3 Bft) 100,00 %
23.12.2017 04:11 5,3 C 3,9 C 91 % 1032,3 hPa 0,0 l/m 12,9 km/h (3 Bft) W-SW 247 0 min 0,000 mm 0,0 UV-I 0 W/m 4,0 C 0,6 C 16,1 km/h (3 Bft) 95,65 %
23.12.2017 04:12 5,3 C 3,9 C 91 % 1032,3 hPa 0,0 l/m 9,7 km/h (2 Bft) W-SW 247 0 min 0,000 mm 0,0 UV-I 0 W/m 4,0 C 2,6 C 16,1 km/h (3 Bft) 95,65 %
23.12.2017 04:13 5,3 C 3,9 C 91 % 1032,3 hPa 0,0 l/m 14,5 km/h (3 Bft) W 270 0 min 0,000 mm 0,0 UV-I 0 W/m 4,0 C -0,3 C 17,7 km/h (3 Bft) 100,00 %
23.12.2017 04:14 5,3 C 3,9 C 91 % 1032,3 hPa 0,0 l/m 14,5 km/h (3 Bft) W-SW 247 0 min 0,000 mm 0,0 UV-I 0 W/m 4,0 C -0,3 C 17,7 km/h (3 Bft) 100,00 %
23.12.2017 04:15 5,3 C 3,9 C 91 % 1032,3 hPa 0,0 l/m 14,5 km/h (3 Bft) W-SW 247 0 min 0,000 mm 0,0 UV-I 0 W/m 4,0 C -0,3 C 17,7 km/h (3 Bft) 100,00 %
23.12.2017 04:16 5,3 C 3,9 C 90 % 1032,3 hPa 0,0 l/m 12,9 km/h (3 Bft) W-SW 247 0 min 0,000 mm 0,0 UV-I 0 W/m 3,8 C 0,6 C 17,7 km/h (3 Bft) 100,00 %
23.12.2017 04:17 5,3 C 3,9 C 90 % 1032,3 hPa 0,0 l/m 8,0 km/h (2 Bft) W-SW 247 0 min 0,000 mm 0,0 UV-I 0 W/m 3,8 C 3,9 C 12,9 km/h (3 Bft) 100,00 %
23.12.2017 04:18 5,3 C 3,9 C 90 % 1032,3 hPa 0,0 l/m 8,0 km/h (2 Bft) W-SW 247 0 min 0,000 mm 0,0 UV-I 0 W/m 3,8 C 3,9 C 14,5 km/h (3 Bft) 95,65 %
23.12.2017 04:19 5,3 C 3,9 C 91 % 1032,3 hPa 0,0 l/m 11,3 km/h (2 Bft) W-SW 247 0 min 0,000 mm 0,0 UV-I 0 W/m 4,0 C 1,5 C 14,5 km/h (3 Bft) 100,00 %
23.12.2017 04:20 5,3 C 3,9 C 91 % 1032,4 hPa 0,0 l/m 11,3 km/h (2 Bft) W 270 0 min 0,000 mm 0,0 UV-I 0 W/m 4,0 C 1,5 C 19,3 km/h (3 Bft) 100,00 %
23.12.2017 04:21 5,3 C 3,9 C 91 % 1032,4 hPa 0,0 l/m 16,1 km/h (3 Bft) W-SW 247 0 min 0,000 mm 0,0 UV-I 0 W/m 4,0 C -1,1 C 20,9 km/h (4 Bft) 100,00 %
23.12.2017 04:22 5,3 C 3,9 C 91 % 1032,4 hPa 0,0 l/m 9,7 km/h (2 Bft) W 270 0 min 0,000 mm 0,0 UV-I 0 W/m 4,0 C 2,6 C 12,9 km/h (3 Bft) 100,00 %
23.12.2017 04:23 5,3 C 3,9 C 90 % 1032,4 hPa 0,0 l/m 8,0 km/h (2 Bft) W-SW 247 0 min 0,000 mm 0,0 UV-I 0 W/m 3,8 C 3,9 C 11,3 km/h (2 Bft) 100,00 %
23.12.2017 04:24 5,3 C 3,9 C 90 % 1032,4 hPa 0,0 l/m 11,3 km/h (2 Bft) W 270 0 min 0,000 mm 0,0 UV-I 0 W/m 3,8 C 1,5 C 16,1 km/h (3 Bft) 95,65 %
23.12.2017 04:25 5,3 C 3,9 C 91 % 1032,4 hPa 0,0 l/m 12,9 km/h (3 Bft) W 270 0 min 0,000 mm 0,0 UV-I 0 W/m 4,0 C 0,6 C 20,9 km/h (4 Bft) 95,65 %
23.12.2017 04:26 5,3 C 3,9 C 91 % 1032,4 hPa 0,0 l/m 8,0 km/h (2 Bft) W 270 0 min 0,000 mm 0,0 UV-I 0 W/m 4,0 C 3,9 C 14,5 km/h (3 Bft) 100,00 %
23.12.2017 04:27 5,3 C 3,9 C 90 % 1032,4 hPa 0,0 l/m 11,3 km/h (2 Bft) W-SW 247 0 min 0,000 mm 0,0 UV-I 0 W/m 3,8 C 1,5 C 16,1 km/h (3 Bft) 100,00 %
23.12.2017 04:28 5,3 C 3,9 C 90 % 1032,4 hPa 0,0 l/m 14,5 km/h (3 Bft) W-SW 247 0 min 0,000 mm 0,0 UV-I 0 W/m 3,8 C -0,3 C 20,9 km/h (4 Bft) 95,65 %
23.12.2017 04:29 5,3 C 3,9 C 90 % 1032,4 hPa 0,0 l/m 12,9 km/h (3 Bft) W 270 0 min 0,000 mm 0,0 UV-I 0 W/m 3,8 C 0,6 C 16,1 km/h (3 Bft) 100,00 %
23.12.2017 04:30 5,3 C 3,9 C 90 % 1032,4 hPa 0,0 l/m 9,7 km/h (2 Bft) W-SW 247 0 min 0,000 mm 0,0 UV-I 0 W/m 3,8 C 2,6 C 12,9 km/h (3 Bft) 100,00 %
23.12.2017 04:31 5,3 C 3,9 C 90 % 1032,4 hPa 0,0 l/m 12,9 km/h (3 Bft) W-SW 247 0 min 0,000 mm 0,0 UV-I 0 W/m 3,8 C 0,6 C 17,7 km/h (3 Bft) 100,00 %
23.12.2017 04:32 5,3 C 3,9 C 90 % 1032,3 hPa 0,0 l/m 14,5 km/h (3 Bft) W-SW 247 0 min 0,000 mm 0,0 UV-I 0 W/m 3,8 C -0,3 C 17,7 km/h (3 Bft) 95,65 %
23.12.2017 04:33 5,3 C 3,9 C 90 % 1032,3 hPa 0,0 l/m 11,3 km/h (2 Bft) W-SW 247 0 min 0,000 mm 0,0 UV-I 0 W/m 3,8 C 1,5 C 12,9 km/h (3 Bft) 95,65 %
23.12.2017 04:34 5,3 C 3,9 C 90 % 1032,3 hPa 0,0 l/m 12,9 km/h (3 Bft) W-SW 247 0 min 0,000 mm 0,0 UV-I 0 W/m 3,8 C 0,6 C 20,9 km/h (4 Bft) 100,00 %
23.12.2017 04:35 5,3 C 3,9 C 90 % 1032,3 hPa 0,0 l/m 16,1 km/h (3 Bft) W 270 0 min 0,000 mm 0,0 UV-I 0 W/m 3,8 C -1,1 C 19,3 km/h (3 Bft) 100,00 %
23.12.2017 04:36 5,3 C 3,9 C 90 % 1032,3 hPa 0,0 l/m 16,1 km/h (3 Bft) W 270 0 min 0,000 mm 0,0 UV-I 0 W/m 3,8 C -1,1 C 20,9 km/h (4 Bft) 100,00 %
23.12.2017 04:37 5,3 C 3,9 C 90 % 1032,3 hPa 0,0 l/m 12,9 km/h (3 Bft) W-SW 247 0 min 0,000 mm 0,0 UV-I 0 W/m 3,8 C 0,6 C 16,1 km/h (3 Bft) 100,00 %
23.12.2017 04:38 5,3 C 3,9 C 90 % 1032,3 hPa 0,0 l/m 9,7 km/h (2 Bft) W-SW 247 0 min 0,000 mm 0,0 UV-I 0 W/m 3,8 C 2,6 C 12,9 km/h (3 Bft) 100,00 %
23.12.2017 04:39 5,3 C 3,9 C 90 % 1032,3 hPa 0,0 l/m 14,5 km/h (3 Bft) W-SW 247 0 min 0,000 mm 0,0 UV-I 0 W/m 3,8 C -0,3 C 19,3 km/h (3 Bft) 91,30 %
23.12.2017 04:40 5,3 C 3,9 C 90 % 1032,3 hPa 0,0 l/m 11,3 km/h (2 Bft) W-SW 247 0 min 0,000 mm 0,0 UV-I 0 W/m 3,8 C 1,5 C 17,7 km/h (3 Bft) 100,00 %
23.12.2017 04:41 5,3 C 3,9 C 90 % 1032,3 hPa 0,0 l/m 9,7 km/h (2 Bft) W 270 0 min 0,000 mm 0,0 UV-I 0 W/m 3,8 C 2,6 C 17,7 km/h (3 Bft) 100,00 %
23.12.2017 04:42 5,3 C 3,9 C 90 % 1032,3 hPa 0,0 l/m 14,5 km/h (3 Bft) W 270 0 min 0,000 mm 0,0 UV-I 0 W/m 3,8 C -0,3 C 19,3 km/h (3 Bft) 91,30 %
23.12.2017 04:43 5,3 C 3,9 C 91 % 1032,2 hPa 0,0 l/m 11,3 km/h (2 Bft) W-SW 247 0 min 0,000 mm 0,0 UV-I 0 W/m 4,0 C 1,5 C 17,7 km/h (3 Bft) 100,00 %
23.12.2017 04:44 5,3 C 3,9 C 91 % 1032,2 hPa 0,0 l/m 14,5 km/h (3 Bft) W-SW 247 0 min 0,000 mm 0,0 UV-I 0 W/m 4,0 C -0,3 C 17,7 km/h (3 Bft) 91,30 %
23.12.2017 04:45 5,3 C 3,9 C 91 % 1032,2 hPa 0,0 l/m 11,3 km/h (2 Bft) W-SW 247 0 min 0,000 mm 0,0 UV-I 0 W/m 4,0 C 1,5 C 12,9 km/h (3 Bft) 95,65 %
23.12.2017 04:46 5,3 C 3,9 C 91 % 1032,1 hPa 0,0 l/m 14,5 km/h (3 Bft) W 270 0 min 0,000 mm 0,0 UV-I 0 W/m 4,0 C -0,3 C 17,7 km/h (3 Bft) 91,30 %
23.12.2017 04:47 5,3 C 3,9 C 91 % 1032,2 hPa 0,0 l/m 12,9 km/h (3 Bft) W-SW 247 0 min 0,000 mm 0,0 UV-I 0 W/m 4,0 C 0,6 C 17,7 km/h (3 Bft) 95,65 %
23.12.2017 04:48 5,3 C 3,9 C 91 % 1032,1 hPa 0,0 l/m 11,3 km/h (2 Bft) W-SW 247 0 min 0,000 mm 0,0 UV-I 0 W/m 4,0 C 1,5 C 14,5 km/h (3 Bft) 95,65 %
23.12.2017 04:49 5,3 C 3,9 C 91 % 1032,1 hPa 0,0 l/m 12,9 km/h (3 Bft) W-SW 247 0 min 0,000 mm 0,0 UV-I 0 W/m 4,0 C 0,6 C 16,1 km/h (3 Bft) 95,65 %
23.12.2017 04:50 5,3 C 3,9 C 91 % 1032,1 hPa 0,0 l/m 12,9 km/h (3 Bft) W-SW 247 0 min 0,000 mm 0,0 UV-I 0 W/m 4,0 C 0,6 C 16,1 km/h (3 Bft) 95,65 %
23.12.2017 04:51 5,3 C 3,9 C 91 % 1032,1 hPa 0,0 l/m 14,5 km/h (3 Bft) W-SW 247 0 min 0,000 mm 0,0 UV-I 0 W/m 4,0 C -0,3 C 17,7 km/h (3 Bft) 95,65 %
23.12.2017 04:52 5,2 C 3,9 C 91 % 1032,0 hPa 0,0 l/m 11,3 km/h (2 Bft) W-SW 247 0 min 0,000 mm 0,0 UV-I 0 W/m 3,9 C 1,4 C 12,9 km/h (3 Bft) 100,00 %
23.12.2017 04:53 5,2 C 3,9 C 91 % 1032,0 hPa 0,0 l/m 12,9 km/h (3 Bft) W-SW 247 0 min 0,000 mm 0,0 UV-I 0 W/m 3,9 C 0,5 C 16,1 km/h (3 Bft) 86,96 %
23.12.2017 04:54 5,2 C 3,9 C 91 % 1032,0 hPa 0,0 l/m 11,3 km/h (2 Bft) W-SW 247 0 min 0,000 mm 0,0 UV-I 0 W/m 3,9 C 1,4 C 16,1 km/h (3 Bft) 100,00 %
23.12.2017 04:55 5,2 C 3,9 C 91 % 1032,0 hPa 0,0 l/m 11,3 km/h (2 Bft) W-SW 247 0 min 0,000 mm 0,0 UV-I 0 W/m 3,9 C 1,4 C 14,5 km/h (3 Bft) 91,30 %
23.12.2017 04:56 5,2 C 3,9 C 91 % 1032,0 hPa 0,0 l/m 11,3 km/h (2 Bft) W-SW 247 0 min 0,000 mm 0,0 UV-I 0 W/m 3,9 C 1,4 C 16,1 km/h (3 Bft) 95,65 %
23.12.2017 04:57 5,2 C 3,9 C 91 % 1032,0 hPa 0,0 l/m 12,9 km/h (3 Bft) W-SW 247 0 min 0,000 mm 0,0 UV-I 0 W/m 3,9 C 0,5 C 19,3 km/h (3 Bft) 91,30 %
23.12.2017 04:58 5,2 C 3,9 C 91 % 1032,0 hPa 0,0 l/m 12,9 km/h (3 Bft) W-SW 247 0 min 0,000 mm 0,0 UV-I 0 W/m 3,9 C 0,5 C 16,1 km/h (3 Bft) 100,00 %
23.12.2017 04:59 5,2 C 3,9 C 91 % 1032,0 hPa 0,0 l/m 11,3 km/h (2 Bft) SW 225 0 min 0,000 mm 0,0 UV-I 0 W/m 3,9 C 1,4 C 14,5 km/h (3 Bft) 91,30 %
23.12.2017 05:00 5,2 C 3,9 C 91 % 1032,0 hPa 0,0 l/m 12,9 km/h (3 Bft) SW 225 0 min 0,025 mm 0,0 UV-I 0 W/m 3,9 C 0,5 C 19,3 km/h (3 Bft) 82,61 %
23.12.2017 05:01 5,2 C 3,9 C 91 % 1032,0 hPa 0,0 l/m 8,0 km/h (2 Bft) W-SW 247 0 min 0,000 mm 0,0 UV-I 0 W/m 3,9 C 3,8 C 12,9 km/h (3 Bft) 95,65 %
23.12.2017 05:02 5,2 C 3,9 C 91 % 1032,0 hPa 0,0 l/m 9,7 km/h (2 Bft) W-SW 247 0 min 0,000 mm 0,0 UV-I 0 W/m 3,9 C 2,5 C 14,5 km/h (3 Bft) 91,30 %
23.12.2017 05:03 5,2 C 3,9 C 91 % 1032,0 hPa 0,0 l/m 9,7 km/h (2 Bft) SW 225 0 min 0,000 mm 0,0 UV-I 0 W/m 3,9 C 2,5 C 12,9 km/h (3 Bft) 95,65 %
23.12.2017 05:04 5,2 C 3,9 C 91 % 1032,0 hPa 0,0 l/m 11,3 km/h (2 Bft) SW 225 0 min 0,000 mm 0,0 UV-I 0 W/m 3,9 C 1,4 C 19,3 km/h (3 Bft) 91,30 %
23.12.2017 05:05 5,2 C 3,9 C 91 % 1032,0 hPa 0,0 l/m 12,9 km/h (3 Bft) SW 225 0 min 0,000 mm 0,0 UV-I 0 W/m 3,9 C 0,5 C 17,7 km/h (3 Bft) 100,00 %
23.12.2017 05:06 5,2 C 3,9 C 91 % 1031,9 hPa 0,0 l/m 12,9 km/h (3 Bft) W-SW 247 0 min 0,000 mm 0,0 UV-I 0 W/m 3,9 C 0,5 C 17,7 km/h (3 Bft) 95,65 %
23.12.2017 05:07 5,2 C 3,9 C 91 % 1031,9 hPa 0,0 l/m 9,7 km/h (2 Bft) SW 225 0 min 0,000 mm 0,0 UV-I 0 W/m 3,9 C 2,5 C 11,3 km/h (2 Bft) 95,65 %
23.12.2017 05:08 5,2 C 3,9 C 91 % 1032,0 hPa 0,0 l/m 9,7 km/h (2 Bft) W-SW 247 0 min 0,000 mm 0,0 UV-I 0 W/m 3,9 C 2,5 C 14,5 km/h (3 Bft) 91,30 %
23.12.2017 05:09 5,2 C 3,9 C 91 % 1032,0 hPa 0,0 l/m 9,7 km/h (2 Bft) SW 225 0 min 0,000 mm 0,0 UV-I 0 W/m 3,9 C 2,5 C 12,9 km/h (3 Bft) 95,65 %
23.12.2017 05:10 5,2 C 3,9 C 91 % 1032,0 hPa 0,0 l/m 9,7 km/h (2 Bft) W-SW 247 0 min 0,000 mm 0,0 UV-I 0 W/m 3,9 C 2,5 C 14,5 km/h (3 Bft) 100,00 %
23.12.2017 05:11 5,2 C 3,9 C 91 % 1032,0 hPa 0,0 l/m 12,9 km/h (3 Bft) SW 225 0 min 0,000 mm 0,0 UV-I 0 W/m 3,9 C 0,5 C 16,1 km/h (3 Bft) 95,65 %
23.12.2017 05:12 5,2 C 3,9 C 91 % 1032,1 hPa 0,0 l/m 11,3 km/h (2 Bft) W-SW 247 0 min 0,000 mm 0,0 UV-I 0 W/m 3,9 C 1,4 C 16,1 km/h (3 Bft) 100,00 %
23.12.2017 05:13 5,2 C 3,9 C 91 % 1032,0 hPa 0,0 l/m 11,3 km/h (2 Bft) SW 225 0 min 0,000 mm 0,0 UV-I 0 W/m 3,9 C 1,4 C 12,9 km/h (3 Bft) 91,30 %
23.12.2017 05:14 5,1 C 3,9 C 91 % 1032,1 hPa 0,0 l/m 11,3 km/h (2 Bft) W-SW 247 0 min 0,000 mm 0,0 UV-I 0 W/m 3,8 C 1,3 C 16,1 km/h (3 Bft) 95,65 %
23.12.2017 05:15 5,2 C 3,9 C 92 % 1032,2 hPa 0,0 l/m 9,7 km/h (2 Bft) W-SW 247 0 min 0,000 mm 0,0 UV-I 0 W/m 4,0 C 2,5 C 12,9 km/h (3 Bft) 95,65 %
23.12.2017 05:16 5,1 C 3,9 C 91 % 1032,1 hPa 0,0 l/m 8,0 km/h (2 Bft) SW 225 0 min 0,000 mm 0,0 UV-I 0 W/m 3,8 C 3,7 C 11,3 km/h (2 Bft) 95,65 %
23.12.2017 05:17 5,1 C 3,9 C 92 % 1032,1 hPa 0,0 l/m 11,3 km/h (2 Bft) W-SW 247 0 min 0,000 mm 0,0 UV-I 0 W/m 3,9 C 1,3 C 14,5 km/h (3 Bft) 100,00 %
23.12.2017 05:18 5,1 C 3,9 C 92 % 1032,1 hPa 0,0 l/m 8,0 km/h (2 Bft) W-SW 247 0 min 0,000 mm 0,0 UV-I 0 W/m 3,9 C 3,7 C 12,9 km/h (3 Bft) 95,65 %
23.12.2017 05:19 5,1 C 3,9 C 92 % 1032,0 hPa 0,0 l/m 14,5 km/h (3 Bft) SW 225 0 min 0,000 mm 0,0 UV-I 0 W/m 3,9 C -0,5 C 16,1 km/h (3 Bft) 100,00 %
23.12.2017 05:20 5,1 C 3,9 C 91 % 1032,0 hPa 0,0 l/m 12,9 km/h (3 Bft) SW 225 0 min 0,000 mm 0,0 UV-I 0 W/m 3,8 C 0,3 C 16,1 km/h (3 Bft) 95,65 %
23.12.2017 05:21 5,1 C 3,9 C 91 % 1032,0 hPa 0,0 l/m 11,3 km/h (2 Bft) SW 225 0 min 0,000 mm 0,0 UV-I 0 W/m 3,8 C 1,3 C 17,7 km/h (3 Bft) 95,65 %
23.12.2017 05:22 5,1 C 3,9 C 92 % 1032,0 hPa 0,0 l/m 11,3 km/h (2 Bft) SW 225 0 min 0,000 mm 0,0 UV-I 0 W/m 3,9 C 1,3 C 19,3 km/h (3 Bft) 100,00 %
23.12.2017 05:23 5,1 C 3,9 C 91 % 1032,0 hPa 0,0 l/m 14,5 km/h (3 Bft) SW 225 0 min 0,000 mm 0,0 UV-I 0 W/m 3,8 C -0,5 C 20,9 km/h (4 Bft) 100,00 %
23.12.2017 05:24 5,1 C 3,9 C 91 % 1031,9 hPa 0,0 l/m 14,5 km/h (3 Bft) W-SW 247 0 min 0,000 mm 0,0 UV-I 0 W/m 3,8 C -0,5 C 19,3 km/h (3 Bft) 100,00 %
23.12.2017 05:25 5,1 C 3,9 C 92 % 1031,9 hPa 0,0 l/m 12,9 km/h (3 Bft) SW 225 0 min 0,000 mm 0,0 UV-I 0 W/m 3,9 C 0,3 C 20,9 km/h (4 Bft) 100,00 %
23.12.2017 05:26 5,1 C 3,9 C 92 % 1031,9 hPa 0,0 l/m 16,1 km/h (3 Bft) SW 225 0 min 0,000 mm 0,0 UV-I 0 W/m 3,9 C -1,3 C 24,1 km/h (4 Bft) 95,65 %
23.12.2017 05:27 5,1 C 3,9 C 92 % 1031,9 hPa 0,0 l/m 12,9 km/h (3 Bft) SW 225 0 min 0,000 mm 0,0 UV-I 0 W/m 3,9 C 0,3 C 19,3 km/h (3 Bft) 95,65 %
23.12.2017 05:28 5,1 C 3,9 C 92 % 1031,9 hPa 0,0 l/m 12,9 km/h (3 Bft) SW 225 0 min 0,000 mm 0,0 UV-I 0 W/m 3,9 C 0,3 C 16,1 km/h (3 Bft) 95,65 %
23.12.2017 05:29 5,1 C 3,9 C 92 % 1031,9 hPa 0,0 l/m 12,9 km/h (3 Bft) SW 225 0 min 0,000 mm 0,0 UV-I 0 W/m 3,9 C 0,3 C 17,7 km/h (3 Bft) 95,65 %
23.12.2017 05:30 5,1 C 3,9 C 92 % 1031,9 hPa 0,0 l/m 11,3 km/h (2 Bft) SW 225 0 min 0,000 mm 0,0 UV-I 0 W/m 3,9 C 1,3 C 16,1 km/h (3 Bft) 100,00 %
23.12.2017 05:31 5,1 C 3,9 C 92 % 1031,9 hPa 0,0 l/m 14,5 km/h (3 Bft) SW 225 0 min 0,000 mm 0,0 UV-I 0 W/m 3,9 C -0,5 C 20,9 km/h (4 Bft) 100,00 %
23.12.2017 05:32 5,1 C 3,9 C 92 % 1031,9 hPa 0,0 l/m 11,3 km/h (2 Bft) W-SW 247 0 min 0,000 mm 0,0 UV-I 0 W/m 3,9 C 1,3 C 14,5 km/h (3 Bft) 95,65 %
23.12.2017 05:33 5,1 C 3,9 C 92 % 1031,9 hPa 0,0 l/m 11,3 km/h (2 Bft) W-SW 247 0 min 0,000 mm 0,0 UV-I 0 W/m 3,9 C 1,3 C 20,9 km/h (4 Bft) 100,00 %
23.12.2017 05:34 5,1 C 3,9 C 92 % 1031,9 hPa 0,0 l/m 12,9 km/h (3 Bft) W-SW 247 0 min 0,000 mm 0,0 UV-I 0 W/m 3,9 C 0,3 C 17,7 km/h (3 Bft) 100,00 %
23.12.2017 05:35 5,1 C 3,9 C 92 % 1031,9 hPa 0,0 l/m 12,9 km/h (3 Bft) SW 225 0 min 0,000 mm 0,0 UV-I 0 W/m 3,9 C 0,3 C 16,1 km/h (3 Bft) 91,30 %
23.12.2017 05:36 5,1 C 3,9 C 92 % 1031,9 hPa 0,0 l/m 12,9 km/h (3 Bft) SW 225 0 min 0,000 mm 0,0 UV-I 0 W/m 3,9 C 0,3 C 19,3 km/h (3 Bft) 100,00 %
23.12.2017 05:37 5,1 C 3,9 C 92 % 1032,0 hPa 0,0 l/m 11,3 km/h (2 Bft) SW 225 0 min 0,000 mm 0,0 UV-I 0 W/m 3,9 C 1,3 C 16,1 km/h (3 Bft) 95,65 %
23.12.2017 05:38 5,1 C 3,9 C 92 % 1032,0 hPa 0,0 l/m 12,9 km/h (3 Bft) SW 225 0 min 0,000 mm 0,0 UV-I 0 W/m 3,9 C 0,3 C 20,9 km/h (4 Bft) 100,00 %
23.12.2017 05:39 5,1 C 3,9 C 92 % 1032,0 hPa 0,0 l/m 11,3 km/h (2 Bft) SW 225 0 min 0,000 mm 0,0 UV-I 0 W/m 3,9 C 1,3 C 16,1 km/h (3 Bft) 100,00 %
23.12.2017 05:40 5,1 C 3,9 C 92 % 1032,0 hPa 0,0 l/m 9,7 km/h (2 Bft) SW 225 0 min 0,000 mm 0,0 UV-I 0 W/m 3,9 C 2,4 C 12,9 km/h (3 Bft) 100,00 %
23.12.2017 05:41 5,1 C 3,9 C 92 % 1032,0 hPa 0,0 l/m 9,7 km/h (2 Bft) W-SW 247 0 min 0,000 mm 0,0 UV-I 0 W/m 3,9 C 2,4 C 12,9 km/h (3 Bft) 100,00 %
23.12.2017 05:42 5,1 C 3,9 C 92 % 1032,0 hPa 0,0 l/m 11,3 km/h (2 Bft) W-SW 247 0 min 0,000 mm 0,0 UV-I 0 W/m 3,9 C 1,3 C 17,7 km/h (3 Bft) 91,30 %
23.12.2017 05:43 5,1 C 3,9 C 92 % 1032,0 hPa 0,0 l/m 9,7 km/h (2 Bft) W-SW 247 0 min 0,000 mm 0,0 UV-I 0 W/m 3,9 C 2,4 C 12,9 km/h (3 Bft) 100,00 %
23.12.2017 05:44 5,1 C 3,9 C 92 % 1032,1 hPa 0,0 l/m 9,7 km/h (2 Bft) W-SW 247 0 min 0,000 mm 0,0 UV-I 0 W/m 3,9 C 2,4 C 11,3 km/h (2 Bft) 100,00 %
23.12.2017 05:45 5,1 C 3,9 C 92 % 1032,0 hPa 0,0 l/m 8,0 km/h (2 Bft) SW 225 0 min 0,000 mm 0,0 UV-I 0 W/m 3,9 C 3,7 C 11,3 km/h (2 Bft) 100,00 %
23.12.2017 05:46 5,1 C 3,9 C 92 % 1032,0 hPa 0,0 l/m 8,0 km/h (2 Bft) W-SW 247 0 min 0,000 mm 0,0 UV-I 0 W/m 3,9 C 3,7 C 11,3 km/h (2 Bft) 100,00 %
23.12.2017 05:47 5,1 C 3,9 C 92 % 1032,0 hPa 0,0 l/m 8,0 km/h (2 Bft) SW 225 0 min 0,000 mm 0,0 UV-I 0 W/m 3,9 C 3,7 C 14,5 km/h (3 Bft) 100,00 %
23.12.2017 05:48 5,1 C 3,9 C 92 % 1032,0 hPa 0,0 l/m 12,9 km/h (3 Bft) SW 225 0 min 0,000 mm 0,0 UV-I 0 W/m 3,9 C 0,3 C 16,1 km/h (3 Bft) 100,00 %
23.12.2017 05:49 5,1 C 3,9 C 92 % 1032,1 hPa 0,0 l/m 8,0 km/h (2 Bft) W-SW 247 0 min 0,000 mm 0,0 UV-I 0 W/m 3,9 C 3,7 C 12,9 km/h (3 Bft) 95,65 %
23.12.2017 05:50 5,1 C 3,9 C 92 % 1032,1 hPa 0,0 l/m 9,7 km/h (2 Bft) W-SW 247 0 min 0,000 mm 0,0 UV-I 0 W/m 3,9 C 2,4 C 12,9 km/h (3 Bft) 91,30 %
23.12.2017 05:51 5,1 C 3,9 C 92 % 1032,2 hPa 0,0 l/m 9,7 km/h (2 Bft) SW 225 0 min 0,000 mm 0,0 UV-I 0 W/m 3,9 C 2,4 C 16,1 km/h (3 Bft) 100,00 %
23.12.2017 05:52 5,1 C 3,9 C 92 % 1032,1 hPa 0,0 l/m 11,3 km/h (2 Bft) W-SW 247 0 min 0,000 mm 0,0 UV-I 0 W/m 3,9 C 1,3 C 16,1 km/h (3 Bft) 100,00 %
23.12.2017 05:53 5,1 C 3,9 C 92 % 1032,1 hPa 0,0 l/m 11,3 km/h (2 Bft) W-SW 247 0 min 0,000 mm 0,0 UV-I 0 W/m 3,9 C 1,3 C 16,1 km/h (3 Bft) 95,65 %
23.12.2017 05:54 5,1 C 3,9 C 92 % 1032,1 hPa 0,0 l/m 9,7 km/h (2 Bft) W-SW 247 0 min 0,000 mm 0,0 UV-I 0 W/m 3,9 C 2,4 C 16,1 km/h (3 Bft) 100,00 %
23.12.2017 05:55 5,1 C 3,9 C 92 % 1032,1 hPa 0,0 l/m 11,3 km/h (2 Bft) W-SW 247 0 min 0,000 mm 0,0 UV-I 0 W/m 3,9 C 1,3 C 19,3 km/h (3 Bft) 100,00 %
23.12.2017 05:56 5,1 C 3,9 C 92 % 1032,2 hPa 0,0 l/m 11,3 km/h (2 Bft) W-SW 247 0 min 0,000 mm 0,0 UV-I 0 W/m 3,9 C 1,3 C 14,5 km/h (3 Bft) 91,30 %
23.12.2017 05:57 5,1 C 3,9 C 92 % 1032,3 hPa 0,0 l/m 9,7 km/h (2 Bft) W-SW 247 0 min 0,000 mm 0,0 UV-I 0 W/m 3,9 C 2,4 C 12,9 km/h (3 Bft) 95,65 %
23.12.2017 05:58 5,2 C 3,9 C 92 % 1032,3 hPa 0,0 l/m 8,0 km/h (2 Bft) W-SW 247 0 min 0,000 mm 0,0 UV-I 0 W/m 4,0 C 3,8 C 11,3 km/h (2 Bft) 100,00 %
23.12.2017 05:59 5,1 C 3,9 C 92 % 1032,3 hPa 0,0 l/m 9,7 km/h (2 Bft) W-SW 247 0 min 0,000 mm 0,0 UV-I 0 W/m 3,9 C 2,4 C 16,1 km/h (3 Bft) 100,00 %
23.12.2017 06:00 5,1 C 3,9 C 92 % 1032,3 hPa 0,0 l/m 9,7 km/h (2 Bft) SW 225 0 min 0,000 mm 0,0 UV-I 0 W/m 3,9 C 2,4 C 14,5 km/h (3 Bft) 100,00 %
23.12.2017 06:01 5,2 C 3,9 C 92 % 1032,3 hPa 0,0 l/m 12,9 km/h (3 Bft) W-SW 247 0 min 0,000 mm 0,0 UV-I 0 W/m 4,0 C 0,5 C 16,1 km/h (3 Bft) 100,00 %
23.12.2017 06:02 5,2 C 3,9 C 92 % 1032,3 hPa 0,0 l/m 9,7 km/h (2 Bft) W-SW 247 0 min 0,000 mm 0,0 UV-I 0 W/m 4,0 C 2,5 C 16,1 km/h (3 Bft) 95,65 %
23.12.2017 06:03 5,2 C 3,9 C 92 % 1032,3 hPa 0,0 l/m 9,7 km/h (2 Bft) W-SW 247 0 min 0,000 mm 0,0 UV-I 0 W/m 4,0 C 2,5 C 14,5 km/h (3 Bft) 95,65 %
23.12.2017 06:04 5,2 C 3,9 C 91 % 1032,4 hPa 0,0 l/m 8,0 km/h (2 Bft) W-SW 247 0 min 0,000 mm 0,0 UV-I 0 W/m 3,9 C 3,8 C 11,3 km/h (2 Bft) 100,00 %
23.12.2017 06:05 5,2 C 3,9 C 91 % 1032,4 hPa 0,0 l/m 6,4 km/h (2 Bft) W 270 0 min 0,000 mm 0,0 UV-I 0 W/m 3,9 C 5,2 C 11,3 km/h (2 Bft) 95,65 %
23.12.2017 06:06 5,2 C 3,9 C 91 % 1032,5 hPa 0,0 l/m 6,4 km/h (2 Bft) W-SW 247 0 min 0,000 mm 0,0 UV-I 0 W/m 3,9 C 5,2 C 11,3 km/h (2 Bft) 95,65 %
23.12.2017 06:07 5,2 C 3,9 C 92 % 1032,5 hPa 0,0 l/m 6,4 km/h (2 Bft) W-SW 247 0 min 0,000 mm 0,0 UV-I 0 W/m 4,0 C 5,2 C 11,3 km/h (2 Bft) 100,00 %
23.12.2017 06:08 5,2 C 3,9 C 92 % 1032,5 hPa 0,0 l/m 6,4 km/h (2 Bft) W-SW 247 0 min 0,000 mm 0,0 UV-I 0 W/m 4,0 C 5,2 C 8,0 km/h (2 Bft) 95,65 %
23.12.2017 06:09 5,2 C 3,9 C 92 % 1032,5 hPa 0,0 l/m 4,8 km/h (1 Bft) W-SW 247 0 min 0,000 mm 0,0 UV-I 0 W/m 4,0 C 5,2 C 9,7 km/h (2 Bft) 100,00 %
23.12.2017 06:10 5,2 C 3,9 C 92 % 1032,5 hPa 0,0 l/m 6,4 km/h (2 Bft) W-SW 247 0 min 0,000 mm 0,0 UV-I 0 W/m 4,0 C 5,2 C 11,3 km/h (2 Bft) 91,30 %
23.12.2017 06:11 5,2 C 3,9 C 92 % 1032,5 hPa 0,0 l/m 8,0 km/h (2 Bft) SW 225 0 min 0,000 mm 0,0 UV-I 0 W/m 4,0 C 3,8 C 12,9 km/h (3 Bft) 100,00 %
23.12.2017 06:12 5,2 C 3,9 C 92 % 1032,5 hPa 0,0 l/m 6,4 km/h (2 Bft) SW 225 0 min 0,000 mm 0,0 UV-I 0 W/m 4,0 C 5,2 C 6,4 km/h (2 Bft) 95,65 %
23.12.2017 06:13 5,2 C 3,9 C 92 % 1032,5 hPa 0,0 l/m 6,4 km/h (2 Bft) W-SW 247 0 min 0,000 mm 0,0 UV-I 0 W/m 4,0 C 5,2 C 8,0 km/h (2 Bft) 100,00 %
23.12.2017 06:14 5,2 C 3,9 C 91 % 1032,5 hPa 0,0 l/m 8,0 km/h (2 Bft) W-SW 247 0 min 0,000 mm 0,0 UV-I 0 W/m 3,9 C 3,8 C 11,3 km/h (2 Bft) 95,65 %
23.12.2017 06:15 5,2 C 3,9 C 92 % 1032,4 hPa 0,0 l/m 6,4 km/h (2 Bft) W 270 0 min 0,000 mm 0,0 UV-I 0 W/m 4,0 C 5,2 C 11,3 km/h (2 Bft) 100,00 %
23.12.2017 06:16 5,2 C 3,9 C 92 % 1032,4 hPa 0,0 l/m 8,0 km/h (2 Bft) W 270 0 min 0,000 mm 0,0 UV-I 0 W/m 4,0 C 3,8 C 11,3 km/h (2 Bft) 91,30 %
23.12.2017 06:17 5,2 C 3,9 C 92 % 1032,4 hPa 0,0 l/m 11,3 km/h (2 Bft) W 270 0 min 0,000 mm 0,0 UV-I 0 W/m 4,0 C 1,4 C 17,7 km/h (3 Bft) 91,30 %
23.12.2017 06:18 5,3 C 3,9 C 92 % 1032,4 hPa 0,0 l/m 8,0 km/h (2 Bft) W-SW 247 0 min 0,000 mm 0,0 UV-I 0 W/m 4,1 C 3,9 C 11,3 km/h (2 Bft) 95,65 %
23.12.2017 06:19 5,3 C 3,9 C 91 % 1032,4 hPa 0,0 l/m 11,3 km/h (2 Bft) W 270 0 min 0,000 mm 0,0 UV-I 0 W/m 4,0 C 1,5 C 16,1 km/h (3 Bft) 100,00 %
23.12.2017 06:20 5,3 C 3,9 C 91 % 1032,4 hPa 0,0 l/m 12,9 km/h (3 Bft) W-SW 247 0 min 0,000 mm 0,0 UV-I 0 W/m 4,0 C 0,6 C 19,3 km/h (3 Bft) 95,65 %
23.12.2017 06:21 5,4 C 3,9 C 91 % 1032,3 hPa 0,0 l/m 14,5 km/h (3 Bft) W-SW 247 0 min 0,000 mm 0,0 UV-I 0 W/m 4,1 C -0,2 C 20,9 km/h (4 Bft) 95,65 %
23.12.2017 06:22 5,4 C 3,9 C 91 % 1032,3 hPa 0,0 l/m 11,3 km/h (2 Bft) W-SW 247 0 min 0,000 mm 0,0 UV-I 0 W/m 4,1 C 1,7 C 17,7 km/h (3 Bft) 100,00 %
23.12.2017 06:23 5,4 C 3,9 C 91 % 1032,3 hPa 0,0 l/m 9,7 km/h (2 Bft) W-SW 247 0 min 0,000 mm 0,0 UV-I 0 W/m 4,1 C 2,7 C 11,3 km/h (2 Bft) 91,30 %
23.12.2017 06:24 5,5 C 3,9 C 91 % 1032,3 hPa 0,0 l/m 9,7 km/h (2 Bft) W-SW 247 0 min 0,000 mm 0,0 UV-I 0 W/m 4,2 C 2,8 C 17,7 km/h (3 Bft) 91,30 %
23.12.2017 06:25 5,4 C 3,9 C 91 % 1032,3 hPa 0,0 l/m 8,0 km/h (2 Bft) SW 225 0 min 0,000 mm 0,0 UV-I 0 W/m 4,1 C 4,0 C 11,3 km/h (2 Bft) 95,65 %
23.12.2017 06:26 5,4 C 3,9 C 91 % 1032,3 hPa 0,0 l/m 9,7 km/h (2 Bft) W-SW 247 0 min 0,000 mm 0,0 UV-I 0 W/m 4,1 C 2,7 C 14,5 km/h (3 Bft) 100,00 %
23.12.2017 06:27 5,4 C 3,9 C 91 % 1032,3 hPa 0,0 l/m 6,4 km/h (2 Bft) S-SW 202 0 min 0,000 mm 0,0 UV-I 0 W/m 4,1 C 5,4 C 12,9 km/h (3 Bft) 95,65 %
23.12.2017 06:28 5,4 C 3,9 C 91 % 1032,3 hPa 0,0 l/m 9,7 km/h (2 Bft) SW 225 0 min 0,000 mm 0,0 UV-I 0 W/m 4,1 C 2,7 C 19,3 km/h (3 Bft) 100,00 %
23.12.2017 06:29 5,4 C 3,9 C 91 % 1032,3 hPa 0,0 l/m 11,3 km/h (2 Bft) SW 225 0 min 0,000 mm 0,0 UV-I 0 W/m 4,1 C 1,7 C 20,9 km/h (4 Bft) 95,65 %
23.12.2017 06:30 5,4 C 3,9 C 91 % 1032,2 hPa 0,0 l/m 12,9 km/h (3 Bft) W-SW 247 0 min 0,000 mm 0,0 UV-I 0 W/m 4,1 C 0,7 C 17,7 km/h (3 Bft) 100,00 %
23.12.2017 06:31 5,4 C 3,9 C 91 % 1032,3 hPa 0,0 l/m 16,1 km/h (3 Bft) W-SW 247 0 min 0,000 mm 0,0 UV-I 0 W/m 4,1 C -1,0 C 22,5 km/h (4 Bft) 86,96 %
23.12.2017 06:32 5,4 C 3,9 C 91 % 1032,2 hPa 0,0 l/m 11,3 km/h (2 Bft) W-SW 247 0 min 0,000 mm 0,0 UV-I 0 W/m 4,1 C 1,7 C 14,5 km/h (3 Bft) 100,00 %
23.12.2017 06:33 5,4 C 3,9 C 91 % 1032,3 hPa 0,0 l/m 12,9 km/h (3 Bft) W 270 0 min 0,000 mm 0,0 UV-I 0 W/m 4,1 C 0,7 C 22,5 km/h (4 Bft) 100,00 %
23.12.2017 06:34 5,5 C 3,9 C 91 % 1032,1 hPa 0,0 l/m 14,5 km/h (3 Bft) W-SW 247 0 min 0,000 mm 0,0 UV-I 0 W/m 4,2 C -0,1 C 19,3 km/h (3 Bft) 100,00 %
23.12.2017 06:35 5,5 C 3,9 C 91 % 1032,1 hPa 0,0 l/m 16,1 km/h (3 Bft) W-SW 247 0 min 0,000 mm 0,0 UV-I 0 W/m 4,2 C -0,9 C 22,5 km/h (4 Bft) 100,00 %
23.12.2017 06:36 5,6 C 3,9 C 91 % 1032,1 hPa 0,0 l/m 22,5 km/h (4 Bft) W-SW 247 0 min 0,000 mm 0,0 UV-I 0 W/m 4,2 C -3,3 C 30,6 km/h (5 Bft) 100,00 %
23.12.2017 06:37 5,6 C 3,9 C 91 % 1032,1 hPa 0,0 l/m 16,1 km/h (3 Bft) W-SW 247 0 min 0,000 mm 0,0 UV-I 0 W/m 4,2 C -0,7 C 24,1 km/h (4 Bft) 100,00 %
23.12.2017 06:38 5,6 C 3,9 C 91 % 1032,1 hPa 0,0 l/m 16,1 km/h (3 Bft) W-SW 247 0 min 0,000 mm 0,0 UV-I 0 W/m 4,2 C -0,7 C 22,5 km/h (4 Bft) 95,65 %
23.12.2017 06:39 5,6 C 3,9 C 91 % 1032,1 hPa 0,0 l/m 14,5 km/h (3 Bft) W-SW 247 0 min 0,000 mm 0,0 UV-I 0 W/m 4,2 C 0,1 C 19,3 km/h (3 Bft) 100,00 %
23.12.2017 06:40 5,6 C 3,9 C 91 % 1032,1 hPa 0,0 l/m 14,5 km/h (3 Bft) W-SW 247 0 min 0,000 mm 0,0 UV-I 0 W/m 4,2 C 0,1 C 17,7 km/h (3 Bft) 100,00 %
23.12.2017 06:41 5,6 C 3,9 C 91 % 1032,0 hPa 0,0 l/m 19,3 km/h (3 Bft) W 270 0 min 0,000 mm 0,0 UV-I 0 W/m 4,2 C -2,1 C 24,1 km/h (4 Bft) 100,00 %
23.12.2017 06:42 5,7 C 3,9 C 91 % 1032,1 hPa 0,0 l/m 16,1 km/h (3 Bft) W 270 0 min 0,000 mm 0,0 UV-I 0 W/m 4,3 C -0,6 C 22,5 km/h (4 Bft) 95,65 %
23.12.2017 06:43 5,7 C 3,9 C 91 % 1032,1 hPa 0,0 l/m 16,1 km/h (3 Bft) W-SW 247 0 min 0,000 mm 0,0 UV-I 0 W/m 4,3 C -0,6 C 29,0 km/h (5 Bft) 100,00 %
23.12.2017 06:44 5,7 C 3,9 C 91 % 1032,1 hPa 0,0 l/m 16,1 km/h (3 Bft) W-SW 247 0 min 0,000 mm 0,0 UV-I 0 W/m 4,3 C -0,6 C 22,5 km/h (4 Bft) 95,65 %
23.12.2017 06:45 5,7 C 3,9 C 91 % 1032,1 hPa 0,0 l/m 16,1 km/h (3 Bft) W-SW 247 0 min 0,000 mm 0,0 UV-I 0 W/m 4,3 C -0,6 C 27,4 km/h (4 Bft) 95,65 %
23.12.2017 06:46 5,7 C 3,9 C 91 % 1032,0 hPa 0,0 l/m 17,7 km/h (3 Bft) W-SW 247 0 min 0,000 mm 0,0 UV-I 0 W/m 4,3 C -1,3 C 22,5 km/h (4 Bft) 100,00 %
23.12.2017 06:47 5,7 C 3,9 C 91 % 1032,1 hPa 0,0 l/m 17,7 km/h (3 Bft) W-SW 247 0 min 0,000 mm 0,0 UV-I 0 W/m 4,3 C -1,3 C 22,5 km/h (4 Bft) 100,00 %
23.12.2017 06:48 5,7 C 3,9 C 91 % 1032,1 hPa 0,0 l/m 14,5 km/h (3 Bft) W 270 0 min 0,000 mm 0,0 UV-I 0 W/m 4,3 C 0,2 C 20,9 km/h (4 Bft) 95,65 %
23.12.2017 06:49 5,7 C 3,9 C 91 % 1032,1 hPa 0,0 l/m 17,7 km/h (3 Bft) W 270 0 min 0,000 mm 0,0 UV-I 0 W/m 4,3 C -1,3 C 20,9 km/h (4 Bft) 95,65 %
23.12.2017 06:50 5,7 C 3,9 C 91 % 1032,2 hPa 0,0 l/m 14,5 km/h (3 Bft) W 270 0 min 0,000 mm 0,0 UV-I 0 W/m 4,3 C 0,2 C 25,7 km/h (4 Bft) 95,65 %
23.12.2017 06:51 5,7 C 3,9 C 91 % 1032,2 hPa 0,0 l/m 12,9 km/h (3 Bft) W-SW 247 0 min 0,000 mm 0,0 UV-I 0 W/m 4,3 C 1,0 C 17,7 km/h (3 Bft) 95,65 %
23.12.2017 06:52 5,7 C 3,9 C 91 % 1032,2 hPa 0,0 l/m 14,5 km/h (3 Bft) W 270 0 min 0,000 mm 0,0 UV-I 0 W/m 4,3 C 0,2 C 19,3 km/h (3 Bft) 95,65 %
23.12.2017 06:53 5,7 C 3,9 C 91 % 1032,2 hPa 0,0 l/m 12,9 km/h (3 Bft) W-SW 247 0 min 0,000 mm 0,0 UV-I 0 W/m 4,3 C 1,0 C 22,5 km/h (4 Bft) 95,65 %
23.12.2017 06:54 5,7 C 3,9 C 91 % 1032,2 hPa 0,0 l/m 14,5 km/h (3 Bft) W 270 0 min 0,000 mm 0,0 UV-I 0 W/m 4,3 C 0,2 C 17,7 km/h (3 Bft) 100,00 %
23.12.2017 06:55 5,7 C 3,9 C 91 % 1032,2 hPa 0,0 l/m 12,9 km/h (3 Bft) W-SW 247 0 min 0,000 mm 0,0 UV-I 0 W/m 4,3 C 1,0 C 16,1 km/h (3 Bft) 95,65 %
23.12.2017 06:56 5,7 C 3,9 C 91 % 1032,2 hPa 0,0 l/m 17,7 km/h (3 Bft) W-SW 247 0 min 0,000 mm 0,0 UV-I 0 W/m 4,3 C -1,3 C 24,1 km/h (4 Bft) 100,00 %
23.12.2017 06:57 5,7 C 3,9 C 92 % 1032,1 hPa 0,0 l/m 16,1 km/h (3 Bft) W 270 0 min 0,000 mm 0,0 UV-I 0 W/m 4,5 C -0,6 C 19,3 km/h (3 Bft) 91,30 %
23.12.2017 06:58 5,7 C 3,9 C 91 % 1032,1 hPa 0,0 l/m 11,3 km/h (2 Bft) W-SW 247 0 min 0,000 mm 0,0 UV-I 0 W/m 4,3 C 2,0 C 17,7 km/h (3 Bft) 100,00 %
23.12.2017 06:59 5,7 C 3,9 C 92 % 1032,2 hPa 0,0 l/m 9,7 km/h (2 Bft) W-SW 247 0 min 0,000 mm 0,0 UV-I 0 W/m 4,5 C 3,1 C 14,5 km/h (3 Bft) 91,30 %
23.12.2017 07:00 5,7 C 3,9 C 92 % 1032,1 hPa 0,0 l/m 16,1 km/h (3 Bft) W-SW 247 0 min 0,000 mm 0,0 UV-I 0 W/m 4,5 C -0,6 C 24,1 km/h (4 Bft) 95,65 %
23.12.2017 07:01 5,7 C 3,9 C 92 % 1032,1 hPa 0,0 l/m 19,3 km/h (3 Bft) W 270 0 min 0,000 mm 0,0 UV-I 0 W/m 4,5 C -2,0 C 25,7 km/h (4 Bft) 100,00 %
23.12.2017 07:02 5,7 C 3,9 C 92 % 1032,1 hPa 0,0 l/m 19,3 km/h (3 Bft) W 270 0 min 0,000 mm 0,0 UV-I 0 W/m 4,5 C -2,0 C 30,6 km/h (5 Bft) 95,65 %
23.12.2017 07:03 5,7 C 3,9 C 92 % 1032,2 hPa 0,0 l/m 16,1 km/h (3 Bft) W 270 0 min 0,000 mm 0,0 UV-I 0 W/m 4,5 C -0,6 C 22,5 km/h (4 Bft) 100,00 %
23.12.2017 07:04 5,8 C 3,9 C 92 % 1032,2 hPa 0,0 l/m 12,9 km/h (3 Bft) W 270 0 min 0,000 mm 0,0 UV-I 0 W/m 4,6 C 1,2 C 16,1 km/h (3 Bft) 95,65 %
23.12.2017 07:05 5,7 C 3,9 C 92 % 1032,1 hPa 0,0 l/m 11,3 km/h (2 Bft) W-SW 247 0 min 0,000 mm 0,0 UV-I 0 W/m 4,5 C 2,0 C 14,5 km/h (3 Bft) 100,00 %
23.12.2017 07:06 5,7 C 3,9 C 92 % 1032,2 hPa 0,0 l/m 12,9 km/h (3 Bft) W-SW 247 0 min 0,000 mm 0,0 UV-I 0 W/m 4,5 C 1,0 C 16,1 km/h (3 Bft) 91,30 %
23.12.2017 07:07 5,7 C 3,9 C 92 % 1032,2 hPa 0,0 l/m 14,5 km/h (3 Bft) W 270 0 min 0,000 mm 0,0 UV-I 0 W/m 4,5 C 0,2 C 20,9 km/h (4 Bft) 100,00 %
23.12.2017 07:08 5,7 C 3,9 C 92 % 1032,2 hPa 0,0 l/m 16,1 km/h (3 Bft) W 270 0 min 0,000 mm 0,0 UV-I 0 W/m 4,5 C -0,6 C 25,7 km/h (4 Bft) 95,65 %
23.12.2017 07:09 5,8 C 3,9 C 92 % 1032,1 hPa 0,0 l/m 14,5 km/h (3 Bft) W 270 0 min 0,000 mm 0,0 UV-I 0 W/m 4,6 C 0,3 C 24,1 km/h (4 Bft) 95,65 %
23.12.2017 07:10 5,7 C 3,9 C 92 % 1032,1 hPa 0,0 l/m 17,7 km/h (3 Bft) W-SW 247 0 min 0,000 mm 0,0 UV-I 0 W/m 4,5 C -1,3 C 24,1 km/h (4 Bft) 100,00 %
23.12.2017 07:11 5,7 C 3,9 C 92 % 1032,1 hPa 0,0 l/m 14,5 km/h (3 Bft) W-SW 247 0 min 0,000 mm 0,0 UV-I 0 W/m 4,5 C 0,2 C 24,1 km/h (4 Bft) 95,65 %
23.12.2017 07:12 5,8 C 3,9 C 92 % 1032,0 hPa 0,0 l/m 12,9 km/h (3 Bft) W-SW 247 0 min 0,000 mm 0,0 UV-I 0 W/m 4,6 C 1,2 C 19,3 km/h (3 Bft) 95,65 %
23.12.2017 07:13 5,8 C 3,9 C 92 % 1032,0 hPa 0,0 l/m 16,1 km/h (3 Bft) W 270 0 min 0,000 mm 0,0 UV-I 0 W/m 4,6 C -0,5 C 27,4 km/h (4 Bft) 95,65 %
23.12.2017 07:14 5,8 C 3,9 C 92 % 1032,0 hPa 0,0 l/m 17,7 km/h (3 Bft) W 270 0 min 0,000 mm 0,0 UV-I 0 W/m 4,6 C -1,2 C 25,7 km/h (4 Bft) 95,65 %
23.12.2017 07:15 5,8 C 3,9 C 92 % 1031,9 hPa 0,0 l/m 16,1 km/h (3 Bft) W-SW 247 0 min 0,000 mm 0,0 UV-I 0 W/m 4,6 C -0,5 C 19,3 km/h (3 Bft) 95,65 %
23.12.2017 07:16 5,8 C 3,9 C 92 % 1031,9 hPa 0,0 l/m 12,9 km/h (3 Bft) W 270 0 min 0,000 mm 0,0 UV-I 0 W/m 4,6 C 1,2 C 19,3 km/h (3 Bft) 100,00 %
23.12.2017 07:17 5,8 C 3,9 C 92 % 1032,0 hPa 0,0 l/m 19,3 km/h (3 Bft) W-SW 247 0 min 0,000 mm 0,0 UV-I 0 W/m 4,6 C -1,9 C 24,1 km/h (4 Bft) 95,65 %
23.12.2017 07:18 5,8 C 3,9 C 92 % 1032,0 hPa 0,0 l/m 17,7 km/h (3 Bft) W-SW 247 0 min 0,000 mm 0,0 UV-I 0 W/m 4,6 C -1,2 C 24,1 km/h (4 Bft) 95,65 %
23.12.2017 07:19 5,8 C 3,9 C 92 % 1031,9 hPa 0,0 l/m 11,3 km/h (2 Bft) W-SW 247 0 min 0,000 mm 0,0 UV-I 0 W/m 4,6 C 2,1 C 14,5 km/h (3 Bft) 100,00 %
23.12.2017 07:20 5,7 C 3,9 C 92 % 1032,0 hPa 0,0 l/m 17,7 km/h (3 Bft) W-SW 247 0 min 0,000 mm 0,0 UV-I 0 W/m 4,5 C -1,3 C 24,1 km/h (4 Bft) 95,65 %
23.12.2017 07:21 5,8 C 3,9 C 92 % 1032,0 hPa 0,0 l/m 17,7 km/h (3 Bft) W 270 0 min 0,000 mm 0,0 UV-I 0 W/m 4,6 C -1,2 C 25,7 km/h (4 Bft) 95,65 %
23.12.2017 07:22 5,8 C 3,9 C 92 % 1032,0 hPa 0,0 l/m 11,3 km/h (2 Bft) SW 225 0 min 0,000 mm 0,0 UV-I 0 W/m 4,6 C 2,1 C 14,5 km/h (3 Bft) 95,65 %
23.12.2017 07:23 5,8 C 3,9 C 92 % 1032,0 hPa 0,0 l/m 14,5 km/h (3 Bft) W-SW 247 0 min 0,000 mm 0,0 UV-I 0 W/m 4,6 C 0,3 C 22,5 km/h (4 Bft) 100,00 %
23.12.2017 07:24 5,7 C 3,9 C 92 % 1032,1 hPa 0,0 l/m 11,3 km/h (2 Bft) W 270 0 min 0,000 mm 0,0 UV-I 0 W/m 4,5 C 2,0 C 20,9 km/h (4 Bft) 100,00 %
23.12.2017 07:25 5,8 C 3,9 C 92 % 1032,1 hPa 0,0 l/m 16,1 km/h (3 Bft) W-SW 247 0 min 0,000 mm 0,0 UV-I 0 W/m 4,6 C -0,5 C 20,9 km/h (4 Bft) 95,65 %
23.12.2017 07:26 5,8 C 3,9 C 92 % 1032,1 hPa 0,0 l/m 12,9 km/h (3 Bft) W-SW 247 0 min 0,000 mm 0,0 UV-I 0 W/m 4,6 C 1,2 C 17,7 km/h (3 Bft) 100,00 %
23.12.2017 07:27 5,7 C 3,9 C 92 % 1032,1 hPa 0,0 l/m 9,7 km/h (2 Bft) W-SW 247 0 min 0,000 mm 0,0 UV-I 0 W/m 4,5 C 3,1 C 14,5 km/h (3 Bft) 100,00 %
23.12.2017 07:28 5,8 C 3,9 C 92 % 1032,1 hPa 0,0 l/m 12,9 km/h (3 Bft) W 270 0 min 0,000 mm 0,0 UV-I 0 W/m 4,6 C 1,2 C 17,7 km/h (3 Bft) 95,65 %
23.12.2017 07:29 5,7 C 3,9 C 92 % 1032,1 hPa 0,0 l/m 8,0 km/h (2 Bft) W-SW 247 0 min 0,000 mm 0,0 UV-I 0 W/m 4,5 C 4,3 C 14,5 km/h (3 Bft) 100,00 %
23.12.2017 07:30 5,7 C 3,9 C 92 % 1032,1 hPa 0,0 l/m 9,7 km/h (2 Bft) W 270 0 min 0,000 mm 0,0 UV-I 0 W/m 4,5 C 3,1 C 12,9 km/h (3 Bft) 100,00 %
23.12.2017 07:31 5,7 C 3,9 C 92 % 1032,1 hPa 0,0 l/m 8,0 km/h (2 Bft) W 270 0 min 0,000 mm 0,0 UV-I 0 W/m 4,5 C 4,3 C 14,5 km/h (3 Bft) 100,00 %
23.12.2017 07:32 5,7 C 3,9 C 92 % 1032,2 hPa 0,0 l/m 4,8 km/h (1 Bft) W 270 0 min 0,000 mm 0,0 UV-I 0 W/m 4,5 C 5,7 C 9,7 km/h (2 Bft) 100,00 %
23.12.2017 07:33 5,7 C 3,9 C 92 % 1032,2 hPa 0,0 l/m 9,7 km/h (2 Bft) W 270 0 min 0,000 mm 0,0 UV-I 0 W/m 4,5 C 3,1 C 14,5 km/h (3 Bft) 95,65 %
23.12.2017 07:34 5,7 C 3,9 C 92 % 1032,2 hPa 0,0 l/m 8,0 km/h (2 Bft) W 270 0 min 0,000 mm 0,0 UV-I 0 W/m 4,5 C 4,3 C 14,5 km/h (3 Bft) 100,00 %
23.12.2017 07:35 5,7 C 3,9 C 92 % 1032,1 hPa 0,0 l/m 8,0 km/h (2 Bft) W-SW 247 0 min 0,000 mm 0,0 UV-I 0 W/m 4,5 C 4,3 C 11,3 km/h (2 Bft) 91,30 %
23.12.2017 07:36 5,7 C 3,9 C 92 % 1032,1 hPa 0,0 l/m 11,3 km/h (2 Bft) W-SW 247 0 min 0,000 mm 0,0 UV-I 0 W/m 4,5 C 2,0 C 14,5 km/h (3 Bft) 100,00 %
23.12.2017 07:37 5,7 C 3,9 C 92 % 1032,0 hPa 0,0 l/m 12,9 km/h (3 Bft) W-SW 247 0 min 0,000 mm 0,0 UV-I 0 W/m 4,5 C 1,0 C 20,9 km/h (4 Bft) 95,65 %
23.12.2017 07:38 5,7 C 3,9 C 92 % 1032,1 hPa 0,0 l/m 14,5 km/h (3 Bft) SW 225 0 min 0,000 mm 0,0 UV-I 0 W/m 4,5 C 0,2 C 19,3 km/h (3 Bft) 100,00 %
23.12.2017 07:39 5,7 C 3,9 C 92 % 1032,1 hPa 0,0 l/m 11,3 km/h (2 Bft) W 270 0 min 0,000 mm 0,0 UV-I 0 W/m 4,5 C 2,0 C 19,3 km/h (3 Bft) 95,65 %
23.12.2017 07:40 5,8 C 3,9 C 92 % 1032,2 hPa 0,0 l/m 14,5 km/h (3 Bft) W-SW 247 0 min 0,000 mm 0,0 UV-I 0 W/m 4,6 C 0,3 C 20,9 km/h (4 Bft) 95,65 %
23.12.2017 07:41 5,8 C 3,9 C 92 % 1032,0 hPa 0,0 l/m 9,7 km/h (2 Bft) W 270 0 min 0,000 mm 0,0 UV-I 0 W/m 4,6 C 3,2 C 14,5 km/h (3 Bft) 100,00 %
23.12.2017 07:42 5,8 C 3,9 C 92 % 1032,0 hPa 0,0 l/m 9,7 km/h (2 Bft) W 270 0 min 0,000 mm 0,0 UV-I 0 W/m 4,6 C 3,2 C 19,3 km/h (3 Bft) 91,30 %
23.12.2017 07:43 5,8 C 3,9 C 92 % 1032,0 hPa 0,0 l/m 14,5 km/h (3 Bft) W-SW 247 0 min 0,000 mm 0,0 UV-I 0 W/m 4,6 C 0,3 C 19,3 km/h (3 Bft) 100,00 %
23.12.2017 07:44 5,8 C 3,9 C 92 % 1032,0 hPa 0,0 l/m 12,9 km/h (3 Bft) W-SW 247 0 min 0,000 mm 0,0 UV-I 0 W/m 4,6 C 1,2 C 19,3 km/h (3 Bft) 91,30 %
23.12.2017 07:45 5,8 C 3,9 C 92 % 1032,0 hPa 0,0 l/m 12,9 km/h (3 Bft) W 270 0 min 0,000 mm 0,0 UV-I 0 W/m 4,6 C 1,2 C 19,3 km/h (3 Bft) 100,00 %
23.12.2017 07:46 5,8 C 3,9 C 92 % 1031,9 hPa 0,0 l/m 17,7 km/h (3 Bft) W-SW 247 0 min 0,000 mm 0,0 UV-I 0 W/m 4,6 C -1,2 C 20,9 km/h (4 Bft) 95,65 %
23.12.2017 07:47 5,8 C 3,9 C 92 % 1032,0 hPa 0,0 l/m 20,9 km/h (4 Bft) W 270 0 min 0,000 mm 0,0 UV-I 0 W/m 4,6 C -2,5 C 25,7 km/h (4 Bft) 95,65 %
23.12.2017 07:48 5,8 C 3,9 C 92 % 1032,0 hPa 0,0 l/m 11,3 km/h (2 Bft) W-SW 247 0 min 0,000 mm 0,0 UV-I 0 W/m 4,6 C 2,1 C 22,5 km/h (4 Bft) 95,65 %
23.12.2017 07:49 5,8 C 3,9 C 92 % 1031,9 hPa 0,0 l/m 14,5 km/h (3 Bft) W-SW 247 0 min 0,000 mm 0,0 UV-I 0 W/m 4,6 C 0,3 C 22,5 km/h (4 Bft) 95,65 %
23.12.2017 07:50 5,8 C 3,9 C 92 % 1031,7 hPa 0,0 l/m 12,9 km/h (3 Bft) W-SW 247 0 min 0,000 mm 0,0 UV-I 0 W/m 4,6 C 1,2 C 19,3 km/h (3 Bft) 91,30 %
23.12.2017 07:51 5,8 C 3,9 C 92 % 1031,8 hPa 0,0 l/m 11,3 km/h (2 Bft) W 270 0 min 0,000 mm 0,0 UV-I 0 W/m 4,6 C 2,1 C 16,1 km/h (3 Bft) 100,00 %
23.12.2017 07:52 5,8 C 3,9 C 92 % 1031,8 hPa 0,0 l/m 12,9 km/h (3 Bft) W-SW 247 0 min 0,000 mm 0,0 UV-I 0 W/m 4,6 C 1,2 C 20,9 km/h (4 Bft) 91,30 %
23.12.2017 07:53 5,8 C 3,9 C 92 % 1031,9 hPa 0,0 l/m 8,0 km/h (2 Bft) W-SW 247 0 min 0,000 mm 0,0 UV-I 0 W/m 4,6 C 4,4 C 12,9 km/h (3 Bft) 100,00 %
23.12.2017 07:54 5,8 C 3,9 C 92 % 1031,9 hPa 0,0 l/m 8,0 km/h (2 Bft) W-SW 247 0 min 0,000 mm 0,0 UV-I 0 W/m 4,6 C 4,4 C 14,5 km/h (3 Bft) 91,30 %
23.12.2017 07:55 5,8 C 3,9 C 92 % 1031,9 hPa 0,0 l/m 11,3 km/h (2 Bft) W 270 0 min 0,000 mm 0,0 UV-I 0 W/m 4,6 C 2,1 C 17,7 km/h (3 Bft) 100,00 %
23.12.2017 07:56 5,8 C 3,9 C 92 % 1032,0 hPa 0,0 l/m 9,7 km/h (2 Bft) W-SW 247 0 min 0,000 mm 0,0 UV-I 0 W/m 4,6 C 3,2 C 20,9 km/h (4 Bft) 95,65 %
23.12.2017 07:57 5,8 C 3,9 C 92 % 1032,1 hPa 0,0 l/m 12,9 km/h (3 Bft) W 270 0 min 0,000 mm 0,0 UV-I 0 W/m 4,6 C 1,2 C 20,9 km/h (4 Bft) 95,65 %
23.12.2017 07:58 5,8 C 3,9 C 92 % 1032,0 hPa 0,0 l/m 8,0 km/h (2 Bft) W-SW 247 0 min 0,000 mm 0,0 UV-I 0 W/m 4,6 C 4,4 C 17,7 km/h (3 Bft) 100,00 %
23.12.2017 07:59 5,8 C 3,9 C 92 % 1032,0 hPa 0,0 l/m 12,9 km/h (3 Bft) W 270 0 min 0,000 mm 0,0 UV-I 0 W/m 4,6 C 1,2 C 16,1 km/h (3 Bft) 95,65 %
23.12.2017 08:00 5,8 C 3,9 C 92 % 1032,0 hPa 0,0 l/m 11,3 km/h (2 Bft) W-SW 247 0 min 0,000 mm 0,0 UV-I 0 W/m 4,6 C 2,1 C 16,1 km/h (3 Bft) 95,65 %
23.12.2017 08:01 5,8 C 3,9 C 92 % 1032,1 hPa 0,0 l/m 9,7 km/h (2 Bft) W-SW 247 0 min 0,000 mm 0,0 UV-I 0 W/m 4,6 C 3,2 C 12,9 km/h (3 Bft) 95,65 %
23.12.2017 08:02 5,8 C 3,9 C 92 % 1032,1 hPa 0,0 l/m 12,9 km/h (3 Bft) W-SW 247 0 min 0,000 mm 0,0 UV-I 0 W/m 4,6 C 1,2 C 16,1 km/h (3 Bft) 100,00 %
23.12.2017 08:03 5,8 C 3,9 C 92 % 1032,1 hPa 0,0 l/m 11,3 km/h (2 Bft) W 270 0 min 0,000 mm 0,0 UV-I 0 W/m 4,6 C 2,1 C 16,1 km/h (3 Bft) 95,65 %
23.12.2017 08:04 5,8 C 3,9 C 92 % 1032,1 hPa 0,0 l/m 16,1 km/h (3 Bft) W 270 0 min 0,000 mm 0,0 UV-I 5 W/m 4,6 C -0,5 C 19,3 km/h (3 Bft) 100,00 %
23.12.2017 08:05 5,8 C 3,9 C 92 % 1032,1 hPa 0,0 l/m 17,7 km/h (3 Bft) W-SW 247 0 min 0,000 mm 0,0 UV-I 5 W/m 4,6 C -1,2 C 24,1 km/h (4 Bft) 100,00 %
23.12.2017 08:06 5,8 C 3,9 C 92 % 1032,1 hPa 0,0 l/m 11,3 km/h (2 Bft) W 270 0 min 0,000 mm 0,0 UV-I 5 W/m 4,6 C 2,1 C 19,3 km/h (3 Bft) 100,00 %
23.12.2017 08:07 5,9 C 3,9 C 92 % 1032,2 hPa 0,0 l/m 14,5 km/h (3 Bft) W-SW 247 0 min 0,000 mm 0,0 UV-I 5 W/m 4,7 C 0,4 C 24,1 km/h (4 Bft) 100,00 %
23.12.2017 08:08 5,9 C 3,9 C 92 % 1032,1 hPa 0,0 l/m 17,7 km/h (3 Bft) W-SW 247 0 min 0,000 mm 0,0 UV-I 5 W/m 4,7 C -1,1 C 24,1 km/h (4 Bft) 100,00 %
23.12.2017 08:09 5,9 C 3,9 C 91 % 1032,2 hPa 0,0 l/m 11,3 km/h (2 Bft) W 270 0 min 0,000 mm 0,0 UV-I 5 W/m 4,5 C 2,2 C 17,7 km/h (3 Bft) 100,00 %
23.12.2017 08:10 5,9 C 3,9 C 91 % 1032,2 hPa 0,0 l/m 12,9 km/h (3 Bft) W-SW 247 0 min 0,000 mm 0,0 UV-I 5 W/m 4,5 C 1,3 C 17,7 km/h (3 Bft) 91,30 %
23.12.2017 08:11 5,9 C 3,9 C 91 % 1032,2 hPa 0,0 l/m 9,7 km/h (2 Bft) W 270 0 min 0,000 mm 0,0 UV-I 5 W/m 4,5 C 3,3 C 12,9 km/h (3 Bft) 100,00 %
23.12.2017 08:12 5,9 C 3,9 C 91 % 1032,3 hPa 0,0 l/m 11,3 km/h (2 Bft) W 270 0 min 0,000 mm 0,0 UV-I 5 W/m 4,5 C 2,2 C 16,1 km/h (3 Bft) 100,00 %
23.12.2017 08:13 5,9 C 3,9 C 91 % 1032,3 hPa 0,0 l/m 11,3 km/h (2 Bft) W 270 0 min 0,000 mm 0,0 UV-I 5 W/m 4,5 C 2,2 C 16,1 km/h (3 Bft) 100,00 %
23.12.2017 08:14 5,9 C 3,9 C 91 % 1032,3 hPa 0,0 l/m 9,7 km/h (2 Bft) W-SW 247 0 min 0,000 mm 0,0 UV-I 5 W/m 4,5 C 3,3 C 14,5 km/h (3 Bft) 91,30 %
23.12.2017 08:15 5,9 C 3,9 C 91 % 1032,3 hPa 0,0 l/m 11,3 km/h (2 Bft) W-SW 247 0 min 0,000 mm 0,0 UV-I 5 W/m 4,5 C 2,2 C 16,1 km/h (3 Bft) 100,00 %
23.12.2017 08:16 5,9 C 3,9 C 91 % 1032,2 hPa 0,0 l/m 12,9 km/h (3 Bft) W-SW 247 0 min 0,000 mm 0,0 UV-I 5 W/m 4,5 C 1,3 C 16,1 km/h (3 Bft) 100,00 %
23.12.2017 08:17 5,9 C 3,9 C 91 % 1032,2 hPa 0,0 l/m 12,9 km/h (3 Bft) W-SW 247 0 min 0,000 mm 0,0 UV-I 5 W/m 4,5 C 1,3 C 17,7 km/h (3 Bft) 95,65 %
23.12.2017 08:18 5,9 C 3,9 C 91 % 1032,2 hPa 0,0 l/m 8,0 km/h (2 Bft) W-SW 247 0 min 0,000 mm 0,0 UV-I 5 W/m 4,5 C 4,5 C 11,3 km/h (2 Bft) 100,00 %
23.12.2017 08:19 5,9 C 3,9 C 91 % 1032,2 hPa 0,0 l/m 9,7 km/h (2 Bft) W-SW 247 0 min 0,000 mm 0,0 UV-I 5 W/m 4,5 C 3,3 C 14,5 km/h (3 Bft) 100,00 %
23.12.2017 08:20 5,9 C 3,9 C 91 % 1032,2 hPa 0,0 l/m 9,7 km/h (2 Bft) W 270 0 min 0,000 mm 0,0 UV-I 5 W/m 4,5 C 3,3 C 14,5 km/h (3 Bft) 95,65 %
23.12.2017 08:21 5,9 C 3,9 C 91 % 1032,2 hPa 0,0 l/m 11,3 km/h (2 Bft) W-SW 247 0 min 0,000 mm 0,0 UV-I 5 W/m 4,5 C 2,2 C 16,1 km/h (3 Bft) 100,00 %
23.12.2017 08:22 5,9 C 3,9 C 91 % 1032,2 hPa 0,0 l/m 14,5 km/h (3 Bft) W-SW 247 0 min 0,000 mm 0,0 UV-I 5 W/m 4,5 C 0,4 C 19,3 km/h (3 Bft) 100,00 %
23.12.2017 08:23 5,9 C 3,9 C 91 % 1032,3 hPa 0,0 l/m 11,3 km/h (2 Bft) W 270 0 min 0,000 mm 0,0 UV-I 7 W/m 4,5 C 2,2 C 16,1 km/h (3 Bft) 100,00 %
23.12.2017 08:24 6,0 C 3,9 C 91 % 1032,3 hPa 0,0 l/m 6,4 km/h (2 Bft) SW 225 0 min 0,000 mm 0,0 UV-I 7 W/m 4,6 C 6,0 C 9,7 km/h (2 Bft) 95,65 %
23.12.2017 08:25 6,0 C 3,9 C 91 % 1032,3 hPa 0,0 l/m 8,0 km/h (2 Bft) W-SW 247 0 min 0,000 mm 0,0 UV-I 7 W/m 4,6 C 4,7 C 12,9 km/h (3 Bft) 100,00 %
23.12.2017 08:26 5,9 C 3,9 C 91 % 1032,3 hPa 0,0 l/m 6,4 km/h (2 Bft) W-SW 247 0 min 0,000 mm 0,0 UV-I 7 W/m 4,5 C 5,9 C 11,3 km/h (2 Bft) 100,00 %
23.12.2017 08:27 5,9 C 3,9 C 91 % 1032,2 hPa 0,0 l/m 6,4 km/h (2 Bft) W 270 0 min 0,000 mm 0,0 UV-I 7 W/m 4,5 C 5,9 C 8,0 km/h (2 Bft) 100,00 %
23.12.2017 08:28 5,9 C 3,9 C 91 % 1032,2 hPa 0,0 l/m 6,4 km/h (2 Bft) W-SW 247 0 min 0,000 mm 0,0 UV-I 7 W/m 4,5 C 5,9 C 11,3 km/h (2 Bft) 100,00 %
23.12.2017 08:29 5,9 C 3,9 C 91 % 1032,2 hPa 0,0 l/m 9,7 km/h (2 Bft) W-SW 247 0 min 0,000 mm 0,0 UV-I 7 W/m 4,5 C 3,3 C 14,5 km/h (3 Bft) 100,00 %
23.12.2017 08:30 5,9 C 3,9 C 91 % 1032,2 hPa 0,0 l/m 9,7 km/h (2 Bft) W-SW 247 0 min 0,000 mm 0,0 UV-I 7 W/m 4,5 C 3,3 C 14,5 km/h (3 Bft) 100,00 %
23.12.2017 08:31 5,9 C 3,9 C 91 % 1032,2 hPa 0,0 l/m 9,7 km/h (2 Bft) W-SW 247 0 min 0,000 mm 0,0 UV-I 7 W/m 4,5 C 3,3 C 14,5 km/h (3 Bft) 95,65 %
23.12.2017 08:32 5,9 C 3,9 C 91 % 1032,2 hPa 0,0 l/m 9,7 km/h (2 Bft) W-SW 247 0 min 0,000 mm 0,0 UV-I 7 W/m 4,5 C 3,3 C 14,5 km/h (3 Bft) 100,00 %
23.12.2017 08:33 5,9 C 3,9 C 91 % 1032,2 hPa 0,0 l/m 9,7 km/h (2 Bft) SW 225 0 min 0,000 mm 0,0 UV-I 7 W/m 4,5 C 3,3 C 12,9 km/h (3 Bft) 100,00 %
23.12.2017 08:34 5,9 C 3,9 C 91 % 1032,2 hPa 0,0 l/m 9,7 km/h (2 Bft) W-SW 247 0 min 0,000 mm 0,0 UV-I 7 W/m 4,5 C 3,3 C 12,9 km/h (3 Bft) 95,65 %
23.12.2017 08:35 5,9 C 3,9 C 91 % 1032,2 hPa 0,0 l/m 12,9 km/h (3 Bft) W-SW 247 0 min 0,000 mm 0,0 UV-I 7 W/m 4,5 C 1,3 C 17,7 km/h (3 Bft) 100,00 %
23.12.2017 08:36 6,0 C 3,9 C 91 % 1032,2 hPa 0,0 l/m 8,0 km/h (2 Bft) W-SW 247 0 min 0,000 mm 0,0 UV-I 7 W/m 4,6 C 4,7 C 11,3 km/h (2 Bft) 100,00 %
23.12.2017 08:37 6,0 C 3,9 C 91 % 1032,2 hPa 0,0 l/m 8,0 km/h (2 Bft) W-SW 247 0 min 0,000 mm 0,0 UV-I 7 W/m 4,6 C 4,7 C 11,3 km/h (2 Bft) 100,00 %
23.12.2017 08:38 6,0 C 3,9 C 91 % 1032,2 hPa 0,0 l/m 9,7 km/h (2 Bft) W 270 0 min 0,000 mm 0,0 UV-I 6 W/m 4,6 C 3,4 C 12,9 km/h (3 Bft) 95,65 %
23.12.2017 08:39 6,0 C 3,9 C 91 % 1032,2 hPa 0,0 l/m 8,0 km/h (2 Bft) W-SW 247 0 min 0,000 mm 0,0 UV-I 7 W/m 4,6 C 4,7 C 12,9 km/h (3 Bft) 95,65 %
23.12.2017 08:40 5,9 C 3,9 C 91 % 1032,2 hPa 0,0 l/m 9,7 km/h (2 Bft) W-SW 247 0 min 0,000 mm 0,0 UV-I 7 W/m 4,5 C 3,3 C 20,9 km/h (4 Bft) 100,00 %
23.12.2017 08:41 6,0 C 3,9 C 91 % 1032,2 hPa 0,0 l/m 14,5 km/h (3 Bft) W 270 0 min 0,000 mm 0,0 UV-I 7 W/m 4,6 C 0,5 C 20,9 km/h (4 Bft) 95,65 %
23.12.2017 08:42 5,9 C 3,9 C 92 % 1032,2 hPa 0,0 l/m 11,3 km/h (2 Bft) W 270 0 min 0,000 mm 0,0 UV-I 7 W/m 4,7 C 2,2 C 16,1 km/h (3 Bft) 100,00 %
23.12.2017 08:43 6,0 C 3,9 C 91 % 1032,2 hPa 0,0 l/m 11,3 km/h (2 Bft) W-SW 247 0 min 0,000 mm 0,0 UV-I 7 W/m 4,6 C 2,3 C 16,1 km/h (3 Bft) 100,00 %
23.12.2017 08:44 6,0 C 3,9 C 91 % 1032,2 hPa 0,0 l/m 14,5 km/h (3 Bft) W 270 0 min 0,000 mm 0,0 UV-I 8 W/m 4,6 C 0,5 C 19,3 km/h (3 Bft) 95,65 %
23.12.2017 08:45 6,0 C 3,9 C 92 % 1032,2 hPa 0,0 l/m 11,3 km/h (2 Bft) W 270 0 min 0,000 mm 0,0 UV-I 9 W/m 4,8 C 2,3 C 17,7 km/h (3 Bft) 95,65 %
23.12.2017 08:46 6,0 C 3,9 C 92 % 1032,2 hPa 0,0 l/m 14,5 km/h (3 Bft) W-SW 247 0 min 0,000 mm 0,0 UV-I 9 W/m 4,8 C 0,5 C 22,5 km/h (4 Bft) 100,00 %
23.12.2017 08:47 6,0 C 3,9 C 92 % 1032,2 hPa 0,0 l/m 16,1 km/h (3 Bft) W-SW 247 0 min 0,000 mm 0,0 UV-I 9 W/m 4,8 C -0,2 C 22,5 km/h (4 Bft) 100,00 %
23.12.2017 08:48 6,0 C 3,9 C 92 % 1032,2 hPa 0,0 l/m 12,9 km/h (3 Bft) W 270 0 min 0,000 mm 0,0 UV-I 9 W/m 4,8 C 1,4 C 16,1 km/h (3 Bft) 100,00 %
23.12.2017 08:49 6,0 C 3,9 C 92 % 1032,2 hPa 0,0 l/m 9,7 km/h (2 Bft) W-NW 292 0 min 0,000 mm 0,0 UV-I 9 W/m 4,8 C 3,4 C 24,1 km/h (4 Bft) 100,00 %
23.12.2017 08:50 6,0 C 3,9 C 92 % 1032,2 hPa 0,0 l/m 11,3 km/h (2 Bft) W 270 0 min 0,000 mm 0,0 UV-I 9 W/m 4,8 C 2,3 C 22,5 km/h (4 Bft) 95,65 %
23.12.2017 08:51 6,0 C 3,9 C 92 % 1032,2 hPa 0,0 l/m 9,7 km/h (2 Bft) W 270 0 min 0,000 mm 0,0 UV-I 9 W/m 4,8 C 3,4 C 16,1 km/h (3 Bft) 100,00 %
23.12.2017 08:52 6,0 C 3,9 C 92 % 1032,2 hPa 0,0 l/m 8,0 km/h (2 Bft) W 270 0 min 0,000 mm 0,0 UV-I 11 W/m 4,8 C 4,7 C 16,1 km/h (3 Bft) 95,65 %
23.12.2017 08:53 6,0 C 3,9 C 92 % 1032,2 hPa 0,0 l/m 9,7 km/h (2 Bft) W 270 0 min 0,000 mm 0,0 UV-I 12 W/m 4,8 C 3,4 C 12,9 km/h (3 Bft) 95,65 %
23.12.2017 08:54 6,0 C 3,9 C 92 % 1032,1 hPa 0,0 l/m 8,0 km/h (2 Bft) W 270 0 min 0,000 mm 0,0 UV-I 11 W/m 4,8 C 4,7 C 14,5 km/h (3 Bft) 95,65 %
23.12.2017 08:55 6,0 C 3,9 C 92 % 1032,2 hPa 0,0 l/m 8,0 km/h (2 Bft) W 270 0 min 0,000 mm 0,0 UV-I 9 W/m 4,8 C 4,7 C 11,3 km/h (2 Bft) 95,65 %
23.12.2017 08:56 5,9 C 3,9 C 92 % 1032,2 hPa 0,0 l/m 8,0 km/h (2 Bft) W 270 0 min 0,000 mm 0,0 UV-I 11 W/m 4,7 C 4,5 C 12,9 km/h (3 Bft) 100,00 %
23.12.2017 08:57 5,9 C 3,9 C 92 % 1032,2 hPa 0,0 l/m 9,7 km/h (2 Bft) W 270 0 min 0,000 mm 0,0 UV-I 11 W/m 4,7 C 3,3 C 14,5 km/h (3 Bft) 95,65 %
23.12.2017 08:58 6,0 C 3,9 C 92 % 1032,2 hPa 0,0 l/m 14,5 km/h (3 Bft) W-SW 247 0 min 0,000 mm 0,0 UV-I 11 W/m 4,8 C 0,5 C 19,3 km/h (3 Bft) 95,65 %
23.12.2017 08:59 6,0 C 3,9 C 92 % 1032,2 hPa 0,0 l/m 6,4 km/h (2 Bft) W-SW 247 0 min 0,000 mm 0,0 UV-I 11 W/m 4,8 C 6,0 C 11,3 km/h (2 Bft) 91,30 %
23.12.2017 09:00 6,0 C 3,9 C 92 % 1032,2 hPa 0,0 l/m 9,7 km/h (2 Bft) W-SW 247 0 min 0,000 mm 0,0 UV-I 11 W/m 4,8 C 3,4 C 16,1 km/h (3 Bft) 100,00 %
23.12.2017 09:01 6,0 C 3,9 C 92 % 1032,2 hPa 0,0 l/m 11,3 km/h (2 Bft) W-SW 247 0 min 0,000 mm 0,0 UV-I 11 W/m 4,8 C 2,3 C 16,1 km/h (3 Bft) 86,96 %
23.12.2017 09:02 6,0 C 3,9 C 92 % 1032,3 hPa 0,0 l/m 9,7 km/h (2 Bft) W 270 0 min 0,000 mm 0,0 UV-I 11 W/m 4,8 C 3,4 C 14,5 km/h (3 Bft) 95,65 %
23.12.2017 09:03 6,0 C 3,9 C 92 % 1032,3 hPa 0,0 l/m 6,4 km/h (2 Bft) W-SW 247 0 min 0,000 mm 0,0 UV-I 12 W/m 4,8 C 6,0 C 11,3 km/h (2 Bft) 95,65 %
23.12.2017 09:04 6,0 C 3,9 C 92 % 1032,4 hPa 0,0 l/m 6,4 km/h (2 Bft) W-NW 292 0 min 0,000 mm 0,0 UV-I 14 W/m 4,8 C 6,0 C 11,3 km/h (2 Bft) 91,30 %
23.12.2017 09:05 6,0 C 3,9 C 93 % 1032,3 hPa 0,0 l/m 9,7 km/h (2 Bft) W 270 0 min 0,000 mm 0,0 UV-I 16 W/m 5,0 C 3,4 C 12,9 km/h (3 Bft) 95,65 %
23.12.2017 09:06 6,0 C 3,9 C 93 % 1032,4 hPa 0,0 l/m 12,9 km/h (3 Bft) W 270 0 min 0,000 mm 0,0 UV-I 16 W/m 5,0 C 1,4 C 14,5 km/h (3 Bft) 91,30 %
23.12.2017 09:07 6,0 C 3,9 C 93 % 1032,4 hPa 0,0 l/m 12,9 km/h (3 Bft) W 270 0 min 0,000 mm 0,0 UV-I 16 W/m 5,0 C 1,4 C 17,7 km/h (3 Bft) 91,30 %
23.12.2017 09:08 6,0 C 3,9 C 93 % 1032,4 hPa 0,0 l/m 9,7 km/h (2 Bft) W-SW 247 0 min 0,000 mm 0,0 UV-I 19 W/m 5,0 C 3,4 C 11,3 km/h (2 Bft) 95,65 %
23.12.2017 09:09 6,0 C 3,9 C 93 % 1032,3 hPa 0,0 l/m 12,9 km/h (3 Bft) W-SW 247 0 min 0,000 mm 0,0 UV-I 19 W/m 5,0 C 1,4 C 19,3 km/h (3 Bft) 95,65 %
23.12.2017 09:10 6,0 C 3,9 C 93 % 1032,3 hPa 0,0 l/m 14,5 km/h (3 Bft) W-SW 247 0 min 0,000 mm 0,0 UV-I 25 W/m 5,0 C 0,5 C 20,9 km/h (4 Bft) 91,30 %
23.12.2017 09:11 6,1 C 3,9 C 93 % 1032,4 hPa 0,0 l/m 11,3 km/h (2 Bft) W-SW 247 0 min 0,000 mm 0,0 UV-I 25 W/m 5,1 C 2,4 C 17,7 km/h (3 Bft) 91,30 %
23.12.2017 09:12 6,1 C 3,9 C 93 % 1032,4 hPa 0,0 l/m 9,7 km/h (2 Bft) W-SW 247 0 min 0,000 mm 0,0 UV-I 25 W/m 5,1 C 3,5 C 12,9 km/h (3 Bft) 100,00 %
23.12.2017 09:13 6,1 C 3,9 C 93 % 1032,3 hPa 0,0 l/m 12,9 km/h (3 Bft) W 270 0 min 0,000 mm 0,0 UV-I 29 W/m 5,1 C 1,5 C 14,5 km/h (3 Bft) 86,96 %
23.12.2017 09:14 6,1 C 3,9 C 93 % 1032,3 hPa 0,0 l/m 9,7 km/h (2 Bft) W-SW 247 0 min 0,000 mm 0,0 UV-I 26 W/m 5,1 C 3,5 C 16,1 km/h (3 Bft) 100,00 %
23.12.2017 09:15 6,1 C 3,9 C 93 % 1032,3 hPa 0,0 l/m 11,3 km/h (2 Bft) W-SW 247 0 min 0,000 mm 0,0 UV-I 26 W/m 5,1 C 2,4 C 17,7 km/h (3 Bft) 91,30 %
23.12.2017 09:16 6,1 C 3,9 C 93 % 1032,3 hPa 0,0 l/m 12,9 km/h (3 Bft) W-SW 247 0 min 0,000 mm 0,0 UV-I 23 W/m 5,1 C 1,5 C 17,7 km/h (3 Bft) 91,30 %
23.12.2017 09:17 6,1 C 3,9 C 93 % 1032,2 hPa 0,0 l/m 11,3 km/h (2 Bft) W 270 0 min 0,000 mm 0,0 UV-I 19 W/m 5,1 C 2,4 C 14,5 km/h (3 Bft) 95,65 %
23.12.2017 09:18 6,1 C 3,9 C 93 % 1032,3 hPa 0,0 l/m 9,7 km/h (2 Bft) W 270 0 min 0,000 mm 0,0 UV-I 18 W/m 5,1 C 3,5 C 17,7 km/h (3 Bft) 91,30 %
23.12.2017 09:19 6,1 C 3,9 C 93 % 1032,2 hPa 0,0 l/m 11,3 km/h (2 Bft) W 270 0 min 0,000 mm 0,0 UV-I 25 W/m 5,1 C 2,4 C 19,3 km/h (3 Bft) 95,65 %
23.12.2017 09:20 6,1 C 3,9 C 93 % 1032,2 hPa 0,0 l/m 14,5 km/h (3 Bft) W-SW 247 0 min 0,000 mm 0,0 UV-I 26 W/m 5,1 C 0,7 C 20,9 km/h (4 Bft) 86,96 %
23.12.2017 09:21 6,2 C 3,9 C 93 % 1032,2 hPa 0,0 l/m 9,7 km/h (2 Bft) W-SW 247 0 min 0,000 mm 0,0 UV-I 26 W/m 5,2 C 3,6 C 16,1 km/h (3 Bft) 100,00 %
23.12.2017 09:22 6,2 C 3,9 C 93 % 1032,3 hPa 0,0 l/m 12,9 km/h (3 Bft) W 270 0 min 0,000 mm 0,0 UV-I 19 W/m 5,2 C 1,6 C 17,7 km/h (3 Bft) 95,65 %
23.12.2017 09:23 6,2 C 3,9 C 93 % 1032,3 hPa 0,0 l/m 11,3 km/h (2 Bft) W-SW 247 0 min 0,000 mm 0,0 UV-I 21 W/m 5,2 C 2,6 C 16,1 km/h (3 Bft) 100,00 %
23.12.2017 09:24 6,2 C 3,9 C 93 % 1032,3 hPa 0,0 l/m 9,7 km/h (2 Bft) W 270 0 min 0,000 mm 0,0 UV-I 21 W/m 5,2 C 3,6 C 16,1 km/h (3 Bft) 91,30 %
23.12.2017 09:25 6,2 C 3,9 C 93 % 1032,3 hPa 0,0 l/m 9,7 km/h (2 Bft) W 270 0 min 0,000 mm 0,0 UV-I 21 W/m 5,2 C 3,6 C 12,9 km/h (3 Bft) 100,00 %
23.12.2017 09:26 6,2 C 3,9 C 93 % 1032,4 hPa 0,0 l/m 14,5 km/h (3 Bft) W-SW 247 0 min 0,000 mm 0,0 UV-I 25 W/m 5,2 C 0,8 C 20,9 km/h (4 Bft) 95,65 %
23.12.2017 09:27 6,2 C 3,9 C 93 % 1032,4 hPa 0,0 l/m 11,3 km/h (2 Bft) W 270 0 min 0,000 mm 0,0 UV-I 26 W/m 5,2 C 2,6 C 12,9 km/h (3 Bft) 95,65 %
23.12.2017 09:28 6,2 C 3,9 C 93 % 1032,4 hPa 0,0 l/m 8,0 km/h (2 Bft) W 270 0 min 0,000 mm 0,0 UV-I 32 W/m 5,2 C 4,9 C 11,3 km/h (2 Bft) 95,65 %
23.12.2017 09:29 6,2 C 3,9 C 93 % 1032,4 hPa 0,0 l/m 14,5 km/h (3 Bft) W-SW 247 0 min 0,000 mm 0,0 UV-I 33 W/m 5,2 C 0,8 C 22,5 km/h (4 Bft) 100,00 %
23.12.2017 09:30 6,3 C 3,9 C 92 % 1032,3 hPa 0,0 l/m 12,9 km/h (3 Bft) W 270 0 min 0,000 mm 0,0 UV-I 35 W/m 5,1 C 1,7 C 19,3 km/h (3 Bft) 100,00 %
23.12.2017 09:31 6,3 C 3,9 C 92 % 1032,3 hPa 0,0 l/m 12,9 km/h (3 Bft) W-SW 247 0 min 0,000 mm 0,0 UV-I 40 W/m 5,1 C 1,7 C 19,3 km/h (3 Bft) 100,00 %
23.12.2017 09:32 6,3 C 3,9 C 92 % 1032,3 hPa 0,0 l/m 11,3 km/h (2 Bft) W-SW 247 0 min 0,000 mm 0,0 UV-I 39 W/m 5,1 C 2,7 C 12,9 km/h (3 Bft) 100,00 %
23.12.2017 09:33 6,3 C 3,9 C 92 % 1032,3 hPa 0,0 l/m 11,3 km/h (2 Bft) W-SW 247 0 min 0,000 mm 0,0 UV-I 39 W/m 5,1 C 2,7 C 16,1 km/h (3 Bft) 95,65 %
23.12.2017 09:34 6,3 C 3,9 C 92 % 1032,3 hPa 0,0 l/m 14,5 km/h (3 Bft) SW 225 0 min 0,000 mm 0,0 UV-I 42 W/m 5,1 C 0,9 C 19,3 km/h (3 Bft) 95,65 %
23.12.2017 09:35 6,3 C 3,9 C 92 % 1032,2 hPa 0,0 l/m 12,9 km/h (3 Bft) W-SW 247 0 min 0,000 mm 0,0 UV-I 40 W/m 5,1 C 1,7 C 16,1 km/h (3 Bft) 95,65 %
23.12.2017 09:36 6,4 C 3,9 C 92 % 1032,2 hPa 0,0 l/m 17,7 km/h (3 Bft) W-SW 247 0 min 0,000 mm 0,0 UV-I 40 W/m 5,2 C -0,4 C 24,1 km/h (4 Bft) 100,00 %
23.12.2017 09:37 6,4 C 3,9 C 92 % 1032,2 hPa 0,0 l/m 17,7 km/h (3 Bft) W-SW 247 0 min 0,000 mm 0,0 UV-I 43 W/m 5,2 C -0,4 C 20,9 km/h (4 Bft) 95,65 %
23.12.2017 09:38 6,4 C 3,9 C 92 % 1032,3 hPa 0,0 l/m 19,3 km/h (3 Bft) W-SW 247 0 min 0,000 mm 0,0 UV-I 49 W/m 5,2 C -1,1 C 24,1 km/h (4 Bft) 100,00 %
23.12.2017 09:39 6,4 C 3,9 C 92 % 1032,3 hPa 0,0 l/m 14,5 km/h (3 Bft) W 270 0 min 0,000 mm 0,0 UV-I 49 W/m 5,2 C 1,0 C 22,5 km/h (4 Bft) 100,00 %
23.12.2017 09:40 6,4 C 3,9 C 92 % 1032,2 hPa 0,0 l/m 17,7 km/h (3 Bft) W-SW 247 0 min 0,000 mm 0,0 UV-I 49 W/m 5,2 C -0,4 C 22,5 km/h (4 Bft) 100,00 %
23.12.2017 09:41 6,5 C 3,9 C 92 % 1032,2 hPa 0,0 l/m 16,1 km/h (3 Bft) W 270 0 min 0,000 mm 0,0 UV-I 49 W/m 5,3 C 0,4 C 20,9 km/h (4 Bft) 95,65 %
23.12.2017 09:42 6,5 C 3,9 C 92 % 1032,2 hPa 0,0 l/m 12,9 km/h (3 Bft) W-SW 247 0 min 0,000 mm 0,0 UV-I 51 W/m 5,3 C 2,0 C 19,3 km/h (3 Bft) 100,00 %
23.12.2017 09:43 6,6 C 3,9 C 92 % 1032,2 hPa 0,0 l/m 11,3 km/h (2 Bft) W 270 0 min 0,000 mm 0,0 UV-I 54 W/m 5,4 C 3,0 C 16,1 km/h (3 Bft) 100,00 %
23.12.2017 09:44 6,6 C 3,9 C 92 % 1032,2 hPa 0,0 l/m 19,3 km/h (3 Bft) W 270 0 min 0,000 mm 0,0 UV-I 53 W/m 5,4 C -0,8 C 25,7 km/h (4 Bft) 100,00 %
23.12.2017 09:45 6,6 C 3,9 C 92 % 1032,3 hPa 0,0 l/m 17,7 km/h (3 Bft) W 270 0 min 0,000 mm 0,0 UV-I 46 W/m 5,4 C -0,2 C 24,1 km/h (4 Bft) 100,00 %
23.12.2017 09:46 6,6 C 3,9 C 91 % 1032,2 hPa 0,0 l/m 17,7 km/h (3 Bft) W 270 0 min 0,000 mm 0,0 UV-I 42 W/m 5,2 C -0,2 C 25,7 km/h (4 Bft) 100,00 %
23.12.2017 09:47 6,6 C 3,9 C 91 % 1032,3 hPa 0,0 l/m 22,5 km/h (4 Bft) W-SW 247 0 min 0,000 mm 0,0 UV-I 42 W/m 5,2 C -2,0 C 30,6 km/h (5 Bft) 100,00 %
23.12.2017 09:48 6,7 C 3,9 C 91 % 1032,2 hPa 0,0 l/m 25,7 km/h (4 Bft) W-SW 247 0 min 0,000 mm 0,0 UV-I 42 W/m 5,3 C -2,8 C 35,4 km/h (5 Bft) 95,65 %
23.12.2017 09:49 6,7 C 3,9 C 91 % 1032,3 hPa 0,0 l/m 12,9 km/h (3 Bft) W-SW 247 0 min 0,000 mm 0,0 UV-I 39 W/m 5,3 C 2,2 C 35,4 km/h (5 Bft) 100,00 %
23.12.2017 09:50 6,7 C 3,9 C 91 % 1032,2 hPa 0,0 l/m 12,9 km/h (3 Bft) W-SW 247 0 min 0,000 mm 0,0 UV-I 37 W/m 5,3 C 2,2 C 20,9 km/h (4 Bft) 95,65 %
23.12.2017 09:51 6,7 C 3,9 C 91 % 1032,3 hPa 0,0 l/m 16,1 km/h (3 Bft) W 270 0 min 0,000 mm 0,0 UV-I 33 W/m 5,3 C 0,6 C 22,5 km/h (4 Bft) 100,00 %
23.12.2017 09:52 6,7 C 3,9 C 91 % 1032,2 hPa 0,0 l/m 14,5 km/h (3 Bft) W 270 0 min 0,000 mm 0,0 UV-I 32 W/m 5,3 C 1,4 C 20,9 km/h (4 Bft) 100,00 %
23.12.2017 09:53 6,7 C 3,9 C 91 % 1032,3 hPa 0,0 l/m 9,7 km/h (2 Bft) W-SW 247 0 min 0,000 mm 0,0 UV-I 32 W/m 5,3 C 4,2 C 14,5 km/h (3 Bft) 100,00 %
23.12.2017 09:54 6,7 C 3,9 C 91 % 1032,2 hPa 0,0 l/m 16,1 km/h (3 Bft) W-SW 247 0 min 0,000 mm 0,0 UV-I 31 W/m 5,3 C 0,6 C 19,3 km/h (3 Bft) 100,00 %
23.12.2017 09:55 6,7 C 3,9 C 91 % 1032,3 hPa 0,0 l/m 11,3 km/h (2 Bft) W 270 0 min 0,000 mm 0,0 UV-I 26 W/m 5,3 C 3,1 C 16,1 km/h (3 Bft) 95,65 %
23.12.2017 09:56 6,7 C 3,9 C 91 % 1032,3 hPa 0,0 l/m 14,5 km/h (3 Bft) W 270 0 min 0,000 mm 0,0 UV-I 25 W/m 5,3 C 1,4 C 22,5 km/h (4 Bft) 100,00 %
23.12.2017 09:57 6,7 C 3,9 C 91 % 1032,2 hPa 0,0 l/m 16,1 km/h (3 Bft) W 270 0 min 0,000 mm 0,0 UV-I 26 W/m 5,3 C 0,6 C 19,3 km/h (3 Bft) 100,00 %
23.12.2017 09:58 6,7 C 3,9 C 91 % 1032,3 hPa 0,0 l/m 8,0 km/h (2 Bft) W-SW 247 0 min 0,000 mm 0,0 UV-I 26 W/m 5,3 C 5,4 C 11,3 km/h (2 Bft) 100,00 %
23.12.2017 09:59 6,7 C 3,9 C 91 % 1032,2 hPa 0,0 l/m 16,1 km/h (3 Bft) W-SW 247 0 min 0,000 mm 0,0 UV-I 26 W/m 5,3 C 0,6 C 25,7 km/h (4 Bft) 100,00 %
23.12.2017 10:00 6,7 C 3,9 C 91 % 1032,2 hPa 0,0 l/m 11,3 km/h (2 Bft) W 270 0 min 0,025 mm 0,0 UV-I 42 W/m 5,3 C 3,1 C 16,1 km/h (3 Bft) 100,00 %
23.12.2017 10:01 6,7 C 3,9 C 91 % 1032,2 hPa 0,0 l/m 12,9 km/h (3 Bft) W-SW 247 0 min 0,000 mm 0,0 UV-I 42 W/m 5,3 C 2,2 C 14,5 km/h (3 Bft) 95,65 %
23.12.2017 10:02 6,7 C 3,9 C 91 % 1032,3 hPa 0,0 l/m 16,1 km/h (3 Bft) W 270 0 min 0,000 mm 0,0 UV-I 35 W/m 5,3 C 0,6 C 20,9 km/h (4 Bft) 95,65 %
23.12.2017 10:03 6,7 C 3,9 C 91 % 1032,3 hPa 0,0 l/m 8,0 km/h (2 Bft) W-SW 247 0 min 0,000 mm 0,0 UV-I 33 W/m 5,3 C 5,4 C 12,9 km/h (3 Bft) 95,65 %
23.12.2017 10:04 6,7 C 3,9 C 91 % 1032,3 hPa 0,0 l/m 11,3 km/h (2 Bft) W 270 0 min 0,000 mm 0,0 UV-I 35 W/m 5,3 C 3,1 C 14,5 km/h (3 Bft) 100,00 %
23.12.2017 10:05 6,7 C 3,9 C 91 % 1032,3 hPa 0,0 l/m 14,5 km/h (3 Bft) W-SW 247 0 min 0,000 mm 0,0 UV-I 33 W/m 5,3 C 1,4 C 20,9 km/h (4 Bft) 100,00 %
23.12.2017 10:06 6,7 C 3,9 C 91 % 1032,3 hPa 0,0 l/m 20,9 km/h (4 Bft) W-SW 247 0 min 0,000 mm 0,0 UV-I 33 W/m 5,3 C -1,3 C 29,0 km/h (5 Bft) 100,00 %
23.12.2017 10:07 6,7 C 3,9 C 91 % 1032,3 hPa 0,0 l/m 12,9 km/h (3 Bft) W 270 0 min 0,000 mm 0,0 UV-I 35 W/m 5,3 C 2,2 C 17,7 km/h (3 Bft) 100,00 %
23.12.2017 10:08 6,7 C 3,9 C 91 % 1032,3 hPa 0,0 l/m 14,5 km/h (3 Bft) W-SW 247 0 min 0,000 mm 0,0 UV-I 32 W/m 5,3 C 1,4 C 22,5 km/h (4 Bft) 100,00 %
23.12.2017 10:09 6,7 C 3,9 C 91 % 1032,3 hPa 0,0 l/m 9,7 km/h (2 Bft) W 270 0 min 0,000 mm 0,0 UV-I 33 W/m 5,3 C 4,2 C 16,1 km/h (3 Bft) 95,65 %
23.12.2017 10:10 6,7 C 3,9 C 91 % 1032,3 hPa 0,0 l/m 11,3 km/h (2 Bft) W 270 0 min 0,000 mm 0,0 UV-I 35 W/m 5,3 C 3,1 C 19,3 km/h (3 Bft) 95,65 %
23.12.2017 10:11 6,7 C 3,9 C 91 % 1032,3 hPa 0,0 l/m 12,9 km/h (3 Bft) W 270 0 min 0,000 mm 0,0 UV-I 37 W/m 5,3 C 2,2 C 20,9 km/h (4 Bft) 100,00 %
23.12.2017 10:12 6,7 C 3,9 C 91 % 1032,4 hPa 0,0 l/m 17,7 km/h (3 Bft) W 270 0 min 0,000 mm 0,0 UV-I 35 W/m 5,3 C -0,1 C 27,4 km/h (4 Bft) 100,00 %
23.12.2017 10:13 6,7 C 3,9 C 91 % 1032,4 hPa 0,0 l/m 11,3 km/h (2 Bft) W 270 0 min 0,000 mm 0,0 UV-I 40 W/m 5,3 C 3,1 C 12,9 km/h (3 Bft) 100,00 %
23.12.2017 10:14 6,7 C 3,9 C 91 % 1032,3 hPa 0,0 l/m 12,9 km/h (3 Bft) W-SW 247 0 min 0,000 mm 0,0 UV-I 40 W/m 5,3 C 2,2 C 19,3 km/h (3 Bft) 100,00 %
23.12.2017 10:15 6,7 C 3,9 C 91 % 1032,3 hPa 0,0 l/m 11,3 km/h (2 Bft) W 270 0 min 0,000 mm 0,0 UV-I 40 W/m 5,3 C 3,1 C 14,5 km/h (3 Bft) 100,00 %
23.12.2017 10:16 6,7 C 3,9 C 91 % 1032,3 hPa 0,0 l/m 14,5 km/h (3 Bft) W 270 0 min 0,000 mm 0,0 UV-I 44 W/m 5,3 C 1,4 C 20,9 km/h (4 Bft) 95,65 %
23.12.2017 10:17 6,7 C 3,9 C 91 % 1032,3 hPa 0,0 l/m 14,5 km/h (3 Bft) W 270 0 min 0,000 mm 0,0 UV-I 42 W/m 5,3 C 1,4 C 22,5 km/h (4 Bft) 95,65 %
23.12.2017 10:18 6,7 C 3,9 C 91 % 1032,4 hPa 0,0 l/m 14,5 km/h (3 Bft) W 270 0 min 0,000 mm 0,0 UV-I 44 W/m 5,3 C 1,4 C 19,3 km/h (3 Bft) 100,00 %
23.12.2017 10:19 6,7 C 3,9 C 91 % 1032,4 hPa 0,0 l/m 11,3 km/h (2 Bft) W-SW 247 0 min 0,000 mm 0,0 UV-I 51 W/m 5,3 C 3,1 C 14,5 km/h (3 Bft) 100,00 %
23.12.2017 10:20 6,7 C 3,9 C 91 % 1032,5 hPa 0,0 l/m 11,3 km/h (2 Bft) W 270 0 min 0,000 mm 0,0 UV-I 56 W/m 5,3 C 3,1 C 14,5 km/h (3 Bft) 95,65 %
23.12.2017 10:21 6,8 C 3,9 C 91 % 1032,5 hPa 0,0 l/m 16,1 km/h (3 Bft) W-SW 247 0 min 0,000 mm 0,0 UV-I 56 W/m 5,4 C 0,7 C 20,9 km/h (4 Bft) 100,00 %
23.12.2017 10:22 6,8 C 3,9 C 91 % 1032,4 hPa 0,0 l/m 11,3 km/h (2 Bft) W-SW 247 0 min 0,000 mm 0,0 UV-I 54 W/m 5,4 C 3,2 C 17,7 km/h (3 Bft) 86,96 %
23.12.2017 10:23 6,8 C 3,9 C 91 % 1032,5 hPa 0,0 l/m 12,9 km/h (3 Bft) W 270 0 min 0,000 mm 0,0 UV-I 53 W/m 5,4 C 2,3 C 14,5 km/h (3 Bft) 95,65 %
23.12.2017 10:24 6,8 C 3,9 C 91 % 1032,5 hPa 0,0 l/m 14,5 km/h (3 Bft) W 270 0 min 0,000 mm 0,0 UV-I 61 W/m 5,4 C 1,5 C 19,3 km/h (3 Bft) 95,65 %
23.12.2017 10:25 6,8 C 3,9 C 91 % 1032,5 hPa 0,0 l/m 14,5 km/h (3 Bft) W 270 0 min 0,000 mm 0,0 UV-I 62 W/m 5,4 C 1,5 C 19,3 km/h (3 Bft) 100,00 %
23.12.2017 10:26 6,8 C 3,9 C 91 % 1032,5 hPa 0,0 l/m 14,5 km/h (3 Bft) W 270 0 min 0,000 mm 0,0 UV-I 58 W/m 5,4 C 1,5 C 19,3 km/h (3 Bft) 95,65 %
23.12.2017 10:27 6,8 C 3,9 C 91 % 1032,5 hPa 0,0 l/m 11,3 km/h (2 Bft) W-SW 247 0 min 0,000 mm 0,0 UV-I 54 W/m 5,4 C 3,2 C 16,1 km/h (3 Bft) 95,65 %
23.12.2017 10:28 6,8 C 3,9 C 91 % 1032,5 hPa 0,0 l/m 9,7 km/h (2 Bft) W-SW 247 0 min 0,000 mm 0,0 UV-I 58 W/m 5,4 C 4,3 C 14,5 km/h (3 Bft) 95,65 %
23.12.2017 10:29 6,8 C 3,9 C 91 % 1032,6 hPa 0,0 l/m 11,3 km/h (2 Bft) W-SW 247 0 min 0,000 mm 0,0 UV-I 58 W/m 5,4 C 3,2 C 14,5 km/h (3 Bft) 95,65 %
23.12.2017 10:30 6,8 C 3,9 C 91 % 1032,6 hPa 0,0 l/m 11,3 km/h (2 Bft) W-SW 247 0 min 0,000 mm 0,0 UV-I 56 W/m 5,4 C 3,2 C 17,7 km/h (3 Bft) 91,30 %
23.12.2017 10:31 6,8 C 3,9 C 91 % 1032,6 hPa 0,0 l/m 11,3 km/h (2 Bft) W-SW 247 0 min 0,000 mm 0,0 UV-I 56 W/m 5,4 C 3,2 C 16,1 km/h (3 Bft) 100,00 %
23.12.2017 10:32 6,8 C 3,9 C 91 % 1032,6 hPa 0,0 l/m 11,3 km/h (2 Bft) W-SW 247 0 min 0,000 mm 0,0 UV-I 58 W/m 5,4 C 3,2 C 14,5 km/h (3 Bft) 91,30 %
23.12.2017 10:33 6,8 C 3,9 C 91 % 1032,6 hPa 0,0 l/m 12,9 km/h (3 Bft) W-SW 247 0 min 0,000 mm 0,0 UV-I 54 W/m 5,4 C 2,3 C 19,3 km/h (3 Bft) 100,00 %
23.12.2017 10:34 6,8 C 3,9 C 91 % 1032,6 hPa 0,0 l/m 19,3 km/h (3 Bft) W-SW 247 0 min 0,000 mm 0,0 UV-I 53 W/m 5,4 C -0,6 C 24,1 km/h (4 Bft) 95,65 %
23.12.2017 10:35 6,9 C 3,9 C 90 % 1032,6 hPa 0,0 l/m 16,1 km/h (3 Bft) W 270 0 min 0,000 mm 0,0 UV-I 48 W/m 5,4 C 0,9 C 19,3 km/h (3 Bft) 95,65 %
23.12.2017 10:36 6,9 C 3,9 C 90 % 1032,6 hPa 0,0 l/m 11,3 km/h (2 Bft) W-SW 247 0 min 0,000 mm 0,0 UV-I 44 W/m 5,4 C 3,4 C 14,5 km/h (3 Bft) 100,00 %
23.12.2017 10:37 6,9 C 3,9 C 90 % 1032,6 hPa 0,0 l/m 8,0 km/h (2 Bft) W 270 0 min 0,000 mm 0,0 UV-I 44 W/m 5,4 C 5,6 C 14,5 km/h (3 Bft) 86,96 %
23.12.2017 10:38 6,9 C 3,9 C 90 % 1032,6 hPa 0,0 l/m 8,0 km/h (2 Bft) W-SW 247 0 min 0,000 mm 0,0 UV-I 44 W/m 5,4 C 5,6 C 12,9 km/h (3 Bft) 100,00 %
23.12.2017 10:39 6,9 C 3,9 C 90 % 1032,6 hPa 0,0 l/m 11,3 km/h (2 Bft) W 270 0 min 0,000 mm 0,0 UV-I 46 W/m 5,4 C 3,4 C 14,5 km/h (3 Bft) 95,65 %
23.12.2017 10:40 6,8 C 3,9 C 90 % 1032,6 hPa 0,0 l/m 14,5 km/h (3 Bft) W 270 0 min 0,000 mm 0,0 UV-I 46 W/m 5,3 C 1,5 C 20,9 km/h (4 Bft) 100,00 %
23.12.2017 10:41 6,8 C 3,9 C 90 % 1032,6 hPa 0,0 l/m 11,3 km/h (2 Bft) W-SW 247 0 min 0,000 mm 0,0 UV-I 44 W/m 5,3 C 3,2 C 19,3 km/h (3 Bft) 95,65 %
23.12.2017 10:42 6,9 C 3,9 C 90 % 1032,6 hPa 0,0 l/m 9,7 km/h (2 Bft) W 270 0 min 0,000 mm 0,0 UV-I 40 W/m 5,4 C 4,4 C 14,5 km/h (3 Bft) 100,00 %
23.12.2017 10:43 6,9 C 3,9 C 90 % 1032,6 hPa 0,0 l/m 11,3 km/h (2 Bft) W 270 0 min 0,000 mm 0,0 UV-I 40 W/m 5,4 C 3,4 C 17,7 km/h (3 Bft) 95,65 %
23.12.2017 10:44 6,9 C 3,9 C 90 % 1032,5 hPa 0,0 l/m 11,3 km/h (2 Bft) W-SW 247 0 min 0,000 mm 0,0 UV-I 40 W/m 5,4 C 3,4 C 16,1 km/h (3 Bft) 95,65 %
23.12.2017 10:45 6,9 C 3,9 C 90 % 1032,5 hPa 0,0 l/m 8,0 km/h (2 Bft) W 270 0 min 0,000 mm 0,0 UV-I 44 W/m 5,4 C 5,6 C 12,9 km/h (3 Bft) 95,65 %
23.12.2017 10:46 6,9 C 3,9 C 90 % 1032,6 hPa 0,0 l/m 11,3 km/h (2 Bft) W 270 0 min 0,000 mm 0,0 UV-I 44 W/m 5,4 C 3,4 C 17,7 km/h (3 Bft) 100,00 %
23.12.2017 10:47 6,9 C 3,9 C 90 % 1032,5 hPa 0,0 l/m 11,3 km/h (2 Bft) W-SW 247 0 min 0,000 mm 0,0 UV-I 41 W/m 5,4 C 3,4 C 16,1 km/h (3 Bft) 100,00 %
23.12.2017 10:48 6,9 C 3,9 C 90 % 1032,6 hPa 0,0 l/m 12,9 km/h (3 Bft) W-SW 247 0 min 0,000 mm 0,0 UV-I 39 W/m 5,4 C 2,4 C 19,3 km/h (3 Bft) 100,00 %
23.12.2017 10:49 6,9 C 3,9 C 90 % 1032,6 hPa 0,0 l/m 9,7 km/h (2 Bft) W 270 0 min 0,000 mm 0,0 UV-I 39 W/m 5,4 C 4,4 C 11,3 km/h (2 Bft) 100,00 %
23.12.2017 10:50 6,9 C 3,9 C 90 % 1032,5 hPa 0,0 l/m 12,9 km/h (3 Bft) W-SW 247 0 min 0,000 mm 0,0 UV-I 39 W/m 5,4 C 2,4 C 17,7 km/h (3 Bft) 100,00 %
23.12.2017 10:51 6,9 C 3,9 C 90 % 1032,5 hPa 0,0 l/m 8,0 km/h (2 Bft) W-NW 292 0 min 0,000 mm 0,0 UV-I 42 W/m 5,4 C 5,6 C 16,1 km/h (3 Bft) 95,65 %
23.12.2017 10:52 6,9 C 3,9 C 90 % 1032,5 hPa 0,0 l/m 6,4 km/h (2 Bft) W-SW 247 0 min 0,000 mm 0,0 UV-I 40 W/m 5,4 C 6,9 C 8,0 km/h (2 Bft) 100,00 %
23.12.2017 10:53 6,9 C 3,9 C 90 % 1032,5 hPa 0,0 l/m 9,7 km/h (2 Bft) W-SW 247 0 min 0,000 mm 0,0 UV-I 39 W/m 5,4 C 4,4 C 14,5 km/h (3 Bft) 100,00 %
23.12.2017 10:54 6,9 C 3,9 C 90 % 1032,5 hPa 0,0 l/m 9,7 km/h (2 Bft) W 270 0 min 0,000 mm 0,0 UV-I 44 W/m 5,4 C 4,4 C 12,9 km/h (3 Bft) 100,00 %
23.12.2017 10:55 6,9 C 3,9 C 90 % 1032,5 hPa 0,0 l/m 11,3 km/h (2 Bft) W-SW 247 0 min 0,000 mm 0,0 UV-I 47 W/m 5,4 C 3,4 C 14,5 km/h (3 Bft) 95,65 %
23.12.2017 10:56 6,9 C 3,9 C 90 % 1032,4 hPa 0,0 l/m 12,9 km/h (3 Bft) W-SW 247 0 min 0,000 mm 0,0 UV-I 46 W/m 5,4 C 2,4 C 14,5 km/h (3 Bft) 100,00 %
23.12.2017 10:57 6,9 C 3,9 C 90 % 1032,5 hPa 0,0 l/m 12,9 km/h (3 Bft) W-SW 247 0 min 0,000 mm 0,0 UV-I 53 W/m 5,4 C 2,4 C 20,9 km/h (4 Bft) 95,65 %
23.12.2017 10:58 7,0 C 3,9 C 90 % 1032,3 hPa 0,0 l/m 16,1 km/h (3 Bft) W-SW 247 0 min 0,000 mm 0,0 UV-I 54 W/m 5,5 C 1,0 C 19,3 km/h (3 Bft) 95,65 %
23.12.2017 10:59 7,0 C 3,9 C 90 % 1032,4 hPa 0,0 l/m 14,5 km/h (3 Bft) W 270 0 min 0,000 mm 0,0 UV-I 46 W/m 5,5 C 1,7 C 24,1 km/h (4 Bft) 95,65 %
23.12.2017 11:00 7,0 C 3,9 C 90 % 1032,4 hPa 0,0 l/m 14,5 km/h (3 Bft) W 270 0 min 0,025 mm 0,0 UV-I 44 W/m 5,5 C 1,7 C 19,3 km/h (3 Bft) 100,00 %
23.12.2017 11:01 7,0 C 3,9 C 90 % 1032,4 hPa 0,0 l/m 12,9 km/h (3 Bft) W 270 0 min 0,000 mm 0,0 UV-I 46 W/m 5,5 C 2,6 C 19,3 km/h (3 Bft) 95,65 %
23.12.2017 11:02 7,0 C 3,9 C 90 % 1032,4 hPa 0,0 l/m 12,9 km/h (3 Bft) W-SW 247 0 min 0,000 mm 0,0 UV-I 44 W/m 5,5 C 2,6 C 17,7 km/h (3 Bft) 100,00 %
23.12.2017 11:03 7,0 C 3,9 C 90 % 1032,4 hPa 0,0 l/m 6,4 km/h (2 Bft) W-SW 247 0 min 0,000 mm 0,0 UV-I 42 W/m 5,5 C 7,0 C 9,7 km/h (2 Bft) 95,65 %
23.12.2017 11:04 7,0 C 3,9 C 90 % 1032,4 hPa 0,0 l/m 8,0 km/h (2 Bft) W 270 0 min 0,000 mm 0,0 UV-I 40 W/m 5,5 C 5,7 C 12,9 km/h (3 Bft) 95,65 %
23.12.2017 11:05 7,0 C 3,9 C 89 % 1032,4 hPa 0,0 l/m 8,0 km/h (2 Bft) W-SW 247 0 min 0,000 mm 0,0 UV-I 44 W/m 5,3 C 5,7 C 11,3 km/h (2 Bft) 95,65 %
23.12.2017 11:06 7,0 C 3,9 C 90 % 1032,4 hPa 0,0 l/m 11,3 km/h (2 Bft) W-SW 247 0 min 0,000 mm 0,0 UV-I 49 W/m 5,5 C 3,5 C 16,1 km/h (3 Bft) 95,65 %
23.12.2017 11:07 7,0 C 3,9 C 90 % 1032,3 hPa 0,0 l/m 14,5 km/h (3 Bft) W-SW 247 0 min 0,000 mm 0,0 UV-I 51 W/m 5,5 C 1,7 C 22,5 km/h (4 Bft) 100,00 %
23.12.2017 11:08 7,1 C 3,9 C 89 % 1032,3 hPa 0,0 l/m 14,5 km/h (3 Bft) W 270 0 min 0,000 mm 0,0 UV-I 51 W/m 5,4 C 1,9 C 20,9 km/h (4 Bft) 91,30 %
23.12.2017 11:09 7,1 C 3,9 C 89 % 1032,3 hPa 0,0 l/m 12,9 km/h (3 Bft) W-SW 247 0 min 0,000 mm 0,0 UV-I 49 W/m 5,4 C 2,7 C 17,7 km/h (3 Bft) 100,00 %
23.12.2017 11:10 7,1 C 3,9 C 89 % 1032,3 hPa 0,0 l/m 12,9 km/h (3 Bft) W 270 0 min 0,000 mm 0,0 UV-I 49 W/m 5,4 C 2,7 C 17,7 km/h (3 Bft) 95,65 %
23.12.2017 11:11 7,1 C 3,9 C 90 % 1032,3 hPa 0,0 l/m 12,9 km/h (3 Bft) W-SW 247 0 min 0,000 mm 0,0 UV-I 50 W/m 5,6 C 2,7 C 17,7 km/h (3 Bft) 95,65 %
23.12.2017 11:12 7,1 C 3,9 C 90 % 1032,3 hPa 0,0 l/m 12,9 km/h (3 Bft) W 270 0 min 0,000 mm 0,0 UV-I 51 W/m 5,6 C 2,7 C 19,3 km/h (3 Bft) 95,65 %
23.12.2017 11:13 7,1 C 3,9 C 89 % 1032,3 hPa 0,0 l/m 14,5 km/h (3 Bft) W-SW 247 0 min 0,000 mm 0,0 UV-I 51 W/m 5,4 C 1,9 C 17,7 km/h (3 Bft) 95,65 %
23.12.2017 11:14 7,1 C 3,9 C 89 % 1032,3 hPa 0,0 l/m 14,5 km/h (3 Bft) W-SW 247 0 min 0,000 mm 0,0 UV-I 49 W/m 5,4 C 1,9 C 16,1 km/h (3 Bft) 100,00 %
23.12.2017 11:15 7,1 C 3,9 C 89 % 1032,3 hPa 0,0 l/m 11,3 km/h (2 Bft) W 270 0 min 0,000 mm 0,0 UV-I 46 W/m 5,4 C 3,6 C 17,7 km/h (3 Bft) 95,65 %
23.12.2017 11:16 7,1 C 3,9 C 89 % 1032,3 hPa 0,0 l/m 9,7 km/h (2 Bft) W 270 0 min 0,000 mm 0,0 UV-I 48 W/m 5,4 C 4,6 C 12,9 km/h (3 Bft) 100,00 %
23.12.2017 11:17 7,1 C 3,9 C 89 % 1032,3 hPa 0,0 l/m 12,9 km/h (3 Bft) W 270 0 min 0,000 mm 0,0 UV-I 51 W/m 5,4 C 2,7 C 17,7 km/h (3 Bft) 95,65 %
23.12.2017 11:18 7,1 C 3,9 C 89 % 1032,3 hPa 0,0 l/m 12,9 km/h (3 Bft) W 270 0 min 0,000 mm 0,0 UV-I 49 W/m 5,4 C 2,7 C 16,1 km/h (3 Bft) 100,00 %
23.12.2017 11:19 7,1 C 3,9 C 89 % 1032,3 hPa 0,0 l/m 12,9 km/h (3 Bft) W-SW 247 0 min 0,000 mm 0,0 UV-I 47 W/m 5,4 C 2,7 C 24,1 km/h (4 Bft) 91,30 %
23.12.2017 11:20 7,1 C 3,9 C 89 % 1032,2 hPa 0,0 l/m 19,3 km/h (3 Bft) W-SW 247 0 min 0,000 mm 0,0 UV-I 54 W/m 5,4 C -0,2 C 27,4 km/h (4 Bft) 95,65 %
23.12.2017 11:21 7,1 C 3,9 C 89 % 1032,2 hPa 0,0 l/m 17,7 km/h (3 Bft) W-SW 247 0 min 0,000 mm 0,0 UV-I 54 W/m 5,4 C 0,4 C 22,5 km/h (4 Bft) 100,00 %
23.12.2017 11:22 7,1 C 3,9 C 89 % 1032,2 hPa 0,0 l/m 11,3 km/h (2 Bft) W-SW 247 0 min 0,000 mm 0,0 UV-I 50 W/m 5,4 C 3,6 C 14,5 km/h (3 Bft) 95,65 %
23.12.2017 11:23 7,2 C 3,9 C 89 % 1032,2 hPa 0,0 l/m 11,3 km/h (2 Bft) W-SW 247 0 min 0,000 mm 0,0 UV-I 53 W/m 5,5 C 3,7 C 17,7 km/h (3 Bft) 100,00 %
23.12.2017 11:24 7,1 C 3,9 C 89 % 1032,1 hPa 0,0 l/m 12,9 km/h (3 Bft) W 270 0 min 0,000 mm 0,0 UV-I 58 W/m 5,4 C 2,7 C 17,7 km/h (3 Bft) 95,65 %
23.12.2017 11:25 7,2 C 3,9 C 89 % 1032,2 hPa 0,0 l/m 11,3 km/h (2 Bft) W-SW 247 0 min 0,000 mm 0,0 UV-I 60 W/m 5,5 C 3,7 C 17,7 km/h (3 Bft) 100,00 %
23.12.2017 11:26 7,2 C 3,9 C 89 % 1032,1 hPa 0,0 l/m 9,7 km/h (2 Bft) W 270 0 min 0,000 mm 0,0 UV-I 56 W/m 5,5 C 4,7 C 16,1 km/h (3 Bft) 91,30 %
23.12.2017 11:27 7,2 C 3,9 C 89 % 1032,1 hPa 0,0 l/m 11,3 km/h (2 Bft) W-SW 247 0 min 0,000 mm 0,0 UV-I 60 W/m 5,5 C 3,7 C 22,5 km/h (4 Bft) 100,00 %
23.12.2017 11:28 7,2 C 3,9 C 89 % 1032,1 hPa 0,0 l/m 14,5 km/h (3 Bft) W 270 0 min 0,000 mm 0,0 UV-I 63 W/m 5,5 C 2,0 C 17,7 km/h (3 Bft) 95,65 %
23.12.2017 11:29 7,2 C 3,9 C 89 % 1032,1 hPa 0,0 l/m 14,5 km/h (3 Bft) W 270 0 min 0,000 mm 0,0 UV-I 74 W/m 5,5 C 2,0 C 19,3 km/h (3 Bft) 95,65 %
23.12.2017 11:30 7,2 C 3,9 C 89 % 1032,1 hPa 0,0 l/m 12,9 km/h (3 Bft) W 270 0 min 0,000 mm 0,0 UV-I 74 W/m 5,5 C 2,8 C 19,3 km/h (3 Bft) 100,00 %
23.12.2017 11:31 7,2 C 3,9 C 89 % 1032,1 hPa 0,0 l/m 14,5 km/h (3 Bft) W-SW 247 0 min 0,000 mm 0,0 UV-I 70 W/m 5,5 C 2,0 C 24,1 km/h (4 Bft) 95,65 %
23.12.2017 11:32 7,2 C 3,9 C 89 % 1032,0 hPa 0,0 l/m 16,1 km/h (3 Bft) W-SW 247 0 min 0,000 mm 0,0 UV-I 60 W/m 5,5 C 1,2 C 24,1 km/h (4 Bft) 100,00 %
23.12.2017 11:33 7,2 C 3,9 C 89 % 1032,0 hPa 0,0 l/m 17,7 km/h (3 Bft) W 270 0 min 0,000 mm 0,0 UV-I 58 W/m 5,5 C 0,6 C 22,5 km/h (4 Bft) 95,65 %
23.12.2017 11:34 7,2 C 3,9 C 89 % 1032,1 hPa 0,0 l/m 19,3 km/h (3 Bft) W-SW 247 0 min 0,000 mm 0,0 UV-I 53 W/m 5,5 C -0,1 C 25,7 km/h (4 Bft) 100,00 %
23.12.2017 11:35 7,2 C 3,9 C 89 % 1032,0 hPa 0,0 l/m 11,3 km/h (2 Bft) W-SW 247 0 min 0,000 mm 0,0 UV-I 44 W/m 5,5 C 3,7 C 16,1 km/h (3 Bft) 100,00 %
23.12.2017 11:36 7,2 C 3,9 C 89 % 1032,0 hPa 0,0 l/m 14,5 km/h (3 Bft) W 270 0 min 0,000 mm 0,0 UV-I 46 W/m 5,5 C 2,0 C 17,7 km/h (3 Bft) 100,00 %
23.12.2017 11:37 7,2 C 3,9 C 89 % 1032,0 hPa 0,0 l/m 20,9 km/h (4 Bft) W-SW 247 0 min 0,000 mm 0,0 UV-I 49 W/m 5,5 C -0,7 C 30,6 km/h (5 Bft) 100,00 %
23.12.2017 11:38 7,2 C 3,9 C 89 % 1032,0 hPa 0,0 l/m 16,1 km/h (3 Bft) W-SW 247 0 min 0,000 mm 0,0 UV-I 49 W/m 5,5 C 1,2 C 25,7 km/h (4 Bft) 100,00 %
23.12.2017 11:39 7,2 C 3,9 C 89 % 1032,0 hPa 0,0 l/m 16,1 km/h (3 Bft) W 270 0 min 0,000 mm 0,0 UV-I 49 W/m 5,5 C 1,2 C 25,7 km/h (4 Bft) 100,00 %
23.12.2017 11:40 7,2 C 3,9 C 89 % 1032,0 hPa 0,0 l/m 14,5 km/h (3 Bft) W 270 0 min 0,000 mm 0,0 UV-I 52 W/m 5,5 C 2,0 C 19,3 km/h (3 Bft) 95,65 %
23.12.2017 11:41 7,2 C 3,9 C 89 % 1032,1 hPa 0,0 l/m 14,5 km/h (3 Bft) W-SW 247 0 min 0,000 mm 0,0 UV-I 58 W/m 5,5 C 2,0 C 20,9 km/h (4 Bft) 100,00 %
23.12.2017 11:42 7,2 C 3,9 C 89 % 1032,1 hPa 0,0 l/m 12,9 km/h (3 Bft) W-SW 247 0 min 0,000 mm 0,0 UV-I 58 W/m 5,5 C 2,8 C 19,3 km/h (3 Bft) 100,00 %
23.12.2017 11:43 7,3 C 3,9 C 88 % 1032,1 hPa 0,0 l/m 19,3 km/h (3 Bft) W 270 0 min 0,000 mm 0,0 UV-I 58 W/m 5,4 C 0,1 C 25,7 km/h (4 Bft) 100,00 %
23.12.2017 11:44 7,3 C 3,9 C 88 % 1032,0 hPa 0,0 l/m 14,5 km/h (3 Bft) W 270 0 min 0,000 mm 0,0 UV-I 58 W/m 5,4 C 2,1 C 19,3 km/h (3 Bft) 100,00 %
23.12.2017 11:45 7,3 C 3,9 C 88 % 1032,1 hPa 0,0 l/m 12,9 km/h (3 Bft) W 270 0 min 0,000 mm 0,0 UV-I 56 W/m 5,4 C 2,9 C 19,3 km/h (3 Bft) 100,00 %
23.12.2017 11:46 7,3 C 3,9 C 88 % 1032,0 hPa 0,0 l/m 17,7 km/h (3 Bft) W-SW 247 0 min 0,000 mm 0,0 UV-I 64 W/m 5,4 C 0,7 C 29,0 km/h (5 Bft) 100,00 %
23.12.2017 11:47 7,3 C 3,9 C 88 % 1032,0 hPa 0,0 l/m 14,5 km/h (3 Bft) W-SW 247 0 min 0,000 mm 0,0 UV-I 63 W/m 5,4 C 2,1 C 19,3 km/h (3 Bft) 91,30 %
23.12.2017 11:48 7,3 C 3,9 C 88 % 1032,0 hPa 0,0 l/m 16,1 km/h (3 Bft) W 270 0 min 0,000 mm 0,0 UV-I 69 W/m 5,4 C 1,4 C 20,9 km/h (4 Bft) 100,00 %
23.12.2017 11:49 7,3 C 3,9 C 89 % 1031,9 hPa 0,0 l/m 12,9 km/h (3 Bft) W-SW 247 0 min 0,000 mm 0,0 UV-I 72 W/m 5,6 C 2,9 C 17,7 km/h (3 Bft) 95,65 %
23.12.2017 11:50 7,3 C 3,9 C 89 % 1031,9 hPa 0,0 l/m 11,3 km/h (2 Bft) W 270 0 min 0,000 mm 0,0 UV-I 70 W/m 5,6 C 3,8 C 16,1 km/h (3 Bft) 100,00 %
23.12.2017 11:51 7,3 C 3,9 C 89 % 1031,9 hPa 0,0 l/m 12,9 km/h (3 Bft) W 270 0 min 0,000 mm 0,0 UV-I 70 W/m 5,6 C 2,9 C 17,7 km/h (3 Bft) 95,65 %
23.12.2017 11:52 7,3 C 3,9 C 89 % 1032,0 hPa 0,0 l/m 16,1 km/h (3 Bft) W-SW 247 0 min 0,000 mm 0,0 UV-I 73 W/m 5,6 C 1,4 C 22,5 km/h (4 Bft) 100,00 %
23.12.2017 11:53 7,3 C 3,9 C 89 % 1031,9 hPa 0,0 l/m 16,1 km/h (3 Bft) W 270 0 min 0,000 mm 0,0 UV-I 93 W/m 5,6 C 1,4 C 22,5 km/h (4 Bft) 95,65 %
23.12.2017 11:54 7,3 C 3,9 C 89 % 1031,8 hPa 0,0 l/m 19,3 km/h (3 Bft) W 270 0 min 0,000 mm 0,0 UV-I 100 W/m 5,6 C 0,1 C 24,1 km/h (4 Bft) 95,65 %
23.12.2017 11:55 7,3 C 3,9 C 88 % 1031,8 hPa 0,0 l/m 17,7 km/h (3 Bft) W 270 0 min 0,000 mm 0,0 UV-I 104 W/m 5,4 C 0,7 C 20,9 km/h (4 Bft) 95,65 %
23.12.2017 11:56 7,3 C 3,9 C 88 % 1031,8 hPa 0,0 l/m 17,7 km/h (3 Bft) W-SW 247 0 min 0,000 mm 0,0 UV-I 102 W/m 5,4 C 0,7 C 25,7 km/h (4 Bft) 91,30 %
23.12.2017 11:57 7,3 C 3,9 C 88 % 1031,8 hPa 0,0 l/m 25,7 km/h (4 Bft) W-SW 247 0 min 0,000 mm 0,0 UV-I 98 W/m 5,4 C -2,0 C 35,4 km/h (5 Bft) 100,00 %
23.12.2017 11:58 7,3 C 3,9 C 88 % 1031,8 hPa 0,0 l/m 25,7 km/h (4 Bft) W-SW 247 0 min 0,000 mm 0,0 UV-I 97 W/m 5,4 C -2,0 C 38,6 km/h (5 Bft) 95,65 %
23.12.2017 11:59 7,4 C 3,9 C 88 % 1031,8 hPa 0,0 l/m 20,9 km/h (4 Bft) W-SW 247 0 min 0,000 mm 0,0 UV-I 91 W/m 5,5 C -0,4 C 38,6 km/h (5 Bft) 100,00 %
23.12.2017 12:00 7,4 C 3,9 C 88 % 1031,8 hPa 0,0 l/m 14,5 km/h (3 Bft) W-SW 247 0 min 0,051 mm 0,0 UV-I 81 W/m 5,5 C 2,2 C 20,9 km/h (4 Bft) 95,65 %
23.12.2017 12:01 7,4 C 3,9 C 87 % 1031,8 hPa 0,0 l/m 22,5 km/h (4 Bft) W-SW 247 0 min 0,000 mm 0,0 UV-I 67 W/m 5,4 C -0,9 C 29,0 km/h (5 Bft) 95,65 %
23.12.2017 12:02 7,4 C 3,9 C 87 % 1031,8 hPa 0,0 l/m 24,1 km/h (4 Bft) W 270 0 min 0,000 mm 0,0 UV-I 56 W/m 5,4 C -1,4 C 30,6 km/h (5 Bft) 95,65 %
23.12.2017 12:03 7,4 C 3,9 C 87 % 1031,8 hPa 0,0 l/m 16,1 km/h (3 Bft) W 270 0 min 0,000 mm 0,0 UV-I 59 W/m 5,4 C 1,5 C 24,1 km/h (4 Bft) 100,00 %
23.12.2017 12:04 7,4 C 3,9 C 87 % 1031,8 hPa 0,0 l/m 17,7 km/h (3 Bft) W 270 0 min 0,000 mm 0,0 UV-I 76 W/m 5,4 C 0,8 C 24,1 km/h (4 Bft) 95,65 %
23.12.2017 12:05 7,4 C 3,9 C 87 % 1031,7 hPa 0,0 l/m 17,7 km/h (3 Bft) W 270 0 min 0,000 mm 0,0 UV-I 95 W/m 5,4 C 0,8 C 25,7 km/h (4 Bft) 100,00 %
23.12.2017 12:06 7,4 C 3,9 C 87 % 1031,7 hPa 0,0 l/m 22,5 km/h (4 Bft) W 270 0 min 0,000 mm 0,0 UV-I 109 W/m 5,4 C -0,9 C 32,2 km/h (5 Bft) 91,30 %
23.12.2017 12:07 7,4 C 3,9 C 87 % 1031,6 hPa 0,0 l/m 16,1 km/h (3 Bft) W 270 0 min 0,000 mm 0,0 UV-I 120 W/m 5,4 C 1,5 C 20,9 km/h (4 Bft) 100,00 %
23.12.2017 12:08 7,4 C 3,9 C 87 % 1031,6 hPa 0,0 l/m 17,7 km/h (3 Bft) W-SW 247 0 min 0,000 mm 0,0 UV-I 105 W/m 5,4 C 0,8 C 22,5 km/h (4 Bft) 91,30 %
23.12.2017 12:09 7,4 C 3,9 C 87 % 1031,5 hPa 0,0 l/m 20,9 km/h (4 Bft) W-SW 247 0 min 0,000 mm 0,0 UV-I 92 W/m 5,4 C -0,4 C 33,8 km/h (5 Bft) 100,00 %
23.12.2017 12:10 7,4 C 3,9 C 87 % 1031,4 hPa 0,0 l/m 29,0 km/h (5 Bft) W 270 0 min 0,000 mm 0,0 UV-I 67 W/m 5,4 C -2,8 C 38,6 km/h (5 Bft) 100,00 %
23.12.2017 12:11 7,4 C 3,9 C 87 % 1031,4 hPa 0,0 l/m 19,3 km/h (3 Bft) W 270 0 min 0,000 mm 0,0 UV-I 58 W/m 5,4 C 0,2 C 24,1 km/h (4 Bft) 95,65 %
23.12.2017 12:12 7,4 C 3,9 C 87 % 1031,4 hPa 0,0 l/m 22,5 km/h (4 Bft) W 270 0 min 0,000 mm 0,0 UV-I 56 W/m 5,4 C -0,9 C 32,2 km/h (5 Bft) 100,00 %
23.12.2017 12:13 7,4 C 3,9 C 87 % 1031,4 hPa 0,0 l/m 24,1 km/h (4 Bft) W 270 0 min 0,000 mm 0,0 UV-I 56 W/m 5,4 C -1,4 C 35,4 km/h (5 Bft) 100,00 %
23.12.2017 12:14 7,4 C 3,9 C 87 % 1031,4 hPa 0,0 l/m 20,9 km/h (4 Bft) W 270 0 min 0,000 mm 0,0 UV-I 62 W/m 5,4 C -0,4 C 29,0 km/h (5 Bft) 100,00 %
23.12.2017 12:15 7,4 C 3,9 C 87 % 1031,5 hPa 0,0 l/m 19,3 km/h (3 Bft) W-SW 247 0 min 0,000 mm 0,0 UV-I 70 W/m 5,4 C 0,2 C 30,6 km/h (5 Bft) 91,30 %
23.12.2017 12:16 7,4 C 3,9 C 87 % 1031,5 hPa 0,0 l/m 22,5 km/h (4 Bft) W-SW 247 0 min 0,000 mm 0,0 UV-I 88 W/m 5,4 C -0,9 C 29,0 km/h (5 Bft) 95,65 %
23.12.2017 12:17 7,4 C 3,9 C 87 % 1031,4 hPa 0,0 l/m 19,3 km/h (3 Bft) W 270 0 min 0,000 mm 0,0 UV-I 95 W/m 5,4 C 0,2 C 27,4 km/h (4 Bft) 100,00 %
23.12.2017 12:18 7,4 C 3,9 C 87 % 1031,4 hPa 0,0 l/m 17,7 km/h (3 Bft) W 270 0 min 0,000 mm 0,0 UV-I 104 W/m 5,4 C 0,8 C 25,7 km/h (4 Bft) 100,00 %
23.12.2017 12:19 7,4 C 3,9 C 88 % 1031,4 hPa 0,0 l/m 19,3 km/h (3 Bft) W 270 0 min 0,000 mm 0,0 UV-I 104 W/m 5,5 C 0,2 C 25,7 km/h (4 Bft) 100,00 %
23.12.2017 12:20 7,4 C 3,9 C 87 % 1031,4 hPa 0,0 l/m 22,5 km/h (4 Bft) W-SW 247 0 min 0,000 mm 0,0 UV-I 118 W/m 5,4 C -0,9 C 27,4 km/h (4 Bft) 100,00 %
23.12.2017 12:21 7,4 C 3,9 C 87 % 1031,4 hPa 0,0 l/m 17,7 km/h (3 Bft) W-SW 247 0 min 0,000 mm 0,0 UV-I 126 W/m 5,4 C 0,8 C 25,7 km/h (4 Bft) 100,00 %
23.12.2017 12:22 7,4 C 3,9 C 87 % 1031,3 hPa 0,0 l/m 17,7 km/h (3 Bft) W 270 0 min 0,000 mm 0,0 UV-I 156 W/m 5,4 C 0,8 C 29,0 km/h (5 Bft) 95,65 %
23.12.2017 12:23 7,4 C 3,9 C 87 % 1031,4 hPa 0,0 l/m 22,5 km/h (4 Bft) W-SW 247 0 min 0,000 mm 0,0 UV-I 172 W/m 5,4 C -0,9 C 35,4 km/h (5 Bft) 100,00 %
23.12.2017 12:24 7,5 C 3,9 C 87 % 1031,2 hPa 0,0 l/m 20,9 km/h (4 Bft) W-SW 247 0 min 0,000 mm 0,0 UV-I 172 W/m 5,5 C -0,3 C 32,2 km/h (5 Bft) 95,65 %
23.12.2017 12:25 7,5 C 3,9 C 87 % 1031,3 hPa 0,0 l/m 19,3 km/h (3 Bft) W 270 0 min 0,000 mm 0,0 UV-I 172 W/m 5,5 C 0,3 C 27,4 km/h (4 Bft) 100,00 %
23.12.2017 12:26 7,6 C 3,9 C 87 % 1031,2 hPa 0,0 l/m 24,1 km/h (4 Bft) W 270 0 min 0,000 mm 0,0 UV-I 163 W/m 5,6 C -1,2 C 35,4 km/h (5 Bft) 100,00 %
23.12.2017 12:27 7,6 C 3,9 C 87 % 1031,2 hPa 0,0 l/m 22,5 km/h (4 Bft) W-SW 247 0 min 0,000 mm 0,0 UV-I 163 W/m 5,6 C -0,7 C 32,2 km/h (5 Bft) 100,00 %
23.12.2017 12:28 7,6 C 3,9 C 87 % 1031,3 hPa 0,0 l/m 22,5 km/h (4 Bft) W-SW 247 0 min 0,000 mm 0,0 UV-I 162 W/m 5,6 C -0,7 C 29,0 km/h (5 Bft) 100,00 %
23.12.2017 12:29 7,6 C 3,9 C 87 % 1031,3 hPa 0,0 l/m 24,1 km/h (4 Bft) W 270 0 min 0,000 mm 0,0 UV-I 163 W/m 5,6 C -1,2 C 32,2 km/h (5 Bft) 100,00 %
23.12.2017 12:30 7,6 C 3,9 C 87 % 1031,3 hPa 0,0 l/m 24,1 km/h (4 Bft) W-SW 247 0 min 0,000 mm 0,0 UV-I 160 W/m 5,6 C -1,2 C 32,2 km/h (5 Bft) 91,30 %
23.12.2017 12:31 7,7 C 3,9 C 87 % 1031,3 hPa 0,0 l/m 14,5 km/h (3 Bft) W-SW 247 0 min 0,000 mm 0,0 UV-I 153 W/m 5,7 C 2,6 C 22,5 km/h (4 Bft) 91,30 %
23.12.2017 12:32 7,7 C 3,9 C 86 % 1031,4 hPa 0,0 l/m 17,7 km/h (3 Bft) W-SW 247 0 min 0,000 mm 0,0 UV-I 149 W/m 5,5 C 1,2 C 27,4 km/h (4 Bft) 95,65 %
23.12.2017 12:33 7,7 C 3,9 C 86 % 1031,3 hPa 0,0 l/m 19,3 km/h (3 Bft) W 270 0 min 0,000 mm 0,0 UV-I 136 W/m 5,5 C 0,6 C 30,6 km/h (5 Bft) 100,00 %
23.12.2017 12:34 7,7 C 3,9 C 86 % 1031,3 hPa 0,0 l/m 19,3 km/h (3 Bft) W-SW 247 0 min 0,000 mm 0,0 UV-I 137 W/m 5,5 C 0,6 C 25,7 km/h (4 Bft) 95,65 %
23.12.2017 12:35 7,7 C 3,9 C 86 % 1031,2 hPa 0,0 l/m 22,5 km/h (4 Bft) W-SW 247 0 min 0,000 mm 0,0 UV-I 134 W/m 5,5 C -0,5 C 35,4 km/h (5 Bft) 100,00 %
23.12.2017 12:36 7,7 C 3,9 C 85 % 1031,2 hPa 0,0 l/m 19,3 km/h (3 Bft) W 270 0 min 0,000 mm 0,0 UV-I 135 W/m 5,3 C 0,6 C 37,0 km/h (5 Bft) 100,00 %
23.12.2017 12:37 7,7 C 3,9 C 85 % 1031,3 hPa 0,0 l/m 19,3 km/h (3 Bft) W 270 0 min 0,000 mm 0,0 UV-I 141 W/m 5,3 C 0,6 C 33,8 km/h (5 Bft) 95,65 %
23.12.2017 12:38 7,7 C 3,9 C 85 % 1031,2 hPa 0,0 l/m 20,9 km/h (4 Bft) W-SW 247 0 min 0,000 mm 0,0 UV-I 143 W/m 5,3 C 0,0 C 25,7 km/h (4 Bft) 100,00 %
23.12.2017 12:39 7,7 C 3,9 C 85 % 1031,3 hPa 0,0 l/m 19,3 km/h (3 Bft) W-SW 247 0 min 0,000 mm 0,0 UV-I 146 W/m 5,3 C 0,6 C 25,7 km/h (4 Bft) 100,00 %
23.12.2017 12:40 7,7 C 3,9 C 85 % 1031,2 hPa 0,0 l/m 11,3 km/h (2 Bft) W-SW 247 0 min 0,000 mm 0,0 UV-I 151 W/m 5,3 C 4,3 C 14,5 km/h (3 Bft) 100,00 %
23.12.2017 12:41 7,7 C 3,9 C 85 % 1031,3 hPa 0,0 l/m 14,5 km/h (3 Bft) W 270 0 min 0,000 mm 0,0 UV-I 167 W/m 5,3 C 2,6 C 24,1 km/h (4 Bft) 100,00 %
23.12.2017 12:42 7,8 C 3,9 C 86 % 1031,2 hPa 0,0 l/m 14,5 km/h (3 Bft) W 270 1 min 0,000 mm 0,0 UV-I 176 W/m 5,6 C 2,7 C 24,1 km/h (4 Bft) 100,00 %
23.12.2017 12:43 7,8 C 3,9 C 86 % 1031,2 hPa 0,0 l/m 17,7 km/h (3 Bft) W-SW 247 1 min 0,000 mm 0,0 UV-I 183 W/m 5,6 C 1,3 C 22,5 km/h (4 Bft) 100,00 %
23.12.2017 12:44 7,8 C 3,9 C 85 % 1031,2 hPa 0,0 l/m 16,1 km/h (3 Bft) W 270 1 min 0,000 mm 0,0 UV-I 199 W/m 5,4 C 2,0 C 24,1 km/h (4 Bft) 95,65 %
23.12.2017 12:45 7,8 C 3,9 C 85 % 1031,2 hPa 0,0 l/m 24,1 km/h (4 Bft) W 270 1 min 0,000 mm 0,0 UV-I 213 W/m 5,4 C -0,9 C 33,8 km/h (5 Bft) 100,00 %
23.12.2017 12:46 7,8 C 3,9 C 85 % 1031,1 hPa 0,0 l/m 22,5 km/h (4 Bft) W-SW 247 1 min 0,000 mm 0,0 UV-I 207 W/m 5,4 C -0,4 C 33,8 km/h (5 Bft) 100,00 %
23.12.2017 12:47 7,8 C 3,9 C 84 % 1031,2 hPa 0,0 l/m 22,5 km/h (4 Bft) W 270 1 min 0,000 mm 0,0 UV-I 207 W/m 5,3 C -0,4 C 27,4 km/h (4 Bft) 100,00 %
23.12.2017 12:48 7,8 C 3,9 C 84 % 1031,2 hPa 0,0 l/m 22,5 km/h (4 Bft) W-SW 247 1 min 0,000 mm 0,5 UV-I 218 W/m 5,3 C -0,4 C 25,7 km/h (4 Bft) 100,00 %
23.12.2017 12:49 7,9 C 3,9 C 84 % 1031,2 hPa 0,0 l/m 22,5 km/h (4 Bft) W 270 1 min 0,000 mm 0,0 UV-I 213 W/m 5,4 C -0,3 C 37,0 km/h (5 Bft) 100,00 %
23.12.2017 12:50 7,9 C 3,9 C 84 % 1031,2 hPa 0,0 l/m 17,7 km/h (3 Bft) W 270 1 min 0,000 mm 0,0 UV-I 181 W/m 5,4 C 1,4 C 22,5 km/h (4 Bft) 95,65 %
23.12.2017 12:51 7,9 C 3,9 C 84 % 1031,3 hPa 0,0 l/m 17,7 km/h (3 Bft) W 270 1 min 0,000 mm 0,0 UV-I 179 W/m 5,4 C 1,4 C 27,4 km/h (4 Bft) 95,65 %
23.12.2017 12:52 7,9 C 3,9 C 84 % 1031,2 hPa 0,0 l/m 19,3 km/h (3 Bft) W-SW 247 1 min 0,000 mm 0,0 UV-I 172 W/m 5,4 C 0,8 C 25,7 km/h (4 Bft) 95,65 %
23.12.2017 12:53 7,9 C 3,9 C 84 % 1031,2 hPa 0,0 l/m 20,9 km/h (4 Bft) W-SW 247 0 min 0,000 mm 0,0 UV-I 167 W/m 5,4 C 0,3 C 33,8 km/h (5 Bft) 95,65 %
23.12.2017 12:54 7,9 C 3,9 C 84 % 1031,2 hPa 0,0 l/m 22,5 km/h (4 Bft) W 270 1 min 0,000 mm 0,0 UV-I 181 W/m 5,4 C -0,3 C 27,4 km/h (4 Bft) 95,65 %
23.12.2017 12:55 7,9 C 3,9 C 84 % 1031,2 hPa 0,0 l/m 16,1 km/h (3 Bft) W-SW 247 1 min 0,000 mm 0,0 UV-I 185 W/m 5,4 C 2,1 C 22,5 km/h (4 Bft) 100,00 %
23.12.2017 12:56 7,9 C 3,9 C 84 % 1031,2 hPa 0,0 l/m 20,9 km/h (4 Bft) W 270 1 min 0,000 mm 0,0 UV-I 178 W/m 5,4 C 0,3 C 29,0 km/h (5 Bft) 100,00 %
23.12.2017 12:57 7,9 C 3,9 C 84 % 1031,2 hPa 0,0 l/m 25,7 km/h (4 Bft) W 270 0 min 0,000 mm 0,0 UV-I 167 W/m 5,4 C -1,2 C 32,2 km/h (5 Bft) 95,65 %
23.12.2017 12:58 7,9 C 3,9 C 83 % 1031,2 hPa 0,0 l/m 16,1 km/h (3 Bft) W-SW 247 0 min 0,000 mm 0,0 UV-I 153 W/m 5,2 C 2,1 C 20,9 km/h (4 Bft) 95,65 %
23.12.2017 12:59 7,9 C 3,9 C 83 % 1031,2 hPa 0,0 l/m 25,7 km/h (4 Bft) W-SW 247 0 min 0,000 mm 0,0 UV-I 139 W/m 5,2 C -1,2 C 33,8 km/h (5 Bft) 95,65 %
23.12.2017 13:00 7,9 C 3,9 C 83 % 1031,2 hPa 0,0 l/m 27,4 km/h (4 Bft) W-SW 247 0 min 0,076 mm 0,0 UV-I 128 W/m 5,2 C -1,7 C 35,4 km/h (5 Bft) 95,65 %
23.12.2017 13:01 7,9 C 3,9 C 83 % 1031,1 hPa 0,0 l/m 20,9 km/h (4 Bft) W-SW 247 0 min 0,000 mm 0,0 UV-I 123 W/m 5,2 C 0,3 C 40,2 km/h (6 Bft) 91,30 %
23.12.2017 13:02 7,9 C 3,9 C 83 % 1031,2 hPa 0,0 l/m 19,3 km/h (3 Bft) W 270 0 min 0,000 mm 0,0 UV-I 111 W/m 5,2 C 0,8 C 40,2 km/h (6 Bft) 100,00 %
23.12.2017 13:03 7,8 C 3,9 C 83 % 1031,2 hPa 0,0 l/m 20,9 km/h (4 Bft) W-SW 247 0 min 0,000 mm 0,0 UV-I 104 W/m 5,1 C 0,1 C 35,4 km/h (5 Bft) 95,65 %
23.12.2017 13:04 7,8 C 3,9 C 83 % 1031,2 hPa 0,0 l/m 19,3 km/h (3 Bft) W-SW 247 0 min 0,000 mm 0,0 UV-I 98 W/m 5,1 C 0,7 C 24,1 km/h (4 Bft) 95,65 %
23.12.2017 13:05 7,8 C 3,9 C 83 % 1031,2 hPa 0,0 l/m 17,7 km/h (3 Bft) W 270 0 min 0,000 mm 0,0 UV-I 95 W/m 5,1 C 1,3 C 30,6 km/h (5 Bft) 95,65 %
23.12.2017 13:06 7,8 C 3,9 C 83 % 1031,1 hPa 0,0 l/m 17,7 km/h (3 Bft) W 270 0 min 0,000 mm 0,0 UV-I 95 W/m 5,1 C 1,3 C 25,7 km/h (4 Bft) 91,30 %
23.12.2017 13:07 7,8 C 3,9 C 83 % 1031,2 hPa 0,0 l/m 24,1 km/h (4 Bft) W-SW 247 0 min 0,000 mm 0,0 UV-I 95 W/m 5,1 C -0,9 C 30,6 km/h (5 Bft) 100,00 %
23.12.2017 13:08 7,8 C 3,9 C 83 % 1031,1 hPa 0,0 l/m 20,9 km/h (4 Bft) W 270 0 min 0,000 mm 0,0 UV-I 93 W/m 5,1 C 0,1 C 32,2 km/h (5 Bft) 91,30 %
23.12.2017 13:09 7,8 C 3,9 C 83 % 1031,1 hPa 0,0 l/m 20,9 km/h (4 Bft) W-SW 247 0 min 0,000 mm 0,0 UV-I 91 W/m 5,1 C 0,1 C 30,6 km/h (5 Bft) 100,00 %
23.12.2017 13:10 7,8 C 3,9 C 83 % 1031,1 hPa 0,0 l/m 14,5 km/h (3 Bft) W 270 0 min 0,000 mm 0,0 UV-I 93 W/m 5,1 C 2,7 C 22,5 km/h (4 Bft) 95,65 %
23.12.2017 13:11 7,8 C 3,9 C 83 % 1031,1 hPa 0,0 l/m 17,7 km/h (3 Bft) W-SW 247 0 min 0,000 mm 0,0 UV-I 97 W/m 5,1 C 1,3 C 27,4 km/h (4 Bft) 100,00 %
23.12.2017 13:12 7,8 C 3,9 C 82 % 1031,0 hPa 0,0 l/m 20,9 km/h (4 Bft) W-SW 247 0 min 0,000 mm 0,0 UV-I 102 W/m 4,9 C 0,1 C 27,4 km/h (4 Bft) 86,96 %
23.12.2017 13:13 7,8 C 3,9 C 83 % 1031,0 hPa 0,0 l/m 16,1 km/h (3 Bft) W-SW 247 0 min 0,000 mm 0,0 UV-I 111 W/m 5,1 C 2,0 C 22,5 km/h (4 Bft) 95,65 %
23.12.2017 13:14 7,8 C 3,9 C 83 % 1031,0 hPa 0,0 l/m 12,9 km/h (3 Bft) W-SW 247 0 min 0,000 mm 0,0 UV-I 125 W/m 5,1 C 3,5 C 19,3 km/h (3 Bft) 95,65 %
23.12.2017 13:15 7,8 C 3,9 C 83 % 1031,0 hPa 0,0 l/m 16,1 km/h (3 Bft) W-SW 247 0 min 0,000 mm 0,0 UV-I 135 W/m 5,1 C 2,0 C 20,9 km/h (4 Bft) 91,30 %
23.12.2017 13:16 7,8 C 3,9 C 83 % 1031,0 hPa 0,0 l/m 14,5 km/h (3 Bft) W 270 0 min 0,000 mm 0,0 UV-I 135 W/m 5,1 C 2,7 C 19,3 km/h (3 Bft) 100,00 %
23.12.2017 13:17 7,8 C 3,9 C 83 % 1031,1 hPa 0,0 l/m 16,1 km/h (3 Bft) W 270 0 min 0,000 mm 0,0 UV-I 135 W/m 5,1 C 2,0 C 20,9 km/h (4 Bft) 86,96 %
23.12.2017 13:18 7,8 C 3,9 C 83 % 1031,2 hPa 0,0 l/m 19,3 km/h (3 Bft) W-SW 247 0 min 0,000 mm 0,0 UV-I 135 W/m 5,1 C 0,7 C 27,4 km/h (4 Bft) 100,00 %
23.12.2017 13:19 7,8 C 3,9 C 83 % 1031,1 hPa 0,0 l/m 20,9 km/h (4 Bft) W-SW 247 0 min 0,000 mm 0,0 UV-I 121 W/m 5,1 C 0,1 C 27,4 km/h (4 Bft) 86,96 %
23.12.2017 13:20 7,8 C 3,9 C 83 % 1031,2 hPa 0,0 l/m 11,3 km/h (2 Bft) W-SW 247 0 min 0,000 mm 0,0 UV-I 107 W/m 5,1 C 4,4 C 14,5 km/h (3 Bft) 100,00 %
23.12.2017 13:21 7,8 C 3,9 C 83 % 1031,2 hPa 0,0 l/m 19,3 km/h (3 Bft) W-SW 247 0 min 0,000 mm 0,0 UV-I 104 W/m 5,1 C 0,7 C 27,4 km/h (4 Bft) 91,30 %
23.12.2017 13:22 7,8 C 3,9 C 83 % 1031,1 hPa 0,0 l/m 19,3 km/h (3 Bft) W-SW 247 0 min 0,000 mm 0,0 UV-I 102 W/m 5,1 C 0,7 C 29,0 km/h (5 Bft) 95,65 %
23.12.2017 13:23 7,9 C 3,9 C 82 % 1031,2 hPa 0,0 l/m 19,3 km/h (3 Bft) W-SW 247 0 min 0,000 mm 0,0 UV-I 104 W/m 5,0 C 0,8 C 30,6 km/h (5 Bft) 95,65 %
23.12.2017 13:24 7,9 C 3,9 C 82 % 1031,1 hPa 0,0 l/m 27,4 km/h (4 Bft) W 270 0 min 0,000 mm 0,0 UV-I 104 W/m 5,0 C -1,7 C 40,2 km/h (6 Bft) 95,65 %
23.12.2017 13:25 7,9 C 3,9 C 82 % 1031,2 hPa 0,0 l/m 20,9 km/h (4 Bft) W 270 0 min 0,000 mm 0,0 UV-I 101 W/m 5,0 C 0,3 C 30,6 km/h (5 Bft) 95,65 %
23.12.2017 13:26 7,9 C 3,9 C 82 % 1031,2 hPa 0,0 l/m 17,7 km/h (3 Bft) W 270 0 min 0,000 mm 0,0 UV-I 93 W/m 5,0 C 1,4 C 25,7 km/h (4 Bft) 91,30 %
23.12.2017 13:27 7,9 C 3,9 C 82 % 1031,2 hPa 0,0 l/m 17,7 km/h (3 Bft) W 270 0 min 0,000 mm 0,0 UV-I 90 W/m 5,0 C 1,4 C 30,6 km/h (5 Bft) 95,65 %
23.12.2017 13:28 7,9 C 3,9 C 82 % 1031,3 hPa 0,0 l/m 16,1 km/h (3 Bft) W 270 0 min 0,000 mm 0,0 UV-I 88 W/m 5,0 C 2,1 C 20,9 km/h (4 Bft) 95,65 %
23.12.2017 13:29 7,9 C 3,9 C 82 % 1031,3 hPa 0,0 l/m 12,9 km/h (3 Bft) W 270 0 min 0,000 mm 0,0 UV-I 84 W/m 5,0 C 3,6 C 24,1 km/h (4 Bft) 91,30 %
23.12.2017 13:30 7,8 C 3,9 C 83 % 1031,3 hPa 0,0 l/m 14,5 km/h (3 Bft) W-SW 247 0 min 0,000 mm 0,0 UV-I 84 W/m 5,1 C 2,7 C 22,5 km/h (4 Bft) 95,65 %
23.12.2017 13:31 7,9 C 3,9 C 83 % 1031,3 hPa 0,0 l/m 16,1 km/h (3 Bft) W 270 0 min 0,000 mm 0,0 UV-I 85 W/m 5,2 C 2,1 C 22,5 km/h (4 Bft) 91,30 %
23.12.2017 13:32 7,9 C 3,9 C 83 % 1031,4 hPa 0,0 l/m 12,9 km/h (3 Bft) W-SW 247 0 min 0,000 mm 0,0 UV-I 86 W/m 5,2 C 3,6 C 22,5 km/h (4 Bft) 95,65 %
23.12.2017 13:33 7,9 C 3,9 C 83 % 1031,4 hPa 0,0 l/m 12,9 km/h (3 Bft) W 270 0 min 0,000 mm 0,0 UV-I 88 W/m 5,2 C 3,6 C 17,7 km/h (3 Bft) 95,65 %
23.12.2017 13:34 7,9 C 3,9 C 83 % 1031,4 hPa 0,0 l/m 14,5 km/h (3 Bft) W-SW 247 0 min 0,000 mm 0,0 UV-I 86 W/m 5,2 C 2,8 C 19,3 km/h (3 Bft) 95,65 %
23.12.2017 13:35 7,8 C 3,9 C 83 % 1031,4 hPa 0,0 l/m 19,3 km/h (3 Bft) W-SW 247 0 min 0,000 mm 0,0 UV-I 88 W/m 5,1 C 0,7 C 25,7 km/h (4 Bft) 100,00 %
23.12.2017 13:36 7,8 C 3,9 C 83 % 1031,4 hPa 0,0 l/m 16,1 km/h (3 Bft) W 270 0 min 0,000 mm 0,0 UV-I 88 W/m 5,1 C 2,0 C 25,7 km/h (4 Bft) 100,00 %
23.12.2017 13:37 7,8 C 3,9 C 83 % 1031,4 hPa 0,0 l/m 22,5 km/h (4 Bft) W-SW 247 0 min 0,000 mm 0,0 UV-I 83 W/m 5,1 C -0,4 C 30,6 km/h (5 Bft) 100,00 %
23.12.2017 13:38 7,9 C 3,9 C 83 % 1031,3 hPa 0,0 l/m 17,7 km/h (3 Bft) W-SW 247 0 min 0,000 mm 0,0 UV-I 77 W/m 5,2 C 1,4 C 24,1 km/h (4 Bft) 100,00 %
23.12.2017 13:39 7,8 C 3,9 C 83 % 1031,3 hPa 0,0 l/m 22,5 km/h (4 Bft) W-SW 247 0 min 0,000 mm 0,0 UV-I 77 W/m 5,1 C -0,4 C 30,6 km/h (5 Bft) 100,00 %
23.12.2017 13:40 7,9 C 3,9 C 83 % 1031,3 hPa 0,0 l/m 25,7 km/h (4 Bft) W 270 0 min 0,000 mm 0,0 UV-I 81 W/m 5,2 C -1,2 C 32,2 km/h (5 Bft) 95,65 %
23.12.2017 13:41 7,8 C 3,9 C 83 % 1031,3 hPa 0,0 l/m 17,7 km/h (3 Bft) W-SW 247 0 min 0,000 mm 0,0 UV-I 84 W/m 5,1 C 1,3 C 32,2 km/h (5 Bft) 100,00 %
23.12.2017 13:42 7,8 C 3,9 C 83 % 1031,2 hPa 0,0 l/m 19,3 km/h (3 Bft) W-SW 247 0 min 0,000 mm 0,0 UV-I 88 W/m 5,1 C 0,7 C 32,2 km/h (5 Bft) 100,00 %
23.12.2017 13:43 7,9 C 3,9 C 83 % 1031,2 hPa 0,0 l/m 17,7 km/h (3 Bft) W-SW 247 0 min 0,000 mm 0,0 UV-I 93 W/m 5,2 C 1,4 C 22,5 km/h (4 Bft) 100,00 %
23.12.2017 13:44 7,9 C 3,9 C 83 % 1031,2 hPa 0,0 l/m 24,1 km/h (4 Bft) W-SW 247 0 min 0,000 mm 0,0 UV-I 100 W/m 5,2 C -0,8 C 32,2 km/h (5 Bft) 95,65 %
23.12.2017 13:45 7,9 C 3,9 C 83 % 1031,2 hPa 0,0 l/m 22,5 km/h (4 Bft) W 270 0 min 0,000 mm 0,0 UV-I 105 W/m 5,2 C -0,3 C 30,6 km/h (5 Bft) 100,00 %
23.12.2017 13:46 7,9 C 3,9 C 83 % 1031,2 hPa 0,0 l/m 14,5 km/h (3 Bft) W 270 0 min 0,000 mm 0,0 UV-I 113 W/m 5,2 C 2,8 C 19,3 km/h (3 Bft) 100,00 %
23.12.2017 13:47 7,9 C 3,9 C 83 % 1031,1 hPa 0,0 l/m 14,5 km/h (3 Bft) W-SW 247 0 min 0,000 mm 0,0 UV-I 114 W/m 5,2 C 2,8 C 20,9 km/h (4 Bft) 95,65 %
23.12.2017 13:48 7,9 C 3,9 C 83 % 1031,2 hPa 0,0 l/m 14,5 km/h (3 Bft) W-SW 247 0 min 0,000 mm 0,0 UV-I 114 W/m 5,2 C 2,8 C 20,9 km/h (4 Bft) 100,00 %
23.12.2017 13:49 7,9 C 3,9 C 83 % 1031,1 hPa 0,0 l/m 19,3 km/h (3 Bft) W-SW 247 0 min 0,000 mm 0,0 UV-I 117 W/m 5,2 C 0,8 C 29,0 km/h (5 Bft) 91,30 %
23.12.2017 13:50 7,9 C 3,9 C 83 % 1031,1 hPa 0,0 l/m 25,7 km/h (4 Bft) W-SW 247 0 min 0,000 mm 0,0 UV-I 120 W/m 5,2 C -1,2 C 38,6 km/h (5 Bft) 91,30 %
23.12.2017 13:51 7,9 C 3,9 C 83 % 1031,0 hPa 0,0 l/m 19,3 km/h (3 Bft) W-SW 247 0 min 0,000 mm 0,0 UV-I 113 W/m 5,2 C 0,8 C 29,0 km/h (5 Bft) 100,00 %
23.12.2017 13:52 7,9 C 3,9 C 83 % 1031,1 hPa 0,0 l/m 16,1 km/h (3 Bft) W-SW 247 0 min 0,000 mm 0,0 UV-I 113 W/m 5,2 C 2,1 C 19,3 km/h (3 Bft) 100,00 %
23.12.2017 13:53 7,9 C 3,9 C 83 % 1031,1 hPa 0,0 l/m 20,9 km/h (4 Bft) W-SW 247 0 min 0,000 mm 0,0 UV-I 111 W/m 5,2 C 0,3 C 27,4 km/h (4 Bft) 91,30 %
23.12.2017 13:54 7,9 C 3,9 C 83 % 1031,1 hPa 0,0 l/m 17,7 km/h (3 Bft) W-SW 247 0 min 0,000 mm 0,0 UV-I 100 W/m 5,2 C 1,4 C 24,1 km/h (4 Bft) 95,65 %
23.12.2017 13:55 7,9 C 3,9 C 83 % 1031,1 hPa 0,0 l/m 16,1 km/h (3 Bft) W-SW 247 0 min 0,000 mm 0,0 UV-I 88 W/m 5,2 C 2,1 C 20,9 km/h (4 Bft) 100,00 %
23.12.2017 13:56 7,9 C 3,9 C 83 % 1031,1 hPa 0,0 l/m 16,1 km/h (3 Bft) W-SW 247 0 min 0,000 mm 0,0 UV-I 86 W/m 5,2 C 2,1 C 24,1 km/h (4 Bft) 100,00 %
23.12.2017 13:57 7,9 C 3,9 C 83 % 1031,2 hPa 0,0 l/m 20,9 km/h (4 Bft) W-SW 247 0 min 0,000 mm 0,0 UV-I 79 W/m 5,2 C 0,3 C 27,4 km/h (4 Bft) 100,00 %
23.12.2017 13:58 7,9 C 3,9 C 83 % 1031,1 hPa 0,0 l/m 16,1 km/h (3 Bft) W-SW 247 0 min 0,000 mm 0,0 UV-I 70 W/m 5,2 C 2,1 C 20,9 km/h (4 Bft) 95,65 %
23.12.2017 13:59 7,9 C 3,9 C 83 % 1031,1 hPa 0,0 l/m 19,3 km/h (3 Bft) W-SW 247 0 min 0,000 mm 0,0 UV-I 60 W/m 5,2 C 0,8 C 22,5 km/h (4 Bft) 100,00 %
23.12.2017 14:00 7,9 C 3,9 C 83 % 1031,1 hPa 0,0 l/m 20,9 km/h (4 Bft) W-SW 247 0 min 0,076 mm 0,0 UV-I 53 W/m 5,2 C 0,3 C 27,4 km/h (4 Bft) 95,65 %
23.12.2017 14:01 7,9 C 3,9 C 83 % 1031,1 hPa 0,0 l/m 20,9 km/h (4 Bft) W-SW 247 0 min 0,000 mm 0,0 UV-I 49 W/m 5,2 C 0,3 C 27,4 km/h (4 Bft) 95,65 %
23.12.2017 14:02 7,9 C 3,9 C 83 % 1031,0 hPa 0,0 l/m 25,7 km/h (4 Bft) W-SW 247 0 min 0,000 mm 0,0 UV-I 42 W/m 5,2 C -1,2 C 35,4 km/h (5 Bft) 100,00 %
23.12.2017 14:03 7,9 C 3,9 C 83 % 1031,0 hPa 0,0 l/m 27,4 km/h (4 Bft) W-SW 247 0 min 0,000 mm 0,0 UV-I 39 W/m 5,2 C -1,7 C 37,0 km/h (5 Bft) 100,00 %
23.12.2017 14:04 7,9 C 3,9 C 82 % 1031,0 hPa 0,0 l/m 22,5 km/h (4 Bft) W-SW 247 0 min 0,000 mm 0,0 UV-I 35 W/m 5,0 C -0,3 C 32,2 km/h (5 Bft) 95,65 %
23.12.2017 14:05 7,9 C 3,9 C 82 % 1031,0 hPa 0,0 l/m 20,9 km/h (4 Bft) SW 225 0 min 0,000 mm 0,0 UV-I 35 W/m 5,0 C 0,3 C 30,6 km/h (5 Bft) 100,00 %
23.12.2017 14:06 7,9 C 3,9 C 82 % 1031,0 hPa 0,0 l/m 19,3 km/h (3 Bft) SW 225 0 min 0,000 mm 0,0 UV-I 32 W/m 5,0 C 0,8 C 27,4 km/h (4 Bft) 95,65 %
23.12.2017 14:07 7,9 C 3,9 C 82 % 1031,1 hPa 0,0 l/m 20,9 km/h (4 Bft) W-SW 247 0 min 0,000 mm 0,0 UV-I 28 W/m 5,0 C 0,3 C 30,6 km/h (5 Bft) 100,00 %
23.12.2017 14:08 7,9 C 3,9 C 82 % 1031,1 hPa 0,0 l/m 17,7 km/h (3 Bft) W-SW 247 0 min 0,000 mm 0,0 UV-I 28 W/m 5,0 C 1,4 C 22,5 km/h (4 Bft) 91,30 %
23.12.2017 14:09 7,9 C 3,9 C 83 % 1031,1 hPa 0,0 l/m 16,1 km/h (3 Bft) W-SW 247 0 min 0,000 mm 0,0 UV-I 26 W/m 5,2 C 2,1 C 20,9 km/h (4 Bft) 95,65 %
23.12.2017 14:10 7,9 C 3,9 C 83 % 1031,0 hPa 0,0 l/m 14,5 km/h (3 Bft) W-SW 247 0 min 0,000 mm 0,0 UV-I 25 W/m 5,2 C 2,8 C 19,3 km/h (3 Bft) 100,00 %
23.12.2017 14:11 7,8 C 3,9 C 83 % 1031,1 hPa 0,0 l/m 17,7 km/h (3 Bft) W-SW 247 0 min 0,000 mm 0,0 UV-I 25 W/m 5,1 C 1,3 C 22,5 km/h (4 Bft) 100,00 %
23.12.2017 14:12 7,8 C 3,9 C 83 % 1031,1 hPa 0,0 l/m 17,7 km/h (3 Bft) W-SW 247 0 min 0,000 mm 0,0 UV-I 22 W/m 5,1 C 1,3 C 25,7 km/h (4 Bft) 100,00 %
23.12.2017 14:13 7,8 C 3,9 C 83 % 1031,1 hPa 0,0 l/m 16,1 km/h (3 Bft) SW 225 0 min 0,000 mm 0,0 UV-I 19 W/m 5,1 C 2,0 C 22,5 km/h (4 Bft) 100,00 %
23.12.2017 14:14 7,8 C 3,9 C 83 % 1031,1 hPa 0,0 l/m 14,5 km/h (3 Bft) W-SW 247 0 min 0,000 mm 0,0 UV-I 18 W/m 5,1 C 2,7 C 20,9 km/h (4 Bft) 100,00 %
23.12.2017 14:15 7,8 C 3,9 C 83 % 1031,1 hPa 0,0 l/m 16,1 km/h (3 Bft) W-SW 247 0 min 0,000 mm 0,0 UV-I 16 W/m 5,1 C 2,0 C 20,9 km/h (4 Bft) 91,30 %
23.12.2017 14:16 7,8 C 3,9 C 83 % 1031,1 hPa 0,0 l/m 14,5 km/h (3 Bft) W-SW 247 0 min 0,000 mm 0,0 UV-I 14 W/m 5,1 C 2,7 C 20,9 km/h (4 Bft) 100,00 %
23.12.2017 14:17 7,8 C 3,9 C 83 % 1031,1 hPa 0,0 l/m 14,5 km/h (3 Bft) W-SW 247 0 min 0,000 mm 0,0 UV-I 12 W/m 5,1 C 2,7 C 20,9 km/h (4 Bft) 95,65 %
23.12.2017 14:18 7,8 C 3,9 C 84 % 1031,1 hPa 0,0 l/m 14,5 km/h (3 Bft) W-SW 247 0 min 0,000 mm 0,0 UV-I 12 W/m 5,3 C 2,7 C 17,7 km/h (3 Bft) 100,00 %
23.12.2017 14:19 7,7 C 3,9 C 84 % 1031,1 hPa 0,0 l/m 16,1 km/h (3 Bft) W-SW 247 0 min 0,000 mm 0,0 UV-I 12 W/m 5,2 C 1,9 C 19,3 km/h (3 Bft) 100,00 %
23.12.2017 14:20 7,7 C 3,9 C 84 % 1031,1 hPa 0,0 l/m 12,9 km/h (3 Bft) W-SW 247 0 min 0,000 mm 0,0 UV-I 11 W/m 5,2 C 3,4 C 14,5 km/h (3 Bft) 100,00 %
23.12.2017 14:21 7,7 C 3,9 C 84 % 1031,0 hPa 0,0 l/m 16,1 km/h (3 Bft) W-SW 247 0 min 0,000 mm 0,0 UV-I 12 W/m 5,2 C 1,9 C 22,5 km/h (4 Bft) 95,65 %
23.12.2017 14:22 7,7 C 3,9 C 84 % 1031,0 hPa 0,0 l/m 14,5 km/h (3 Bft) W-SW 247 0 min 0,000 mm 0,0 UV-I 12 W/m 5,2 C 2,6 C 17,7 km/h (3 Bft) 95,65 %
23.12.2017 14:23 7,7 C 3,9 C 84 % 1030,9 hPa 0,0 l/m 17,7 km/h (3 Bft) W-SW 247 0 min 0,000 mm 0,0 UV-I 14 W/m 5,2 C 1,2 C 22,5 km/h (4 Bft) 100,00 %
23.12.2017 14:24 7,7 C 3,9 C 84 % 1030,9 hPa 0,0 l/m 11,3 km/h (2 Bft) SW 225 0 min 0,000 mm 0,0 UV-I 14 W/m 5,2 C 4,3 C 16,1 km/h (3 Bft) 100,00 %
23.12.2017 14:25 7,7 C 3,9 C 84 % 1030,9 hPa 0,0 l/m 16,1 km/h (3 Bft) W-SW 247 0 min 0,000 mm 0,0 UV-I 14 W/m 5,2 C 1,9 C 29,0 km/h (5 Bft) 100,00 %
23.12.2017 14:26 7,7 C 3,9 C 84 % 1030,8 hPa 0,0 l/m 19,3 km/h (3 Bft) W-SW 247 0 min 0,000 mm 0,0 UV-I 14 W/m 5,2 C 0,6 C 22,5 km/h (4 Bft) 100,00 %
23.12.2017 14:27 7,7 C 3,9 C 84 % 1030,8 hPa 0,0 l/m 12,9 km/h (3 Bft) W-SW 247 0 min 0,000 mm 0,0 UV-I 14 W/m 5,2 C 3,4 C 19,3 km/h (3 Bft) 100,00 %
23.12.2017 14:28 7,7 C 3,9 C 84 % 1030,9 hPa 0,0 l/m 16,1 km/h (3 Bft) W-SW 247 0 min 0,000 mm 0,0 UV-I 14 W/m 5,2 C 1,9 C 22,5 km/h (4 Bft) 100,00 %
23.12.2017 14:29 7,7 C 3,9 C 84 % 1031,0 hPa 0,0 l/m 17,7 km/h (3 Bft) W-SW 247 0 min 0,000 mm 0,0 UV-I 18 W/m 5,2 C 1,2 C 25,7 km/h (4 Bft) 95,65 %
23.12.2017 14:30 7,7 C 3,9 C 84 % 1030,9 hPa 0,0 l/m 20,9 km/h (4 Bft) W-SW 247 0 min 0,000 mm 0,0 UV-I 20 W/m 5,2 C 0,0 C 30,6 km/h (5 Bft) 100,00 %
23.12.2017 14:31 7,7 C 3,9 C 84 % 1030,9 hPa 0,0 l/m 16,1 km/h (3 Bft) W-SW 247 0 min 0,000 mm 0,0 UV-I 21 W/m 5,2 C 1,9 C 24,1 km/h (4 Bft) 100,00 %
23.12.2017 14:32 7,7 C 3,9 C 84 % 1030,9 hPa 0,0 l/m 19,3 km/h (3 Bft) W-SW 247 0 min 0,000 mm 0,0 UV-I 21 W/m 5,2 C 0,6 C 25,7 km/h (4 Bft) 95,65 %
23.12.2017 14:33 7,7 C 3,9 C 84 % 1030,8 hPa 0,0 l/m 17,7 km/h (3 Bft) W 270 0 min 0,000 mm 0,0 UV-I 19 W/m 5,2 C 1,2 C 29,0 km/h (5 Bft) 95,65 %
23.12.2017 14:34 7,7 C 3,9 C 84 % 1030,9 hPa 0,0 l/m 14,5 km/h (3 Bft) W-SW 247 0 min 0,000 mm 0,0 UV-I 23 W/m 5,2 C 2,6 C 19,3 km/h (3 Bft) 100,00 %
23.12.2017 14:35 7,7 C 3,9 C 84 % 1030,8 hPa 0,0 l/m 17,7 km/h (3 Bft) W-SW 247 0 min 0,000 mm 0,0 UV-I 25 W/m 5,2 C 1,2 C 29,0 km/h (5 Bft) 95,65 %
23.12.2017 14:36 7,7 C 3,9 C 84 % 1030,8 hPa 0,0 l/m 14,5 km/h (3 Bft) W-SW 247 0 min 0,000 mm 0,0 UV-I 30 W/m 5,2 C 2,6 C 22,5 km/h (4 Bft) 91,30 %
23.12.2017 14:37 7,7 C 3,9 C 84 % 1030,8 hPa 0,0 l/m 11,3 km/h (2 Bft) W-SW 247 0 min 0,000 mm 0,0 UV-I 28 W/m 5,2 C 4,3 C 16,1 km/h (3 Bft) 100,00 %
23.12.2017 14:38 7,7 C 3,9 C 84 % 1030,8 hPa 0,0 l/m 12,9 km/h (3 Bft) W-SW 247 0 min 0,000 mm 0,0 UV-I 28 W/m 5,2 C 3,4 C 17,7 km/h (3 Bft) 95,65 %
23.12.2017 14:39 7,7 C 3,9 C 84 % 1030,8 hPa 0,0 l/m 14,5 km/h (3 Bft) W-SW 247 0 min 0,000 mm 0,0 UV-I 28 W/m 5,2 C 2,6 C 24,1 km/h (4 Bft) 100,00 %
23.12.2017 14:40 7,6 C 3,9 C 84 % 1030,8 hPa 0,0 l/m 17,7 km/h (3 Bft) W-SW 247 0 min 0,000 mm 0,0 UV-I 28 W/m 5,1 C 1,1 C 22,5 km/h (4 Bft) 95,65 %
23.12.2017 14:41 7,7 C 3,9 C 84 % 1030,8 hPa 0,0 l/m 16,1 km/h (3 Bft) W-SW 247 0 min 0,000 mm 0,0 UV-I 31 W/m 5,2 C 1,9 C 22,5 km/h (4 Bft) 100,00 %
23.12.2017 14:42 7,7 C 3,9 C 84 % 1030,8 hPa 0,0 l/m 17,7 km/h (3 Bft) W-SW 247 0 min 0,000 mm 0,0 UV-I 33 W/m 5,2 C 1,2 C 27,4 km/h (4 Bft) 95,65 %
23.12.2017 14:43 7,7 C 3,9 C 84 % 1030,7 hPa 0,0 l/m 20,9 km/h (4 Bft) W-SW 247 0 min 0,000 mm 0,0 UV-I 37 W/m 5,2 C 0,0 C 29,0 km/h (5 Bft) 91,30 %
23.12.2017 14:44 7,7 C 3,9 C 84 % 1030,7 hPa 0,0 l/m 17,7 km/h (3 Bft) W-SW 247 0 min 0,000 mm 0,0 UV-I 39 W/m 5,2 C 1,2 C 22,5 km/h (4 Bft) 95,65 %
23.12.2017 14:45 7,7 C 3,9 C 84 % 1030,7 hPa 0,0 l/m 12,9 km/h (3 Bft) W-SW 247 0 min 0,000 mm 0,0 UV-I 39 W/m 5,2 C 3,4 C 14,5 km/h (3 Bft) 100,00 %
23.12.2017 14:46 7,7 C 3,9 C 84 % 1030,7 hPa 0,0 l/m 16,1 km/h (3 Bft) W-SW 247 0 min 0,000 mm 0,0 UV-I 40 W/m 5,2 C 1,9 C 22,5 km/h (4 Bft) 95,65 %
23.12.2017 14:47 7,7 C 3,9 C 84 % 1030,7 hPa 0,0 l/m 12,9 km/h (3 Bft) W-SW 247 0 min 0,000 mm 0,0 UV-I 51 W/m 5,2 C 3,4 C 19,3 km/h (3 Bft) 100,00 %
23.12.2017 14:48 7,7 C 3,9 C 84 % 1030,7 hPa 0,0 l/m 19,3 km/h (3 Bft) W-SW 247 0 min 0,000 mm 0,0 UV-I 58 W/m 5,2 C 0,6 C 24,1 km/h (4 Bft) 91,30 %
23.12.2017 14:49 7,7 C 3,9 C 84 % 1030,6 hPa 0,0 l/m 14,5 km/h (3 Bft) W-SW 247 0 min 0,000 mm 0,0 UV-I 54 W/m 5,2 C 2,6 C 19,3 km/h (3 Bft) 100,00 %
23.12.2017 14:50 7,7 C 3,9 C 84 % 1030,7 hPa 0,0 l/m 19,3 km/h (3 Bft) W-SW 247 0 min 0,000 mm 0,0 UV-I 47 W/m 5,2 C 0,6 C 24,1 km/h (4 Bft) 91,30 %
23.12.2017 14:51 7,7 C 3,9 C 83 % 1030,6 hPa 0,0 l/m 22,5 km/h (4 Bft) SW 225 0 min 0,000 mm 0,0 UV-I 46 W/m 5,0 C -0,5 C 30,6 km/h (5 Bft) 95,65 %
23.12.2017 14:52 7,7 C 3,9 C 84 % 1030,7 hPa 0,0 l/m 19,3 km/h (3 Bft) W-SW 247 0 min 0,000 mm 0,0 UV-I 46 W/m 5,2 C 0,6 C 29,0 km/h (5 Bft) 100,00 %
23.12.2017 14:53 7,7 C 3,9 C 84 % 1030,7 hPa 0,0 l/m 14,5 km/h (3 Bft) W-SW 247 0 min 0,000 mm 0,0 UV-I 46 W/m 5,2 C 2,6 C 20,9 km/h (4 Bft) 95,65 %
23.12.2017 14:54 7,7 C 3,9 C 84 % 1030,7 hPa 0,0 l/m 20,9 km/h (4 Bft) W-SW 247 0 min 0,000 mm 0,0 UV-I 46 W/m 5,2 C 0,0 C 33,8 km/h (5 Bft) 100,00 %
23.12.2017 14:55 7,7 C 3,9 C 84 % 1030,7 hPa 0,0 l/m 20,9 km/h (4 Bft) W 270 0 min 0,000 mm 0,0 UV-I 42 W/m 5,2 C 0,0 C 29,0 km/h (5 Bft) 95,65 %
23.12.2017 14:56 7,7 C 3,9 C 83 % 1030,6 hPa 0,0 l/m 17,7 km/h (3 Bft) W 270 0 min 0,000 mm 0,0 UV-I 42 W/m 5,0 C 1,2 C 22,5 km/h (4 Bft) 100,00 %
23.12.2017 14:57 7,7 C 3,9 C 83 % 1030,6 hPa 0,0 l/m 17,7 km/h (3 Bft) W-SW 247 0 min 0,000 mm 0,0 UV-I 42 W/m 5,0 C 1,2 C 27,4 km/h (4 Bft) 86,96 %
23.12.2017 14:58 7,7 C 3,9 C 83 % 1030,6 hPa 0,0 l/m 17,7 km/h (3 Bft) W-SW 247 0 min 0,000 mm 0,0 UV-I 40 W/m 5,0 C 1,2 C 27,4 km/h (4 Bft) 100,00 %
23.12.2017 14:59 7,7 C 3,9 C 83 % 1030,6 hPa 0,0 l/m 14,5 km/h (3 Bft) W-SW 247 0 min 0,000 mm 0,0 UV-I 40 W/m 5,0 C 2,6 C 20,9 km/h (4 Bft) 91,30 %
23.12.2017 15:00 7,7 C 3,9 C 83 % 1030,6 hPa 0,0 l/m 20,9 km/h (4 Bft) W 270 0 min 0,051 mm 0,0 UV-I 40 W/m 5,0 C 0,0 C 27,4 km/h (4 Bft) 100,00 %
23.12.2017 15:01 7,7 C 3,9 C 83 % 1030,6 hPa 0,0 l/m 19,3 km/h (3 Bft) W-SW 247 0 min 0,000 mm 0,0 UV-I 40 W/m 5,0 C 0,6 C 27,4 km/h (4 Bft) 95,65 %
23.12.2017 15:02 7,7 C 3,9 C 83 % 1030,6 hPa 0,0 l/m 17,7 km/h (3 Bft) W-SW 247 0 min 0,000 mm 0,0 UV-I 40 W/m 5,0 C 1,2 C 29,0 km/h (5 Bft) 100,00 %
23.12.2017 15:03 7,7 C 3,9 C 83 % 1030,6 hPa 0,0 l/m 20,9 km/h (4 Bft) W-SW 247 0 min 0,000 mm 0,0 UV-I 39 W/m 5,0 C 0,0 C 29,0 km/h (5 Bft) 95,65 %
23.12.2017 15:04 7,7 C 3,9 C 83 % 1030,6 hPa 0,0 l/m 24,1 km/h (4 Bft) W-SW 247 0 min 0,000 mm 0,0 UV-I 37 W/m 5,0 C -1,0 C 37,0 km/h (5 Bft) 95,65 %
23.12.2017 15:05 7,8 C 3,9 C 83 % 1030,6 hPa 0,0 l/m 19,3 km/h (3 Bft) W-SW 247 0 min 0,000 mm 0,0 UV-I 38 W/m 5,1 C 0,7 C 32,2 km/h (5 Bft) 95,65 %
23.12.2017 15:06 7,8 C 3,9 C 82 % 1030,6 hPa 0,0 l/m 24,1 km/h (4 Bft) W 270 0 min 0,000 mm 0,0 UV-I 40 W/m 4,9 C -0,9 C 29,0 km/h (5 Bft) 95,65 %
23.12.2017 15:07 7,8 C 3,9 C 82 % 1030,6 hPa 0,0 l/m 16,1 km/h (3 Bft) SW 225 0 min 0,000 mm 0,0 UV-I 42 W/m 4,9 C 2,0 C 20,9 km/h (4 Bft) 95,65 %
23.12.2017 15:08 7,8 C 3,9 C 82 % 1030,6 hPa 0,0 l/m 25,7 km/h (4 Bft) W-SW 247 0 min 0,000 mm 0,0 UV-I 44 W/m 4,9 C -1,3 C 37,0 km/h (5 Bft) 95,65 %
23.12.2017 15:09 7,8 C 3,9 C 82 % 1030,6 hPa 0,0 l/m 19,3 km/h (3 Bft) W-SW 247 0 min 0,000 mm 0,0 UV-I 46 W/m 4,9 C 0,7 C 27,4 km/h (4 Bft) 100,00 %
23.12.2017 15:10 7,8 C 3,9 C 82 % 1030,6 hPa 0,0 l/m 22,5 km/h (4 Bft) W-SW 247 0 min 0,000 mm 0,0 UV-I 42 W/m 4,9 C -0,4 C 27,4 km/h (4 Bft) 91,30 %
23.12.2017 15:11 7,8 C 3,9 C 82 % 1030,6 hPa 0,0 l/m 17,7 km/h (3 Bft) W-SW 247 0 min 0,000 mm 0,0 UV-I 31 W/m 4,9 C 1,3 C 29,0 km/h (5 Bft) 95,65 %
23.12.2017 15:12 7,8 C 3,9 C 82 % 1030,6 hPa 0,0 l/m 17,7 km/h (3 Bft) W-SW 247 0 min 0,000 mm 0,0 UV-I 25 W/m 4,9 C 1,3 C 20,9 km/h (4 Bft) 95,65 %
23.12.2017 15:13 7,8 C 3,9 C 82 % 1030,7 hPa 0,0 l/m 20,9 km/h (4 Bft) W-SW 247 0 min 0,000 mm 0,0 UV-I 21 W/m 4,9 C 0,1 C 27,4 km/h (4 Bft) 95,65 %
23.12.2017 15:14 7,8 C 3,9 C 82 % 1030,7 hPa 0,0 l/m 17,7 km/h (3 Bft) W-SW 247 0 min 0,000 mm 0,0 UV-I 21 W/m 4,9 C 1,3 C 29,0 km/h (5 Bft) 95,65 %
23.12.2017 15:15 7,8 C 3,9 C 82 % 1030,7 hPa 0,0 l/m 24,1 km/h (4 Bft) W-SW 247 0 min 0,000 mm 0,0 UV-I 19 W/m 4,9 C -0,9 C 33,8 km/h (5 Bft) 95,65 %
23.12.2017 15:16 7,8 C 3,9 C 82 % 1030,7 hPa 0,0 l/m 17,7 km/h (3 Bft) W-SW 247 0 min 0,000 mm 0,0 UV-I 18 W/m 4,9 C 1,3 C 24,1 km/h (4 Bft) 100,00 %
23.12.2017 15:17 7,8 C 3,9 C 82 % 1030,7 hPa 0,0 l/m 16,1 km/h (3 Bft) W-SW 247 0 min 0,000 mm 0,0 UV-I 17 W/m 4,9 C 2,0 C 22,5 km/h (4 Bft) 95,65 %
23.12.2017 15:18 7,8 C 3,9 C 82 % 1030,7 hPa 0,0 l/m 20,9 km/h (4 Bft) W-SW 247 0 min 0,000 mm 0,0 UV-I 16 W/m 4,9 C 0,1 C 30,6 km/h (5 Bft) 95,65 %
23.12.2017 15:19 7,8 C 3,9 C 82 % 1030,8 hPa 0,0 l/m 22,5 km/h (4 Bft) W-SW 247 0 min 0,000 mm 0,0 UV-I 16 W/m 4,9 C -0,4 C 29,0 km/h (5 Bft) 91,30 %
23.12.2017 15:20 7,7 C 3,9 C 81 % 1030,7 hPa 0,0 l/m 17,7 km/h (3 Bft) W-SW 247 0 min 0,000 mm 0,0 UV-I 16 W/m 4,7 C 1,2 C 22,5 km/h (4 Bft) 100,00 %
23.12.2017 15:21 7,7 C 3,9 C 82 % 1030,7 hPa 0,0 l/m 16,1 km/h (3 Bft) W-SW 247 0 min 0,000 mm 0,0 UV-I 16 W/m 4,8 C 1,9 C 22,5 km/h (4 Bft) 95,65 %
23.12.2017 15:22 7,7 C 3,9 C 81 % 1030,7 hPa 0,0 l/m 17,7 km/h (3 Bft) W-SW 247 0 min 0,000 mm 0,0 UV-I 16 W/m 4,7 C 1,2 C 22,5 km/h (4 Bft) 95,65 %
23.12.2017 15:23 7,7 C 3,9 C 81 % 1030,7 hPa 0,0 l/m 16,1 km/h (3 Bft) W-SW 247 0 min 0,000 mm 0,0 UV-I 16 W/m 4,7 C 1,9 C 27,4 km/h (4 Bft) 95,65 %
23.12.2017 15:24 7,8 C 3,9 C 81 % 1030,8 hPa 0,0 l/m 17,7 km/h (3 Bft) SW 225 0 min 0,000 mm 0,0 UV-I 16 W/m 4,7 C 1,3 C 24,1 km/h (4 Bft) 95,65 %
23.12.2017 15:25 7,8 C 3,9 C 81 % 1030,6 hPa 0,0 l/m 17,7 km/h (3 Bft) W-SW 247 0 min 0,000 mm 0,0 UV-I 16 W/m 4,7 C 1,3 C 22,5 km/h (4 Bft) 95,65 %
23.12.2017 15:26 7,8 C 3,9 C 81 % 1030,8 hPa 0,0 l/m 17,7 km/h (3 Bft) W-SW 247 0 min 0,000 mm 0,0 UV-I 14 W/m 4,7 C 1,3 C 22,5 km/h (4 Bft) 91,30 %
23.12.2017 15:27 7,7 C 3,9 C 81 % 1030,8 hPa 0,0 l/m 14,5 km/h (3 Bft) W-SW 247 0 min 0,000 mm 0,0 UV-I 14 W/m 4,7 C 2,6 C 19,3 km/h (3 Bft) 100,00 %
23.12.2017 15:28 7,7 C 3,9 C 81 % 1030,7 hPa 0,0 l/m 17,7 km/h (3 Bft) W-SW 247 0 min 0,000 mm 0,0 UV-I 14 W/m 4,7 C 1,2 C 27,4 km/h (4 Bft) 91,30 %
23.12.2017 15:29 7,7 C 3,9 C 81 % 1030,8 hPa 0,0 l/m 16,1 km/h (3 Bft) SW 225 0 min 0,000 mm 0,0 UV-I 14 W/m 4,7 C 1,9 C 24,1 km/h (4 Bft) 86,96 %
23.12.2017 15:30 7,7 C 3,9 C 81 % 1030,8 hPa 0,0 l/m 19,3 km/h (3 Bft) W-SW 247 0 min 0,000 mm 0,0 UV-I 14 W/m 4,7 C 0,6 C 25,7 km/h (4 Bft) 95,65 %
23.12.2017 15:31 7,7 C 3,9 C 81 % 1030,8 hPa 0,0 l/m 14,5 km/h (3 Bft) W-SW 247 0 min 0,000 mm 0,0 UV-I 16 W/m 4,7 C 2,6 C 22,5 km/h (4 Bft) 95,65 %
23.12.2017 15:32 7,7 C 3,9 C 81 % 1030,8 hPa 0,0 l/m 12,9 km/h (3 Bft) W-SW 247 0 min 0,000 mm 0,0 UV-I 16 W/m 4,7 C 3,4 C 20,9 km/h (4 Bft) 95,65 %
23.12.2017 15:33 7,7 C 3,9 C 81 % 1030,8 hPa 0,0 l/m 16,1 km/h (3 Bft) W-SW 247 0 min 0,000 mm 0,0 UV-I 14 W/m 4,7 C 1,9 C 24,1 km/h (4 Bft) 95,65 %
23.12.2017 15:34 7,7 C 3,9 C 81 % 1030,8 hPa 0,0 l/m 17,7 km/h (3 Bft) W-SW 247 0 min 0,000 mm 0,0 UV-I 13 W/m 4,7 C 1,2 C 20,9 km/h (4 Bft) 100,00 %
23.12.2017 15:35 7,7 C 3,9 C 81 % 1030,8 hPa 0,0 l/m 16,1 km/h (3 Bft) W-SW 247 0 min 0,000 mm 0,0 UV-I 12 W/m 4,7 C 1,9 C 22,5 km/h (4 Bft) 100,00 %
23.12.2017 15:36 7,7 C 3,9 C 81 % 1030,8 hPa 0,0 l/m 19,3 km/h (3 Bft) W-SW 247 0 min 0,000 mm 0,0 UV-I 11 W/m 4,7 C 0,6 C 25,7 km/h (4 Bft) 95,65 %
23.12.2017 15:37 7,7 C 3,9 C 81 % 1030,7 hPa 0,0 l/m 20,9 km/h (4 Bft) W-SW 247 0 min 0,000 mm 0,0 UV-I 11 W/m 4,7 C 0,0 C 30,6 km/h (5 Bft) 100,00 %
23.12.2017 15:38 7,7 C 3,9 C 81 % 1030,8 hPa 0,0 l/m 27,4 km/h (4 Bft) W-SW 247 0 min 0,000 mm 0,0 UV-I 11 W/m 4,7 C -1,9 C 35,4 km/h (5 Bft) 100,00 %
23.12.2017 15:39 7,7 C 3,9 C 81 % 1030,8 hPa 0,0 l/m 17,7 km/h (3 Bft) W-SW 247 0 min 0,000 mm 0,0 UV-I 11 W/m 4,7 C 1,2 C 22,5 km/h (4 Bft) 95,65 %
23.12.2017 15:40 7,7 C 3,9 C 81 % 1030,7 hPa 0,0 l/m 16,1 km/h (3 Bft) W-SW 247 0 min 0,000 mm 0,0 UV-I 9 W/m 4,7 C 1,9 C 24,1 km/h (4 Bft) 95,65 %
23.12.2017 15:41 7,7 C 3,9 C 81 % 1030,8 hPa 0,0 l/m 16,1 km/h (3 Bft) W-SW 247 0 min 0,000 mm 0,0 UV-I 9 W/m 4,7 C 1,9 C 22,5 km/h (4 Bft) 100,00 %
23.12.2017 15:42 7,7 C 3,9 C 81 % 1030,8 hPa 0,0 l/m 17,7 km/h (3 Bft) W-SW 247 0 min 0,000 mm 0,0 UV-I 9 W/m 4,7 C 1,2 C 24,1 km/h (4 Bft) 100,00 %
23.12.2017 15:43 7,7 C 3,9 C 81 % 1030,8 hPa 0,0 l/m 24,1 km/h (4 Bft) W-SW 247 0 min 0,000 mm 0,0 UV-I 7 W/m 4,7 C -1,0 C 32,2 km/h (5 Bft) 100,00 %
23.12.2017 15:44 7,7 C 3,9 C 81 % 1030,7 hPa 0,0 l/m 20,9 km/h (4 Bft) W-SW 247 0 min 0,000 mm 0,0 UV-I 7 W/m 4,7 C 0,0 C 27,4 km/h (4 Bft) 100,00 %
23.12.2017 15:45 7,7 C 3,9 C 81 % 1030,8 hPa 0,0 l/m 22,5 km/h (4 Bft) W-SW 247 0 min 0,000 mm 0,0 UV-I 7 W/m 4,7 C -0,5 C 33,8 km/h (5 Bft) 100,00 %
23.12.2017 15:46 7,7 C 3,9 C 81 % 1030,8 hPa 0,0 l/m 19,3 km/h (3 Bft) W 270 0 min 0,000 mm 0,0 UV-I 7 W/m 4,7 C 0,6 C 27,4 km/h (4 Bft) 95,65 %
23.12.2017 15:47 7,7 C 3,9 C 81 % 1030,7 hPa 0,0 l/m 16,1 km/h (3 Bft) W-SW 247 0 min 0,000 mm 0,0 UV-I 7 W/m 4,7 C 1,9 C 24,1 km/h (4 Bft) 100,00 %
23.12.2017 15:48 7,7 C 3,9 C 81 % 1030,7 hPa 0,0 l/m 20,9 km/h (4 Bft) W-SW 247 0 min 0,000 mm 0,0 UV-I 9 W/m 4,7 C 0,0 C 30,6 km/h (5 Bft) 100,00 %
23.12.2017 15:49 7,7 C 3,9 C 81 % 1030,7 hPa 0,0 l/m 17,7 km/h (3 Bft) W-SW 247 0 min 0,000 mm 0,0 UV-I 9 W/m 4,7 C 1,2 C 24,1 km/h (4 Bft) 100,00 %
23.12.2017 15:50 7,7 C 3,9 C 81 % 1030,7 hPa 0,0 l/m 14,5 km/h (3 Bft) W 270 0 min 0,000 mm 0,0 UV-I 9 W/m 4,7 C 2,6 C 22,5 km/h (4 Bft) 100,00 %
23.12.2017 15:51 7,7 C 3,9 C 81 % 1030,7 hPa 0,0 l/m 17,7 km/h (3 Bft) W-SW 247 0 min 0,000 mm 0,0 UV-I 9 W/m 4,7 C 1,2 C 22,5 km/h (4 Bft) 100,00 %
23.12.2017 15:52 7,7 C 3,9 C 80 % 1030,7 hPa 0,0 l/m 17,7 km/h (3 Bft) W-SW 247 0 min 0,000 mm 0,0 UV-I 9 W/m 4,5 C 1,2 C 24,1 km/h (4 Bft) 100,00 %
23.12.2017 15:53 7,7 C 3,9 C 80 % 1030,7 hPa 0,0 l/m 20,9 km/h (4 Bft) W-SW 247 0 min 0,000 mm 0,0 UV-I 9 W/m 4,5 C 0,0 C 25,7 km/h (4 Bft) 95,65 %
23.12.2017 15:54 7,7 C 3,9 C 80 % 1030,7 hPa 0,0 l/m 20,9 km/h (4 Bft) W-SW 247 0 min 0,000 mm 0,0 UV-I 9 W/m 4,5 C 0,0 C 33,8 km/h (5 Bft) 100,00 %
23.12.2017 15:55 7,7 C 3,9 C 80 % 1030,6 hPa 0,0 l/m 24,1 km/h (4 Bft) W-SW 247 0 min 0,000 mm 0,0 UV-I 9 W/m 4,5 C -1,0 C 37,0 km/h (5 Bft) 100,00 %
23.12.2017 15:56 7,7 C 3,9 C 80 % 1030,6 hPa 0,0 l/m 19,3 km/h (3 Bft) W-SW 247 0 min 0,000 mm 0,0 UV-I 7 W/m 4,5 C 0,6 C 29,0 km/h (5 Bft) 100,00 %
23.12.2017 15:57 7,7 C 3,9 C 80 % 1030,6 hPa 0,0 l/m 20,9 km/h (4 Bft) W-SW 247 0 min 0,000 mm 0,0 UV-I 7 W/m 4,5 C 0,0 C 30,6 km/h (5 Bft) 91,30 %
23.12.2017 15:58 7,7 C 3,9 C 80 % 1030,6 hPa 0,0 l/m 25,7 km/h (4 Bft) SW 225 0 min 0,000 mm 0,0 UV-I 8 W/m 4,5 C -1,5 C 37,0 km/h (5 Bft) 100,00 %
23.12.2017 15:59 7,7 C 3,9 C 80 % 1030,5 hPa 0,0 l/m 19,3 km/h (3 Bft) W-SW 247 0 min 0,000 mm 0,0 UV-I 7 W/m 4,5 C 0,6 C 29,0 km/h (5 Bft) 95,65 %
23.12.2017 16:00 7,7 C 3,9 C 80 % 1030,6 hPa 0,0 l/m 19,3 km/h (3 Bft) W-SW 247 0 min 0,051 mm 0,0 UV-I 7 W/m 4,5 C 0,6 C 30,6 km/h (5 Bft) 95,65 %
23.12.2017 16:01 7,7 C 3,9 C 80 % 1030,6 hPa 0,0 l/m 19,3 km/h (3 Bft) W-SW 247 0 min 0,000 mm 0,0 UV-I 7 W/m 4,5 C 0,6 C 25,7 km/h (4 Bft) 91,30 %
23.12.2017 16:02 7,7 C 3,9 C 80 % 1030,6 hPa 0,0 l/m 22,5 km/h (4 Bft) W-SW 247 0 min 0,000 mm 0,0 UV-I 7 W/m 4,5 C -0,5 C 32,2 km/h (5 Bft) 100,00 %
23.12.2017 16:03 7,7 C 3,9 C 80 % 1030,6 hPa 0,0 l/m 19,3 km/h (3 Bft) W-SW 247 0 min 0,000 mm 0,0 UV-I 7 W/m 4,5 C 0,6 C 25,7 km/h (4 Bft) 95,65 %
23.12.2017 16:04 7,7 C 3,9 C 80 % 1030,4 hPa 0,0 l/m 20,9 km/h (4 Bft) SW 225 0 min 0,000 mm 0,0 UV-I 7 W/m 4,5 C 0,0 C 29,0 km/h (5 Bft) 100,00 %
23.12.2017 16:05 7,7 C 3,9 C 80 % 1030,5 hPa 0,0 l/m 20,9 km/h (4 Bft) W-SW 247 0 min 0,000 mm 0,0 UV-I 7 W/m 4,5 C 0,0 C 27,4 km/h (4 Bft) 95,65 %
23.12.2017 16:06 7,7 C 3,9 C 80 % 1030,5 hPa 0,0 l/m 16,1 km/h (3 Bft) W-SW 247 0 min 0,000 mm 0,0 UV-I 7 W/m 4,5 C 1,9 C 20,9 km/h (4 Bft) 100,00 %
23.12.2017 16:07 7,7 C 3,9 C 80 % 1030,5 hPa 0,0 l/m 22,5 km/h (4 Bft) W-SW 247 0 min 0,000 mm 0,0 UV-I 7 W/m 4,5 C -0,5 C 29,0 km/h (5 Bft) 91,30 %
23.12.2017 16:08 7,7 C 3,9 C 80 % 1030,5 hPa 0,0 l/m 20,9 km/h (4 Bft) SW 225 0 min 0,000 mm 0,0 UV-I 7 W/m 4,5 C 0,0 C 32,2 km/h (5 Bft) 95,65 %
23.12.2017 16:09 7,7 C 3,9 C 80 % 1030,6 hPa 0,0 l/m 17,7 km/h (3 Bft) W-SW 247 0 min 0,000 mm 0,0 UV-I 5 W/m 4,5 C 1,2 C 27,4 km/h (4 Bft) 95,65 %
23.12.2017 16:10 7,7 C 3,9 C 80 % 1030,6 hPa 0,0 l/m 17,7 km/h (3 Bft) SW 225 0 min 0,000 mm 0,0 UV-I 5 W/m 4,5 C 1,2 C 29,0 km/h (5 Bft) 95,65 %
23.12.2017 16:11 7,7 C 3,9 C 81 % 1030,5 hPa 0,0 l/m 19,3 km/h (3 Bft) SW 225 0 min 0,000 mm 0,0 UV-I 5 W/m 4,7 C 0,6 C 30,6 km/h (5 Bft) 95,65 %
23.12.2017 16:12 7,7 C 3,9 C 81 % 1030,6 hPa 0,0 l/m 22,5 km/h (4 Bft) W-SW 247 0 min 0,000 mm 0,0 UV-I 5 W/m 4,7 C -0,5 C 32,2 km/h (5 Bft) 91,30 %
23.12.2017 16:13 7,7 C 3,9 C 81 % 1030,6 hPa 0,0 l/m 20,9 km/h (4 Bft) SW 225 0 min 0,000 mm 0,0 UV-I 5 W/m 4,7 C 0,0 C 30,6 km/h (5 Bft) 100,00 %
23.12.2017 16:14 7,7 C 3,9 C 80 % 1030,6 hPa 0,0 l/m 17,7 km/h (3 Bft) SW 225 0 min 0,000 mm 0,0 UV-I 5 W/m 4,5 C 1,2 C 25,7 km/h (4 Bft) 91,30 %
23.12.2017 16:15 7,7 C 3,9 C 81 % 1030,6 hPa 0,0 l/m 16,1 km/h (3 Bft) W-SW 247 0 min 0,000 mm 0,0 UV-I 5 W/m 4,7 C 1,9 C 24,1 km/h (4 Bft) 100,00 %
23.12.2017 16:16 7,7 C 3,9 C 81 % 1030,6 hPa 0,0 l/m 19,3 km/h (3 Bft) W-SW 247 0 min 0,000 mm 0,0 UV-I 5 W/m 4,7 C 0,6 C 25,7 km/h (4 Bft) 95,65 %
23.12.2017 16:17 7,7 C 3,9 C 80 % 1030,6 hPa 0,0 l/m 17,7 km/h (3 Bft) SW 225 0 min 0,000 mm 0,0 UV-I 5 W/m 4,5 C 1,2 C 24,1 km/h (4 Bft) 100,00 %
23.12.2017 16:18 7,7 C 3,9 C 81 % 1030,6 hPa 0,0 l/m 22,5 km/h (4 Bft) SW 225 0 min 0,000 mm 0,0 UV-I 5 W/m 4,7 C -0,5 C 30,6 km/h (5 Bft) 95,65 %
23.12.2017 16:19 7,7 C 3,9 C 81 % 1030,6 hPa 0,0 l/m 19,3 km/h (3 Bft) SW 225 0 min 0,000 mm 0,0 UV-I 5 W/m 4,7 C 0,6 C 30,6 km/h (5 Bft) 100,00 %
23.12.2017 16:20 7,7 C 3,9 C 81 % 1030,6 hPa 0,0 l/m 16,1 km/h (3 Bft) W-SW 247 0 min 0,000 mm 0,0 UV-I 5 W/m 4,7 C 1,9 C 22,5 km/h (4 Bft) 100,00 %
23.12.2017 16:21 7,6 C 3,9 C 81 % 1030,7 hPa 0,0 l/m 16,1 km/h (3 Bft) W-SW 247 0 min 0,000 mm 0,0 UV-I 0 W/m 4,6 C 1,7 C 25,7 km/h (4 Bft) 95,65 %
23.12.2017 16:22 7,6 C 3,9 C 81 % 1030,6 hPa 0,0 l/m 14,5 km/h (3 Bft) SW 225 0 min 0,000 mm 0,0 UV-I 0 W/m 4,6 C 2,5 C 19,3 km/h (3 Bft) 95,65 %
23.12.2017 16:23 7,6 C 3,9 C 81 % 1030,6 hPa 0,0 l/m 16,1 km/h (3 Bft) W-SW 247 0 min 0,000 mm 0,0 UV-I 0 W/m 4,6 C 1,7 C 22,5 km/h (4 Bft) 100,00 %
23.12.2017 16:24 7,6 C 3,9 C 81 % 1030,6 hPa 0,0 l/m 17,7 km/h (3 Bft) SW 225 0 min 0,000 mm 0,0 UV-I 0 W/m 4,6 C 1,1 C 22,5 km/h (4 Bft) 100,00 %
23.12.2017 16:25 7,6 C 3,9 C 82 % 1030,6 hPa 0,0 l/m 16,1 km/h (3 Bft) SW 225 0 min 0,000 mm 0,0 UV-I 0 W/m 4,7 C 1,7 C 20,9 km/h (4 Bft) 100,00 %
23.12.2017 16:26 7,6 C 3,9 C 82 % 1030,6 hPa 0,0 l/m 16,1 km/h (3 Bft) W-SW 247 0 min 0,000 mm 0,0 UV-I 0 W/m 4,7 C 1,7 C 30,6 km/h (5 Bft) 100,00 %
23.12.2017 16:27 7,6 C 3,9 C 82 % 1030,6 hPa 0,0 l/m 20,9 km/h (4 Bft) W-SW 247 0 min 0,000 mm 0,0 UV-I 0 W/m 4,7 C -0,1 C 27,4 km/h (4 Bft) 100,00 %
23.12.2017 16:28 7,6 C 3,9 C 82 % 1030,6 hPa 0,0 l/m 17,7 km/h (3 Bft) W-SW 247 0 min 0,000 mm 0,0 UV-I 0 W/m 4,7 C 1,1 C 25,7 km/h (4 Bft) 95,65 %
23.12.2017 16:29 7,6 C 3,9 C 82 % 1030,7 hPa 0,0 l/m 11,3 km/h (2 Bft) W-SW 247 0 min 0,000 mm 0,0 UV-I 0 W/m 4,7 C 4,1 C 16,1 km/h (3 Bft) 100,00 %
23.12.2017 16:30 7,6 C 3,9 C 82 % 1030,6 hPa 0,0 l/m 12,9 km/h (3 Bft) SW 225 0 min 0,000 mm 0,0 UV-I 0 W/m 4,7 C 3,3 C 17,7 km/h (3 Bft) 100,00 %
23.12.2017 16:31 7,6 C 3,9 C 82 % 1030,6 hPa 0,0 l/m 22,5 km/h (4 Bft) SW 225 0 min 0,000 mm 0,0 UV-I 0 W/m 4,7 C -0,7 C 27,4 km/h (4 Bft) 100,00 %
23.12.2017 16:32 7,6 C 3,9 C 82 % 1030,6 hPa 0,0 l/m 16,1 km/h (3 Bft) SW 225 0 min 0,000 mm 0,0 UV-I 0 W/m 4,7 C 1,7 C 24,1 km/h (4 Bft) 95,65 %
23.12.2017 16:33 7,6 C 3,9 C 82 % 1030,6 hPa 0,0 l/m 17,7 km/h (3 Bft) SW 225 0 min 0,000 mm 0,0 UV-I 0 W/m 4,7 C 1,1 C 22,5 km/h (4 Bft) 100,00 %
23.12.2017 16:34 7,6 C 3,9 C 82 % 1030,7 hPa 0,0 l/m 14,5 km/h (3 Bft) SW 225 0 min 0,000 mm 0,0 UV-I 0 W/m 4,7 C 2,5 C 17,7 km/h (3 Bft) 100,00 %
23.12.2017 16:35 7,6 C 3,9 C 82 % 1030,7 hPa 0,0 l/m 11,3 km/h (2 Bft) W-SW 247 0 min 0,000 mm 0,0 UV-I 0 W/m 4,7 C 4,1 C 19,3 km/h (3 Bft) 95,65 %
23.12.2017 16:36 7,5 C 3,9 C 82 % 1030,6 hPa 0,0 l/m 17,7 km/h (3 Bft) W-SW 247 0 min 0,000 mm 0,0 UV-I 0 W/m 4,6 C 0,9 C 29,0 km/h (5 Bft) 100,00 %
23.12.2017 16:37 7,5 C 3,9 C 82 % 1030,7 hPa 0,0 l/m 17,7 km/h (3 Bft) SW 225 0 min 0,000 mm 0,0 UV-I 0 W/m 4,6 C 0,9 C 25,7 km/h (4 Bft) 100,00 %
23.12.2017 16:38 7,5 C 3,9 C 82 % 1030,7 hPa 0,0 l/m 12,9 km/h (3 Bft) SW 225 0 min 0,000 mm 0,0 UV-I 0 W/m 4,6 C 3,1 C 17,7 km/h (3 Bft) 100,00 %
23.12.2017 16:39 7,5 C 3,9 C 82 % 1030,7 hPa 0,0 l/m 17,7 km/h (3 Bft) W-SW 247 0 min 0,000 mm 0,0 UV-I 0 W/m 4,6 C 0,9 C 24,1 km/h (4 Bft) 100,00 %
23.12.2017 16:40 7,4 C 3,9 C 82 % 1030,7 hPa 0,0 l/m 14,5 km/h (3 Bft) SW 225 0 min 0,000 mm 0,0 UV-I 0 W/m 4,5 C 2,2 C 19,3 km/h (3 Bft) 100,00 %
23.12.2017 16:41 7,4 C 3,9 C 83 % 1030,7 hPa 0,0 l/m 19,3 km/h (3 Bft) W-SW 247 0 min 0,000 mm 0,0 UV-I 0 W/m 4,7 C 0,2 C 29,0 km/h (5 Bft) 100,00 %
23.12.2017 16:42 7,4 C 3,9 C 83 % 1030,7 hPa 0,0 l/m 16,1 km/h (3 Bft) W-SW 247 0 min 0,000 mm 0,0 UV-I 0 W/m 4,7 C 1,5 C 24,1 km/h (4 Bft) 95,65 %
23.12.2017 16:43 7,4 C 3,9 C 83 % 1030,7 hPa 0,0 l/m 17,7 km/h (3 Bft) W-SW 247 0 min 0,000 mm 0,0 UV-I 0 W/m 4,7 C 0,8 C 27,4 km/h (4 Bft) 100,00 %
23.12.2017 16:44 7,4 C 3,9 C 83 % 1030,7 hPa 0,0 l/m 16,1 km/h (3 Bft) W-SW 247 0 min 0,000 mm 0,0 UV-I 0 W/m 4,7 C 1,5 C 20,9 km/h (4 Bft) 95,65 %
23.12.2017 16:45 7,4 C 3,9 C 83 % 1030,7 hPa 0,0 l/m 14,5 km/h (3 Bft) W-SW 247 0 min 0,000 mm 0,0 UV-I 0 W/m 4,7 C 2,2 C 20,9 km/h (4 Bft) 95,65 %
23.12.2017 16:46 7,4 C 3,9 C 83 % 1030,6 hPa 0,0 l/m 16,1 km/h (3 Bft) SW 225 0 min 0,000 mm 0,0 UV-I 0 W/m 4,7 C 1,5 C 24,1 km/h (4 Bft) 100,00 %
23.12.2017 16:47 7,4 C 3,9 C 83 % 1030,6 hPa 0,0 l/m 16,1 km/h (3 Bft) W-SW 247 0 min 0,000 mm 0,0 UV-I 0 W/m 4,7 C 1,5 C 22,5 km/h (4 Bft) 100,00 %
23.12.2017 16:48 7,4 C 3,9 C 83 % 1030,7 hPa 0,0 l/m 14,5 km/h (3 Bft) SW 225 0 min 0,000 mm 0,0 UV-I 0 W/m 4,7 C 2,2 C 24,1 km/h (4 Bft) 100,00 %
23.12.2017 16:49 7,4 C 3,9 C 83 % 1030,6 hPa 0,0 l/m 19,3 km/h (3 Bft) SW 225 0 min 0,000 mm 0,0 UV-I 0 W/m 4,7 C 0,2 C 27,4 km/h (4 Bft) 95,65 %
23.12.2017 16:50 7,4 C 3,9 C 83 % 1030,6 hPa 0,0 l/m 16,1 km/h (3 Bft) SW 225 0 min 0,000 mm 0,0 UV-I 0 W/m 4,7 C 1,5 C 20,9 km/h (4 Bft) 100,00 %
23.12.2017 16:51 7,4 C 3,9 C 84 % 1030,6 hPa 0,0 l/m 19,3 km/h (3 Bft) SW 225 0 min 0,000 mm 0,0 UV-I 0 W/m 4,9 C 0,2 C 27,4 km/h (4 Bft) 100,00 %
23.12.2017 16:52 7,4 C 3,9 C 84 % 1030,7 hPa 0,0 l/m 16,1 km/h (3 Bft) W-SW 247 0 min 0,000 mm 0,0 UV-I 0 W/m 4,9 C 1,5 C 27,4 km/h (4 Bft) 100,00 %
23.12.2017 16:53 7,4 C 3,9 C 84 % 1030,7 hPa 0,0 l/m 14,5 km/h (3 Bft) W-SW 247 0 min 0,000 mm 0,0 UV-I 0 W/m 4,9 C 2,2 C 22,5 km/h (4 Bft) 100,00 %
23.12.2017 16:54 7,4 C 3,9 C 84 % 1030,7 hPa 0,0 l/m 14,5 km/h (3 Bft) SW 225 0 min 0,000 mm 0,0 UV-I 0 W/m 4,9 C 2,2 C 20,9 km/h (4 Bft) 91,30 %
23.12.2017 16:55 7,4 C 3,9 C 84 % 1030,8 hPa 0,0 l/m 12,9 km/h (3 Bft) W-SW 247 0 min 0,000 mm 0,0 UV-I 0 W/m 4,9 C 3,0 C 19,3 km/h (3 Bft) 100,00 %
23.12.2017 16:56 7,4 C 3,9 C 84 % 1030,8 hPa 0,0 l/m 16,1 km/h (3 Bft) S-SW 202 0 min 0,000 mm 0,0 UV-I 0 W/m 4,9 C 1,5 C 24,1 km/h (4 Bft) 95,65 %
23.12.2017 16:57 7,4 C 3,9 C 84 % 1030,7 hPa 0,0 l/m 14,5 km/h (3 Bft) S-SW 202 0 min 0,000 mm 0,0 UV-I 0 W/m 4,9 C 2,2 C 17,7 km/h (3 Bft) 100,00 %
23.12.2017 16:58 7,4 C 3,9 C 84 % 1030,7 hPa 0,0 l/m 16,1 km/h (3 Bft) SW 225 0 min 0,000 mm 0,0 UV-I 0 W/m 4,9 C 1,5 C 24,1 km/h (4 Bft) 100,00 %
23.12.2017 16:59 7,4 C 3,9 C 85 % 1030,7 hPa 0,0 l/m 22,5 km/h (4 Bft) SW 225 0 min 0,000 mm 0,0 UV-I 0 W/m 5,0 C -0,9 C 29,0 km/h (5 Bft) 95,65 %
23.12.2017 17:00 7,4 C 3,9 C 85 % 1030,6 hPa 0,0 l/m 20,9 km/h (4 Bft) SW 225 0 min 0,025 mm 0,0 UV-I 0 W/m 5,0 C -0,4 C 29,0 km/h (5 Bft) 100,00 %
23.12.2017 17:01 7,3 C 3,9 C 85 % 1030,6 hPa 0,0 l/m 16,1 km/h (3 Bft) W-SW 247 0 min 0,000 mm 0,0 UV-I 0 W/m 4,9 C 1,4 C 30,6 km/h (5 Bft) 91,30 %
23.12.2017 17:02 7,3 C 3,9 C 85 % 1030,6 hPa 0,0 l/m 17,7 km/h (3 Bft) SW 225 0 min 0,000 mm 0,0 UV-I 0 W/m 4,9 C 0,7 C 22,5 km/h (4 Bft) 100,00 %
23.12.2017 17:03 7,3 C 3,9 C 85 % 1030,6 hPa 0,0 l/m 16,1 km/h (3 Bft) W-SW 247 0 min 0,000 mm 0,0 UV-I 0 W/m 4,9 C 1,4 C 20,9 km/h (4 Bft) 91,30 %
23.12.2017 17:04 7,3 C 3,9 C 85 % 1030,6 hPa 0,0 l/m 16,1 km/h (3 Bft) SW 225 0 min 0,000 mm 0,0 UV-I 0 W/m 4,9 C 1,4 C 24,1 km/h (4 Bft) 95,65 %
23.12.2017 17:05 7,3 C 3,9 C 85 % 1030,6 hPa 0,0 l/m 14,5 km/h (3 Bft) SW 225 0 min 0,000 mm 0,0 UV-I 0 W/m 4,9 C 2,1 C 24,1 km/h (4 Bft) 95,65 %
23.12.2017 17:06 7,3 C 3,9 C 85 % 1030,5 hPa 0,0 l/m 19,3 km/h (3 Bft) SW 225 0 min 0,000 mm 0,0 UV-I 0 W/m 4,9 C 0,1 C 29,0 km/h (5 Bft) 100,00 %
23.12.2017 17:07 7,3 C 3,9 C 85 % 1030,5 hPa 0,0 l/m 19,3 km/h (3 Bft) SW 225 0 min 0,000 mm 0,0 UV-I 0 W/m 4,9 C 0,1 C 30,6 km/h (5 Bft) 95,65 %
23.12.2017 17:08 7,3 C 3,9 C 85 % 1030,5 hPa 0,0 l/m 17,7 km/h (3 Bft) SW 225 0 min 0,000 mm 0,0 UV-I 0 W/m 4,9 C 0,7 C 24,1 km/h (4 Bft) 95,65 %
23.12.2017 17:09 7,3 C 3,9 C 85 % 1030,5 hPa 0,0 l/m 20,9 km/h (4 Bft) SW 225 0 min 0,000 mm 0,0 UV-I 0 W/m 4,9 C -0,5 C 25,7 km/h (4 Bft) 100,00 %
23.12.2017 17:10 7,3 C 3,9 C 85 % 1030,5 hPa 0,0 l/m 17,7 km/h (3 Bft) SW 225 0 min 0,000 mm 0,0 UV-I 0 W/m 4,9 C 0,7 C 27,4 km/h (4 Bft) 91,30 %
23.12.2017 17:11 7,3 C 3,9 C 85 % 1030,5 hPa 0,0 l/m 16,1 km/h (3 Bft) W-SW 247 0 min 0,000 mm 0,0 UV-I 0 W/m 4,9 C 1,4 C 20,9 km/h (4 Bft) 95,65 %
23.12.2017 17:12 7,3 C 3,9 C 85 % 1030,5 hPa 0,0 l/m 20,9 km/h (4 Bft) SW 225 0 min 0,000 mm 0,0 UV-I 0 W/m 4,9 C -0,5 C 27,4 km/h (4 Bft) 95,65 %
23.12.2017 17:13 7,3 C 3,9 C 85 % 1030,5 hPa 0,0 l/m 20,9 km/h (4 Bft) SW 225 0 min 0,000 mm 0,0 UV-I 0 W/m 4,9 C -0,5 C 27,4 km/h (4 Bft) 100,00 %
23.12.2017 17:14 7,3 C 3,9 C 85 % 1030,5 hPa 0,0 l/m 22,5 km/h (4 Bft) SW 225 0 min 0,000 mm 0,0 UV-I 0 W/m 4,9 C -1,1 C 27,4 km/h (4 Bft) 91,30 %
23.12.2017 17:15 7,3 C 3,9 C 85 % 1030,4 hPa 0,0 l/m 19,3 km/h (3 Bft) SW 225 0 min 0,000 mm 0,0 UV-I 0 W/m 4,9 C 0,1 C 22,5 km/h (4 Bft) 95,65 %
23.12.2017 17:16 7,3 C 3,9 C 85 % 1030,5 hPa 0,0 l/m 14,5 km/h (3 Bft) SW 225 0 min 0,000 mm 0,0 UV-I 0 W/m 4,9 C 2,1 C 24,1 km/h (4 Bft) 100,00 %
23.12.2017 17:17 7,3 C 3,9 C 85 % 1030,5 hPa 0,0 l/m 17,7 km/h (3 Bft) W-SW 247 0 min 0,000 mm 0,0 UV-I 0 W/m 4,9 C 0,7 C 29,0 km/h (5 Bft) 86,96 %
23.12.2017 17:18 7,3 C 3,9 C 85 % 1030,5 hPa 0,0 l/m 16,1 km/h (3 Bft) SW 225 0 min 0,000 mm 0,0 UV-I 0 W/m 4,9 C 1,4 C 19,3 km/h (3 Bft) 95,65 %
23.12.2017 17:19 7,3 C 3,9 C 85 % 1030,5 hPa 0,0 l/m 12,9 km/h (3 Bft) W-SW 247 0 min 0,000 mm 0,0 UV-I 0 W/m 4,9 C 2,9 C 17,7 km/h (3 Bft) 95,65 %
23.12.2017 17:20 7,3 C 3,9 C 85 % 1030,5 hPa 0,0 l/m 17,7 km/h (3 Bft) SW 225 0 min 0,000 mm 0,0 UV-I 0 W/m 4,9 C 0,7 C 25,7 km/h (4 Bft) 95,65 %
23.12.2017 17:21 7,3 C 3,9 C 85 % 1030,5 hPa 0,0 l/m 19,3 km/h (3 Bft) SW 225 0 min 0,000 mm 0,0 UV-I 0 W/m 4,9 C 0,1 C 24,1 km/h (4 Bft) 95,65 %
23.12.2017 17:22 7,3 C 3,9 C 85 % 1030,5 hPa 0,0 l/m 19,3 km/h (3 Bft) SW 225 0 min 0,000 mm 0,0 UV-I 0 W/m 4,9 C 0,1 C 27,4 km/h (4 Bft) 95,65 %
23.12.2017 17:23 7,3 C 3,9 C 85 % 1030,5 hPa 0,0 l/m 16,1 km/h (3 Bft) SW 225 0 min 0,000 mm 0,0 UV-I 0 W/m 4,9 C 1,4 C 20,9 km/h (4 Bft) 95,65 %
23.12.2017 17:24 7,2 C 3,9 C 85 % 1030,5 hPa 0,0 l/m 19,3 km/h (3 Bft) W-SW 247 0 min 0,000 mm 0,0 UV-I 0 W/m 4,9 C -0,1 C 25,7 km/h (4 Bft) 86,96 %
23.12.2017 17:25 7,2 C 3,9 C 85 % 1030,4 hPa 0,0 l/m 22,5 km/h (4 Bft) SW 225 0 min 0,000 mm 0,0 UV-I 0 W/m 4,9 C -1,2 C 32,2 km/h (5 Bft) 100,00 %
23.12.2017 17:26 7,3 C 3,9 C 85 % 1030,4 hPa 0,0 l/m 20,9 km/h (4 Bft) SW 225 0 min 0,000 mm 0,0 UV-I 0 W/m 4,9 C -0,5 C 27,4 km/h (4 Bft) 91,30 %
23.12.2017 17:27 7,3 C 3,9 C 85 % 1030,4 hPa 0,0 l/m 19,3 km/h (3 Bft) SW 225 0 min 0,000 mm 0,0 UV-I 0 W/m 4,9 C 0,1 C 30,6 km/h (5 Bft) 100,00 %
23.12.2017 17:28 7,3 C 3,9 C 85 % 1030,4 hPa 0,0 l/m 17,7 km/h (3 Bft) W-SW 247 0 min 0,000 mm 0,0 UV-I 0 W/m 4,9 C 0,7 C 22,5 km/h (4 Bft) 91,30 %
23.12.2017 17:29 7,3 C 3,9 C 85 % 1030,4 hPa 0,0 l/m 19,3 km/h (3 Bft) W-SW 247 0 min 0,000 mm 0,0 UV-I 0 W/m 4,9 C 0,1 C 27,4 km/h (4 Bft) 100,00 %
23.12.2017 17:30 7,3 C 3,9 C 85 % 1030,4 hPa 0,0 l/m 24,1 km/h (4 Bft) SW 225 0 min 0,000 mm 0,0 UV-I 0 W/m 4,9 C -1,6 C 29,0 km/h (5 Bft) 91,30 %
23.12.2017 17:31 7,3 C 3,9 C 85 % 1030,4 hPa 0,0 l/m 20,9 km/h (4 Bft) SW 225 0 min 0,000 mm 0,0 UV-I 0 W/m 4,9 C -0,5 C 27,4 km/h (4 Bft) 95,65 %
23.12.2017 17:32 7,3 C 3,9 C 85 % 1030,4 hPa 0,0 l/m 17,7 km/h (3 Bft) W-SW 247 0 min 0,000 mm 0,0 UV-I 0 W/m 4,9 C 0,7 C 29,0 km/h (5 Bft) 91,30 %
23.12.2017 17:33 7,3 C 3,9 C 85 % 1030,4 hPa 0,0 l/m 17,7 km/h (3 Bft) W-SW 247 0 min 0,000 mm 0,0 UV-I 0 W/m 4,9 C 0,7 C 25,7 km/h (4 Bft) 91,30 %
23.12.2017 17:34 7,2 C 3,9 C 85 % 1030,4 hPa 0,0 l/m 16,1 km/h (3 Bft) SW 225 0 min 0,000 mm 0,0 UV-I 0 W/m 4,9 C 1,2 C 22,5 km/h (4 Bft) 100,00 %
23.12.2017 17:35 7,2 C 3,9 C 85 % 1030,4 hPa 0,0 l/m 19,3 km/h (3 Bft) SW 225 0 min 0,000 mm 0,0 UV-I 0 W/m 4,9 C -0,1 C 29,0 km/h (5 Bft) 95,65 %
23.12.2017 17:36 7,2 C 3,9 C 85 % 1030,4 hPa 0,0 l/m 20,9 km/h (4 Bft) SW 225 0 min 0,000 mm 0,0 UV-I 0 W/m 4,9 C -0,7 C 29,0 km/h (5 Bft) 100,00 %
23.12.2017 17:37 7,2 C 3,9 C 86 % 1030,4 hPa 0,0 l/m 19,3 km/h (3 Bft) W-SW 247 0 min 0,000 mm 0,0 UV-I 0 W/m 5,0 C -0,1 C 30,6 km/h (5 Bft) 91,30 %
23.12.2017 17:38 7,2 C 3,9 C 86 % 1030,4 hPa 0,0 l/m 20,9 km/h (4 Bft) W-SW 247 0 min 0,000 mm 0,0 UV-I 0 W/m 5,0 C -0,7 C 25,7 km/h (4 Bft) 95,65 %
23.12.2017 17:39 7,2 C 3,9 C 85 % 1030,4 hPa 0,0 l/m 20,9 km/h (4 Bft) W-SW 247 0 min 0,000 mm 0,0 UV-I 0 W/m 4,9 C -0,7 C 29,0 km/h (5 Bft) 91,30 %
23.12.2017 17:40 7,2 C 3,9 C 86 % 1030,4 hPa 0,0 l/m 22,5 km/h (4 Bft) W-SW 247 0 min 0,000 mm 0,0 UV-I 0 W/m 5,0 C -1,2 C 29,0 km/h (5 Bft) 100,00 %
23.12.2017 17:41 7,2 C 3,9 C 86 % 1030,4 hPa 0,0 l/m 20,9 km/h (4 Bft) W-SW 247 0 min 0,000 mm 0,0 UV-I 0 W/m 5,0 C -0,7 C 27,4 km/h (4 Bft) 95,65 %
23.12.2017 17:42 7,2 C 3,9 C 85 % 1030,4 hPa 0,0 l/m 20,9 km/h (4 Bft) SW 225 0 min 0,000 mm 0,0 UV-I 0 W/m 4,9 C -0,7 C 29,0 km/h (5 Bft) 91,30 %
23.12.2017 17:43 7,2 C 3,9 C 85 % 1030,4 hPa 0,0 l/m 22,5 km/h (4 Bft) W-SW 247 0 min 0,000 mm 0,0 UV-I 0 W/m 4,9 C -1,2 C 27,4 km/h (4 Bft) 100,00 %
23.12.2017 17:44 7,2 C 3,9 C 85 % 1030,4 hPa 0,0 l/m 19,3 km/h (3 Bft) W-SW 247 0 min 0,000 mm 0,0 UV-I 0 W/m 4,9 C -0,1 C 30,6 km/h (5 Bft) 100,00 %
23.12.2017 17:45 7,2 C 3,9 C 86 % 1030,3 hPa 0,0 l/m 20,9 km/h (4 Bft) SW 225 0 min 0,000 mm 0,0 UV-I 0 W/m 5,0 C -0,7 C 29,0 km/h (5 Bft) 100,00 %
23.12.2017 17:46 7,2 C 3,9 C 86 % 1030,3 hPa 0,0 l/m 19,3 km/h (3 Bft) SW 225 0 min 0,000 mm 0,0 UV-I 0 W/m 5,0 C -0,1 C 22,5 km/h (4 Bft) 95,65 %
23.12.2017 17:47 7,2 C 3,9 C 86 % 1030,4 hPa 0,0 l/m 20,9 km/h (4 Bft) W-SW 247 0 min 0,000 mm 0,0 UV-I 0 W/m 5,0 C -0,7 C 29,0 km/h (5 Bft) 100,00 %
23.12.2017 17:48 7,2 C 3,9 C 86 % 1030,4 hPa 0,0 l/m 22,5 km/h (4 Bft) SW 225 0 min 0,000 mm 0,0 UV-I 0 W/m 5,0 C -1,2 C 29,0 km/h (5 Bft) 100,00 %
23.12.2017 17:49 7,2 C 3,9 C 86 % 1030,4 hPa 0,0 l/m 24,1 km/h (4 Bft) W-SW 247 0 min 0,000 mm 0,0 UV-I 0 W/m 5,0 C -1,7 C 32,2 km/h (5 Bft) 95,65 %
23.12.2017 17:50 7,2 C 3,9 C 86 % 1030,4 hPa 0,0 l/m 16,1 km/h (3 Bft) W-SW 247 0 min 0,000 mm 0,0 UV-I 0 W/m 5,0 C 1,2 C 20,9 km/h (4 Bft) 100,00 %
23.12.2017 17:51 7,2 C 3,9 C 86 % 1030,4 hPa 0,0 l/m 22,5 km/h (4 Bft) W-SW 247 0 min 0,000 mm 0,0 UV-I 0 W/m 5,0 C -1,2 C 27,4 km/h (4 Bft) 100,00 %
23.12.2017 17:52 7,3 C 3,9 C 86 % 1030,4 hPa 0,0 l/m 20,9 km/h (4 Bft) W-SW 247 0 min 0,000 mm 0,0 UV-I 0 W/m 5,1 C -0,5 C 30,6 km/h (5 Bft) 100,00 %
23.12.2017 17:53 7,2 C 3,9 C 86 % 1030,3 hPa 0,0 l/m 16,1 km/h (3 Bft) SW 225 0 min 0,000 mm 0,0 UV-I 0 W/m 5,0 C 1,2 C 20,9 km/h (4 Bft) 95,65 %
23.12.2017 17:54 7,2 C 3,9 C 86 % 1030,4 hPa 0,0 l/m 20,9 km/h (4 Bft) SW 225 0 min 0,000 mm 0,0 UV-I 0 W/m 5,0 C -0,7 C 27,4 km/h (4 Bft) 100,00 %
23.12.2017 17:55 7,2 C 3,9 C 86 % 1030,3 hPa 0,0 l/m 22,5 km/h (4 Bft) W-SW 247 0 min 0,000 mm 0,0 UV-I 0 W/m 5,0 C -1,2 C 27,4 km/h (4 Bft) 100,00 %
23.12.2017 17:56 7,2 C 3,9 C 85 % 1030,3 hPa 0,0 l/m 19,3 km/h (3 Bft) SW 225 0 min 0,000 mm 0,0 UV-I 0 W/m 4,9 C -0,1 C 27,4 km/h (4 Bft) 100,00 %
23.12.2017 17:57 7,2 C 3,9 C 85 % 1030,3 hPa 0,0 l/m 22,5 km/h (4 Bft) W-SW 247 0 min 0,000 mm 0,0 UV-I 0 W/m 4,9 C -1,2 C 33,8 km/h (5 Bft) 100,00 %
23.12.2017 17:58 7,2 C 3,9 C 85 % 1030,3 hPa 0,0 l/m 22,5 km/h (4 Bft) W-SW 247 0 min 0,000 mm 0,0 UV-I 0 W/m 4,9 C -1,2 C 29,0 km/h (5 Bft) 100,00 %
23.12.2017 17:59 7,2 C 3,9 C 85 % 1030,3 hPa 0,0 l/m 20,9 km/h (4 Bft) SW 225 0 min 0,000 mm 0,0 UV-I 0 W/m 4,9 C -0,7 C 27,4 km/h (4 Bft) 100,00 %
23.12.2017 18:00 7,2 C 3,9 C 85 % 1030,3 hPa 0,0 l/m 22,5 km/h (4 Bft) W-SW 247 0 min 0,025 mm 0,0 UV-I 0 W/m 4,9 C -1,2 C 30,6 km/h (5 Bft) 91,30 %
23.12.2017 18:01 7,2 C 3,9 C 85 % 1030,3 hPa 0,0 l/m 19,3 km/h (3 Bft) W-SW 247 0 min 0,000 mm 0,0 UV-I 0 W/m 4,9 C -0,1 C 24,1 km/h (4 Bft) 95,65 %
23.12.2017 18:02 7,2 C 3,9 C 85 % 1030,3 hPa 0,0 l/m 20,9 km/h (4 Bft) W-SW 247 0 min 0,000 mm 0,0 UV-I 0 W/m 4,9 C -0,7 C 30,6 km/h (5 Bft) 95,65 %
23.12.2017 18:03 7,2 C 3,9 C 85 % 1030,3 hPa 0,0 l/m 29,0 km/h (5 Bft) W-SW 247 0 min 0,000 mm 0,0 UV-I 0 W/m 4,9 C -3,0 C 41,8 km/h (6 Bft) 100,00 %
23.12.2017 18:04 7,3 C 3,9 C 85 % 1030,3 hPa 0,0 l/m 19,3 km/h (3 Bft) SW 225 0 min 0,000 mm 0,0 UV-I 0 W/m 4,9 C 0,1 C 41,8 km/h (6 Bft) 100,00 %
23.12.2017 18:05 7,3 C 3,9 C 85 % 1030,3 hPa 0,0 l/m 25,7 km/h (4 Bft) W-SW 247 0 min 0,000 mm 0,0 UV-I 0 W/m 4,9 C -2,0 C 35,4 km/h (5 Bft) 100,00 %
23.12.2017 18:06 7,3 C 3,9 C 85 % 1030,2 hPa 0,0 l/m 24,1 km/h (4 Bft) SW 225 0 min 0,000 mm 0,0 UV-I 0 W/m 4,9 C -1,6 C 32,2 km/h (5 Bft) 100,00 %
23.12.2017 18:07 7,2 C 3,9 C 85 % 1030,3 hPa 0,0 l/m 22,5 km/h (4 Bft) W-SW 247 0 min 0,000 mm 0,0 UV-I 0 W/m 4,9 C -1,2 C 30,6 km/h (5 Bft) 95,65 %
23.12.2017 18:08 7,3 C 3,9 C 85 % 1030,3 hPa 0,0 l/m 20,9 km/h (4 Bft) W 270 0 min 0,000 mm 0,0 UV-I 0 W/m 4,9 C -0,5 C 27,4 km/h (4 Bft) 100,00 %
23.12.2017 18:09 7,3 C 3,9 C 85 % 1030,3 hPa 0,0 l/m 20,9 km/h (4 Bft) W-SW 247 0 min 0,000 mm 0,0 UV-I 0 W/m 4,9 C -0,5 C 29,0 km/h (5 Bft) 100,00 %
23.12.2017 18:10 7,3 C 3,9 C 85 % 1030,3 hPa 0,0 l/m 22,5 km/h (4 Bft) W-SW 247 0 min 0,000 mm 0,0 UV-I 0 W/m 4,9 C -1,1 C 30,6 km/h (5 Bft) 100,00 %
23.12.2017 18:11 7,3 C 3,9 C 84 % 1030,3 hPa 0,0 l/m 19,3 km/h (3 Bft) W-SW 247 0 min 0,000 mm 0,0 UV-I 0 W/m 4,8 C 0,1 C 27,4 km/h (4 Bft) 100,00 %
23.12.2017 18:12 7,3 C 3,9 C 84 % 1030,3 hPa 0,0 l/m 20,9 km/h (4 Bft) W-SW 247 0 min 0,000 mm 0,0 UV-I 0 W/m 4,8 C -0,5 C 29,0 km/h (5 Bft) 100,00 %
23.12.2017 18:13 7,3 C 3,9 C 84 % 1030,3 hPa 0,0 l/m 22,5 km/h (4 Bft) W-SW 247 0 min 0,000 mm 0,0 UV-I 0 W/m 4,8 C -1,1 C 30,6 km/h (5 Bft) 100,00 %
23.12.2017 18:14 7,3 C 3,9 C 84 % 1030,3 hPa 0,0 l/m 22,5 km/h (4 Bft) W-SW 247 0 min 0,000 mm 0,0 UV-I 0 W/m 4,8 C -1,1 C 35,4 km/h (5 Bft) 95,65 %
23.12.2017 18:15 7,3 C 3,9 C 84 % 1030,3 hPa 0,0 l/m 19,3 km/h (3 Bft) W-SW 247 0 min 0,000 mm 0,0 UV-I 0 W/m 4,8 C 0,1 C 25,7 km/h (4 Bft) 100,00 %
23.12.2017 18:16 7,3 C 3,9 C 84 % 1030,3 hPa 0,0 l/m 20,9 km/h (4 Bft) W-SW 247 0 min 0,000 mm 0,0 UV-I 0 W/m 4,8 C -0,5 C 35,4 km/h (5 Bft) 95,65 %
23.12.2017 18:17 7,3 C 3,9 C 84 % 1030,3 hPa 0,0 l/m 22,5 km/h (4 Bft) SW 225 0 min 0,000 mm 0,0 UV-I 0 W/m 4,8 C -1,1 C 33,8 km/h (5 Bft) 100,00 %
23.12.2017 18:18 7,3 C 3,9 C 84 % 1030,3 hPa 0,0 l/m 20,9 km/h (4 Bft) SW 225 0 min 0,000 mm 0,0 UV-I 0 W/m 4,8 C -0,5 C 27,4 km/h (4 Bft) 95,65 %
23.12.2017 18:19 7,3 C 3,9 C 84 % 1030,3 hPa 0,0 l/m 22,5 km/h (4 Bft) W-SW 247 0 min 0,000 mm 0,0 UV-I 0 W/m 4,8 C -1,1 C 30,6 km/h (5 Bft) 95,65 %
23.12.2017 18:20 7,3 C 3,9 C 84 % 1030,3 hPa 0,0 l/m 22,5 km/h (4 Bft) W-SW 247 0 min 0,000 mm 0,0 UV-I 0 W/m 4,8 C -1,1 C 29,0 km/h (5 Bft) 100,00 %
23.12.2017 18:21 7,2 C 3,9 C 84 % 1030,2 hPa 0,0 l/m 22,5 km/h (4 Bft) W-SW 247 0 min 0,000 mm 0,0 UV-I 0 W/m 4,7 C -1,2 C 30,6 km/h (5 Bft) 91,30 %
23.12.2017 18:22 7,3 C 3,9 C 84 % 1030,2 hPa 0,0 l/m 20,9 km/h (4 Bft) W-SW 247 0 min 0,000 mm 0,0 UV-I 0 W/m 4,8 C -0,5 C 30,6 km/h (5 Bft) 100,00 %
23.12.2017 18:23 7,2 C 3,9 C 84 % 1030,3 hPa 0,0 l/m 22,5 km/h (4 Bft) W-SW 247 0 min 0,000 mm 0,0 UV-I 0 W/m 4,7 C -1,2 C 33,8 km/h (5 Bft) 100,00 %
23.12.2017 18:24 7,2 C 3,9 C 84 % 1030,2 hPa 0,0 l/m 20,9 km/h (4 Bft) SW 225 0 min 0,000 mm 0,0 UV-I 0 W/m 4,7 C -0,7 C 32,2 km/h (5 Bft) 100,00 %
23.12.2017 18:25 7,2 C 3,9 C 84 % 1030,3 hPa 0,0 l/m 20,9 km/h (4 Bft) W-SW 247 0 min 0,000 mm 0,0 UV-I 0 W/m 4,7 C -0,7 C 29,0 km/h (5 Bft) 100,00 %
23.12.2017 18:26 7,2 C 3,9 C 84 % 1030,3 hPa 0,0 l/m 22,5 km/h (4 Bft) W-SW 247 0 min 0,000 mm 0,0 UV-I 0 W/m 4,7 C -1,2 C 30,6 km/h (5 Bft) 100,00 %
23.12.2017 18:27 7,2 C 3,9 C 84 % 1030,3 hPa 0,0 l/m 20,9 km/h (4 Bft) W-SW 247 0 min 0,000 mm 0,0 UV-I 0 W/m 4,7 C -0,7 C 25,7 km/h (4 Bft) 100,00 %
23.12.2017 18:28 7,2 C 3,9 C 84 % 1030,2 hPa 0,0 l/m 19,3 km/h (3 Bft) W-SW 247 0 min 0,000 mm 0,0 UV-I 0 W/m 4,7 C -0,1 C 27,4 km/h (4 Bft) 95,65 %
23.12.2017 18:29 7,2 C 3,9 C 84 % 1030,3 hPa 0,0 l/m 22,5 km/h (4 Bft) W-SW 247 0 min 0,000 mm 0,0 UV-I 0 W/m 4,7 C -1,2 C 30,6 km/h (5 Bft) 100,00 %
23.12.2017 18:30 7,2 C 3,9 C 85 % 1030,2 hPa 0,0 l/m 20,9 km/h (4 Bft) SW 225 0 min 0,000 mm 0,0 UV-I 0 W/m 4,9 C -0,7 C 29,0 km/h (5 Bft) 100,00 %
23.12.2017 18:31 7,2 C 3,9 C 84 % 1030,2 hPa 0,0 l/m 20,9 km/h (4 Bft) W-SW 247 0 min 0,000 mm 0,0 UV-I 0 W/m 4,7 C -0,7 C 30,6 km/h (5 Bft) 91,30 %
23.12.2017 18:32 7,2 C 3,9 C 84 % 1030,2 hPa 0,0 l/m 19,3 km/h (3 Bft) W-SW 247 0 min 0,000 mm 0,0 UV-I 0 W/m 4,7 C -0,1 C 30,6 km/h (5 Bft) 100,00 %
23.12.2017 18:33 7,2 C 3,9 C 84 % 1030,2 hPa 0,0 l/m 22,5 km/h (4 Bft) W-SW 247 0 min 0,000 mm 0,0 UV-I 0 W/m 4,7 C -1,2 C 33,8 km/h (5 Bft) 100,00 %
23.12.2017 18:34 7,2 C 3,9 C 84 % 1030,2 hPa 0,0 l/m 20,9 km/h (4 Bft) W-SW 247 0 min 0,000 mm 0,0 UV-I 0 W/m 4,7 C -0,7 C 25,7 km/h (4 Bft) 100,00 %
23.12.2017 18:35 7,2 C 3,9 C 84 % 1030,2 hPa 0,0 l/m 25,7 km/h (4 Bft) W-SW 247 0 min 0,000 mm 0,0 UV-I 0 W/m 4,7 C -2,2 C 35,4 km/h (5 Bft) 91,30 %
23.12.2017 18:36 7,2 C 3,9 C 84 % 1030,2 hPa 0,0 l/m 20,9 km/h (4 Bft) W-SW 247 0 min 0,000 mm 0,0 UV-I 0 W/m 4,7 C -0,7 C 29,0 km/h (5 Bft) 100,00 %
23.12.2017 18:37 7,2 C 3,9 C 84 % 1030,3 hPa 0,0 l/m 20,9 km/h (4 Bft) W-SW 247 0 min 0,000 mm 0,0 UV-I 0 W/m 4,7 C -0,7 C 27,4 km/h (4 Bft) 100,00 %
23.12.2017 18:38 7,2 C 3,9 C 84 % 1030,2 hPa 0,0 l/m 25,7 km/h (4 Bft) SW 225 0 min 0,000 mm 0,0 UV-I 0 W/m 4,7 C -2,2 C 35,4 km/h (5 Bft) 100,00 %
23.12.2017 18:39 7,3 C 3,9 C 84 % 1030,2 hPa 0,0 l/m 25,7 km/h (4 Bft) W-SW 247 0 min 0,000 mm 0,0 UV-I 0 W/m 4,8 C -2,0 C 38,6 km/h (5 Bft) 100,00 %
23.12.2017 18:40 7,3 C 3,9 C 84 % 1030,2 hPa 0,0 l/m 24,1 km/h (4 Bft) W-SW 247 0 min 0,000 mm 0,0 UV-I 0 W/m 4,8 C -1,6 C 35,4 km/h (5 Bft) 100,00 %
23.12.2017 18:41 7,3 C 3,9 C 84 % 1030,2 hPa 0,0 l/m 17,7 km/h (3 Bft) W-SW 247 0 min 0,000 mm 0,0 UV-I 0 W/m 4,8 C 0,7 C 24,1 km/h (4 Bft) 100,00 %
23.12.2017 18:42 7,3 C 3,9 C 84 % 1030,2 hPa 0,0 l/m 25,7 km/h (4 Bft) W-SW 247 0 min 0,000 mm 0,0 UV-I 0 W/m 4,8 C -2,0 C 45,1 km/h (6 Bft) 91,30 %
23.12.2017 18:43 7,3 C 3,9 C 84 % 1030,1 hPa 0,0 l/m 22,5 km/h (4 Bft) W-SW 247 0 min 0,000 mm 0,0 UV-I 0 W/m 4,8 C -1,1 C 45,1 km/h (6 Bft) 95,65 %
23.12.2017 18:44 7,3 C 3,9 C 84 % 1030,2 hPa 0,0 l/m 20,9 km/h (4 Bft) W-SW 247 0 min 0,000 mm 0,0 UV-I 0 W/m 4,8 C -0,5 C 30,6 km/h (5 Bft) 91,30 %
23.12.2017 18:45 7,3 C 3,9 C 84 % 1030,2 hPa 0,0 l/m 24,1 km/h (4 Bft) W-SW 247 0 min 0,000 mm 0,0 UV-I 0 W/m 4,8 C -1,6 C 30,6 km/h (5 Bft) 95,65 %
23.12.2017 18:46 7,3 C 3,9 C 84 % 1030,2 hPa 0,0 l/m 24,1 km/h (4 Bft) W-SW 247 0 min 0,000 mm 0,0 UV-I 0 W/m 4,8 C -1,6 C 40,2 km/h (6 Bft) 95,65 %
23.12.2017 18:47 7,3 C 3,9 C 84 % 1030,2 hPa 0,0 l/m 20,9 km/h (4 Bft) SW 225 0 min 0,000 mm 0,0 UV-I 0 W/m 4,8 C -0,5 C 38,6 km/h (5 Bft) 95,65 %
23.12.2017 18:48 7,3 C 3,9 C 84 % 1030,3 hPa 0,0 l/m 27,4 km/h (4 Bft) SW 225 0 min 0,000 mm 0,0 UV-I 0 W/m 4,8 C -2,5 C 40,2 km/h (6 Bft) 100,00 %
23.12.2017 18:49 7,3 C 3,9 C 84 % 1030,2 hPa 0,0 l/m 19,3 km/h (3 Bft) W-SW 247 0 min 0,000 mm 0,0 UV-I 0 W/m 4,8 C 0,1 C 29,0 km/h (5 Bft) 91,30 %
23.12.2017 18:50 7,3 C 3,9 C 84 % 1030,2 hPa 0,0 l/m 17,7 km/h (3 Bft) SW 225 0 min 0,000 mm 0,0 UV-I 0 W/m 4,8 C 0,7 C 24,1 km/h (4 Bft) 100,00 %
23.12.2017 18:51 7,3 C 3,9 C 84 % 1030,2 hPa 0,0 l/m 20,9 km/h (4 Bft) SW 225 0 min 0,000 mm 0,0 UV-I 0 W/m 4,8 C -0,5 C 30,6 km/h (5 Bft) 95,65 %
23.12.2017 18:52 7,3 C 3,9 C 84 % 1030,2 hPa 0,0 l/m 22,5 km/h (4 Bft) SW 225 0 min 0,000 mm 0,0 UV-I 0 W/m 4,8 C -1,1 C 29,0 km/h (5 Bft) 91,30 %
23.12.2017 18:53 7,3 C 3,9 C 84 % 1030,3 hPa 0,0 l/m 20,9 km/h (4 Bft) W-SW 247 0 min 0,000 mm 0,0 UV-I 0 W/m 4,8 C -0,5 C 32,2 km/h (5 Bft) 100,00 %
23.12.2017 18:54 7,3 C 3,9 C 84 % 1030,2 hPa 0,0 l/m 20,9 km/h (4 Bft) W-SW 247 0 min 0,000 mm 0,0 UV-I 0 W/m 4,8 C -0,5 C 27,4 km/h (4 Bft) 95,65 %
23.12.2017 18:55 7,3 C 3,9 C 84 % 1030,2 hPa 0,0 l/m 25,7 km/h (4 Bft) W-SW 247 0 min 0,000 mm 0,0 UV-I 0 W/m 4,8 C -2,0 C 38,6 km/h (5 Bft) 100,00 %
23.12.2017 18:56 7,3 C 3,9 C 84 % 1030,2 hPa 0,0 l/m 22,5 km/h (4 Bft) W-SW 247 0 min 0,000 mm 0,0 UV-I 0 W/m 4,8 C -1,1 C 29,0 km/h (5 Bft) 86,96 %
23.12.2017 18:57 7,3 C 3,9 C 84 % 1030,3 hPa 0,0 l/m 22,5 km/h (4 Bft) W-SW 247 0 min 0,000 mm 0,0 UV-I 0 W/m 4,8 C -1,1 C 35,4 km/h (5 Bft) 95,65 %
23.12.2017 18:58 7,3 C 3,9 C 84 % 1030,3 hPa 0,0 l/m 25,7 km/h (4 Bft) W-SW 247 0 min 0,000 mm 0,0 UV-I 0 W/m 4,8 C -2,0 C 35,4 km/h (5 Bft) 91,30 %
23.12.2017 18:59 7,3 C 3,9 C 84 % 1030,3 hPa 0,0 l/m 19,3 km/h (3 Bft) W-SW 247 0 min 0,000 mm 0,0 UV-I 0 W/m 4,8 C 0,1 C 27,4 km/h (4 Bft) 95,65 %
23.12.2017 19:00 7,3 C 3,9 C 84 % 1030,3 hPa 0,0 l/m 25,7 km/h (4 Bft) SW 225 0 min 0,025 mm 0,0 UV-I 0 W/m 4,8 C -2,0 C 32,2 km/h (5 Bft) 95,65 %
23.12.2017 19:01 7,3 C 3,9 C 84 % 1030,3 hPa 0,0 l/m 20,9 km/h (4 Bft) W-SW 247 0 min 0,000 mm 0,0 UV-I 0 W/m 4,8 C -0,5 C 30,6 km/h (5 Bft) 100,00 %
23.12.2017 19:02 7,3 C 3,9 C 84 % 1030,3 hPa 0,0 l/m 22,5 km/h (4 Bft) W-SW 247 0 min 0,000 mm 0,0 UV-I 0 W/m 4,8 C -1,1 C 29,0 km/h (5 Bft) 95,65 %
23.12.2017 19:03 7,3 C 3,9 C 84 % 1030,2 hPa 0,0 l/m 27,4 km/h (4 Bft) SW 225 0 min 0,000 mm 0,0 UV-I 0 W/m 4,8 C -2,5 C 35,4 km/h (5 Bft) 95,65 %
23.12.2017 19:04 7,3 C 3,9 C 84 % 1030,3 hPa 0,0 l/m 17,7 km/h (3 Bft) SW 225 0 min 0,000 mm 0,0 UV-I 0 W/m 4,8 C 0,7 C 24,1 km/h (4 Bft) 86,96 %
23.12.2017 19:05 7,3 C 3,9 C 84 % 1030,2 hPa 0,0 l/m 24,1 km/h (4 Bft) SW 225 0 min 0,000 mm 0,0 UV-I 0 W/m 4,8 C -1,6 C 37,0 km/h (5 Bft) 100,00 %
23.12.2017 19:06 7,2 C 3,9 C 84 % 1030,2 hPa 0,0 l/m 24,1 km/h (4 Bft) SW 225 0 min 0,000 mm 0,0 UV-I 0 W/m 4,7 C -1,7 C 33,8 km/h (5 Bft) 95,65 %
23.12.2017 19:07 7,3 C 3,9 C 84 % 1030,2 hPa 0,0 l/m 22,5 km/h (4 Bft) SW 225 0 min 0,000 mm 0,0 UV-I 0 W/m 4,8 C -1,1 C 29,0 km/h (5 Bft) 91,30 %
23.12.2017 19:08 7,2 C 3,9 C 84 % 1030,3 hPa 0,0 l/m 24,1 km/h (4 Bft) W-SW 247 0 min 0,000 mm 0,0 UV-I 0 W/m 4,7 C -1,7 C 41,8 km/h (6 Bft) 95,65 %
23.12.2017 19:09 7,2 C 3,9 C 84 % 1030,3 hPa 0,0 l/m 29,0 km/h (5 Bft) SW 225 0 min 0,000 mm 0,0 UV-I 0 W/m 4,7 C -3,0 C 45,1 km/h (6 Bft) 100,00 %
23.12.2017 19:10 7,2 C 3,9 C 84 % 1030,4 hPa 0,0 l/m 20,9 km/h (4 Bft) W-SW 247 0 min 0,000 mm 0,0 UV-I 0 W/m 4,7 C -0,7 C 32,2 km/h (5 Bft) 91,30 %
23.12.2017 19:11 7,2 C 3,9 C 84 % 1030,4 hPa 0,0 l/m 25,7 km/h (4 Bft) SW 225 0 min 0,000 mm 0,0 UV-I 0 W/m 4,7 C -2,2 C 32,2 km/h (5 Bft) 95,65 %
23.12.2017 19:12 7,2 C 3,9 C 84 % 1030,3 hPa 0,0 l/m 19,3 km/h (3 Bft) SW 225 0 min 0,000 mm 0,0 UV-I 0 W/m 4,7 C -0,1 C 30,6 km/h (5 Bft) 95,65 %
23.12.2017 19:13 7,2 C 3,9 C 84 % 1030,3 hPa 0,0 l/m 22,5 km/h (4 Bft) SW 225 0 min 0,000 mm 0,0 UV-I 0 W/m 4,7 C -1,2 C 32,2 km/h (5 Bft) 100,00 %
23.12.2017 19:14 7,2 C 3,9 C 84 % 1030,3 hPa 0,0 l/m 25,7 km/h (4 Bft) SW 225 0 min 0,000 mm 0,0 UV-I 0 W/m 4,7 C -2,2 C 30,6 km/h (5 Bft) 95,65 %
23.12.2017 19:15 7,2 C 3,9 C 84 % 1030,4 hPa 0,0 l/m 27,4 km/h (4 Bft) SW 225 0 min 0,000 mm 0,0 UV-I 0 W/m 4,7 C -2,6 C 38,6 km/h (5 Bft) 100,00 %
23.12.2017 19:16 7,2 C 3,9 C 84 % 1030,3 hPa 0,0 l/m 20,9 km/h (4 Bft) SW 225 0 min 0,000 mm 0,0 UV-I 0 W/m 4,7 C -0,7 C 30,6 km/h (5 Bft) 95,65 %
23.12.2017 19:17 7,2 C 3,9 C 84 % 1030,4 hPa 0,0 l/m 16,1 km/h (3 Bft) SW 225 0 min 0,000 mm 0,0 UV-I 0 W/m 4,7 C 1,2 C 27,4 km/h (4 Bft) 86,96 %
23.12.2017 19:18 7,2 C 3,9 C 84 % 1030,4 hPa 0,0 l/m 25,7 km/h (4 Bft) SW 225 0 min 0,000 mm 0,0 UV-I 0 W/m 4,7 C -2,2 C 37,0 km/h (5 Bft) 100,00 %
23.12.2017 19:19 7,2 C 3,9 C 84 % 1030,4 hPa 0,0 l/m 24,1 km/h (4 Bft) SW 225 0 min 0,000 mm 0,0 UV-I 0 W/m 4,7 C -1,7 C 35,4 km/h (5 Bft) 91,30 %
23.12.2017 19:20 7,2 C 3,9 C 84 % 1030,4 hPa 0,0 l/m 17,7 km/h (3 Bft) SW 225 0 min 0,000 mm 0,0 UV-I 0 W/m 4,7 C 0,6 C 25,7 km/h (4 Bft) 100,00 %
23.12.2017 19:21 7,2 C 3,9 C 84 % 1030,4 hPa 0,0 l/m 20,9 km/h (4 Bft) W-SW 247 0 min 0,000 mm 0,0 UV-I 0 W/m 4,7 C -0,7 C 32,2 km/h (5 Bft) 95,65 %
23.12.2017 19:22 7,2 C 3,9 C 83 % 1030,3 hPa 0,0 l/m 22,5 km/h (4 Bft) SW 225 0 min 0,000 mm 0,0 UV-I 0 W/m 4,5 C -1,2 C 30,6 km/h (5 Bft) 100,00 %
23.12.2017 19:23 7,2 C 3,9 C 83 % 1030,4 hPa 0,0 l/m 22,5 km/h (4 Bft) W-SW 247 0 min 0,000 mm 0,0 UV-I 0 W/m 4,5 C -1,2 C 29,0 km/h (5 Bft) 95,65 %
23.12.2017 19:24 7,2 C 3,9 C 83 % 1030,5 hPa 0,0 l/m 22,5 km/h (4 Bft) SW 225 0 min 0,000 mm 0,0 UV-I 0 W/m 4,5 C -1,2 C 33,8 km/h (5 Bft) 95,65 %
23.12.2017 19:25 7,2 C 3,9 C 84 % 1030,4 hPa 0,0 l/m 20,9 km/h (4 Bft) SW 225 0 min 0,000 mm 0,0 UV-I 0 W/m 4,7 C -0,7 C 29,0 km/h (5 Bft) 95,65 %
23.12.2017 19:26 7,2 C 3,9 C 84 % 1030,5 hPa 0,0 l/m 22,5 km/h (4 Bft) W-SW 247 0 min 0,000 mm 0,0 UV-I 0 W/m 4,7 C -1,2 C 29,0 km/h (5 Bft) 86,96 %
23.12.2017 19:27 7,2 C 3,9 C 83 % 1030,5 hPa 0,0 l/m 20,9 km/h (4 Bft) SW 225 0 min 0,000 mm 0,0 UV-I 0 W/m 4,5 C -0,7 C 29,0 km/h (5 Bft) 100,00 %
23.12.2017 19:28 7,2 C 3,9 C 83 % 1030,5 hPa 0,0 l/m 19,3 km/h (3 Bft) SW 225 0 min 0,000 mm 0,0 UV-I 0 W/m 4,5 C -0,1 C 25,7 km/h (4 Bft) 91,30 %
23.12.2017 19:29 7,2 C 3,9 C 83 % 1030,5 hPa 0,0 l/m 25,7 km/h (4 Bft) SW 225 0 min 0,000 mm 0,0 UV-I 0 W/m 4,5 C -2,2 C 32,2 km/h (5 Bft) 100,00 %
23.12.2017 19:30 7,2 C 3,9 C 83 % 1030,5 hPa 0,0 l/m 19,3 km/h (3 Bft) W-SW 247 0 min 0,000 mm 0,0 UV-I 0 W/m 4,5 C -0,1 C 27,4 km/h (4 Bft) 95,65 %
23.12.2017 19:31 7,2 C 3,9 C 83 % 1030,5 hPa 0,0 l/m 22,5 km/h (4 Bft) SW 225 0 min 0,000 mm 0,0 UV-I 0 W/m 4,5 C -1,2 C 40,2 km/h (6 Bft) 95,65 %
23.12.2017 19:32 7,2 C 3,9 C 83 % 1030,5 hPa 0,0 l/m 25,7 km/h (4 Bft) W-SW 247 0 min 0,000 mm 0,0 UV-I 0 W/m 4,5 C -2,2 C 38,6 km/h (5 Bft) 91,30 %
23.12.2017 19:33 7,2 C 3,9 C 83 % 1030,4 hPa 0,0 l/m 25,7 km/h (4 Bft) SW 225 0 min 0,000 mm 0,0 UV-I 0 W/m 4,5 C -2,2 C 41,8 km/h (6 Bft) 95,65 %
23.12.2017 19:34 7,2 C 3,9 C 83 % 1030,5 hPa 0,0 l/m 19,3 km/h (3 Bft) SW 225 0 min 0,000 mm 0,0 UV-I 0 W/m 4,5 C -0,1 C 29,0 km/h (5 Bft) 95,65 %
23.12.2017 19:35 7,2 C 3,9 C 83 % 1030,5 hPa 0,0 l/m 30,6 km/h (5 Bft) SW 225 0 min 0,000 mm 0,0 UV-I 0 W/m 4,5 C -3,4 C 40,2 km/h (6 Bft) 95,65 %
23.12.2017 19:36 7,2 C 3,9 C 83 % 1030,5 hPa 0,0 l/m 24,1 km/h (4 Bft) SW 225 0 min 0,000 mm 0,0 UV-I 0 W/m 4,5 C -1,7 C 33,8 km/h (5 Bft) 100,00 %
23.12.2017 19:37 7,2 C 3,9 C 83 % 1030,5 hPa 0,0 l/m 17,7 km/h (3 Bft) SW 225 0 min 0,000 mm 0,0 UV-I 0 W/m 4,5 C 0,6 C 25,7 km/h (4 Bft) 95,65 %
23.12.2017 19:38 7,2 C 3,9 C 83 % 1030,4 hPa 0,0 l/m 22,5 km/h (4 Bft) SW 225 0 min 0,000 mm 0,0 UV-I 0 W/m 4,5 C -1,2 C 32,2 km/h (5 Bft) 95,65 %
23.12.2017 19:39 7,1 C 3,9 C 83 % 1030,5 hPa 0,0 l/m 29,0 km/h (5 Bft) SW 225 0 min 0,000 mm 0,0 UV-I 0 W/m 4,4 C -3,2 C 35,4 km/h (5 Bft) 95,65 %
23.12.2017 19:40 7,1 C 3,9 C 83 % 1030,5 hPa 0,0 l/m 19,3 km/h (3 Bft) SW 225 0 min 0,000 mm 0,0 UV-I 0 W/m 4,4 C -0,2 C 27,4 km/h (4 Bft) 100,00 %
23.12.2017 19:41 7,1 C 3,9 C 83 % 1030,5 hPa 0,0 l/m 16,1 km/h (3 Bft) SW 225 0 min 0,000 mm 0,0 UV-I 0 W/m 4,4 C 1,1 C 32,2 km/h (5 Bft) 95,65 %
23.12.2017 19:42 7,1 C 3,9 C 83 % 1030,5 hPa 0,0 l/m 27,4 km/h (4 Bft) SW 225 0 min 0,000 mm 0,0 UV-I 0 W/m 4,4 C -2,8 C 37,0 km/h (5 Bft) 100,00 %
23.12.2017 19:43 7,1 C 3,9 C 83 % 1030,5 hPa 0,0 l/m 22,5 km/h (4 Bft) SW 225 0 min 0,000 mm 0,0 UV-I 0 W/m 4,4 C -1,3 C 30,6 km/h (5 Bft) 95,65 %
23.12.2017 19:44 7,1 C 3,9 C 83 % 1030,5 hPa 0,0 l/m 22,5 km/h (4 Bft) SW 225 0 min 0,000 mm 0,0 UV-I 0 W/m 4,4 C -1,3 C 32,2 km/h (5 Bft) 100,00 %
23.12.2017 19:45 7,1 C 3,9 C 83 % 1030,5 hPa 0,0 l/m 20,9 km/h (4 Bft) SW 225 0 min 0,000 mm 0,0 UV-I 0 W/m 4,4 C -0,8 C 29,0 km/h (5 Bft) 95,65 %
23.12.2017 19:46 7,1 C 3,9 C 83 % 1030,5 hPa 0,0 l/m 20,9 km/h (4 Bft) SW 225 0 min 0,000 mm 0,0 UV-I 0 W/m 4,4 C -0,8 C 32,2 km/h (5 Bft) 100,00 %
23.12.2017 19:47 7,1 C 3,9 C 83 % 1030,5 hPa 0,0 l/m 25,7 km/h (4 Bft) SW 225 0 min 0,000 mm 0,0 UV-I 0 W/m 4,4 C -2,3 C 35,4 km/h (5 Bft) 100,00 %
23.12.2017 19:48 7,1 C 3,9 C 83 % 1030,5 hPa 0,0 l/m 19,3 km/h (3 Bft) SW 225 0 min 0,000 mm 0,0 UV-I 0 W/m 4,4 C -0,2 C 25,7 km/h (4 Bft) 100,00 %
23.12.2017 19:49 7,1 C 3,9 C 83 % 1030,5 hPa 0,0 l/m 22,5 km/h (4 Bft) SW 225 0 min 0,000 mm 0,0 UV-I 0 W/m 4,4 C -1,3 C 29,0 km/h (5 Bft) 100,00 %
23.12.2017 19:50 7,1 C 3,9 C 83 % 1030,4 hPa 0,0 l/m 19,3 km/h (3 Bft) SW 225 0 min 0,000 mm 0,0 UV-I 0 W/m 4,4 C -0,2 C 30,6 km/h (5 Bft) 100,00 %
23.12.2017 19:51 7,1 C 3,9 C 83 % 1030,4 hPa 0,0 l/m 25,7 km/h (4 Bft) SW 225 0 min 0,000 mm 0,0 UV-I 0 W/m 4,4 C -2,3 C 40,2 km/h (6 Bft) 95,65 %
23.12.2017 19:52 7,1 C 3,9 C 83 % 1030,4 hPa 0,0 l/m 25,7 km/h (4 Bft) SW 225 0 min 0,000 mm 0,0 UV-I 0 W/m 4,4 C -2,3 C 35,4 km/h (5 Bft) 95,65 %
23.12.2017 19:53 7,1 C 3,9 C 83 % 1030,4 hPa 0,0 l/m 22,5 km/h (4 Bft) W-SW 247 0 min 0,000 mm 0,0 UV-I 0 W/m 4,4 C -1,3 C 32,2 km/h (5 Bft) 100,00 %
23.12.2017 19:54 7,1 C 3,9 C 83 % 1030,4 hPa 0,0 l/m 24,1 km/h (4 Bft) SW 225 0 min 0,000 mm 0,0 UV-I 0 W/m 4,4 C -1,8 C 33,8 km/h (5 Bft) 100,00 %
23.12.2017 19:55 7,1 C 3,9 C 83 % 1030,4 hPa 0,0 l/m 22,5 km/h (4 Bft) SW 225 0 min 0,000 mm 0,0 UV-I 0 W/m 4,4 C -1,3 C 30,6 km/h (5 Bft) 100,00 %
23.12.2017 19:56 7,1 C 3,9 C 83 % 1030,4 hPa 0,0 l/m 27,4 km/h (4 Bft) SW 225 0 min 0,000 mm 0,0 UV-I 0 W/m 4,4 C -2,8 C 35,4 km/h (5 Bft) 100,00 %
23.12.2017 19:57 7,1 C 3,9 C 83 % 1030,4 hPa 0,0 l/m 25,7 km/h (4 Bft) SW 225 0 min 0,000 mm 0,0 UV-I 0 W/m 4,4 C -2,3 C 40,2 km/h (6 Bft) 100,00 %
23.12.2017 19:58 7,1 C 3,9 C 83 % 1030,4 hPa 0,0 l/m 29,0 km/h (5 Bft) W-SW 247 0 min 0,000 mm 0,0 UV-I 0 W/m 4,4 C -3,2 C 38,6 km/h (5 Bft) 100,00 %
23.12.2017 19:59 7,1 C 3,9 C 83 % 1030,4 hPa 0,0 l/m 29,0 km/h (5 Bft) SW 225 0 min 0,000 mm 0,0 UV-I 0 W/m 4,4 C -3,2 C 33,8 km/h (5 Bft) 95,65 %
23.12.2017 20:00 7,1 C 3,9 C 83 % 1030,4 hPa 0,0 l/m 24,1 km/h (4 Bft) SW 225 0 min 0,051 mm 0,0 UV-I 0 W/m 4,4 C -1,8 C 33,8 km/h (5 Bft) 95,65 %
23.12.2017 20:01 7,1 C 3,9 C 83 % 1030,4 hPa 0,0 l/m 24,1 km/h (4 Bft) SW 225 0 min 0,000 mm 0,0 UV-I 0 W/m 4,4 C -1,8 C 35,4 km/h (5 Bft) 95,65 %
23.12.2017 20:02 7,1 C 3,9 C 83 % 1030,4 hPa 0,0 l/m 24,1 km/h (4 Bft) SW 225 0 min 0,000 mm 0,0 UV-I 0 W/m 4,4 C -1,8 C 33,8 km/h (5 Bft) 100,00 %
23.12.2017 20:03 7,1 C 3,9 C 83 % 1030,4 hPa 0,0 l/m 22,5 km/h (4 Bft) SW 225 0 min 0,000 mm 0,0 UV-I 0 W/m 4,4 C -1,3 C 29,0 km/h (5 Bft) 100,00 %
23.12.2017 20:04 7,1 C 3,9 C 83 % 1030,4 hPa 0,0 l/m 27,4 km/h (4 Bft) SW 225 0 min 0,000 mm 0,0 UV-I 0 W/m 4,4 C -2,8 C 35,4 km/h (5 Bft) 100,00 %
23.12.2017 20:05 7,1 C 3,9 C 83 % 1030,4 hPa 0,0 l/m 22,5 km/h (4 Bft) SW 225 0 min 0,000 mm 0,0 UV-I 0 W/m 4,4 C -1,3 C 30,6 km/h (5 Bft) 100,00 %
23.12.2017 20:06 7,1 C 3,9 C 83 % 1030,4 hPa 0,0 l/m 27,4 km/h (4 Bft) SW 225 0 min 0,000 mm 0,0 UV-I 0 W/m 4,4 C -2,8 C 35,4 km/h (5 Bft) 95,65 %
23.12.2017 20:07 7,1 C 3,9 C 83 % 1030,4 hPa 0,0 l/m 22,5 km/h (4 Bft) SW 225 0 min 0,000 mm 0,0 UV-I 0 W/m 4,4 C -1,3 C 32,2 km/h (5 Bft) 100,00 %
23.12.2017 20:08 7,1 C 3,9 C 83 % 1030,4 hPa 0,0 l/m 25,7 km/h (4 Bft) SW 225 0 min 0,000 mm 0,0 UV-I 0 W/m 4,4 C -2,3 C 35,4 km/h (5 Bft) 95,65 %
23.12.2017 20:09 7,1 C 3,9 C 83 % 1030,4 hPa 0,0 l/m 19,3 km/h (3 Bft) SW 225 0 min 0,000 mm 0,0 UV-I 0 W/m 4,4 C -0,2 C 27,4 km/h (4 Bft) 100,00 %
23.12.2017 20:10 7,1 C 3,9 C 83 % 1030,4 hPa 0,0 l/m 27,4 km/h (4 Bft) W-SW 247 0 min 0,000 mm 0,0 UV-I 0 W/m 4,4 C -2,8 C 32,2 km/h (5 Bft) 91,30 %
23.12.2017 20:11 7,1 C 3,9 C 83 % 1030,4 hPa 0,0 l/m 25,7 km/h (4 Bft) SW 225 0 min 0,000 mm 0,0 UV-I 0 W/m 4,4 C -2,3 C 38,6 km/h (5 Bft) 95,65 %
23.12.2017 20:12 7,1 C 3,9 C 83 % 1030,4 hPa 0,0 l/m 25,7 km/h (4 Bft) SW 225 0 min 0,000 mm 0,0 UV-I 0 W/m 4,4 C -2,3 C 30,6 km/h (5 Bft) 100,00 %
23.12.2017 20:13 7,1 C 3,9 C 83 % 1030,5 hPa 0,0 l/m 19,3 km/h (3 Bft) W-SW 247 0 min 0,000 mm 0,0 UV-I 0 W/m 4,4 C -0,2 C 27,4 km/h (4 Bft) 86,96 %
23.12.2017 20:14 7,1 C 3,9 C 83 % 1030,4 hPa 0,0 l/m 24,1 km/h (4 Bft) SW 225 0 min 0,000 mm 0,0 UV-I 0 W/m 4,4 C -1,8 C 30,6 km/h (5 Bft) 100,00 %
23.12.2017 20:15 7,1 C 3,9 C 83 % 1030,5 hPa 0,0 l/m 20,9 km/h (4 Bft) SW 225 0 min 0,000 mm 0,0 UV-I 0 W/m 4,4 C -0,8 C 29,0 km/h (5 Bft) 95,65 %
23.12.2017 20:16 7,1 C 3,9 C 83 % 1030,5 hPa 0,0 l/m 22,5 km/h (4 Bft) SW 225 0 min 0,000 mm 0,0 UV-I 0 W/m 4,4 C -1,3 C 32,2 km/h (5 Bft) 100,00 %
23.12.2017 20:17 7,0 C 3,9 C 83 % 1030,7 hPa 0,0 l/m 20,9 km/h (4 Bft) SW 225 0 min 0,000 mm 0,0 UV-I 0 W/m 4,3 C -0,9 C 29,0 km/h (5 Bft) 95,65 %
23.12.2017 20:18 7,1 C 3,9 C 83 % 1030,7 hPa 0,0 l/m 20,9 km/h (4 Bft) W-SW 247 0 min 0,000 mm 0,0 UV-I 0 W/m 4,4 C -0,8 C 27,4 km/h (4 Bft) 100,00 %
23.12.2017 20:19 7,1 C 3,9 C 83 % 1030,6 hPa 0,0 l/m 19,3 km/h (3 Bft) SW 225 0 min 0,000 mm 0,0 UV-I 0 W/m 4,4 C -0,2 C 30,6 km/h (5 Bft) 95,65 %
23.12.2017 20:20 7,0 C 3,9 C 83 % 1030,7 hPa 0,0 l/m 20,9 km/h (4 Bft) SW 225 0 min 0,000 mm 0,0 UV-I 0 W/m 4,3 C -0,9 C 32,2 km/h (5 Bft) 91,30 %
23.12.2017 20:21 7,1 C 3,9 C 83 % 1030,6 hPa 0,0 l/m 19,3 km/h (3 Bft) W-SW 247 0 min 0,000 mm 0,0 UV-I 0 W/m 4,4 C -0,2 C 27,4 km/h (4 Bft) 95,65 %
23.12.2017 20:22 7,1 C 3,9 C 83 % 1030,7 hPa 0,0 l/m 19,3 km/h (3 Bft) W-SW 247 0 min 0,000 mm 0,0 UV-I 0 W/m 4,4 C -0,2 C 29,0 km/h (5 Bft) 100,00 %
23.12.2017 20:23 7,1 C 3,9 C 83 % 1030,7 hPa 0,0 l/m 19,3 km/h (3 Bft) S-SW 202 0 min 0,000 mm 0,0 UV-I 0 W/m 4,4 C -0,2 C 27,4 km/h (4 Bft) 91,30 %
23.12.2017 20:24 7,1 C 3,9 C 83 % 1030,7 hPa 0,0 l/m 19,3 km/h (3 Bft) SW 225 0 min 0,000 mm 0,0 UV-I 0 W/m 4,4 C -0,2 C 25,7 km/h (4 Bft) 100,00 %
23.12.2017 20:25 7,1 C 3,9 C 83 % 1030,7 hPa 0,0 l/m 17,7 km/h (3 Bft) W-SW 247 0 min 0,000 mm 0,0 UV-I 0 W/m 4,4 C 0,4 C 25,7 km/h (4 Bft) 95,65 %
23.12.2017 20:26 7,1 C 3,9 C 83 % 1030,7 hPa 0,0 l/m 19,3 km/h (3 Bft) SW 225 0 min 0,000 mm 0,0 UV-I 0 W/m 4,4 C -0,2 C 24,1 km/h (4 Bft) 95,65 %
23.12.2017 20:27 7,1 C 3,9 C 83 % 1030,7 hPa 0,0 l/m 19,3 km/h (3 Bft) W-SW 247 0 min 0,000 mm 0,0 UV-I 0 W/m 4,4 C -0,2 C 25,7 km/h (4 Bft) 95,65 %
23.12.2017 20:28 7,1 C 3,9 C 83 % 1030,7 hPa 0,0 l/m 20,9 km/h (4 Bft) SW 225 0 min 0,000 mm 0,0 UV-I 0 W/m 4,4 C -0,8 C 25,7 km/h (4 Bft) 95,65 %
23.12.2017 20:29 7,1 C 3,9 C 83 % 1030,7 hPa 0,0 l/m 14,5 km/h (3 Bft) SW 225 0 min 0,000 mm 0,0 UV-I 0 W/m 4,4 C 1,9 C 22,5 km/h (4 Bft) 100,00 %
23.12.2017 20:30 7,1 C 3,9 C 83 % 1030,8 hPa 0,0 l/m 19,3 km/h (3 Bft) SW 225 0 min 0,000 mm 0,0 UV-I 0 W/m 4,4 C -0,2 C 25,7 km/h (4 Bft) 100,00 %
23.12.2017 20:31 7,1 C 3,9 C 83 % 1030,7 hPa 0,0 l/m 19,3 km/h (3 Bft) SW 225 0 min 0,000 mm 0,0 UV-I 0 W/m 4,4 C -0,2 C 24,1 km/h (4 Bft) 95,65 %
23.12.2017 20:32 7,1 C 3,9 C 83 % 1030,8 hPa 0,0 l/m 16,1 km/h (3 Bft) SW 225 0 min 0,000 mm 0,0 UV-I 0 W/m 4,4 C 1,1 C 22,5 km/h (4 Bft) 100,00 %
23.12.2017 20:33 7,0 C 3,9 C 83 % 1030,7 hPa 0,0 l/m 19,3 km/h (3 Bft) SW 225 0 min 0,000 mm 0,0 UV-I 0 W/m 4,3 C -0,3 C 24,1 km/h (4 Bft) 95,65 %
23.12.2017 20:34 7,0 C 3,9 C 83 % 1030,8 hPa 0,0 l/m 17,7 km/h (3 Bft) W-SW 247 0 min 0,000 mm 0,0 UV-I 0 W/m 4,3 C 0,3 C 25,7 km/h (4 Bft) 91,30 %
23.12.2017 20:35 7,0 C 3,9 C 83 % 1030,8 hPa 0,0 l/m 17,7 km/h (3 Bft) SW 225 0 min 0,000 mm 0,0 UV-I 0 W/m 4,3 C 0,3 C 27,4 km/h (4 Bft) 100,00 %
23.12.2017 20:36 7,0 C 3,9 C 83 % 1030,8 hPa 0,0 l/m 17,7 km/h (3 Bft) SW 225 0 min 0,000 mm 0,0 UV-I 0 W/m 4,3 C 0,3 C 22,5 km/h (4 Bft) 100,00 %
23.12.2017 20:37 7,0 C 3,9 C 83 % 1030,8 hPa 0,0 l/m 14,5 km/h (3 Bft) SW 225 0 min 0,000 mm 0,0 UV-I 0 W/m 4,3 C 1,7 C 24,1 km/h (4 Bft) 100,00 %
23.12.2017 20:38 7,0 C 3,9 C 83 % 1030,8 hPa 0,0 l/m 14,5 km/h (3 Bft) W-SW 247 0 min 0,000 mm 0,0 UV-I 0 W/m 4,3 C 1,7 C 24,1 km/h (4 Bft) 100,00 %
23.12.2017 20:39 7,0 C 3,9 C 83 % 1030,8 hPa 0,0 l/m 14,5 km/h (3 Bft) SW 225 0 min 0,000 mm 0,0 UV-I 0 W/m 4,3 C 1,7 C 17,7 km/h (3 Bft) 100,00 %
23.12.2017 20:40 7,0 C 3,9 C 83 % 1030,9 hPa 0,0 l/m 16,1 km/h (3 Bft) S-SW 202 0 min 0,000 mm 0,0 UV-I 0 W/m 4,3 C 1,0 C 22,5 km/h (4 Bft) 100,00 %
23.12.2017 20:41 7,0 C 3,9 C 83 % 1030,8 hPa 0,0 l/m 16,1 km/h (3 Bft) SW 225 0 min 0,000 mm 0,0 UV-I 0 W/m 4,3 C 1,0 C 22,5 km/h (4 Bft) 95,65 %
23.12.2017 20:42 7,0 C 3,9 C 83 % 1030,8 hPa 0,0 l/m 20,9 km/h (4 Bft) SW 225 0 min 0,000 mm 0,0 UV-I 0 W/m 4,3 C -0,9 C 29,0 km/h (5 Bft) 100,00 %
23.12.2017 20:43 7,0 C 3,9 C 83 % 1030,8 hPa 0,0 l/m 22,5 km/h (4 Bft) W-SW 247 0 min 0,000 mm 0,0 UV-I 0 W/m 4,3 C -1,5 C 29,0 km/h (5 Bft) 100,00 %
23.12.2017 20:44 7,0 C 3,9 C 83 % 1030,8 hPa 0,0 l/m 17,7 km/h (3 Bft) SW 225 0 min 0,000 mm 0,0 UV-I 0 W/m 4,3 C 0,3 C 27,4 km/h (4 Bft) 95,65 %
23.12.2017 20:45 7,0 C 3,9 C 83 % 1030,8 hPa 0,0 l/m 24,1 km/h (4 Bft) W-SW 247 0 min 0,000 mm 0,0 UV-I 0 W/m 4,3 C -2,0 C 33,8 km/h (5 Bft) 100,00 %
23.12.2017 20:46 7,0 C 3,9 C 83 % 1030,8 hPa 0,0 l/m 22,5 km/h (4 Bft) SW 225 0 min 0,000 mm 0,0 UV-I 0 W/m 4,3 C -1,5 C 30,6 km/h (5 Bft) 100,00 %
23.12.2017 20:47 7,0 C 3,9 C 83 % 1030,8 hPa 0,0 l/m 19,3 km/h (3 Bft) SW 225 0 min 0,000 mm 0,0 UV-I 0 W/m 4,3 C -0,3 C 24,1 km/h (4 Bft) 100,00 %
23.12.2017 20:48 7,1 C 3,9 C 83 % 1030,8 hPa 0,0 l/m 20,9 km/h (4 Bft) W-SW 247 0 min 0,000 mm 0,0 UV-I 0 W/m 4,4 C -0,8 C 30,6 km/h (5 Bft) 95,65 %
23.12.2017 20:49 7,0 C 3,9 C 83 % 1030,9 hPa 0,0 l/m 22,5 km/h (4 Bft) SW 225 0 min 0,000 mm 0,0 UV-I 0 W/m 4,3 C -1,5 C 30,6 km/h (5 Bft) 100,00 %
23.12.2017 20:50 7,0 C 3,9 C 83 % 1030,8 hPa 0,0 l/m 17,7 km/h (3 Bft) W-SW 247 0 min 0,000 mm 0,0 UV-I 0 W/m 4,3 C 0,3 C 24,1 km/h (4 Bft) 100,00 %
23.12.2017 20:51 7,0 C 3,9 C 83 % 1030,9 hPa 0,0 l/m 20,9 km/h (4 Bft) SW 225 0 min 0,000 mm 0,0 UV-I 0 W/m 4,3 C -0,9 C 27,4 km/h (4 Bft) 95,65 %
23.12.2017 20:52 7,0 C 3,9 C 83 % 1030,9 hPa 0,0 l/m 22,5 km/h (4 Bft) W-SW 247 0 min 0,000 mm 0,0 UV-I 0 W/m 4,3 C -1,5 C 35,4 km/h (5 Bft) 100,00 %
23.12.2017 20:53 7,0 C 3,9 C 83 % 1031,0 hPa 0,0 l/m 22,5 km/h (4 Bft) W-SW 247 0 min 0,000 mm 0,0 UV-I 0 W/m 4,3 C -1,5 C 27,4 km/h (4 Bft) 95,65 %
23.12.2017 20:54 7,0 C 3,9 C 83 % 1030,8 hPa 0,0 l/m 19,3 km/h (3 Bft) W-SW 247 0 min 0,000 mm 0,0 UV-I 0 W/m 4,3 C -0,3 C 32,2 km/h (5 Bft) 100,00 %
23.12.2017 20:55 7,0 C 3,9 C 83 % 1030,8 hPa 0,0 l/m 19,3 km/h (3 Bft) W-SW 247 0 min 0,000 mm 0,0 UV-I 0 W/m 4,3 C -0,3 C 24,1 km/h (4 Bft) 95,65 %
23.12.2017 20:56 6,9 C 3,9 C 83 % 1030,8 hPa 0,0 l/m 19,3 km/h (3 Bft) W-SW 247 0 min 0,000 mm 0,0 UV-I 0 W/m 4,2 C -0,5 C 29,0 km/h (5 Bft) 100,00 %
23.12.2017 20:57 6,9 C 3,9 C 83 % 1030,8 hPa 0,0 l/m 22,5 km/h (4 Bft) SW 225 0 min 0,000 mm 0,0 UV-I 0 W/m 4,2 C -1,6 C 32,2 km/h (5 Bft) 100,00 %
23.12.2017 20:58 6,9 C 3,9 C 83 % 1030,8 hPa 0,0 l/m 22,5 km/h (4 Bft) SW 225 0 min 0,000 mm 0,0 UV-I 0 W/m 4,2 C -1,6 C 29,0 km/h (5 Bft) 100,00 %
23.12.2017 20:59 6,9 C 3,9 C 83 % 1030,8 hPa 0,0 l/m 19,3 km/h (3 Bft) SW 225 0 min 0,000 mm 0,0 UV-I 0 W/m 4,2 C -0,5 C 27,4 km/h (4 Bft) 100,00 %
23.12.2017 21:00 6,9 C 3,9 C 83 % 1030,8 hPa 0,0 l/m 24,1 km/h (4 Bft) SW 225 0 min 0,025 mm 0,0 UV-I 0 W/m 4,2 C -2,1 C 32,2 km/h (5 Bft) 95,65 %
23.12.2017 21:01 6,9 C 3,9 C 83 % 1030,8 hPa 0,0 l/m 22,5 km/h (4 Bft) SW 225 0 min 0,000 mm 0,0 UV-I 0 W/m 4,2 C -1,6 C 27,4 km/h (4 Bft) 100,00 %
23.12.2017 21:02 7,0 C 3,9 C 83 % 1030,7 hPa 0,0 l/m 24,1 km/h (4 Bft) W-SW 247 0 min 0,000 mm 0,0 UV-I 0 W/m 4,3 C -2,0 C 33,8 km/h (5 Bft) 95,65 %
23.12.2017 21:03 7,0 C 3,9 C 83 % 1030,7 hPa 0,0 l/m 24,1 km/h (4 Bft) SW 225 0 min 0,000 mm 0,0 UV-I 0 W/m 4,3 C -2,0 C 37,0 km/h (5 Bft) 100,00 %
23.12.2017 21:04 7,0 C 3,9 C 83 % 1030,7 hPa 0,0 l/m 19,3 km/h (3 Bft) SW 225 0 min 0,000 mm 0,0 UV-I 0 W/m 4,3 C -0,3 C 25,7 km/h (4 Bft) 95,65 %
23.12.2017 21:05 7,0 C 3,9 C 83 % 1030,7 hPa 0,0 l/m 19,3 km/h (3 Bft) W-SW 247 0 min 0,000 mm 0,0 UV-I 0 W/m 4,3 C -0,3 C 25,7 km/h (4 Bft) 95,65 %
23.12.2017 21:06 7,0 C 3,9 C 83 % 1030,7 hPa 0,0 l/m 20,9 km/h (4 Bft) SW 225 0 min 0,000 mm 0,0 UV-I 0 W/m 4,3 C -0,9 C 30,6 km/h (5 Bft) 95,65 %
23.12.2017 21:07 7,0 C 3,9 C 83 % 1030,7 hPa 0,0 l/m 22,5 km/h (4 Bft) W-SW 247 0 min 0,000 mm 0,0 UV-I 0 W/m 4,3 C -1,5 C 29,0 km/h (5 Bft) 100,00 %
23.12.2017 21:08 7,0 C 3,9 C 83 % 1030,7 hPa 0,0 l/m 20,9 km/h (4 Bft) W-SW 247 0 min 0,000 mm 0,0 UV-I 0 W/m 4,3 C -0,9 C 27,4 km/h (4 Bft) 100,00 %
23.12.2017 21:09 6,9 C 3,9 C 83 % 1030,7 hPa 0,0 l/m 19,3 km/h (3 Bft) SW 225 0 min 0,000 mm 0,0 UV-I 0 W/m 4,2 C -0,5 C 25,7 km/h (4 Bft) 91,30 %
23.12.2017 21:10 6,9 C 3,9 C 83 % 1030,7 hPa 0,0 l/m 17,7 km/h (3 Bft) SW 225 0 min 0,000 mm 0,0 UV-I 0 W/m 4,2 C 0,2 C 24,1 km/h (4 Bft) 95,65 %
23.12.2017 21:11 6,9 C 3,9 C 83 % 1030,7 hPa 0,0 l/m 19,3 km/h (3 Bft) W-SW 247 0 min 0,000 mm 0,0 UV-I 0 W/m 4,2 C -0,5 C 29,0 km/h (5 Bft) 95,65 %
23.12.2017 21:12 6,9 C 3,9 C 84 % 1030,7 hPa 0,0 l/m 22,5 km/h (4 Bft) W-SW 247 0 min 0,000 mm 0,0 UV-I 0 W/m 4,4 C -1,6 C 32,2 km/h (5 Bft) 95,65 %
23.12.2017 21:13 6,9 C 3,9 C 84 % 1030,7 hPa 0,0 l/m 20,9 km/h (4 Bft) W-SW 247 0 min 0,000 mm 0,0 UV-I 0 W/m 4,4 C -1,0 C 30,6 km/h (5 Bft) 100,00 %
23.12.2017 21:14 6,9 C 3,9 C 83 % 1030,6 hPa 0,0 l/m 20,9 km/h (4 Bft) W-SW 247 0 min 0,000 mm 0,0 UV-I 0 W/m 4,2 C -1,0 C 30,6 km/h (5 Bft) 91,30 %
23.12.2017 21:15 6,9 C 3,9 C 83 % 1030,6 hPa 0,0 l/m 20,9 km/h (4 Bft) W-SW 247 0 min 0,000 mm 0,0 UV-I 0 W/m 4,2 C -1,0 C 30,6 km/h (5 Bft) 100,00 %
23.12.2017 21:16 6,9 C 3,9 C 84 % 1030,6 hPa 0,0 l/m 19,3 km/h (3 Bft) W-SW 247 0 min 0,000 mm 0,0 UV-I 0 W/m 4,4 C -0,5 C 25,7 km/h (4 Bft) 95,65 %
23.12.2017 21:17 6,9 C 3,9 C 83 % 1030,5 hPa 0,0 l/m 20,9 km/h (4 Bft) W 270 0 min 0,000 mm 0,0 UV-I 0 W/m 4,2 C -1,0 C 33,8 km/h (5 Bft) 95,65 %
23.12.2017 21:18 7,0 C 3,9 C 83 % 1030,5 hPa 0,0 l/m 20,9 km/h (4 Bft) W-SW 247 0 min 0,000 mm 0,0 UV-I 0 W/m 4,3 C -0,9 C 27,4 km/h (4 Bft) 95,65 %
23.12.2017 21:19 7,0 C 3,9 C 83 % 1030,5 hPa 0,0 l/m 25,7 km/h (4 Bft) W 270 0 min 0,000 mm 0,0 UV-I 0 W/m 4,3 C -2,4 C 41,8 km/h (6 Bft) 95,65 %
23.12.2017 21:20 7,0 C 3,9 C 83 % 1030,4 hPa 0,0 l/m 22,5 km/h (4 Bft) W-SW 247 0 min 0,000 mm 0,0 UV-I 0 W/m 4,3 C -1,5 C 30,6 km/h (5 Bft) 100,00 %
23.12.2017 21:21 7,0 C 3,9 C 83 % 1030,5 hPa 0,0 l/m 19,3 km/h (3 Bft) SW 225 0 min 0,000 mm 0,0 UV-I 0 W/m 4,3 C -0,3 C 25,7 km/h (4 Bft) 95,65 %
23.12.2017 21:22 7,0 C 3,9 C 83 % 1030,4 hPa 0,0 l/m 20,9 km/h (4 Bft) W-SW 247 0 min 0,000 mm 0,0 UV-I 0 W/m 4,3 C -0,9 C 30,6 km/h (5 Bft) 100,00 %
23.12.2017 21:23 7,0 C 3,9 C 83 % 1030,4 hPa 0,0 l/m 25,7 km/h (4 Bft) W-SW 247 0 min 0,000 mm 0,0 UV-I 0 W/m 4,3 C -2,4 C 37,0 km/h (5 Bft) 86,96 %
23.12.2017 21:24 7,0 C 3,9 C 83 % 1030,3 hPa 0,0 l/m 25,7 km/h (4 Bft) W-SW 247 0 min 0,000 mm 0,0 UV-I 0 W/m 4,3 C -2,4 C 32,2 km/h (5 Bft) 95,65 %
23.12.2017 21:25 7,0 C 3,9 C 83 % 1030,4 hPa 0,0 l/m 24,1 km/h (4 Bft) W-SW 247 0 min 0,000 mm 0,0 UV-I 0 W/m 4,3 C -2,0 C 40,2 km/h (6 Bft) 95,65 %
23.12.2017 21:26 7,1 C 3,9 C 83 % 1030,4 hPa 0,0 l/m 30,6 km/h (5 Bft) W-SW 247 0 min 0,000 mm 0,0 UV-I 0 W/m 4,4 C -3,6 C 43,5 km/h (6 Bft) 95,65 %
23.12.2017 21:27 7,1 C 3,9 C 83 % 1030,3 hPa 0,0 l/m 25,7 km/h (4 Bft) SW 225 0 min 0,000 mm 0,0 UV-I 0 W/m 4,4 C -2,3 C 41,8 km/h (6 Bft) 95,65 %
23.12.2017 21:28 7,1 C 3,9 C 83 % 1030,4 hPa 0,0 l/m 25,7 km/h (4 Bft) W-SW 247 0 min 0,000 mm 0,0 UV-I 0 W/m 4,4 C -2,3 C 32,2 km/h (5 Bft) 91,30 %
23.12.2017 21:29 7,1 C 3,9 C 83 % 1030,3 hPa 0,0 l/m 25,7 km/h (4 Bft) SW 225 0 min 0,000 mm 0,0 UV-I 0 W/m 4,4 C -2,3 C 41,8 km/h (6 Bft) 100,00 %
23.12.2017 21:30 7,1 C 3,9 C 83 % 1030,3 hPa 0,0 l/m 25,7 km/h (4 Bft) W-SW 247 0 min 0,000 mm 0,0 UV-I 0 W/m 4,4 C -2,3 C 37,0 km/h (5 Bft) 91,30 %
23.12.2017 21:31 7,1 C 3,9 C 83 % 1030,3 hPa 0,0 l/m 29,0 km/h (5 Bft) W 270 0 min 0,000 mm 0,0 UV-I 0 W/m 4,4 C -3,2 C 33,8 km/h (5 Bft) 95,65 %
23.12.2017 21:32 7,1 C 3,9 C 83 % 1030,3 hPa 0,0 l/m 27,4 km/h (4 Bft) W-SW 247 0 min 0,000 mm 0,0 UV-I 0 W/m 4,4 C -2,8 C 37,0 km/h (5 Bft) 91,30 %
23.12.2017 21:33 7,1 C 3,9 C 83 % 1030,4 hPa 0,0 l/m 24,1 km/h (4 Bft) W-SW 247 0 min 0,000 mm 0,0 UV-I 0 W/m 4,4 C -1,8 C 33,8 km/h (5 Bft) 100,00 %
23.12.2017 21:34 7,1 C 3,9 C 83 % 1030,4 hPa 0,0 l/m 27,4 km/h (4 Bft) W-SW 247 0 min 0,000 mm 0,0 UV-I 0 W/m 4,4 C -2,8 C 32,2 km/h (5 Bft) 91,30 %
23.12.2017 21:35 7,0 C 3,9 C 83 % 1030,3 hPa 0,0 l/m 24,1 km/h (4 Bft) W-SW 247 0 min 0,000 mm 0,0 UV-I 0 W/m 4,3 C -2,0 C 33,8 km/h (5 Bft) 91,30 %
23.12.2017 21:36 7,0 C 3,9 C 83 % 1030,3 hPa 0,0 l/m 19,3 km/h (3 Bft) W-SW 247 0 min 0,000 mm 0,0 UV-I 0 W/m 4,3 C -0,3 C 25,7 km/h (4 Bft) 95,65 %
23.12.2017 21:37 7,0 C 3,9 C 83 % 1030,3 hPa 0,0 l/m 27,4 km/h (4 Bft) W-SW 247 0 min 0,000 mm 0,0 UV-I 0 W/m 4,3 C -2,9 C 35,4 km/h (5 Bft) 91,30 %
23.12.2017 21:38 7,0 C 3,9 C 83 % 1030,2 hPa 0,0 l/m 25,7 km/h (4 Bft) W-SW 247 0 min 0,000 mm 0,0 UV-I 0 W/m 4,3 C -2,4 C 35,4 km/h (5 Bft) 95,65 %
23.12.2017 21:39 7,0 C 3,9 C 83 % 1030,3 hPa 0,0 l/m 27,4 km/h (4 Bft) W 270 0 min 0,000 mm 0,0 UV-I 0 W/m 4,3 C -2,9 C 40,2 km/h (6 Bft) 95,65 %
23.12.2017 21:40 7,1 C 3,9 C 83 % 1030,3 hPa 0,0 l/m 25,7 km/h (4 Bft) W-SW 247 0 min 0,000 mm 0,0 UV-I 0 W/m 4,4 C -2,3 C 45,1 km/h (6 Bft) 95,65 %
23.12.2017 21:41 7,1 C 3,9 C 83 % 1030,3 hPa 0,0 l/m 27,4 km/h (4 Bft) SW 225 0 min 0,000 mm 0,0 UV-I 0 W/m 4,4 C -2,8 C 37,0 km/h (5 Bft) 86,96 %
23.12.2017 21:42 7,1 C 3,9 C 83 % 1030,3 hPa 0,0 l/m 22,5 km/h (4 Bft) W-SW 247 0 min 0,000 mm 0,0 UV-I 0 W/m 4,4 C -1,3 C 37,0 km/h (5 Bft) 95,65 %
23.12.2017 21:43 7,1 C 3,9 C 83 % 1030,3 hPa 0,0 l/m 22,5 km/h (4 Bft) W-SW 247 0 min 0,000 mm 0,0 UV-I 0 W/m 4,4 C -1,3 C 32,2 km/h (5 Bft) 95,65 %
23.12.2017 21:44 7,1 C 3,9 C 83 % 1030,3 hPa 0,0 l/m 25,7 km/h (4 Bft) W 270 0 min 0,000 mm 0,0 UV-I 0 W/m 4,4 C -2,3 C 33,8 km/h (5 Bft) 86,96 %
23.12.2017 21:45 7,0 C 3,9 C 83 % 1030,3 hPa 0,0 l/m 24,1 km/h (4 Bft) W-SW 247 0 min 0,000 mm 0,0 UV-I 0 W/m 4,3 C -2,0 C 32,2 km/h (5 Bft) 95,65 %
23.12.2017 21:46 7,0 C 3,9 C 83 % 1030,3 hPa 0,0 l/m 24,1 km/h (4 Bft) W-SW 247 0 min 0,000 mm 0,0 UV-I 0 W/m 4,3 C -2,0 C 33,8 km/h (5 Bft) 91,30 %
23.12.2017 21:47 7,0 C 3,9 C 83 % 1030,3 hPa 0,0 l/m 24,1 km/h (4 Bft) W 270 0 min 0,000 mm 0,0 UV-I 0 W/m 4,3 C -2,0 C 30,6 km/h (5 Bft) 95,65 %
23.12.2017 21:48 7,0 C 3,9 C 83 % 1030,3 hPa 0,0 l/m 20,9 km/h (4 Bft) W-SW 247 0 min 0,000 mm 0,0 UV-I 0 W/m 4,3 C -0,9 C 29,0 km/h (5 Bft) 95,65 %
23.12.2017 21:49 6,9 C 3,9 C 84 % 1030,4 hPa 0,0 l/m 24,1 km/h (4 Bft) W-SW 247 0 min 0,000 mm 0,0 UV-I 0 W/m 4,4 C -2,1 C 32,2 km/h (5 Bft) 95,65 %
23.12.2017 21:50 7,0 C 3,9 C 84 % 1030,4 hPa 0,0 l/m 20,9 km/h (4 Bft) W-SW 247 0 min 0,000 mm 0,0 UV-I 0 W/m 4,5 C -0,9 C 32,2 km/h (5 Bft) 100,00 %
23.12.2017 21:51 6,9 C 3,9 C 84 % 1030,4 hPa 0,0 l/m 19,3 km/h (3 Bft) W-SW 247 0 min 0,000 mm 0,0 UV-I 0 W/m 4,4 C -0,5 C 30,6 km/h (5 Bft) 91,30 %
23.12.2017 21:52 7,0 C 3,9 C 84 % 1030,3 hPa 0,0 l/m 27,4 km/h (4 Bft) W-SW 247 0 min 0,000 mm 0,0 UV-I 0 W/m 4,5 C -2,9 C 38,6 km/h (5 Bft) 100,00 %
23.12.2017 21:53 6,9 C 3,9 C 84 % 1030,4 hPa 0,0 l/m 24,1 km/h (4 Bft) W-SW 247 0 min 0,000 mm 0,0 UV-I 0 W/m 4,4 C -2,1 C 33,8 km/h (5 Bft) 100,00 %
23.12.2017 21:54 6,9 C 3,9 C 84 % 1030,3 hPa 0,0 l/m 20,9 km/h (4 Bft) W-SW 247 0 min 0,000 mm 0,0 UV-I 0 W/m 4,4 C -1,0 C 29,0 km/h (5 Bft) 100,00 %
23.12.2017 21:55 6,9 C 3,9 C 84 % 1030,4 hPa 0,0 l/m 19,3 km/h (3 Bft) W-SW 247 0 min 0,000 mm 0,0 UV-I 0 W/m 4,4 C -0,5 C 25,7 km/h (4 Bft) 100,00 %
23.12.2017 21:56 6,9 C 3,9 C 84 % 1030,3 hPa 0,0 l/m 24,1 km/h (4 Bft) W-SW 247 0 min 0,000 mm 0,0 UV-I 0 W/m 4,4 C -2,1 C 35,4 km/h (5 Bft) 100,00 %
23.12.2017 21:57 6,9 C 3,9 C 84 % 1030,4 hPa 0,0 l/m 22,5 km/h (4 Bft) W-SW 247 0 min 0,000 mm 0,0 UV-I 0 W/m 4,4 C -1,6 C 29,0 km/h (5 Bft) 95,65 %
23.12.2017 21:58 6,9 C 3,9 C 84 % 1030,4 hPa 0,0 l/m 20,9 km/h (4 Bft) W-SW 247 0 min 0,000 mm 0,0 UV-I 0 W/m 4,4 C -1,0 C 29,0 km/h (5 Bft) 95,65 %
23.12.2017 21:59 6,9 C 3,9 C 84 % 1030,4 hPa 0,0 l/m 24,1 km/h (4 Bft) W-SW 247 0 min 0,000 mm 0,0 UV-I 0 W/m 4,4 C -2,1 C 33,8 km/h (5 Bft) 100,00 %
23.12.2017 22:00 6,9 C 3,9 C 84 % 1030,4 hPa 0,0 l/m 20,9 km/h (4 Bft) W-SW 247 0 min 0,051 mm 0,0 UV-I 0 W/m 4,4 C -1,0 C 29,0 km/h (5 Bft) 100,00 %
23.12.2017 22:01 6,9 C 3,9 C 84 % 1030,3 hPa 0,0 l/m 24,1 km/h (4 Bft) W-SW 247 0 min 0,000 mm 0,0 UV-I 0 W/m 4,4 C -2,1 C 38,6 km/h (5 Bft) 100,00 %
23.12.2017 22:02 6,9 C 3,9 C 84 % 1030,4 hPa 0,0 l/m 22,5 km/h (4 Bft) SW 225 0 min 0,000 mm 0,0 UV-I 0 W/m 4,4 C -1,6 C 33,8 km/h (5 Bft) 100,00 %
23.12.2017 22:03 6,9 C 3,9 C 84 % 1030,4 hPa 0,0 l/m 20,9 km/h (4 Bft) W-SW 247 0 min 0,000 mm 0,0 UV-I 0 W/m 4,4 C -1,0 C 29,0 km/h (5 Bft) 100,00 %
23.12.2017 22:04 6,9 C 3,9 C 84 % 1030,5 hPa 0,0 l/m 19,3 km/h (3 Bft) W-SW 247 0 min 0,000 mm 0,0 UV-I 0 W/m 4,4 C -0,5 C 25,7 km/h (4 Bft) 100,00 %
23.12.2017 22:05 6,9 C 3,9 C 84 % 1030,4 hPa 0,0 l/m 19,3 km/h (3 Bft) W-SW 247 0 min 0,000 mm 0,0 UV-I 0 W/m 4,4 C -0,5 C 24,1 km/h (4 Bft) 95,65 %
23.12.2017 22:06 6,9 C 3,9 C 84 % 1030,5 hPa 0,0 l/m 19,3 km/h (3 Bft) W-SW 247 0 min 0,000 mm 0,0 UV-I 0 W/m 4,4 C -0,5 C 24,1 km/h (4 Bft) 95,65 %
23.12.2017 22:07 6,9 C 3,9 C 84 % 1030,4 hPa 0,0 l/m 19,3 km/h (3 Bft) W-SW 247 0 min 0,000 mm 0,0 UV-I 0 W/m 4,4 C -0,5 C 25,7 km/h (4 Bft) 100,00 %
23.12.2017 22:08 6,8 C 3,9 C 84 % 1030,5 hPa 0,0 l/m 19,3 km/h (3 Bft) W-SW 247 0 min 0,000 mm 0,0 UV-I 0 W/m 4,3 C -0,6 C 25,7 km/h (4 Bft) 95,65 %
23.12.2017 22:09 6,8 C 3,9 C 84 % 1030,5 hPa 0,0 l/m 20,9 km/h (4 Bft) W-SW 247 0 min 0,000 mm 0,0 UV-I 0 W/m 4,3 C -1,2 C 29,0 km/h (5 Bft) 100,00 %
23.12.2017 22:10 6,8 C 3,9 C 84 % 1030,5 hPa 0,0 l/m 12,9 km/h (3 Bft) W-SW 247 0 min 0,000 mm 0,0 UV-I 0 W/m 4,3 C 2,3 C 17,7 km/h (3 Bft) 95,65 %
23.12.2017 22:11 6,8 C 3,9 C 84 % 1030,6 hPa 0,0 l/m 17,7 km/h (3 Bft) W-SW 247 0 min 0,000 mm 0,0 UV-I 0 W/m 4,3 C 0,1 C 22,5 km/h (4 Bft) 100,00 %
23.12.2017 22:12 6,8 C 3,9 C 84 % 1030,5 hPa 0,0 l/m 19,3 km/h (3 Bft) W-SW 247 0 min 0,000 mm 0,0 UV-I 0 W/m 4,3 C -0,6 C 24,1 km/h (4 Bft) 95,65 %
23.12.2017 22:13 6,8 C 3,9 C 84 % 1030,6 hPa 0,0 l/m 19,3 km/h (3 Bft) W-SW 247 0 min 0,000 mm 0,0 UV-I 0 W/m 4,3 C -0,6 C 25,7 km/h (4 Bft) 100,00 %
23.12.2017 22:14 6,8 C 3,9 C 84 % 1030,6 hPa 0,0 l/m 16,1 km/h (3 Bft) W-SW 247 0 min 0,000 mm 0,0 UV-I 0 W/m 4,3 C 0,7 C 27,4 km/h (4 Bft) 100,00 %
23.12.2017 22:15 6,8 C 3,9 C 84 % 1030,6 hPa 0,0 l/m 16,1 km/h (3 Bft) W-SW 247 0 min 0,000 mm 0,0 UV-I 0 W/m 4,3 C 0,7 C 20,9 km/h (4 Bft) 100,00 %
23.12.2017 22:16 6,8 C 3,9 C 84 % 1030,6 hPa 0,0 l/m 19,3 km/h (3 Bft) W-SW 247 0 min 0,000 mm 0,0 UV-I 0 W/m 4,3 C -0,6 C 25,7 km/h (4 Bft) 100,00 %
23.12.2017 22:17 6,8 C 3,9 C 84 % 1030,6 hPa 0,0 l/m 22,5 km/h (4 Bft) W-SW 247 0 min 0,000 mm 0,0 UV-I 0 W/m 4,3 C -1,7 C 29,0 km/h (5 Bft) 100,00 %
23.12.2017 22:18 6,8 C 3,9 C 84 % 1030,6 hPa 0,0 l/m 19,3 km/h (3 Bft) W-SW 247 0 min 0,000 mm 0,0 UV-I 0 W/m 4,3 C -0,6 C 22,5 km/h (4 Bft) 100,00 %
23.12.2017 22:19 6,8 C 3,9 C 84 % 1030,6 hPa 0,0 l/m 19,3 km/h (3 Bft) W-SW 247 0 min 0,000 mm 0,0 UV-I 0 W/m 4,3 C -0,6 C 24,1 km/h (4 Bft) 95,65 %
23.12.2017 22:20 6,8 C 3,9 C 84 % 1030,6 hPa 0,0 l/m 16,1 km/h (3 Bft) W-SW 247 0 min 0,000 mm 0,0 UV-I 0 W/m 4,3 C 0,7 C 22,5 km/h (4 Bft) 100,00 %
23.12.2017 22:21 6,8 C 3,9 C 84 % 1030,6 hPa 0,0 l/m 16,1 km/h (3 Bft) SW 225 0 min 0,000 mm 0,0 UV-I 0 W/m 4,3 C 0,7 C 20,9 km/h (4 Bft) 95,65 %
23.12.2017 22:22 6,8 C 3,9 C 84 % 1030,6 hPa 0,0 l/m 19,3 km/h (3 Bft) W-SW 247 0 min 0,000 mm 0,0 UV-I 0 W/m 4,3 C -0,6 C 25,7 km/h (4 Bft) 100,00 %
23.12.2017 22:23 6,8 C 3,9 C 84 % 1030,6 hPa 0,0 l/m 16,1 km/h (3 Bft) W-SW 247 0 min 0,000 mm 0,0 UV-I 0 W/m 4,3 C 0,7 C 22,5 km/h (4 Bft) 100,00 %
23.12.2017 22:24 6,8 C 3,9 C 84 % 1030,6 hPa 0,0 l/m 16,1 km/h (3 Bft) W-SW 247 0 min 0,000 mm 0,0 UV-I 0 W/m 4,3 C 0,7 C 24,1 km/h (4 Bft) 100,00 %
23.12.2017 22:25 6,8 C 3,9 C 84 % 1030,6 hPa 0,0 l/m 17,7 km/h (3 Bft) W-SW 247 0 min 0,000 mm 0,0 UV-I 0 W/m 4,3 C 0,1 C 27,4 km/h (4 Bft) 100,00 %
23.12.2017 22:26 6,7 C 3,9 C 84 % 1030,6 hPa 0,0 l/m 19,3 km/h (3 Bft) W-SW 247 0 min 0,000 mm 0,0 UV-I 0 W/m 4,2 C -0,7 C 27,4 km/h (4 Bft) 95,65 %
23.12.2017 22:27 6,7 C 3,9 C 85 % 1030,6 hPa 0,0 l/m 14,5 km/h (3 Bft) W-SW 247 0 min 0,000 mm 0,0 UV-I 0 W/m 4,4 C 1,4 C 19,3 km/h (3 Bft) 100,00 %
23.12.2017 22:28 6,8 C 3,9 C 84 % 1030,6 hPa 0,0 l/m 16,1 km/h (3 Bft) SW 225 0 min 0,000 mm 0,0 UV-I 0 W/m 4,3 C 0,7 C 24,1 km/h (4 Bft) 100,00 %
23.12.2017 22:29 6,7 C 3,9 C 85 % 1030,6 hPa 0,0 l/m 20,9 km/h (4 Bft) W-SW 247 0 min 0,000 mm 0,0 UV-I 0 W/m 4,4 C -1,3 C 30,6 km/h (5 Bft) 100,00 %
23.12.2017 22:30 6,7 C 3,9 C 84 % 1030,6 hPa 0,0 l/m 17,7 km/h (3 Bft) W-SW 247 0 min 0,000 mm 0,0 UV-I 0 W/m 4,2 C -0,1 C 25,7 km/h (4 Bft) 100,00 %
23.12.2017 22:31 6,7 C 3,9 C 84 % 1030,7 hPa 0,0 l/m 17,7 km/h (3 Bft) W-SW 247 0 min 0,000 mm 0,0 UV-I 0 W/m 4,2 C -0,1 C 27,4 km/h (4 Bft) 100,00 %
23.12.2017 22:32 6,8 C 3,9 C 84 % 1030,6 hPa 0,0 l/m 19,3 km/h (3 Bft) W-SW 247 0 min 0,000 mm 0,0 UV-I 0 W/m 4,3 C -0,6 C 27,4 km/h (4 Bft) 100,00 %
23.12.2017 22:33 6,8 C 3,9 C 84 % 1030,7 hPa 0,0 l/m 20,9 km/h (4 Bft) W-SW 247 0 min 0,000 mm 0,0 UV-I 0 W/m 4,3 C -1,2 C 24,1 km/h (4 Bft) 13,04 %
23.12.2017 22:34 6,7 C 3,9 C 85 % 1030,7 hPa 0,0 l/m 16,1 km/h (3 Bft) W-SW 247 0 min 0,000 mm 0,0 UV-I 0 W/m 4,4 C 0,6 C 20,9 km/h (4 Bft) 56,52 %
23.12.2017 22:35 6,7 C 3,9 C 84 % 1030,7 hPa 0,0 l/m 19,3 km/h (3 Bft) SW 225 0 min 0,000 mm 0,0 UV-I 0 W/m 4,2 C -0,7 C 25,7 km/h (4 Bft) 100,00 %
23.12.2017 22:36 6,7 C 3,9 C 84 % 1030,7 hPa 0,0 l/m 20,9 km/h (4 Bft) W-SW 247 0 min 0,000 mm 0,0 UV-I 0 W/m 4,2 C -1,3 C 32,2 km/h (5 Bft) 100,00 %
23.12.2017 22:37 6,7 C 3,9 C 84 % 1030,7 hPa 0,0 l/m 17,7 km/h (3 Bft) SW 225 0 min 0,000 mm 0,0 UV-I 0 W/m 4,2 C -0,1 C 24,1 km/h (4 Bft) 100,00 %
23.12.2017 22:38 6,7 C 3,9 C 84 % 1030,7 hPa 0,0 l/m 24,1 km/h (4 Bft) SW 225 0 min 0,000 mm 0,0 UV-I 0 W/m 4,2 C -2,4 C 30,6 km/h (5 Bft) 100,00 %
23.12.2017 22:39 6,7 C 3,9 C 84 % 1030,7 hPa 0,0 l/m 22,5 km/h (4 Bft) SW 225 0 min 0,000 mm 0,0 UV-I 0 W/m 4,2 C -1,9 C 27,4 km/h (4 Bft) 100,00 %
23.12.2017 22:40 6,8 C 3,9 C 84 % 1030,7 hPa 0,0 l/m 20,9 km/h (4 Bft) SW 225 0 min 0,000 mm 0,0 UV-I 0 W/m 4,3 C -1,2 C 29,0 km/h (5 Bft) 100,00 %
23.12.2017 22:41 6,7 C 3,9 C 84 % 1030,7 hPa 0,0 l/m 17,7 km/h (3 Bft) SW 225 0 min 0,000 mm 0,0 UV-I 0 W/m 4,2 C -0,1 C 22,5 km/h (4 Bft) 95,65 %
23.12.2017 22:42 6,8 C 3,9 C 84 % 1030,8 hPa 0,0 l/m 16,1 km/h (3 Bft) SW 225 0 min 0,000 mm 0,0 UV-I 0 W/m 4,3 C 0,7 C 25,7 km/h (4 Bft) 100,00 %
23.12.2017 22:43 6,7 C 3,9 C 84 % 1030,7 hPa 0,0 l/m 14,5 km/h (3 Bft) SW 225 0 min 0,000 mm 0,0 UV-I 0 W/m 4,2 C 1,4 C 19,3 km/h (3 Bft) 95,65 %
23.12.2017 22:44 6,7 C 3,9 C 84 % 1030,7 hPa 0,0 l/m 19,3 km/h (3 Bft) SW 225 0 min 0,000 mm 0,0 UV-I 0 W/m 4,2 C -0,7 C 29,0 km/h (5 Bft) 100,00 %
23.12.2017 22:45 6,7 C 3,9 C 85 % 1030,8 hPa 0,0 l/m 17,7 km/h (3 Bft) SW 225 0 min 0,000 mm 0,0 UV-I 0 W/m 4,4 C -0,1 C 27,4 km/h (4 Bft) 100,00 %
23.12.2017 22:46 6,7 C 3,9 C 85 % 1030,8 hPa 0,0 l/m 16,1 km/h (3 Bft) SW 225 0 min 0,000 mm 0,0 UV-I 0 W/m 4,4 C 0,6 C 22,5 km/h (4 Bft) 100,00 %
23.12.2017 22:47 6,7 C 3,9 C 85 % 1030,7 hPa 0,0 l/m 25,7 km/h (4 Bft) SW 225 0 min 0,000 mm 0,0 UV-I 0 W/m 4,4 C -2,8 C 35,4 km/h (5 Bft) 100,00 %
23.12.2017 22:48 6,7 C 3,9 C 84 % 1030,8 hPa 0,0 l/m 20,9 km/h (4 Bft) W-SW 247 0 min 0,000 mm 0,0 UV-I 0 W/m 4,2 C -1,3 C 30,6 km/h (5 Bft) 95,65 %
23.12.2017 22:49 6,7 C 3,9 C 84 % 1030,7 hPa 0,0 l/m 20,9 km/h (4 Bft) W-SW 247 0 min 0,000 mm 0,0 UV-I 0 W/m 4,2 C -1,3 C 30,6 km/h (5 Bft) 100,00 %
23.12.2017 22:50 6,7 C 3,9 C 84 % 1030,7 hPa 0,0 l/m 19,3 km/h (3 Bft) W-SW 247 0 min 0,000 mm 0,0 UV-I 0 W/m 4,2 C -0,7 C 27,4 km/h (4 Bft) 100,00 %
23.12.2017 22:51 6,7 C 3,9 C 84 % 1030,8 hPa 0,0 l/m 24,1 km/h (4 Bft) SW 225 0 min 0,000 mm 0,0 UV-I 0 W/m 4,2 C -2,4 C 33,8 km/h (5 Bft) 100,00 %
23.12.2017 22:52 6,7 C 3,9 C 84 % 1030,8 hPa 0,0 l/m 20,9 km/h (4 Bft) SW 225 0 min 0,000 mm 0,0 UV-I 0 W/m 4,2 C -1,3 C 29,0 km/h (5 Bft) 100,00 %
23.12.2017 22:53 6,7 C 3,9 C 84 % 1030,8 hPa 0,0 l/m 20,9 km/h (4 Bft) SW 225 0 min 0,000 mm 0,0 UV-I 0 W/m 4,2 C -1,3 C 25,7 km/h (4 Bft) 95,65 %
23.12.2017 22:54 6,7 C 3,9 C 84 % 1030,7 hPa 0,0 l/m 17,7 km/h (3 Bft) SW 225 0 min 0,000 mm 0,0 UV-I 0 W/m 4,2 C -0,1 C 24,1 km/h (4 Bft) 100,00 %
23.12.2017 22:55 6,7 C 3,9 C 84 % 1030,8 hPa 0,0 l/m 19,3 km/h (3 Bft) SW 225 0 min 0,000 mm 0,0 UV-I 0 W/m 4,2 C -0,7 C 29,0 km/h (5 Bft) 91,30 %
23.12.2017 22:56 6,7 C 3,9 C 84 % 1030,8 hPa 0,0 l/m 24,1 km/h (4 Bft) SW 225 0 min 0,000 mm 0,0 UV-I 0 W/m 4,2 C -2,4 C 32,2 km/h (5 Bft) 100,00 %
23.12.2017 22:57 6,7 C 3,9 C 85 % 1030,7 hPa 0,0 l/m 19,3 km/h (3 Bft) SW 225 0 min 0,000 mm 0,0 UV-I 0 W/m 4,4 C -0,7 C 27,4 km/h (4 Bft) 95,65 %
23.12.2017 22:58 6,7 C 3,9 C 85 % 1030,8 hPa 0,0 l/m 19,3 km/h (3 Bft) W-SW 247 0 min 0,000 mm 0,0 UV-I 0 W/m 4,4 C -0,7 C 27,4 km/h (4 Bft) 95,65 %
23.12.2017 22:59 6,7 C 3,9 C 85 % 1030,7 hPa 0,0 l/m 19,3 km/h (3 Bft) SW 225 0 min 0,000 mm 0,0 UV-I 0 W/m 4,4 C -0,7 C 25,7 km/h (4 Bft) 95,65 %
23.12.2017 23:00 6,7 C 3,9 C 85 % 1030,8 hPa 0,0 l/m 24,1 km/h (4 Bft) SW 225 0 min 0,025 mm 0,0 UV-I 0 W/m 4,4 C -2,4 C 33,8 km/h (5 Bft) 100,00 %
23.12.2017 23:01 6,7 C 3,9 C 85 % 1030,7 hPa 0,0 l/m 22,5 km/h (4 Bft) SW 225 0 min 0,000 mm 0,0 UV-I 0 W/m 4,4 C -1,9 C 29,0 km/h (5 Bft) 95,65 %
23.12.2017 23:02 6,7 C 3,9 C 85 % 1030,8 hPa 0,0 l/m 20,9 km/h (4 Bft) SW 225 0 min 0,000 mm 0,0 UV-I 0 W/m 4,4 C -1,3 C 24,1 km/h (4 Bft) 95,65 %
23.12.2017 23:03 6,7 C 3,9 C 85 % 1030,8 hPa 0,0 l/m 17,7 km/h (3 Bft) SW 225 0 min 0,000 mm 0,0 UV-I 0 W/m 4,4 C -0,1 C 20,9 km/h (4 Bft) 95,65 %
23.12.2017 23:04 6,7 C 3,9 C 85 % 1030,8 hPa 0,0 l/m 17,7 km/h (3 Bft) SW 225 0 min 0,000 mm 0,0 UV-I 0 W/m 4,4 C -0,1 C 22,5 km/h (4 Bft) 95,65 %
23.12.2017 23:05 6,7 C 3,9 C 85 % 1030,7 hPa 0,0 l/m 22,5 km/h (4 Bft) SW 225 0 min 0,000 mm 0,0 UV-I 0 W/m 4,4 C -1,9 C 27,4 km/h (4 Bft) 95,65 %
23.12.2017 23:06 6,7 C 3,9 C 85 % 1030,7 hPa 0,0 l/m 20,9 km/h (4 Bft) W-SW 247 0 min 0,000 mm 0,0 UV-I 0 W/m 4,4 C -1,3 C 25,7 km/h (4 Bft) 95,65 %
23.12.2017 23:07 6,7 C 3,9 C 85 % 1030,7 hPa 0,0 l/m 19,3 km/h (3 Bft) SW 225 0 min 0,000 mm 0,0 UV-I 0 W/m 4,4 C -0,7 C 30,6 km/h (5 Bft) 100,00 %
23.12.2017 23:08 6,7 C 3,9 C 85 % 1030,7 hPa 0,0 l/m 17,7 km/h (3 Bft) SW 225 0 min 0,000 mm 0,0 UV-I 0 W/m 4,4 C -0,1 C 24,1 km/h (4 Bft) 95,65 %
23.12.2017 23:09 6,7 C 3,9 C 85 % 1030,8 hPa 0,0 l/m 20,9 km/h (4 Bft) SW 225 0 min 0,000 mm 0,0 UV-I 0 W/m 4,4 C -1,3 C 30,6 km/h (5 Bft) 91,30 %
23.12.2017 23:10 6,7 C 3,9 C 85 % 1030,8 hPa 0,0 l/m 22,5 km/h (4 Bft) SW 225 0 min 0,000 mm 0,0 UV-I 0 W/m 4,4 C -1,9 C 32,2 km/h (5 Bft) 95,65 %
23.12.2017 23:11 6,7 C 3,9 C 85 % 1030,7 hPa 0,0 l/m 20,9 km/h (4 Bft) SW 225 0 min 0,000 mm 0,0 UV-I 0 W/m 4,4 C -1,3 C 33,8 km/h (5 Bft) 91,30 %
23.12.2017 23:12 6,7 C 3,9 C 85 % 1030,7 hPa 0,0 l/m 20,9 km/h (4 Bft) SW 225 0 min 0,000 mm 0,0 UV-I 0 W/m 4,4 C -1,3 C 29,0 km/h (5 Bft) 95,65 %
23.12.2017 23:13 6,7 C 3,9 C 84 % 1030,7 hPa 0,0 l/m 17,7 km/h (3 Bft) SW 225 0 min 0,000 mm 0,0 UV-I 0 W/m 4,2 C -0,1 C 24,1 km/h (4 Bft) 95,65 %
23.12.2017 23:14 6,7 C 3,9 C 85 % 1030,7 hPa 0,0 l/m 16,1 km/h (3 Bft) W-SW 247 0 min 0,000 mm 0,0 UV-I 0 W/m 4,4 C 0,6 C 22,5 km/h (4 Bft) 95,65 %
23.12.2017 23:15 6,7 C 3,9 C 85 % 1030,7 hPa 0,0 l/m 17,7 km/h (3 Bft) SW 225 0 min 0,000 mm 0,0 UV-I 0 W/m 4,4 C -0,1 C 24,1 km/h (4 Bft) 100,00 %
23.12.2017 23:16 6,7 C 3,9 C 85 % 1030,7 hPa 0,0 l/m 19,3 km/h (3 Bft) SW 225 0 min 0,000 mm 0,0 UV-I 0 W/m 4,4 C -0,7 C 29,0 km/h (5 Bft) 95,65 %
23.12.2017 23:17 6,7 C 3,9 C 85 % 1030,6 hPa 0,0 l/m 19,3 km/h (3 Bft) SW 225 0 min 0,000 mm 0,0 UV-I 0 W/m 4,4 C -0,7 C 29,0 km/h (5 Bft) 100,00 %
23.12.2017 23:18 6,7 C 3,9 C 85 % 1030,7 hPa 0,0 l/m 19,3 km/h (3 Bft) SW 225 0 min 0,000 mm 0,0 UV-I 0 W/m 4,4 C -0,7 C 25,7 km/h (4 Bft) 95,65 %
23.12.2017 23:19 6,7 C 3,9 C 85 % 1030,6 hPa 0,0 l/m 20,9 km/h (4 Bft) W-SW 247 0 min 0,000 mm 0,0 UV-I 0 W/m 4,4 C -1,3 C 29,0 km/h (5 Bft) 95,65 %
23.12.2017 23:20 6,7 C 3,9 C 84 % 1030,7 hPa 0,0 l/m 24,1 km/h (4 Bft) W-SW 247 0 min 0,000 mm 0,0 UV-I 0 W/m 4,2 C -2,4 C 35,4 km/h (5 Bft) 100,00 %
23.12.2017 23:21 6,7 C 3,9 C 84 % 1030,6 hPa 0,0 l/m 22,5 km/h (4 Bft) W-SW 247 0 min 0,000 mm 0,0 UV-I 0 W/m 4,2 C -1,9 C 33,8 km/h (5 Bft) 95,65 %
23.12.2017 23:22 6,7 C 3,9 C 84 % 1030,6 hPa 0,0 l/m 22,5 km/h (4 Bft) SW 225 0 min 0,000 mm 0,0 UV-I 0 W/m 4,2 C -1,9 C 32,2 km/h (5 Bft) 100,00 %
23.12.2017 23:23 6,7 C 3,9 C 84 % 1030,6 hPa 0,0 l/m 19,3 km/h (3 Bft) SW 225 0 min 0,000 mm 0,0 UV-I 0 W/m 4,2 C -0,7 C 29,0 km/h (5 Bft) 91,30 %
23.12.2017 23:24 6,7 C 3,9 C 84 % 1030,5 hPa 0,0 l/m 19,3 km/h (3 Bft) W-SW 247 0 min 0,000 mm 0,0 UV-I 0 W/m 4,2 C -0,7 C 29,0 km/h (5 Bft) 100,00 %
23.12.2017 23:25 6,7 C 3,9 C 84 % 1030,5 hPa 0,0 l/m 20,9 km/h (4 Bft) W-SW 247 0 min 0,000 mm 0,0 UV-I 0 W/m 4,2 C -1,3 C 29,0 km/h (5 Bft) 95,65 %
23.12.2017 23:26 6,7 C 3,9 C 84 % 1030,5 hPa 0,0 l/m 25,7 km/h (4 Bft) W-SW 247 0 min 0,000 mm 0,0 UV-I 0 W/m 4,2 C -2,8 C 37,0 km/h (5 Bft) 100,00 %
23.12.2017 23:27 6,7 C 3,9 C 84 % 1030,5 hPa 0,0 l/m 25,7 km/h (4 Bft) SW 225 0 min 0,000 mm 0,0 UV-I 0 W/m 4,2 C -2,8 C 32,2 km/h (5 Bft) 95,65 %
23.12.2017 23:28 6,7 C 3,9 C 84 % 1030,5 hPa 0,0 l/m 24,1 km/h (4 Bft) SW 225 0 min 0,000 mm 0,0 UV-I 0 W/m 4,2 C -2,4 C 32,2 km/h (5 Bft) 91,30 %
23.12.2017 23:29 6,7 C 3,9 C 84 % 1030,5 hPa 0,0 l/m 20,9 km/h (4 Bft) SW 225 0 min 0,000 mm 0,0 UV-I 0 W/m 4,2 C -1,3 C 29,0 km/h (5 Bft) 100,00 %
23.12.2017 23:30 6,7 C 3,9 C 84 % 1030,5 hPa 0,0 l/m 22,5 km/h (4 Bft) SW 225 0 min 0,000 mm 0,0 UV-I 0 W/m 4,2 C -1,9 C 27,4 km/h (4 Bft) 91,30 %
23.12.2017 23:31 6,7 C 3,9 C 84 % 1030,5 hPa 0,0 l/m 17,7 km/h (3 Bft) W-SW 247 0 min 0,000 mm 0,0 UV-I 0 W/m 4,2 C -0,1 C 22,5 km/h (4 Bft) 100,00 %
23.12.2017 23:32 6,7 C 3,9 C 84 % 1030,5 hPa 0,0 l/m 24,1 km/h (4 Bft) W-SW 247 0 min 0,000 mm 0,0 UV-I 0 W/m 4,2 C -2,4 C 33,8 km/h (5 Bft) 95,65 %
23.12.2017 23:33 6,7 C 3,9 C 84 % 1030,5 hPa 0,0 l/m 19,3 km/h (3 Bft) W-SW 247 0 min 0,000 mm 0,0 UV-I 0 W/m 4,2 C -0,7 C 24,1 km/h (4 Bft) 95,65 %
23.12.2017 23:34 6,7 C 3,9 C 84 % 1030,5 hPa 0,0 l/m 17,7 km/h (3 Bft) SW 225 0 min 0,000 mm 0,0 UV-I 0 W/m 4,2 C -0,1 C 25,7 km/h (4 Bft) 95,65 %
23.12.2017 23:35 6,7 C 3,9 C 84 % 1030,5 hPa 0,0 l/m 17,7 km/h (3 Bft) SW 225 0 min 0,000 mm 0,0 UV-I 0 W/m 4,2 C -0,1 C 22,5 km/h (4 Bft) 100,00 %
23.12.2017 23:36 6,7 C 3,9 C 84 % 1030,5 hPa 0,0 l/m 17,7 km/h (3 Bft) W-SW 247 0 min 0,000 mm 0,0 UV-I 0 W/m 4,2 C -0,1 C 25,7 km/h (4 Bft) 95,65 %
23.12.2017 23:37 6,7 C 3,9 C 85 % 1030,5 hPa 0,0 l/m 19,3 km/h (3 Bft) SW 225 0 min 0,000 mm 0,0 UV-I 0 W/m 4,4 C -0,7 C 27,4 km/h (4 Bft) 91,30 %
23.12.2017 23:38 6,7 C 3,9 C 85 % 1030,6 hPa 0,0 l/m 14,5 km/h (3 Bft) W-SW 247 0 min 0,000 mm 0,0 UV-I 0 W/m 4,4 C 1,4 C 22,5 km/h (4 Bft) 100,00 %
23.12.2017 23:39 6,7 C 3,9 C 85 % 1030,5 hPa 0,0 l/m 22,5 km/h (4 Bft) SW 225 0 min 0,000 mm 0,0 UV-I 0 W/m 4,4 C -1,9 C 30,6 km/h (5 Bft) 95,65 %
23.12.2017 23:40 6,7 C 3,9 C 85 % 1030,5 hPa 0,0 l/m 22,5 km/h (4 Bft) SW 225 0 min 0,000 mm 0,0 UV-I 0 W/m 4,4 C -1,9 C 30,6 km/h (5 Bft) 95,65 %
23.12.2017 23:41 6,7 C 3,9 C 85 % 1030,5 hPa 0,0 l/m 24,1 km/h (4 Bft) W-SW 247 0 min 0,000 mm 0,0 UV-I 0 W/m 4,4 C -2,4 C 32,2 km/h (5 Bft) 91,30 %
23.12.2017 23:42 6,7 C 3,9 C 85 % 1030,5 hPa 0,0 l/m 20,9 km/h (4 Bft) W-SW 247 0 min 0,000 mm 0,0 UV-I 0 W/m 4,4 C -1,3 C 30,6 km/h (5 Bft) 95,65 %
23.12.2017 23:43 6,7 C 3,9 C 85 % 1030,5 hPa 0,0 l/m 19,3 km/h (3 Bft) W-SW 247 0 min 0,000 mm 0,0 UV-I 0 W/m 4,4 C -0,7 C 29,0 km/h (5 Bft) 91,30 %
23.12.2017 23:44 6,7 C 3,9 C 84 % 1030,5 hPa 0,0 l/m 20,9 km/h (4 Bft) W-SW 247 0 min 0,000 mm 0,0 UV-I 0 W/m 4,2 C -1,3 C 27,4 km/h (4 Bft) 95,65 %
23.12.2017 23:45 6,7 C 3,9 C 84 % 1030,5 hPa 0,0 l/m 16,1 km/h (3 Bft) SW 225 0 min 0,000 mm 0,0 UV-I 0 W/m 4,2 C 0,6 C 24,1 km/h (4 Bft) 95,65 %
23.12.2017 23:46 6,7 C 3,9 C 84 % 1030,5 hPa 0,0 l/m 14,5 km/h (3 Bft) W-SW 247 0 min 0,000 mm 0,0 UV-I 0 W/m 4,2 C 1,4 C 22,5 km/h (4 Bft) 95,65 %
23.12.2017 23:47 6,7 C 3,9 C 84 % 1030,5 hPa 0,0 l/m 20,9 km/h (4 Bft) W-SW 247 0 min 0,000 mm 0,0 UV-I 0 W/m 4,2 C -1,3 C 25,7 km/h (4 Bft) 100,00 %
23.12.2017 23:48 6,7 C 3,9 C 84 % 1030,5 hPa 0,0 l/m 25,7 km/h (4 Bft) W-SW 247 0 min 0,000 mm 0,0 UV-I 0 W/m 4,2 C -2,8 C 35,4 km/h (5 Bft) 91,30 %
23.12.2017 23:49 6,7 C 3,9 C 84 % 1030,4 hPa 0,0 l/m 19,3 km/h (3 Bft) W-SW 247 0 min 0,000 mm 0,0 UV-I 0 W/m 4,2 C -0,7 C 29,0 km/h (5 Bft) 100,00 %
23.12.2017 23:50 6,7 C 3,9 C 84 % 1030,4 hPa 0,0 l/m 20,9 km/h (4 Bft) W-SW 247 0 min 0,000 mm 0,0 UV-I 0 W/m 4,2 C -1,3 C 30,6 km/h (5 Bft) 95,65 %
23.12.2017 23:51 6,7 C 3,9 C 84 % 1030,4 hPa 0,0 l/m 19,3 km/h (3 Bft) W-SW 247 0 min 0,000 mm 0,0 UV-I 0 W/m 4,2 C -0,7 C 24,1 km/h (4 Bft) 95,65 %
23.12.2017 23:52 6,7 C 3,9 C 84 % 1030,3 hPa 0,0 l/m 19,3 km/h (3 Bft) W-SW 247 0 min 0,000 mm 0,0 UV-I 0 W/m 4,2 C -0,7 C 30,6 km/h (5 Bft) 100,00 %
23.12.2017 23:53 6,7 C 3,9 C 84 % 1030,4 hPa 0,0 l/m 17,7 km/h (3 Bft) W-SW 247 0 min 0,000 mm 0,0 UV-I 0 W/m 4,2 C -0,1 C 24,1 km/h (4 Bft) 100,00 %
23.12.2017 23:54 6,7 C 3,9 C 84 % 1030,3 hPa 0,0 l/m 24,1 km/h (4 Bft) W-SW 247 0 min 0,000 mm 0,0 UV-I 0 W/m 4,2 C -2,4 C 33,8 km/h (5 Bft) 100,00 %
23.12.2017 23:55 6,7 C 3,9 C 84 % 1030,3 hPa 0,0 l/m 24,1 km/h (4 Bft) W-SW 247 0 min 0,000 mm 0,0 UV-I 0 W/m 4,2 C -2,4 C 30,6 km/h (5 Bft) 100,00 %
23.12.2017 23:56 6,7 C 3,9 C 84 % 1030,4 hPa 0,0 l/m 22,5 km/h (4 Bft) W-SW 247 0 min 0,000 mm 0,0 UV-I 0 W/m 4,2 C -1,9 C 33,8 km/h (5 Bft) 100,00 %
23.12.2017 23:57 6,7 C 3,9 C 84 % 1030,3 hPa 0,0 l/m 22,5 km/h (4 Bft) W-SW 247 0 min 0,000 mm 0,0 UV-I 0 W/m 4,2 C -1,9 C 29,0 km/h (5 Bft) 100,00 %
23.12.2017 23:58 6,7 C 3,9 C 84 % 1030,3 hPa 0,0 l/m 22,5 km/h (4 Bft) W-SW 247 0 min 0,000 mm 0,0 UV-I 0 W/m 4,2 C -1,9 C 32,2 km/h (5 Bft) 95,65 %
23.12.2017 23:59 6,7 C 3,9 C 84 % 1030,3 hPa 0,0 l/m 20,9 km/h (4 Bft) W-SW 247 0 min 0,000 mm 0,0 UV-I 0 W/m 4,2 C -1,3 C 30,6 km/h (5 Bft) 100,00 %
_ Min-Zeit 02:07 00:00 15:52 18:43 - 00:40 - - - - - - 05:14 21:26 00:03 22:33
Minimum _ 4,9 C 3,9 C 80 % 1030,1 hPa - 3,2 km/h (1 Bft) - - - - - - 3,8 C -3,6 C 4,8 km/h (1 Bft) 13,04 %
_ Max-Zeit 12:49 00:00 00:00 00:09 00:00 19:35 - - 12:42 13:00 12:48 12:48 12:31 11:03 18:42 00:00
Maximum _ 7,9 C 3,9 C 95 % 1033,5 hPa 0,0 l/m 30,6 km/h
SW (5 Bft)
- - 1 min 0,076 mm 0,5 UV-I 218 W/m 5,7 C 7,0 C 45,1 km/h
W-SW (6 Bft)
100,00 %
Durchschnitt _ 6,5 C 3,9 C 88 % 1031,6 hPa #0,0 l/m 15,6 km/h (3 Bft) W-SW - #14 min. #0,607 mm 0,5 UV-I 52 W/m 4,6 C 1,1 C 22,1 km/h (4 Bft) 97,08 %